<?xml version="1.0" encoding="UTF-8" standalone="no" ?>
<gpx xmlns="http://www.topografix.com/GPX/1/1" xmlns:xsi="http://www.w3.org/2001/XMLSchema-instance" xsi:schemaLocation="http://www.topografix.com/GPX/1/1 http://www.topografix.com/GPX/1/1/gpx.xsd" version="1.1" creator="VisuGPX - https://www.visugpx.com">
  <metadata>
    <name>2017-12-22 Bike ride-Amberieux-Savigneux O 33</name>
    <desc><![CDATA[2017-12-22 Bike ride-Amberieux-Savigneux O 33]]></desc>
  </metadata>
  <wpt lat="45.92453" lon="4.73702">
    <ele>174</ele>
    <name><![CDATA[2017-12-22 10:47 (Start)]]></name>
  </wpt>
  <wpt lat="45.92466" lon="4.73712">
    <ele>174</ele>
    <name><![CDATA[2017-12-22 10:47 (End)]]></name>
    <desc><![CDATA[Created by Google My Tracks on Android  Name: 2017-12-22 10:47 Activity type: biking Description: - Total distance: 32.91 km (20.5 mi) Total time: 1:51:41 Moving time: 1:39:48 Average speed: 17.68 km/h (11.0 mi/h) Average moving speed: 19.79 km/h (12.3 mi/h) Max speed: 41.11 km/h (25.5 mi/h) Average pace: 3:24 min/km (5:28 min/mi) Average moving pace: 3:02 min/km (4:53 min/mi) Fastest pace: 1:28 min/km (2:21 min/mi) Max elevation: 338 m (1110 ft) Min elevation: 206 m (676 ft) Elevation gain: 400 m (1311 ft) Max grade: 34 % Min grade: -25 % Recorded: 22/12/2017 10:47]]></desc>
  </wpt>
  <trk>
    <name><![CDATA[2017-12-22 10:47]]></name>
    <trkseg>
      <trkpt lat="45.92453" lon="4.73702">
        <ele>174</ele>
        <time>2017-12-22T09:47:26.837Z</time>
      </trkpt>
      <trkpt lat="45.92458" lon="4.73702">
        <ele>174</ele>
        <time>2017-12-22T09:47:27.671Z</time>
      </trkpt>
      <trkpt lat="45.92462" lon="4.73709">
        <ele>174</ele>
        <time>2017-12-22T09:47:28.671Z</time>
      </trkpt>
      <trkpt lat="45.92468" lon="4.73707">
        <ele>174</ele>
        <time>2017-12-22T09:47:29.671Z</time>
      </trkpt>
      <trkpt lat="45.92465" lon="4.73705">
        <ele>174</ele>
        <time>2017-12-22T09:47:30.671Z</time>
      </trkpt>
      <trkpt lat="45.92463" lon="4.73708">
        <ele>174</ele>
        <time>2017-12-22T09:47:31.671Z</time>
      </trkpt>
      <trkpt lat="45.92463" lon="4.73714">
        <ele>174</ele>
        <time>2017-12-22T09:47:37Z</time>
      </trkpt>
      <trkpt lat="45.92464" lon="4.73714">
        <ele>174</ele>
        <time>2017-12-22T09:47:38Z</time>
      </trkpt>
      <trkpt lat="45.92464" lon="4.73715">
        <ele>174</ele>
        <time>2017-12-22T09:47:40Z</time>
      </trkpt>
      <trkpt lat="45.92465" lon="4.73715">
        <ele>174</ele>
        <time>2017-12-22T09:47:41Z</time>
      </trkpt>
      <trkpt lat="45.92464" lon="4.73711">
        <ele>174</ele>
        <time>2017-12-22T09:47:54Z</time>
      </trkpt>
      <trkpt lat="45.92464" lon="4.73711">
        <ele>174</ele>
        <time>2017-12-22T09:47:55Z</time>
      </trkpt>
      <trkpt lat="45.92464" lon="4.7371">
        <ele>174</ele>
        <time>2017-12-22T09:47:56Z</time>
      </trkpt>
      <trkpt lat="45.92471" lon="4.73702">
        <ele>174</ele>
        <time>2017-12-22T09:48:01Z</time>
      </trkpt>
      <trkpt lat="45.92471" lon="4.73699">
        <ele>174</ele>
        <time>2017-12-22T09:48:02Z</time>
      </trkpt>
      <trkpt lat="45.92471" lon="4.73689">
        <ele>174</ele>
        <time>2017-12-22T09:48:05Z</time>
      </trkpt>
      <trkpt lat="45.92471" lon="4.73685">
        <ele>174</ele>
        <time>2017-12-22T09:48:06Z</time>
      </trkpt>
      <trkpt lat="45.92471" lon="4.73673">
        <ele>174</ele>
        <time>2017-12-22T09:48:09Z</time>
      </trkpt>
      <trkpt lat="45.92471" lon="4.7367">
        <ele>174</ele>
        <time>2017-12-22T09:48:10Z</time>
      </trkpt>
      <trkpt lat="45.92472" lon="4.73661">
        <ele>174</ele>
        <time>2017-12-22T09:48:12Z</time>
      </trkpt>
      <trkpt lat="45.92472" lon="4.73656">
        <ele>174</ele>
        <time>2017-12-22T09:48:13Z</time>
      </trkpt>
      <trkpt lat="45.92475" lon="4.73645">
        <ele>174</ele>
        <time>2017-12-22T09:48:16Z</time>
      </trkpt>
      <trkpt lat="45.92477" lon="4.73642">
        <ele>174</ele>
        <time>2017-12-22T09:48:17Z</time>
      </trkpt>
      <trkpt lat="45.92484" lon="4.73639">
        <ele>174</ele>
        <time>2017-12-22T09:48:19Z</time>
      </trkpt>
      <trkpt lat="45.92488" lon="4.73638">
        <ele>174</ele>
        <time>2017-12-22T09:48:20Z</time>
      </trkpt>
      <trkpt lat="45.92494" lon="4.73639">
        <ele>174</ele>
        <time>2017-12-22T09:48:21Z</time>
      </trkpt>
      <trkpt lat="45.92498" lon="4.73639">
        <ele>174</ele>
        <time>2017-12-22T09:48:22Z</time>
      </trkpt>
      <trkpt lat="45.92506" lon="4.73639">
        <ele>174</ele>
        <time>2017-12-22T09:48:24Z</time>
      </trkpt>
      <trkpt lat="45.9251" lon="4.7364">
        <ele>174</ele>
        <time>2017-12-22T09:48:25Z</time>
      </trkpt>
      <trkpt lat="45.92519" lon="4.7364">
        <ele>173</ele>
        <time>2017-12-22T09:48:27Z</time>
      </trkpt>
      <trkpt lat="45.92525" lon="4.73637">
        <ele>173</ele>
        <time>2017-12-22T09:48:28Z</time>
      </trkpt>
      <trkpt lat="45.92529" lon="4.73637">
        <ele>173</ele>
        <time>2017-12-22T09:48:29Z</time>
      </trkpt>
      <trkpt lat="45.92534" lon="4.73637">
        <ele>173</ele>
        <time>2017-12-22T09:48:30Z</time>
      </trkpt>
      <trkpt lat="45.92538" lon="4.73635">
        <ele>173</ele>
        <time>2017-12-22T09:48:31Z</time>
      </trkpt>
      <trkpt lat="45.92543" lon="4.73635">
        <ele>173</ele>
        <time>2017-12-22T09:48:32Z</time>
      </trkpt>
      <trkpt lat="45.92548" lon="4.73633">
        <ele>173</ele>
        <time>2017-12-22T09:48:33Z</time>
      </trkpt>
      <trkpt lat="45.92553" lon="4.73632">
        <ele>173</ele>
        <time>2017-12-22T09:48:34Z</time>
      </trkpt>
      <trkpt lat="45.92558" lon="4.7363">
        <ele>173</ele>
        <time>2017-12-22T09:48:35Z</time>
      </trkpt>
      <trkpt lat="45.92563" lon="4.73629">
        <ele>173</ele>
        <time>2017-12-22T09:48:36Z</time>
      </trkpt>
      <trkpt lat="45.92572" lon="4.73628">
        <ele>173</ele>
        <time>2017-12-22T09:48:38Z</time>
      </trkpt>
      <trkpt lat="45.92577" lon="4.73627">
        <ele>173</ele>
        <time>2017-12-22T09:48:39Z</time>
      </trkpt>
      <trkpt lat="45.92585" lon="4.73622">
        <ele>173</ele>
        <time>2017-12-22T09:48:41Z</time>
      </trkpt>
      <trkpt lat="45.92589" lon="4.73623">
        <ele>173</ele>
        <time>2017-12-22T09:48:42Z</time>
      </trkpt>
      <trkpt lat="45.92595" lon="4.73621">
        <ele>173</ele>
        <time>2017-12-22T09:48:43Z</time>
      </trkpt>
      <trkpt lat="45.92598" lon="4.73621">
        <ele>173</ele>
        <time>2017-12-22T09:48:44Z</time>
      </trkpt>
      <trkpt lat="45.92602" lon="4.73621">
        <ele>173</ele>
        <time>2017-12-22T09:48:45Z</time>
      </trkpt>
      <trkpt lat="45.92609" lon="4.73621">
        <ele>173</ele>
        <time>2017-12-22T09:48:46Z</time>
      </trkpt>
      <trkpt lat="45.92616" lon="4.73623">
        <ele>173</ele>
        <time>2017-12-22T09:48:47Z</time>
      </trkpt>
      <trkpt lat="45.92619" lon="4.73629">
        <ele>173</ele>
        <time>2017-12-22T09:48:48Z</time>
      </trkpt>
      <trkpt lat="45.92624" lon="4.73633">
        <ele>173</ele>
        <time>2017-12-22T09:48:49Z</time>
      </trkpt>
      <trkpt lat="45.92627" lon="4.73639">
        <ele>173</ele>
        <time>2017-12-22T09:48:50Z</time>
      </trkpt>
      <trkpt lat="45.92629" lon="4.73645">
        <ele>173</ele>
        <time>2017-12-22T09:48:51Z</time>
      </trkpt>
      <trkpt lat="45.92631" lon="4.73651">
        <ele>173</ele>
        <time>2017-12-22T09:48:52Z</time>
      </trkpt>
      <trkpt lat="45.92634" lon="4.73657">
        <ele>173</ele>
        <time>2017-12-22T09:48:53Z</time>
      </trkpt>
      <trkpt lat="45.92637" lon="4.73662">
        <ele>173</ele>
        <time>2017-12-22T09:48:54Z</time>
      </trkpt>
      <trkpt lat="45.92641" lon="4.73668">
        <ele>173</ele>
        <time>2017-12-22T09:48:55Z</time>
      </trkpt>
      <trkpt lat="45.92644" lon="4.73673">
        <ele>173</ele>
        <time>2017-12-22T09:48:56Z</time>
      </trkpt>
      <trkpt lat="45.92648" lon="4.73679">
        <ele>173</ele>
        <time>2017-12-22T09:48:57Z</time>
      </trkpt>
      <trkpt lat="45.92651" lon="4.73685">
        <ele>173</ele>
        <time>2017-12-22T09:48:58Z</time>
      </trkpt>
      <trkpt lat="45.92656" lon="4.73688">
        <ele>173</ele>
        <time>2017-12-22T09:48:59Z</time>
      </trkpt>
      <trkpt lat="45.9266" lon="4.73693">
        <ele>173</ele>
        <time>2017-12-22T09:49:00Z</time>
      </trkpt>
      <trkpt lat="45.92665" lon="4.73696">
        <ele>173</ele>
        <time>2017-12-22T09:49:01Z</time>
      </trkpt>
      <trkpt lat="45.9267" lon="4.73698">
        <ele>174</ele>
        <time>2017-12-22T09:49:02Z</time>
      </trkpt>
      <trkpt lat="45.92674" lon="4.73702">
        <ele>174</ele>
        <time>2017-12-22T09:49:03Z</time>
      </trkpt>
      <trkpt lat="45.92679" lon="4.73705">
        <ele>173</ele>
        <time>2017-12-22T09:49:04Z</time>
      </trkpt>
      <trkpt lat="45.92685" lon="4.73706">
        <ele>173</ele>
        <time>2017-12-22T09:49:05Z</time>
      </trkpt>
      <trkpt lat="45.92691" lon="4.73708">
        <ele>173</ele>
        <time>2017-12-22T09:49:06Z</time>
      </trkpt>
      <trkpt lat="45.92696" lon="4.7371">
        <ele>173</ele>
        <time>2017-12-22T09:49:07Z</time>
      </trkpt>
      <trkpt lat="45.92702" lon="4.73711">
        <ele>173</ele>
        <time>2017-12-22T09:49:08Z</time>
      </trkpt>
      <trkpt lat="45.92708" lon="4.73714">
        <ele>173</ele>
        <time>2017-12-22T09:49:09Z</time>
      </trkpt>
      <trkpt lat="45.92713" lon="4.73715">
        <ele>173</ele>
        <time>2017-12-22T09:49:10Z</time>
      </trkpt>
      <trkpt lat="45.92718" lon="4.73717">
        <ele>173</ele>
        <time>2017-12-22T09:49:11Z</time>
      </trkpt>
      <trkpt lat="45.92724" lon="4.73717">
        <ele>173</ele>
        <time>2017-12-22T09:49:12Z</time>
      </trkpt>
      <trkpt lat="45.9273" lon="4.73719">
        <ele>173</ele>
        <time>2017-12-22T09:49:13Z</time>
      </trkpt>
      <trkpt lat="45.92736" lon="4.7372">
        <ele>173</ele>
        <time>2017-12-22T09:49:14Z</time>
      </trkpt>
      <trkpt lat="45.92741" lon="4.73721">
        <ele>173</ele>
        <time>2017-12-22T09:49:15Z</time>
      </trkpt>
      <trkpt lat="45.92746" lon="4.73723">
        <ele>173</ele>
        <time>2017-12-22T09:49:16Z</time>
      </trkpt>
      <trkpt lat="45.92752" lon="4.73724">
        <ele>172</ele>
        <time>2017-12-22T09:49:17Z</time>
      </trkpt>
      <trkpt lat="45.92756" lon="4.73725">
        <ele>172</ele>
        <time>2017-12-22T09:49:18Z</time>
      </trkpt>
      <trkpt lat="45.92761" lon="4.73727">
        <ele>172</ele>
        <time>2017-12-22T09:49:19Z</time>
      </trkpt>
      <trkpt lat="45.92766" lon="4.73728">
        <ele>172</ele>
        <time>2017-12-22T09:49:20Z</time>
      </trkpt>
      <trkpt lat="45.92773" lon="4.73732">
        <ele>172</ele>
        <time>2017-12-22T09:49:22Z</time>
      </trkpt>
      <trkpt lat="45.92777" lon="4.73732">
        <ele>172</ele>
        <time>2017-12-22T09:49:23Z</time>
      </trkpt>
      <trkpt lat="45.92784" lon="4.73736">
        <ele>172</ele>
        <time>2017-12-22T09:49:25Z</time>
      </trkpt>
      <trkpt lat="45.92785" lon="4.73739">
        <ele>172</ele>
        <time>2017-12-22T09:49:26Z</time>
      </trkpt>
      <trkpt lat="45.92789" lon="4.73745">
        <ele>172</ele>
        <time>2017-12-22T09:49:28Z</time>
      </trkpt>
      <trkpt lat="45.92792" lon="4.73748">
        <ele>172</ele>
        <time>2017-12-22T09:49:29Z</time>
      </trkpt>
      <trkpt lat="45.92799" lon="4.73756">
        <ele>173</ele>
        <time>2017-12-22T09:49:31Z</time>
      </trkpt>
      <trkpt lat="45.92803" lon="4.73758">
        <ele>173</ele>
        <time>2017-12-22T09:49:32Z</time>
      </trkpt>
      <trkpt lat="45.92808" lon="4.7376">
        <ele>173</ele>
        <time>2017-12-22T09:49:33Z</time>
      </trkpt>
      <trkpt lat="45.92812" lon="4.73762">
        <ele>173</ele>
        <time>2017-12-22T09:49:34Z</time>
      </trkpt>
      <trkpt lat="45.92817" lon="4.73765">
        <ele>173</ele>
        <time>2017-12-22T09:49:35Z</time>
      </trkpt>
      <trkpt lat="45.92822" lon="4.73768">
        <ele>173</ele>
        <time>2017-12-22T09:49:36Z</time>
      </trkpt>
      <trkpt lat="45.92828" lon="4.73771">
        <ele>173</ele>
        <time>2017-12-22T09:49:37Z</time>
      </trkpt>
      <trkpt lat="45.92832" lon="4.73775">
        <ele>173</ele>
        <time>2017-12-22T09:49:38Z</time>
      </trkpt>
      <trkpt lat="45.92837" lon="4.73778">
        <ele>172</ele>
        <time>2017-12-22T09:49:39Z</time>
      </trkpt>
      <trkpt lat="45.92842" lon="4.73782">
        <ele>173</ele>
        <time>2017-12-22T09:49:40Z</time>
      </trkpt>
      <trkpt lat="45.92847" lon="4.73787">
        <ele>173</ele>
        <time>2017-12-22T09:49:41Z</time>
      </trkpt>
      <trkpt lat="45.92851" lon="4.73792">
        <ele>173</ele>
        <time>2017-12-22T09:49:42Z</time>
      </trkpt>
      <trkpt lat="45.92855" lon="4.73796">
        <ele>173</ele>
        <time>2017-12-22T09:49:43Z</time>
      </trkpt>
      <trkpt lat="45.92857" lon="4.73803">
        <ele>173</ele>
        <time>2017-12-22T09:49:44Z</time>
      </trkpt>
      <trkpt lat="45.9286" lon="4.73811">
        <ele>173</ele>
        <time>2017-12-22T09:49:45Z</time>
      </trkpt>
      <trkpt lat="45.92862" lon="4.73818">
        <ele>173</ele>
        <time>2017-12-22T09:49:46Z</time>
      </trkpt>
      <trkpt lat="45.92864" lon="4.73825">
        <ele>173</ele>
        <time>2017-12-22T09:49:47Z</time>
      </trkpt>
      <trkpt lat="45.92866" lon="4.73832">
        <ele>173</ele>
        <time>2017-12-22T09:49:48Z</time>
      </trkpt>
      <trkpt lat="45.92867" lon="4.73838">
        <ele>173</ele>
        <time>2017-12-22T09:49:49Z</time>
      </trkpt>
      <trkpt lat="45.92869" lon="4.73844">
        <ele>173</ele>
        <time>2017-12-22T09:49:50Z</time>
      </trkpt>
      <trkpt lat="45.92871" lon="4.73851">
        <ele>173</ele>
        <time>2017-12-22T09:49:51Z</time>
      </trkpt>
      <trkpt lat="45.92872" lon="4.73858">
        <ele>173</ele>
        <time>2017-12-22T09:49:52Z</time>
      </trkpt>
      <trkpt lat="45.92875" lon="4.73865">
        <ele>173</ele>
        <time>2017-12-22T09:49:53Z</time>
      </trkpt>
      <trkpt lat="45.92877" lon="4.73871">
        <ele>173</ele>
        <time>2017-12-22T09:49:54Z</time>
      </trkpt>
      <trkpt lat="45.92879" lon="4.73878">
        <ele>173</ele>
        <time>2017-12-22T09:49:55Z</time>
      </trkpt>
      <trkpt lat="45.92882" lon="4.73886">
        <ele>173</ele>
        <time>2017-12-22T09:49:56Z</time>
      </trkpt>
      <trkpt lat="45.92883" lon="4.73893">
        <ele>173</ele>
        <time>2017-12-22T09:49:57Z</time>
      </trkpt>
      <trkpt lat="45.92883" lon="4.73901">
        <ele>173</ele>
        <time>2017-12-22T09:49:58Z</time>
      </trkpt>
      <trkpt lat="45.92884" lon="4.73908">
        <ele>173</ele>
        <time>2017-12-22T09:49:59Z</time>
      </trkpt>
      <trkpt lat="45.92886" lon="4.73916">
        <ele>173</ele>
        <time>2017-12-22T09:50:00Z</time>
      </trkpt>
      <trkpt lat="45.92885" lon="4.73926">
        <ele>172</ele>
        <time>2017-12-22T09:50:01Z</time>
      </trkpt>
      <trkpt lat="45.92886" lon="4.73933">
        <ele>172</ele>
        <time>2017-12-22T09:50:02Z</time>
      </trkpt>
      <trkpt lat="45.92887" lon="4.7394">
        <ele>172</ele>
        <time>2017-12-22T09:50:03Z</time>
      </trkpt>
      <trkpt lat="45.92887" lon="4.73947">
        <ele>172</ele>
        <time>2017-12-22T09:50:04Z</time>
      </trkpt>
      <trkpt lat="45.92887" lon="4.73955">
        <ele>172</ele>
        <time>2017-12-22T09:50:05Z</time>
      </trkpt>
      <trkpt lat="45.92885" lon="4.73964">
        <ele>172</ele>
        <time>2017-12-22T09:50:06Z</time>
      </trkpt>
      <trkpt lat="45.92884" lon="4.73972">
        <ele>172</ele>
        <time>2017-12-22T09:50:07Z</time>
      </trkpt>
      <trkpt lat="45.92883" lon="4.73979">
        <ele>172</ele>
        <time>2017-12-22T09:50:08Z</time>
      </trkpt>
      <trkpt lat="45.92881" lon="4.73986">
        <ele>172</ele>
        <time>2017-12-22T09:50:09Z</time>
      </trkpt>
      <trkpt lat="45.92878" lon="4.73993">
        <ele>172</ele>
        <time>2017-12-22T09:50:10Z</time>
      </trkpt>
      <trkpt lat="45.92876" lon="4.73999">
        <ele>172</ele>
        <time>2017-12-22T09:50:11Z</time>
      </trkpt>
      <trkpt lat="45.92874" lon="4.74007">
        <ele>172</ele>
        <time>2017-12-22T09:50:12Z</time>
      </trkpt>
      <trkpt lat="45.92874" lon="4.74014">
        <ele>172</ele>
        <time>2017-12-22T09:50:13Z</time>
      </trkpt>
      <trkpt lat="45.92873" lon="4.74021">
        <ele>172</ele>
        <time>2017-12-22T09:50:14Z</time>
      </trkpt>
      <trkpt lat="45.92872" lon="4.74029">
        <ele>172</ele>
        <time>2017-12-22T09:50:15Z</time>
      </trkpt>
      <trkpt lat="45.92869" lon="4.74035">
        <ele>172</ele>
        <time>2017-12-22T09:50:16Z</time>
      </trkpt>
      <trkpt lat="45.92867" lon="4.74043">
        <ele>172</ele>
        <time>2017-12-22T09:50:17Z</time>
      </trkpt>
      <trkpt lat="45.92862" lon="4.74048">
        <ele>172</ele>
        <time>2017-12-22T09:50:18Z</time>
      </trkpt>
      <trkpt lat="45.92857" lon="4.74054">
        <ele>172</ele>
        <time>2017-12-22T09:50:19Z</time>
      </trkpt>
      <trkpt lat="45.92853" lon="4.74059">
        <ele>172</ele>
        <time>2017-12-22T09:50:20Z</time>
      </trkpt>
      <trkpt lat="45.92849" lon="4.74064">
        <ele>172</ele>
        <time>2017-12-22T09:50:21Z</time>
      </trkpt>
      <trkpt lat="45.92845" lon="4.7407">
        <ele>172</ele>
        <time>2017-12-22T09:50:22Z</time>
      </trkpt>
      <trkpt lat="45.92841" lon="4.74076">
        <ele>171</ele>
        <time>2017-12-22T09:50:23Z</time>
      </trkpt>
      <trkpt lat="45.92837" lon="4.74081">
        <ele>171</ele>
        <time>2017-12-22T09:50:24Z</time>
      </trkpt>
      <trkpt lat="45.92833" lon="4.74087">
        <ele>171</ele>
        <time>2017-12-22T09:50:25Z</time>
      </trkpt>
      <trkpt lat="45.92829" lon="4.74092">
        <ele>171</ele>
        <time>2017-12-22T09:50:26Z</time>
      </trkpt>
      <trkpt lat="45.92824" lon="4.74097">
        <ele>171</ele>
        <time>2017-12-22T09:50:27Z</time>
      </trkpt>
      <trkpt lat="45.92818" lon="4.74102">
        <ele>171</ele>
        <time>2017-12-22T09:50:28Z</time>
      </trkpt>
      <trkpt lat="45.92814" lon="4.74108">
        <ele>172</ele>
        <time>2017-12-22T09:50:29Z</time>
      </trkpt>
      <trkpt lat="45.92809" lon="4.74113">
        <ele>172</ele>
        <time>2017-12-22T09:50:30Z</time>
      </trkpt>
      <trkpt lat="45.92805" lon="4.74118">
        <ele>172</ele>
        <time>2017-12-22T09:50:31Z</time>
      </trkpt>
      <trkpt lat="45.928" lon="4.74123">
        <ele>172</ele>
        <time>2017-12-22T09:50:32Z</time>
      </trkpt>
      <trkpt lat="45.92795" lon="4.74128">
        <ele>172</ele>
        <time>2017-12-22T09:50:33Z</time>
      </trkpt>
      <trkpt lat="45.92791" lon="4.74132">
        <ele>172</ele>
        <time>2017-12-22T09:50:34Z</time>
      </trkpt>
      <trkpt lat="45.92786" lon="4.74137">
        <ele>172</ele>
        <time>2017-12-22T09:50:35Z</time>
      </trkpt>
      <trkpt lat="45.92781" lon="4.74142">
        <ele>172</ele>
        <time>2017-12-22T09:50:36Z</time>
      </trkpt>
      <trkpt lat="45.92777" lon="4.74147">
        <ele>172</ele>
        <time>2017-12-22T09:50:37Z</time>
      </trkpt>
      <trkpt lat="45.92772" lon="4.74152">
        <ele>172</ele>
        <time>2017-12-22T09:50:38Z</time>
      </trkpt>
      <trkpt lat="45.92767" lon="4.74156">
        <ele>172</ele>
        <time>2017-12-22T09:50:39Z</time>
      </trkpt>
      <trkpt lat="45.92763" lon="4.74161">
        <ele>172</ele>
        <time>2017-12-22T09:50:40Z</time>
      </trkpt>
      <trkpt lat="45.92758" lon="4.74166">
        <ele>172</ele>
        <time>2017-12-22T09:50:41Z</time>
      </trkpt>
      <trkpt lat="45.92753" lon="4.74171">
        <ele>172</ele>
        <time>2017-12-22T09:50:42Z</time>
      </trkpt>
      <trkpt lat="45.92748" lon="4.74176">
        <ele>172</ele>
        <time>2017-12-22T09:50:43Z</time>
      </trkpt>
      <trkpt lat="45.92743" lon="4.74182">
        <ele>172</ele>
        <time>2017-12-22T09:50:44Z</time>
      </trkpt>
      <trkpt lat="45.92739" lon="4.74188">
        <ele>172</ele>
        <time>2017-12-22T09:50:45Z</time>
      </trkpt>
      <trkpt lat="45.92734" lon="4.74192">
        <ele>171</ele>
        <time>2017-12-22T09:50:46Z</time>
      </trkpt>
      <trkpt lat="45.9273" lon="4.74197">
        <ele>171</ele>
        <time>2017-12-22T09:50:47Z</time>
      </trkpt>
      <trkpt lat="45.92725" lon="4.74202">
        <ele>171</ele>
        <time>2017-12-22T09:50:48Z</time>
      </trkpt>
      <trkpt lat="45.92721" lon="4.74207">
        <ele>171</ele>
        <time>2017-12-22T09:50:49Z</time>
      </trkpt>
      <trkpt lat="45.92717" lon="4.74214">
        <ele>171</ele>
        <time>2017-12-22T09:50:50Z</time>
      </trkpt>
      <trkpt lat="45.92712" lon="4.74219">
        <ele>171</ele>
        <time>2017-12-22T09:50:51Z</time>
      </trkpt>
      <trkpt lat="45.92709" lon="4.74224">
        <ele>171</ele>
        <time>2017-12-22T09:50:52Z</time>
      </trkpt>
      <trkpt lat="45.92706" lon="4.74229">
        <ele>171</ele>
        <time>2017-12-22T09:50:53Z</time>
      </trkpt>
      <trkpt lat="45.92702" lon="4.74236">
        <ele>171</ele>
        <time>2017-12-22T09:50:54Z</time>
      </trkpt>
      <trkpt lat="45.92699" lon="4.74243">
        <ele>171</ele>
        <time>2017-12-22T09:50:55Z</time>
      </trkpt>
      <trkpt lat="45.92695" lon="4.7425">
        <ele>171</ele>
        <time>2017-12-22T09:50:56Z</time>
      </trkpt>
      <trkpt lat="45.92692" lon="4.74257">
        <ele>171</ele>
        <time>2017-12-22T09:50:57Z</time>
      </trkpt>
      <trkpt lat="45.92688" lon="4.74263">
        <ele>171</ele>
        <time>2017-12-22T09:50:58Z</time>
      </trkpt>
      <trkpt lat="45.92684" lon="4.7427">
        <ele>171</ele>
        <time>2017-12-22T09:50:59Z</time>
      </trkpt>
      <trkpt lat="45.9268" lon="4.74277">
        <ele>171</ele>
        <time>2017-12-22T09:51:00Z</time>
      </trkpt>
      <trkpt lat="45.92677" lon="4.74284">
        <ele>171</ele>
        <time>2017-12-22T09:51:01Z</time>
      </trkpt>
      <trkpt lat="45.92673" lon="4.74291">
        <ele>171</ele>
        <time>2017-12-22T09:51:02Z</time>
      </trkpt>
      <trkpt lat="45.92669" lon="4.74298">
        <ele>171</ele>
        <time>2017-12-22T09:51:03Z</time>
      </trkpt>
      <trkpt lat="45.92665" lon="4.74304">
        <ele>171</ele>
        <time>2017-12-22T09:51:04Z</time>
      </trkpt>
      <trkpt lat="45.92662" lon="4.74311">
        <ele>171</ele>
        <time>2017-12-22T09:51:05Z</time>
      </trkpt>
      <trkpt lat="45.92659" lon="4.74317">
        <ele>171</ele>
        <time>2017-12-22T09:51:06Z</time>
      </trkpt>
      <trkpt lat="45.92655" lon="4.74324">
        <ele>171</ele>
        <time>2017-12-22T09:51:07Z</time>
      </trkpt>
      <trkpt lat="45.92652" lon="4.74332">
        <ele>171</ele>
        <time>2017-12-22T09:51:08Z</time>
      </trkpt>
      <trkpt lat="45.92648" lon="4.74338">
        <ele>171</ele>
        <time>2017-12-22T09:51:09Z</time>
      </trkpt>
      <trkpt lat="45.92645" lon="4.74345">
        <ele>171</ele>
        <time>2017-12-22T09:51:10Z</time>
      </trkpt>
      <trkpt lat="45.92641" lon="4.74352">
        <ele>171</ele>
        <time>2017-12-22T09:51:11Z</time>
      </trkpt>
      <trkpt lat="45.92637" lon="4.7436">
        <ele>171</ele>
        <time>2017-12-22T09:51:12Z</time>
      </trkpt>
      <trkpt lat="45.92633" lon="4.74365">
        <ele>171</ele>
        <time>2017-12-22T09:51:13Z</time>
      </trkpt>
      <trkpt lat="45.9263" lon="4.74372">
        <ele>171</ele>
        <time>2017-12-22T09:51:14Z</time>
      </trkpt>
      <trkpt lat="45.92627" lon="4.74378">
        <ele>170</ele>
        <time>2017-12-22T09:51:15Z</time>
      </trkpt>
      <trkpt lat="45.92624" lon="4.74384">
        <ele>170</ele>
        <time>2017-12-22T09:51:16Z</time>
      </trkpt>
      <trkpt lat="45.9262" lon="4.74391">
        <ele>170</ele>
        <time>2017-12-22T09:51:17Z</time>
      </trkpt>
      <trkpt lat="45.92616" lon="4.74398">
        <ele>170</ele>
        <time>2017-12-22T09:51:18Z</time>
      </trkpt>
      <trkpt lat="45.92612" lon="4.74404">
        <ele>170</ele>
        <time>2017-12-22T09:51:19Z</time>
      </trkpt>
      <trkpt lat="45.92609" lon="4.74412">
        <ele>170</ele>
        <time>2017-12-22T09:51:20Z</time>
      </trkpt>
      <trkpt lat="45.92605" lon="4.74419">
        <ele>170</ele>
        <time>2017-12-22T09:51:21Z</time>
      </trkpt>
      <trkpt lat="45.92601" lon="4.74426">
        <ele>170</ele>
        <time>2017-12-22T09:51:22Z</time>
      </trkpt>
      <trkpt lat="45.92597" lon="4.74433">
        <ele>170</ele>
        <time>2017-12-22T09:51:23Z</time>
      </trkpt>
      <trkpt lat="45.92594" lon="4.74438">
        <ele>170</ele>
        <time>2017-12-22T09:51:24Z</time>
      </trkpt>
      <trkpt lat="45.9259" lon="4.74445">
        <ele>170</ele>
        <time>2017-12-22T09:51:25Z</time>
      </trkpt>
      <trkpt lat="45.92586" lon="4.74452">
        <ele>170</ele>
        <time>2017-12-22T09:51:26Z</time>
      </trkpt>
      <trkpt lat="45.92584" lon="4.74457">
        <ele>170</ele>
        <time>2017-12-22T09:51:27Z</time>
      </trkpt>
      <trkpt lat="45.92579" lon="4.74464">
        <ele>170</ele>
        <time>2017-12-22T09:51:28Z</time>
      </trkpt>
      <trkpt lat="45.92575" lon="4.74471">
        <ele>170</ele>
        <time>2017-12-22T09:51:29Z</time>
      </trkpt>
      <trkpt lat="45.92571" lon="4.74478">
        <ele>170</ele>
        <time>2017-12-22T09:51:30Z</time>
      </trkpt>
      <trkpt lat="45.92567" lon="4.74486">
        <ele>170</ele>
        <time>2017-12-22T09:51:31Z</time>
      </trkpt>
      <trkpt lat="45.92564" lon="4.74494">
        <ele>170</ele>
        <time>2017-12-22T09:51:32Z</time>
      </trkpt>
      <trkpt lat="45.9256" lon="4.745">
        <ele>170</ele>
        <time>2017-12-22T09:51:33Z</time>
      </trkpt>
      <trkpt lat="45.92557" lon="4.74508">
        <ele>170</ele>
        <time>2017-12-22T09:51:34Z</time>
      </trkpt>
      <trkpt lat="45.92553" lon="4.74515">
        <ele>170</ele>
        <time>2017-12-22T09:51:35Z</time>
      </trkpt>
      <trkpt lat="45.92549" lon="4.74522">
        <ele>170</ele>
        <time>2017-12-22T09:51:36Z</time>
      </trkpt>
      <trkpt lat="45.92545" lon="4.7453">
        <ele>170</ele>
        <time>2017-12-22T09:51:37Z</time>
      </trkpt>
      <trkpt lat="45.9254" lon="4.74537">
        <ele>171</ele>
        <time>2017-12-22T09:51:38Z</time>
      </trkpt>
      <trkpt lat="45.92536" lon="4.74545">
        <ele>171</ele>
        <time>2017-12-22T09:51:39Z</time>
      </trkpt>
      <trkpt lat="45.92532" lon="4.74552">
        <ele>171</ele>
        <time>2017-12-22T09:51:40Z</time>
      </trkpt>
      <trkpt lat="45.92527" lon="4.74558">
        <ele>171</ele>
        <time>2017-12-22T09:51:41Z</time>
      </trkpt>
      <trkpt lat="45.92521" lon="4.74563">
        <ele>171</ele>
        <time>2017-12-22T09:51:42Z</time>
      </trkpt>
      <trkpt lat="45.92516" lon="4.74569">
        <ele>171</ele>
        <time>2017-12-22T09:51:43Z</time>
      </trkpt>
      <trkpt lat="45.9251" lon="4.74576">
        <ele>171</ele>
        <time>2017-12-22T09:51:44Z</time>
      </trkpt>
      <trkpt lat="45.92505" lon="4.74582">
        <ele>171</ele>
        <time>2017-12-22T09:51:45Z</time>
      </trkpt>
      <trkpt lat="45.925" lon="4.74587">
        <ele>171</ele>
        <time>2017-12-22T09:51:46Z</time>
      </trkpt>
      <trkpt lat="45.92496" lon="4.74591">
        <ele>171</ele>
        <time>2017-12-22T09:51:47Z</time>
      </trkpt>
      <trkpt lat="45.92492" lon="4.74596">
        <ele>171</ele>
        <time>2017-12-22T09:51:48Z</time>
      </trkpt>
      <trkpt lat="45.92487" lon="4.74603">
        <ele>171</ele>
        <time>2017-12-22T09:51:49Z</time>
      </trkpt>
      <trkpt lat="45.92482" lon="4.74607">
        <ele>171</ele>
        <time>2017-12-22T09:51:50Z</time>
      </trkpt>
      <trkpt lat="45.92478" lon="4.74613">
        <ele>171</ele>
        <time>2017-12-22T09:51:51Z</time>
      </trkpt>
      <trkpt lat="45.92474" lon="4.74618">
        <ele>171</ele>
        <time>2017-12-22T09:51:52Z</time>
      </trkpt>
      <trkpt lat="45.9247" lon="4.74625">
        <ele>171</ele>
        <time>2017-12-22T09:51:53Z</time>
      </trkpt>
      <trkpt lat="45.92466" lon="4.7463">
        <ele>171</ele>
        <time>2017-12-22T09:51:54Z</time>
      </trkpt>
      <trkpt lat="45.92462" lon="4.74636">
        <ele>171</ele>
        <time>2017-12-22T09:51:55Z</time>
      </trkpt>
      <trkpt lat="45.92458" lon="4.74643">
        <ele>171</ele>
        <time>2017-12-22T09:51:56Z</time>
      </trkpt>
      <trkpt lat="45.92455" lon="4.74648">
        <ele>171</ele>
        <time>2017-12-22T09:51:57Z</time>
      </trkpt>
      <trkpt lat="45.92451" lon="4.74656">
        <ele>171</ele>
        <time>2017-12-22T09:51:58Z</time>
      </trkpt>
      <trkpt lat="45.92446" lon="4.74663">
        <ele>171</ele>
        <time>2017-12-22T09:51:59Z</time>
      </trkpt>
      <trkpt lat="45.92444" lon="4.74672">
        <ele>171</ele>
        <time>2017-12-22T09:52:00Z</time>
      </trkpt>
      <trkpt lat="45.92441" lon="4.7468">
        <ele>171</ele>
        <time>2017-12-22T09:52:01Z</time>
      </trkpt>
      <trkpt lat="45.92437" lon="4.74686">
        <ele>171</ele>
        <time>2017-12-22T09:52:02Z</time>
      </trkpt>
      <trkpt lat="45.92433" lon="4.74694">
        <ele>171</ele>
        <time>2017-12-22T09:52:03Z</time>
      </trkpt>
      <trkpt lat="45.92429" lon="4.74701">
        <ele>171</ele>
        <time>2017-12-22T09:52:04Z</time>
      </trkpt>
      <trkpt lat="45.92426" lon="4.74709">
        <ele>171</ele>
        <time>2017-12-22T09:52:05Z</time>
      </trkpt>
      <trkpt lat="45.92424" lon="4.74717">
        <ele>171</ele>
        <time>2017-12-22T09:52:06Z</time>
      </trkpt>
      <trkpt lat="45.92421" lon="4.74724">
        <ele>171</ele>
        <time>2017-12-22T09:52:07Z</time>
      </trkpt>
      <trkpt lat="45.92418" lon="4.74731">
        <ele>171</ele>
        <time>2017-12-22T09:52:08Z</time>
      </trkpt>
      <trkpt lat="45.92416" lon="4.74739">
        <ele>172</ele>
        <time>2017-12-22T09:52:09Z</time>
      </trkpt>
      <trkpt lat="45.92415" lon="4.74746">
        <ele>172</ele>
        <time>2017-12-22T09:52:10Z</time>
      </trkpt>
      <trkpt lat="45.92413" lon="4.74753">
        <ele>172</ele>
        <time>2017-12-22T09:52:11Z</time>
      </trkpt>
      <trkpt lat="45.92411" lon="4.74761">
        <ele>172</ele>
        <time>2017-12-22T09:52:12Z</time>
      </trkpt>
      <trkpt lat="45.92409" lon="4.74769">
        <ele>172</ele>
        <time>2017-12-22T09:52:13Z</time>
      </trkpt>
      <trkpt lat="45.92408" lon="4.74777">
        <ele>171</ele>
        <time>2017-12-22T09:52:14Z</time>
      </trkpt>
      <trkpt lat="45.92406" lon="4.74785">
        <ele>171</ele>
        <time>2017-12-22T09:52:15Z</time>
      </trkpt>
      <trkpt lat="45.92404" lon="4.74793">
        <ele>171</ele>
        <time>2017-12-22T09:52:16Z</time>
      </trkpt>
      <trkpt lat="45.92402" lon="4.74802">
        <ele>171</ele>
        <time>2017-12-22T09:52:17Z</time>
      </trkpt>
      <trkpt lat="45.92399" lon="4.74811">
        <ele>171</ele>
        <time>2017-12-22T09:52:18Z</time>
      </trkpt>
      <trkpt lat="45.92397" lon="4.7482">
        <ele>171</ele>
        <time>2017-12-22T09:52:19Z</time>
      </trkpt>
      <trkpt lat="45.92395" lon="4.7483">
        <ele>171</ele>
        <time>2017-12-22T09:52:20Z</time>
      </trkpt>
      <trkpt lat="45.92392" lon="4.74839">
        <ele>171</ele>
        <time>2017-12-22T09:52:21Z</time>
      </trkpt>
      <trkpt lat="45.9239" lon="4.74849">
        <ele>171</ele>
        <time>2017-12-22T09:52:22Z</time>
      </trkpt>
      <trkpt lat="45.92387" lon="4.74857">
        <ele>171</ele>
        <time>2017-12-22T09:52:23Z</time>
      </trkpt>
      <trkpt lat="45.92384" lon="4.74866">
        <ele>171</ele>
        <time>2017-12-22T09:52:24Z</time>
      </trkpt>
      <trkpt lat="45.9238" lon="4.74875">
        <ele>171</ele>
        <time>2017-12-22T09:52:25Z</time>
      </trkpt>
      <trkpt lat="45.92377" lon="4.74883">
        <ele>171</ele>
        <time>2017-12-22T09:52:26Z</time>
      </trkpt>
      <trkpt lat="45.92374" lon="4.74891">
        <ele>171</ele>
        <time>2017-12-22T09:52:27Z</time>
      </trkpt>
      <trkpt lat="45.92372" lon="4.74899">
        <ele>171</ele>
        <time>2017-12-22T09:52:28Z</time>
      </trkpt>
      <trkpt lat="45.92369" lon="4.74906">
        <ele>171</ele>
        <time>2017-12-22T09:52:29Z</time>
      </trkpt>
      <trkpt lat="45.92366" lon="4.74913">
        <ele>171</ele>
        <time>2017-12-22T09:52:30Z</time>
      </trkpt>
      <trkpt lat="45.92363" lon="4.74921">
        <ele>170</ele>
        <time>2017-12-22T09:52:31Z</time>
      </trkpt>
      <trkpt lat="45.92361" lon="4.74928">
        <ele>170</ele>
        <time>2017-12-22T09:52:32Z</time>
      </trkpt>
      <trkpt lat="45.92359" lon="4.74934">
        <ele>170</ele>
        <time>2017-12-22T09:52:33Z</time>
      </trkpt>
      <trkpt lat="45.92356" lon="4.7494">
        <ele>170</ele>
        <time>2017-12-22T09:52:34Z</time>
      </trkpt>
      <trkpt lat="45.92354" lon="4.74948">
        <ele>170</ele>
        <time>2017-12-22T09:52:35Z</time>
      </trkpt>
      <trkpt lat="45.92351" lon="4.74954">
        <ele>170</ele>
        <time>2017-12-22T09:52:36Z</time>
      </trkpt>
      <trkpt lat="45.92348" lon="4.74962">
        <ele>170</ele>
        <time>2017-12-22T09:52:37Z</time>
      </trkpt>
      <trkpt lat="45.92345" lon="4.7497">
        <ele>170</ele>
        <time>2017-12-22T09:52:38Z</time>
      </trkpt>
      <trkpt lat="45.92342" lon="4.74976">
        <ele>170</ele>
        <time>2017-12-22T09:52:39Z</time>
      </trkpt>
      <trkpt lat="45.92339" lon="4.74986">
        <ele>170</ele>
        <time>2017-12-22T09:52:40Z</time>
      </trkpt>
      <trkpt lat="45.92336" lon="4.74994">
        <ele>170</ele>
        <time>2017-12-22T09:52:41Z</time>
      </trkpt>
      <trkpt lat="45.92333" lon="4.75002">
        <ele>170</ele>
        <time>2017-12-22T09:52:42Z</time>
      </trkpt>
      <trkpt lat="45.92331" lon="4.75009">
        <ele>171</ele>
        <time>2017-12-22T09:52:43Z</time>
      </trkpt>
      <trkpt lat="45.92328" lon="4.75017">
        <ele>171</ele>
        <time>2017-12-22T09:52:44Z</time>
      </trkpt>
      <trkpt lat="45.92324" lon="4.75024">
        <ele>171</ele>
        <time>2017-12-22T09:52:45Z</time>
      </trkpt>
      <trkpt lat="45.92321" lon="4.75031">
        <ele>171</ele>
        <time>2017-12-22T09:52:46Z</time>
      </trkpt>
      <trkpt lat="45.92317" lon="4.75038">
        <ele>171</ele>
        <time>2017-12-22T09:52:47Z</time>
      </trkpt>
      <trkpt lat="45.92313" lon="4.75044">
        <ele>172</ele>
        <time>2017-12-22T09:52:48Z</time>
      </trkpt>
      <trkpt lat="45.92309" lon="4.75051">
        <ele>172</ele>
        <time>2017-12-22T09:52:49Z</time>
      </trkpt>
      <trkpt lat="45.92304" lon="4.75057">
        <ele>172</ele>
        <time>2017-12-22T09:52:50Z</time>
      </trkpt>
      <trkpt lat="45.923" lon="4.75064">
        <ele>172</ele>
        <time>2017-12-22T09:52:51Z</time>
      </trkpt>
      <trkpt lat="45.92295" lon="4.75069">
        <ele>172</ele>
        <time>2017-12-22T09:52:52Z</time>
      </trkpt>
      <trkpt lat="45.9229" lon="4.75073">
        <ele>172</ele>
        <time>2017-12-22T09:52:53Z</time>
      </trkpt>
      <trkpt lat="45.92286" lon="4.75079">
        <ele>172</ele>
        <time>2017-12-22T09:52:54Z</time>
      </trkpt>
      <trkpt lat="45.92281" lon="4.75083">
        <ele>172</ele>
        <time>2017-12-22T09:52:55Z</time>
      </trkpt>
      <trkpt lat="45.92275" lon="4.75088">
        <ele>173</ele>
        <time>2017-12-22T09:52:56Z</time>
      </trkpt>
      <trkpt lat="45.9227" lon="4.75094">
        <ele>173</ele>
        <time>2017-12-22T09:52:57Z</time>
      </trkpt>
      <trkpt lat="45.92266" lon="4.75099">
        <ele>173</ele>
        <time>2017-12-22T09:52:58Z</time>
      </trkpt>
      <trkpt lat="45.92261" lon="4.75105">
        <ele>173</ele>
        <time>2017-12-22T09:52:59Z</time>
      </trkpt>
      <trkpt lat="45.92257" lon="4.7511">
        <ele>174</ele>
        <time>2017-12-22T09:53:00Z</time>
      </trkpt>
      <trkpt lat="45.92252" lon="4.75115">
        <ele>174</ele>
        <time>2017-12-22T09:53:01Z</time>
      </trkpt>
      <trkpt lat="45.92247" lon="4.75121">
        <ele>174</ele>
        <time>2017-12-22T09:53:02Z</time>
      </trkpt>
      <trkpt lat="45.92242" lon="4.75126">
        <ele>174</ele>
        <time>2017-12-22T09:53:03Z</time>
      </trkpt>
      <trkpt lat="45.92238" lon="4.75133">
        <ele>174</ele>
        <time>2017-12-22T09:53:04Z</time>
      </trkpt>
      <trkpt lat="45.92233" lon="4.75139">
        <ele>174</ele>
        <time>2017-12-22T09:53:05Z</time>
      </trkpt>
      <trkpt lat="45.9223" lon="4.75146">
        <ele>174</ele>
        <time>2017-12-22T09:53:06Z</time>
      </trkpt>
      <trkpt lat="45.92226" lon="4.75152">
        <ele>174</ele>
        <time>2017-12-22T09:53:07Z</time>
      </trkpt>
      <trkpt lat="45.92223" lon="4.75161">
        <ele>174</ele>
        <time>2017-12-22T09:53:08Z</time>
      </trkpt>
      <trkpt lat="45.9222" lon="4.75167">
        <ele>175</ele>
        <time>2017-12-22T09:53:09Z</time>
      </trkpt>
      <trkpt lat="45.92217" lon="4.75174">
        <ele>175</ele>
        <time>2017-12-22T09:53:10Z</time>
      </trkpt>
      <trkpt lat="45.92215" lon="4.75182">
        <ele>175</ele>
        <time>2017-12-22T09:53:11Z</time>
      </trkpt>
      <trkpt lat="45.92213" lon="4.75189">
        <ele>175</ele>
        <time>2017-12-22T09:53:12Z</time>
      </trkpt>
      <trkpt lat="45.92212" lon="4.75196">
        <ele>175</ele>
        <time>2017-12-22T09:53:13Z</time>
      </trkpt>
      <trkpt lat="45.92211" lon="4.75204">
        <ele>175</ele>
        <time>2017-12-22T09:53:14Z</time>
      </trkpt>
      <trkpt lat="45.9221" lon="4.75212">
        <ele>175</ele>
        <time>2017-12-22T09:53:15Z</time>
      </trkpt>
      <trkpt lat="45.92209" lon="4.75219">
        <ele>175</ele>
        <time>2017-12-22T09:53:16Z</time>
      </trkpt>
      <trkpt lat="45.92209" lon="4.75227">
        <ele>175</ele>
        <time>2017-12-22T09:53:17Z</time>
      </trkpt>
      <trkpt lat="45.92209" lon="4.75235">
        <ele>175</ele>
        <time>2017-12-22T09:53:18Z</time>
      </trkpt>
      <trkpt lat="45.92209" lon="4.75243">
        <ele>175</ele>
        <time>2017-12-22T09:53:19Z</time>
      </trkpt>
      <trkpt lat="45.92208" lon="4.7525">
        <ele>175</ele>
        <time>2017-12-22T09:53:20Z</time>
      </trkpt>
      <trkpt lat="45.92207" lon="4.75258">
        <ele>175</ele>
        <time>2017-12-22T09:53:21Z</time>
      </trkpt>
      <trkpt lat="45.92207" lon="4.75266">
        <ele>176</ele>
        <time>2017-12-22T09:53:22Z</time>
      </trkpt>
      <trkpt lat="45.92208" lon="4.75275">
        <ele>176</ele>
        <time>2017-12-22T09:53:23Z</time>
      </trkpt>
      <trkpt lat="45.92207" lon="4.75283">
        <ele>176</ele>
        <time>2017-12-22T09:53:24Z</time>
      </trkpt>
      <trkpt lat="45.92207" lon="4.75291">
        <ele>176</ele>
        <time>2017-12-22T09:53:25Z</time>
      </trkpt>
      <trkpt lat="45.92207" lon="4.75299">
        <ele>176</ele>
        <time>2017-12-22T09:53:26Z</time>
      </trkpt>
      <trkpt lat="45.92207" lon="4.75308">
        <ele>176</ele>
        <time>2017-12-22T09:53:27Z</time>
      </trkpt>
      <trkpt lat="45.92206" lon="4.75315">
        <ele>176</ele>
        <time>2017-12-22T09:53:28Z</time>
      </trkpt>
      <trkpt lat="45.92204" lon="4.75324">
        <ele>176</ele>
        <time>2017-12-22T09:53:29Z</time>
      </trkpt>
      <trkpt lat="45.92202" lon="4.75331">
        <ele>176</ele>
        <time>2017-12-22T09:53:30Z</time>
      </trkpt>
      <trkpt lat="45.922" lon="4.75339">
        <ele>177</ele>
        <time>2017-12-22T09:53:31Z</time>
      </trkpt>
      <trkpt lat="45.92199" lon="4.75346">
        <ele>177</ele>
        <time>2017-12-22T09:53:32Z</time>
      </trkpt>
      <trkpt lat="45.92198" lon="4.75358">
        <ele>177</ele>
        <time>2017-12-22T09:53:34Z</time>
      </trkpt>
      <trkpt lat="45.92196" lon="4.75364">
        <ele>177</ele>
        <time>2017-12-22T09:53:35Z</time>
      </trkpt>
      <trkpt lat="45.92194" lon="4.7537">
        <ele>177</ele>
        <time>2017-12-22T09:53:36Z</time>
      </trkpt>
      <trkpt lat="45.92192" lon="4.75378">
        <ele>177</ele>
        <time>2017-12-22T09:53:37Z</time>
      </trkpt>
      <trkpt lat="45.92189" lon="4.75385">
        <ele>177</ele>
        <time>2017-12-22T09:53:38Z</time>
      </trkpt>
      <trkpt lat="45.92186" lon="4.75392">
        <ele>177</ele>
        <time>2017-12-22T09:53:39Z</time>
      </trkpt>
      <trkpt lat="45.92183" lon="4.75399">
        <ele>177</ele>
        <time>2017-12-22T09:53:40Z</time>
      </trkpt>
      <trkpt lat="45.9218" lon="4.75405">
        <ele>177</ele>
        <time>2017-12-22T09:53:41Z</time>
      </trkpt>
      <trkpt lat="45.92177" lon="4.75413">
        <ele>178</ele>
        <time>2017-12-22T09:53:42Z</time>
      </trkpt>
      <trkpt lat="45.92174" lon="4.75422">
        <ele>177</ele>
        <time>2017-12-22T09:53:43Z</time>
      </trkpt>
      <trkpt lat="45.92172" lon="4.75429">
        <ele>177</ele>
        <time>2017-12-22T09:53:44Z</time>
      </trkpt>
      <trkpt lat="45.92168" lon="4.75438">
        <ele>177</ele>
        <time>2017-12-22T09:53:45Z</time>
      </trkpt>
      <trkpt lat="45.92166" lon="4.75445">
        <ele>177</ele>
        <time>2017-12-22T09:53:46Z</time>
      </trkpt>
      <trkpt lat="45.92162" lon="4.75453">
        <ele>176</ele>
        <time>2017-12-22T09:53:47Z</time>
      </trkpt>
      <trkpt lat="45.92158" lon="4.75461">
        <ele>176</ele>
        <time>2017-12-22T09:53:48Z</time>
      </trkpt>
      <trkpt lat="45.92155" lon="4.75469">
        <ele>176</ele>
        <time>2017-12-22T09:53:49Z</time>
      </trkpt>
      <trkpt lat="45.92152" lon="4.75477">
        <ele>176</ele>
        <time>2017-12-22T09:53:50Z</time>
      </trkpt>
      <trkpt lat="45.92149" lon="4.75484">
        <ele>176</ele>
        <time>2017-12-22T09:53:51Z</time>
      </trkpt>
      <trkpt lat="45.92146" lon="4.75491">
        <ele>176</ele>
        <time>2017-12-22T09:53:52Z</time>
      </trkpt>
      <trkpt lat="45.92142" lon="4.75499">
        <ele>175</ele>
        <time>2017-12-22T09:53:53Z</time>
      </trkpt>
      <trkpt lat="45.92138" lon="4.75506">
        <ele>174</ele>
        <time>2017-12-22T09:53:54Z</time>
      </trkpt>
      <trkpt lat="45.92135" lon="4.75514">
        <ele>174</ele>
        <time>2017-12-22T09:53:55Z</time>
      </trkpt>
      <trkpt lat="45.92131" lon="4.7552">
        <ele>174</ele>
        <time>2017-12-22T09:53:56Z</time>
      </trkpt>
      <trkpt lat="45.92126" lon="4.75526">
        <ele>174</ele>
        <time>2017-12-22T09:53:57Z</time>
      </trkpt>
      <trkpt lat="45.92121" lon="4.75531">
        <ele>174</ele>
        <time>2017-12-22T09:53:58Z</time>
      </trkpt>
      <trkpt lat="45.92118" lon="4.7554">
        <ele>174</ele>
        <time>2017-12-22T09:53:59Z</time>
      </trkpt>
      <trkpt lat="45.92114" lon="4.75546">
        <ele>174</ele>
        <time>2017-12-22T09:54:00Z</time>
      </trkpt>
      <trkpt lat="45.92111" lon="4.75553">
        <ele>174</ele>
        <time>2017-12-22T09:54:01Z</time>
      </trkpt>
      <trkpt lat="45.92107" lon="4.75564">
        <ele>174</ele>
        <time>2017-12-22T09:54:03Z</time>
      </trkpt>
      <trkpt lat="45.92106" lon="4.75571">
        <ele>174</ele>
        <time>2017-12-22T09:54:04Z</time>
      </trkpt>
      <trkpt lat="45.92107" lon="4.75577">
        <ele>174</ele>
        <time>2017-12-22T09:54:05Z</time>
      </trkpt>
      <trkpt lat="45.9211" lon="4.75583">
        <ele>174</ele>
        <time>2017-12-22T09:54:06Z</time>
      </trkpt>
      <trkpt lat="45.92114" lon="4.75588">
        <ele>174</ele>
        <time>2017-12-22T09:54:07Z</time>
      </trkpt>
      <trkpt lat="45.92118" lon="4.75592">
        <ele>174</ele>
        <time>2017-12-22T09:54:08Z</time>
      </trkpt>
      <trkpt lat="45.92123" lon="4.75596">
        <ele>174</ele>
        <time>2017-12-22T09:54:09Z</time>
      </trkpt>
      <trkpt lat="45.92128" lon="4.756">
        <ele>174</ele>
        <time>2017-12-22T09:54:10Z</time>
      </trkpt>
      <trkpt lat="45.92133" lon="4.75604">
        <ele>174</ele>
        <time>2017-12-22T09:54:11Z</time>
      </trkpt>
      <trkpt lat="45.92139" lon="4.75609">
        <ele>174</ele>
        <time>2017-12-22T09:54:12Z</time>
      </trkpt>
      <trkpt lat="45.92144" lon="4.75613">
        <ele>174</ele>
        <time>2017-12-22T09:54:13Z</time>
      </trkpt>
      <trkpt lat="45.92149" lon="4.75618">
        <ele>174</ele>
        <time>2017-12-22T09:54:14Z</time>
      </trkpt>
      <trkpt lat="45.92154" lon="4.75623">
        <ele>174</ele>
        <time>2017-12-22T09:54:15Z</time>
      </trkpt>
      <trkpt lat="45.92159" lon="4.75628">
        <ele>174</ele>
        <time>2017-12-22T09:54:16Z</time>
      </trkpt>
      <trkpt lat="45.92164" lon="4.75633">
        <ele>174</ele>
        <time>2017-12-22T09:54:17Z</time>
      </trkpt>
      <trkpt lat="45.92169" lon="4.75639">
        <ele>174</ele>
        <time>2017-12-22T09:54:18Z</time>
      </trkpt>
      <trkpt lat="45.92174" lon="4.75645">
        <ele>174</ele>
        <time>2017-12-22T09:54:19Z</time>
      </trkpt>
      <trkpt lat="45.92179" lon="4.7565">
        <ele>174</ele>
        <time>2017-12-22T09:54:20Z</time>
      </trkpt>
      <trkpt lat="45.92185" lon="4.75655">
        <ele>174</ele>
        <time>2017-12-22T09:54:21Z</time>
      </trkpt>
      <trkpt lat="45.9219" lon="4.7566">
        <ele>174</ele>
        <time>2017-12-22T09:54:22Z</time>
      </trkpt>
      <trkpt lat="45.92195" lon="4.75665">
        <ele>174</ele>
        <time>2017-12-22T09:54:23Z</time>
      </trkpt>
      <trkpt lat="45.922" lon="4.7567">
        <ele>174</ele>
        <time>2017-12-22T09:54:24Z</time>
      </trkpt>
      <trkpt lat="45.92205" lon="4.75674">
        <ele>174</ele>
        <time>2017-12-22T09:54:25Z</time>
      </trkpt>
      <trkpt lat="45.92209" lon="4.75678">
        <ele>174</ele>
        <time>2017-12-22T09:54:26Z</time>
      </trkpt>
      <trkpt lat="45.92214" lon="4.75683">
        <ele>174</ele>
        <time>2017-12-22T09:54:27Z</time>
      </trkpt>
      <trkpt lat="45.92219" lon="4.75687">
        <ele>174</ele>
        <time>2017-12-22T09:54:28Z</time>
      </trkpt>
      <trkpt lat="45.92223" lon="4.75692">
        <ele>174</ele>
        <time>2017-12-22T09:54:29Z</time>
      </trkpt>
      <trkpt lat="45.92227" lon="4.75696">
        <ele>174</ele>
        <time>2017-12-22T09:54:30Z</time>
      </trkpt>
      <trkpt lat="45.92231" lon="4.75701">
        <ele>174</ele>
        <time>2017-12-22T09:54:31Z</time>
      </trkpt>
      <trkpt lat="45.92236" lon="4.75707">
        <ele>174</ele>
        <time>2017-12-22T09:54:32Z</time>
      </trkpt>
      <trkpt lat="45.92239" lon="4.75713">
        <ele>174</ele>
        <time>2017-12-22T09:54:33Z</time>
      </trkpt>
      <trkpt lat="45.92242" lon="4.75721">
        <ele>174</ele>
        <time>2017-12-22T09:54:34Z</time>
      </trkpt>
      <trkpt lat="45.92245" lon="4.75729">
        <ele>174</ele>
        <time>2017-12-22T09:54:35Z</time>
      </trkpt>
      <trkpt lat="45.92246" lon="4.75736">
        <ele>174</ele>
        <time>2017-12-22T09:54:36Z</time>
      </trkpt>
      <trkpt lat="45.92248" lon="4.75744">
        <ele>174</ele>
        <time>2017-12-22T09:54:37Z</time>
      </trkpt>
      <trkpt lat="45.92249" lon="4.75752">
        <ele>174</ele>
        <time>2017-12-22T09:54:38Z</time>
      </trkpt>
      <trkpt lat="45.92251" lon="4.75759">
        <ele>174</ele>
        <time>2017-12-22T09:54:39Z</time>
      </trkpt>
      <trkpt lat="45.92252" lon="4.75766">
        <ele>174</ele>
        <time>2017-12-22T09:54:40Z</time>
      </trkpt>
      <trkpt lat="45.92254" lon="4.75774">
        <ele>174</ele>
        <time>2017-12-22T09:54:41Z</time>
      </trkpt>
      <trkpt lat="45.92255" lon="4.75781">
        <ele>174</ele>
        <time>2017-12-22T09:54:42Z</time>
      </trkpt>
      <trkpt lat="45.92257" lon="4.75788">
        <ele>174</ele>
        <time>2017-12-22T09:54:43Z</time>
      </trkpt>
      <trkpt lat="45.92259" lon="4.75794">
        <ele>174</ele>
        <time>2017-12-22T09:54:44Z</time>
      </trkpt>
      <trkpt lat="45.92261" lon="4.75801">
        <ele>174</ele>
        <time>2017-12-22T09:54:45Z</time>
      </trkpt>
      <trkpt lat="45.92265" lon="4.7581">
        <ele>174</ele>
        <time>2017-12-22T09:54:46Z</time>
      </trkpt>
      <trkpt lat="45.92267" lon="4.75817">
        <ele>174</ele>
        <time>2017-12-22T09:54:47Z</time>
      </trkpt>
      <trkpt lat="45.92271" lon="4.75823">
        <ele>174</ele>
        <time>2017-12-22T09:54:48Z</time>
      </trkpt>
      <trkpt lat="45.92275" lon="4.75827">
        <ele>174</ele>
        <time>2017-12-22T09:54:49Z</time>
      </trkpt>
      <trkpt lat="45.92281" lon="4.75831">
        <ele>174</ele>
        <time>2017-12-22T09:54:50Z</time>
      </trkpt>
      <trkpt lat="45.92287" lon="4.75836">
        <ele>173</ele>
        <time>2017-12-22T09:54:51Z</time>
      </trkpt>
      <trkpt lat="45.92292" lon="4.75839">
        <ele>173</ele>
        <time>2017-12-22T09:54:52Z</time>
      </trkpt>
      <trkpt lat="45.92298" lon="4.75843">
        <ele>173</ele>
        <time>2017-12-22T09:54:53Z</time>
      </trkpt>
      <trkpt lat="45.92304" lon="4.75845">
        <ele>173</ele>
        <time>2017-12-22T09:54:54Z</time>
      </trkpt>
      <trkpt lat="45.92309" lon="4.75849">
        <ele>173</ele>
        <time>2017-12-22T09:54:55Z</time>
      </trkpt>
      <trkpt lat="45.92315" lon="4.75852">
        <ele>173</ele>
        <time>2017-12-22T09:54:56Z</time>
      </trkpt>
      <trkpt lat="45.92321" lon="4.75856">
        <ele>173</ele>
        <time>2017-12-22T09:54:57Z</time>
      </trkpt>
      <trkpt lat="45.92327" lon="4.75859">
        <ele>173</ele>
        <time>2017-12-22T09:54:58Z</time>
      </trkpt>
      <trkpt lat="45.92332" lon="4.75863">
        <ele>173</ele>
        <time>2017-12-22T09:54:59Z</time>
      </trkpt>
      <trkpt lat="45.92337" lon="4.75867">
        <ele>173</ele>
        <time>2017-12-22T09:55:00Z</time>
      </trkpt>
      <trkpt lat="45.92342" lon="4.7587">
        <ele>173</ele>
        <time>2017-12-22T09:55:01Z</time>
      </trkpt>
      <trkpt lat="45.92347" lon="4.75874">
        <ele>173</ele>
        <time>2017-12-22T09:55:02Z</time>
      </trkpt>
      <trkpt lat="45.92352" lon="4.75878">
        <ele>173</ele>
        <time>2017-12-22T09:55:03Z</time>
      </trkpt>
      <trkpt lat="45.92358" lon="4.75881">
        <ele>173</ele>
        <time>2017-12-22T09:55:04Z</time>
      </trkpt>
      <trkpt lat="45.92362" lon="4.75884">
        <ele>173</ele>
        <time>2017-12-22T09:55:05Z</time>
      </trkpt>
      <trkpt lat="45.92368" lon="4.75886">
        <ele>173</ele>
        <time>2017-12-22T09:55:06Z</time>
      </trkpt>
      <trkpt lat="45.92373" lon="4.7589">
        <ele>173</ele>
        <time>2017-12-22T09:55:07Z</time>
      </trkpt>
      <trkpt lat="45.92378" lon="4.75894">
        <ele>173</ele>
        <time>2017-12-22T09:55:08Z</time>
      </trkpt>
      <trkpt lat="45.92384" lon="4.75897">
        <ele>173</ele>
        <time>2017-12-22T09:55:09Z</time>
      </trkpt>
      <trkpt lat="45.92389" lon="4.759">
        <ele>173</ele>
        <time>2017-12-22T09:55:10Z</time>
      </trkpt>
      <trkpt lat="45.92395" lon="4.75904">
        <ele>173</ele>
        <time>2017-12-22T09:55:11Z</time>
      </trkpt>
      <trkpt lat="45.924" lon="4.75907">
        <ele>173</ele>
        <time>2017-12-22T09:55:12Z</time>
      </trkpt>
      <trkpt lat="45.92405" lon="4.7591">
        <ele>172</ele>
        <time>2017-12-22T09:55:13Z</time>
      </trkpt>
      <trkpt lat="45.9241" lon="4.75914">
        <ele>172</ele>
        <time>2017-12-22T09:55:14Z</time>
      </trkpt>
      <trkpt lat="45.92416" lon="4.75918">
        <ele>172</ele>
        <time>2017-12-22T09:55:15Z</time>
      </trkpt>
      <trkpt lat="45.92421" lon="4.75922">
        <ele>172</ele>
        <time>2017-12-22T09:55:16Z</time>
      </trkpt>
      <trkpt lat="45.92426" lon="4.75927">
        <ele>172</ele>
        <time>2017-12-22T09:55:17Z</time>
      </trkpt>
      <trkpt lat="45.92431" lon="4.75931">
        <ele>172</ele>
        <time>2017-12-22T09:55:18Z</time>
      </trkpt>
      <trkpt lat="45.92436" lon="4.75935">
        <ele>172</ele>
        <time>2017-12-22T09:55:19Z</time>
      </trkpt>
      <trkpt lat="45.9244" lon="4.75938">
        <ele>172</ele>
        <time>2017-12-22T09:55:20Z</time>
      </trkpt>
      <trkpt lat="45.92444" lon="4.75942">
        <ele>172</ele>
        <time>2017-12-22T09:55:21Z</time>
      </trkpt>
      <trkpt lat="45.92449" lon="4.75945">
        <ele>172</ele>
        <time>2017-12-22T09:55:22Z</time>
      </trkpt>
      <trkpt lat="45.92453" lon="4.75948">
        <ele>172</ele>
        <time>2017-12-22T09:55:23Z</time>
      </trkpt>
      <trkpt lat="45.92458" lon="4.75952">
        <ele>172</ele>
        <time>2017-12-22T09:55:24Z</time>
      </trkpt>
      <trkpt lat="45.92462" lon="4.75958">
        <ele>172</ele>
        <time>2017-12-22T09:55:25Z</time>
      </trkpt>
      <trkpt lat="45.92467" lon="4.75961">
        <ele>172</ele>
        <time>2017-12-22T09:55:26Z</time>
      </trkpt>
      <trkpt lat="45.92471" lon="4.75965">
        <ele>172</ele>
        <time>2017-12-22T09:55:27Z</time>
      </trkpt>
      <trkpt lat="45.92475" lon="4.75968">
        <ele>172</ele>
        <time>2017-12-22T09:55:28Z</time>
      </trkpt>
      <trkpt lat="45.9248" lon="4.75972">
        <ele>172</ele>
        <time>2017-12-22T09:55:29Z</time>
      </trkpt>
      <trkpt lat="45.92485" lon="4.75975">
        <ele>172</ele>
        <time>2017-12-22T09:55:30Z</time>
      </trkpt>
      <trkpt lat="45.9249" lon="4.75979">
        <ele>172</ele>
        <time>2017-12-22T09:55:31Z</time>
      </trkpt>
      <trkpt lat="45.92495" lon="4.75983">
        <ele>172</ele>
        <time>2017-12-22T09:55:32Z</time>
      </trkpt>
      <trkpt lat="45.92499" lon="4.75985">
        <ele>172</ele>
        <time>2017-12-22T09:55:33Z</time>
      </trkpt>
      <trkpt lat="45.92504" lon="4.75988">
        <ele>172</ele>
        <time>2017-12-22T09:55:34Z</time>
      </trkpt>
      <trkpt lat="45.92509" lon="4.75992">
        <ele>172</ele>
        <time>2017-12-22T09:55:35Z</time>
      </trkpt>
      <trkpt lat="45.92514" lon="4.75996">
        <ele>172</ele>
        <time>2017-12-22T09:55:36Z</time>
      </trkpt>
      <trkpt lat="45.92519" lon="4.75998">
        <ele>172</ele>
        <time>2017-12-22T09:55:37Z</time>
      </trkpt>
      <trkpt lat="45.92523" lon="4.76002">
        <ele>172</ele>
        <time>2017-12-22T09:55:38Z</time>
      </trkpt>
      <trkpt lat="45.92528" lon="4.76004">
        <ele>172</ele>
        <time>2017-12-22T09:55:39Z</time>
      </trkpt>
      <trkpt lat="45.92533" lon="4.76007">
        <ele>172</ele>
        <time>2017-12-22T09:55:40Z</time>
      </trkpt>
      <trkpt lat="45.92538" lon="4.7601">
        <ele>172</ele>
        <time>2017-12-22T09:55:41Z</time>
      </trkpt>
      <trkpt lat="45.92542" lon="4.76014">
        <ele>172</ele>
        <time>2017-12-22T09:55:42Z</time>
      </trkpt>
      <trkpt lat="45.92547" lon="4.76017">
        <ele>172</ele>
        <time>2017-12-22T09:55:43Z</time>
      </trkpt>
      <trkpt lat="45.92551" lon="4.76021">
        <ele>172</ele>
        <time>2017-12-22T09:55:44Z</time>
      </trkpt>
      <trkpt lat="45.92556" lon="4.76023">
        <ele>172</ele>
        <time>2017-12-22T09:55:45Z</time>
      </trkpt>
      <trkpt lat="45.9256" lon="4.76026">
        <ele>172</ele>
        <time>2017-12-22T09:55:46Z</time>
      </trkpt>
      <trkpt lat="45.92563" lon="4.7603">
        <ele>172</ele>
        <time>2017-12-22T09:55:47Z</time>
      </trkpt>
      <trkpt lat="45.92568" lon="4.76033">
        <ele>172</ele>
        <time>2017-12-22T09:55:48Z</time>
      </trkpt>
      <trkpt lat="45.92571" lon="4.76037">
        <ele>172</ele>
        <time>2017-12-22T09:55:49Z</time>
      </trkpt>
      <trkpt lat="45.92576" lon="4.7604">
        <ele>172</ele>
        <time>2017-12-22T09:55:50Z</time>
      </trkpt>
      <trkpt lat="45.9258" lon="4.76043">
        <ele>171</ele>
        <time>2017-12-22T09:55:51Z</time>
      </trkpt>
      <trkpt lat="45.92585" lon="4.76047">
        <ele>171</ele>
        <time>2017-12-22T09:55:52Z</time>
      </trkpt>
      <trkpt lat="45.92589" lon="4.76051">
        <ele>171</ele>
        <time>2017-12-22T09:55:53Z</time>
      </trkpt>
      <trkpt lat="45.92594" lon="4.76055">
        <ele>171</ele>
        <time>2017-12-22T09:55:54Z</time>
      </trkpt>
      <trkpt lat="45.926" lon="4.76058">
        <ele>171</ele>
        <time>2017-12-22T09:55:55Z</time>
      </trkpt>
      <trkpt lat="45.92605" lon="4.76061">
        <ele>171</ele>
        <time>2017-12-22T09:55:56Z</time>
      </trkpt>
      <trkpt lat="45.92611" lon="4.76065">
        <ele>171</ele>
        <time>2017-12-22T09:55:57Z</time>
      </trkpt>
      <trkpt lat="45.92616" lon="4.76069">
        <ele>171</ele>
        <time>2017-12-22T09:55:58Z</time>
      </trkpt>
      <trkpt lat="45.92623" lon="4.76072">
        <ele>171</ele>
        <time>2017-12-22T09:55:59Z</time>
      </trkpt>
      <trkpt lat="45.92628" lon="4.76077">
        <ele>170</ele>
        <time>2017-12-22T09:56:00Z</time>
      </trkpt>
      <trkpt lat="45.92634" lon="4.76081">
        <ele>170</ele>
        <time>2017-12-22T09:56:01Z</time>
      </trkpt>
      <trkpt lat="45.92641" lon="4.76085">
        <ele>170</ele>
        <time>2017-12-22T09:56:02Z</time>
      </trkpt>
      <trkpt lat="45.92647" lon="4.76089">
        <ele>170</ele>
        <time>2017-12-22T09:56:03Z</time>
      </trkpt>
      <trkpt lat="45.92653" lon="4.76094">
        <ele>170</ele>
        <time>2017-12-22T09:56:04Z</time>
      </trkpt>
      <trkpt lat="45.92659" lon="4.76098">
        <ele>170</ele>
        <time>2017-12-22T09:56:05Z</time>
      </trkpt>
      <trkpt lat="45.92666" lon="4.76103">
        <ele>170</ele>
        <time>2017-12-22T09:56:06Z</time>
      </trkpt>
      <trkpt lat="45.92673" lon="4.76107">
        <ele>169</ele>
        <time>2017-12-22T09:56:07Z</time>
      </trkpt>
      <trkpt lat="45.9268" lon="4.76112">
        <ele>169</ele>
        <time>2017-12-22T09:56:08Z</time>
      </trkpt>
      <trkpt lat="45.92687" lon="4.76116">
        <ele>169</ele>
        <time>2017-12-22T09:56:09Z</time>
      </trkpt>
      <trkpt lat="45.92695" lon="4.76121">
        <ele>169</ele>
        <time>2017-12-22T09:56:10Z</time>
      </trkpt>
      <trkpt lat="45.92701" lon="4.76126">
        <ele>169</ele>
        <time>2017-12-22T09:56:11Z</time>
      </trkpt>
      <trkpt lat="45.92708" lon="4.7613">
        <ele>168</ele>
        <time>2017-12-22T09:56:12Z</time>
      </trkpt>
      <trkpt lat="45.92715" lon="4.76135">
        <ele>168</ele>
        <time>2017-12-22T09:56:13Z</time>
      </trkpt>
      <trkpt lat="45.92722" lon="4.76141">
        <ele>168</ele>
        <time>2017-12-22T09:56:14Z</time>
      </trkpt>
      <trkpt lat="45.92728" lon="4.76145">
        <ele>168</ele>
        <time>2017-12-22T09:56:15Z</time>
      </trkpt>
      <trkpt lat="45.92735" lon="4.76151">
        <ele>168</ele>
        <time>2017-12-22T09:56:16Z</time>
      </trkpt>
      <trkpt lat="45.92742" lon="4.76155">
        <ele>168</ele>
        <time>2017-12-22T09:56:17Z</time>
      </trkpt>
      <trkpt lat="45.92748" lon="4.7616">
        <ele>167</ele>
        <time>2017-12-22T09:56:18Z</time>
      </trkpt>
      <trkpt lat="45.92755" lon="4.76165">
        <ele>167</ele>
        <time>2017-12-22T09:56:19Z</time>
      </trkpt>
      <trkpt lat="45.92761" lon="4.76169">
        <ele>167</ele>
        <time>2017-12-22T09:56:20Z</time>
      </trkpt>
      <trkpt lat="45.92767" lon="4.76174">
        <ele>167</ele>
        <time>2017-12-22T09:56:21Z</time>
      </trkpt>
      <trkpt lat="45.92773" lon="4.76179">
        <ele>167</ele>
        <time>2017-12-22T09:56:22Z</time>
      </trkpt>
      <trkpt lat="45.92778" lon="4.76183">
        <ele>168</ele>
        <time>2017-12-22T09:56:23Z</time>
      </trkpt>
      <trkpt lat="45.92784" lon="4.76187">
        <ele>168</ele>
        <time>2017-12-22T09:56:24Z</time>
      </trkpt>
      <trkpt lat="45.92789" lon="4.76191">
        <ele>168</ele>
        <time>2017-12-22T09:56:25Z</time>
      </trkpt>
      <trkpt lat="45.92793" lon="4.76194">
        <ele>168</ele>
        <time>2017-12-22T09:56:26Z</time>
      </trkpt>
      <trkpt lat="45.92797" lon="4.76199">
        <ele>168</ele>
        <time>2017-12-22T09:56:27Z</time>
      </trkpt>
      <trkpt lat="45.92801" lon="4.76203">
        <ele>168</ele>
        <time>2017-12-22T09:56:28Z</time>
      </trkpt>
      <trkpt lat="45.92805" lon="4.76206">
        <ele>168</ele>
        <time>2017-12-22T09:56:29Z</time>
      </trkpt>
      <trkpt lat="45.92809" lon="4.7621">
        <ele>168</ele>
        <time>2017-12-22T09:56:30Z</time>
      </trkpt>
      <trkpt lat="45.92814" lon="4.76215">
        <ele>168</ele>
        <time>2017-12-22T09:56:31Z</time>
      </trkpt>
      <trkpt lat="45.92818" lon="4.7622">
        <ele>168</ele>
        <time>2017-12-22T09:56:32Z</time>
      </trkpt>
      <trkpt lat="45.92823" lon="4.76224">
        <ele>168</ele>
        <time>2017-12-22T09:56:33Z</time>
      </trkpt>
      <trkpt lat="45.92827" lon="4.7623">
        <ele>168</ele>
        <time>2017-12-22T09:56:34Z</time>
      </trkpt>
      <trkpt lat="45.92833" lon="4.76235">
        <ele>168</ele>
        <time>2017-12-22T09:56:35Z</time>
      </trkpt>
      <trkpt lat="45.92838" lon="4.7624">
        <ele>169</ele>
        <time>2017-12-22T09:56:36Z</time>
      </trkpt>
      <trkpt lat="45.92844" lon="4.76245">
        <ele>169</ele>
        <time>2017-12-22T09:56:37Z</time>
      </trkpt>
      <trkpt lat="45.92849" lon="4.7625">
        <ele>169</ele>
        <time>2017-12-22T09:56:38Z</time>
      </trkpt>
      <trkpt lat="45.92854" lon="4.76255">
        <ele>169</ele>
        <time>2017-12-22T09:56:39Z</time>
      </trkpt>
      <trkpt lat="45.92859" lon="4.76258">
        <ele>169</ele>
        <time>2017-12-22T09:56:40Z</time>
      </trkpt>
      <trkpt lat="45.92865" lon="4.76261">
        <ele>169</ele>
        <time>2017-12-22T09:56:41Z</time>
      </trkpt>
      <trkpt lat="45.9287" lon="4.76266">
        <ele>169</ele>
        <time>2017-12-22T09:56:42Z</time>
      </trkpt>
      <trkpt lat="45.92875" lon="4.76271">
        <ele>169</ele>
        <time>2017-12-22T09:56:43Z</time>
      </trkpt>
      <trkpt lat="45.9288" lon="4.76277">
        <ele>169</ele>
        <time>2017-12-22T09:56:44Z</time>
      </trkpt>
      <trkpt lat="45.92885" lon="4.76282">
        <ele>169</ele>
        <time>2017-12-22T09:56:45Z</time>
      </trkpt>
      <trkpt lat="45.92889" lon="4.76287">
        <ele>169</ele>
        <time>2017-12-22T09:56:46Z</time>
      </trkpt>
      <trkpt lat="45.92894" lon="4.76292">
        <ele>169</ele>
        <time>2017-12-22T09:56:47Z</time>
      </trkpt>
      <trkpt lat="45.92898" lon="4.76297">
        <ele>169</ele>
        <time>2017-12-22T09:56:48Z</time>
      </trkpt>
      <trkpt lat="45.92902" lon="4.76301">
        <ele>169</ele>
        <time>2017-12-22T09:56:49Z</time>
      </trkpt>
      <trkpt lat="45.92907" lon="4.76305">
        <ele>169</ele>
        <time>2017-12-22T09:56:50Z</time>
      </trkpt>
      <trkpt lat="45.92912" lon="4.76309">
        <ele>169</ele>
        <time>2017-12-22T09:56:51Z</time>
      </trkpt>
      <trkpt lat="45.92917" lon="4.76314">
        <ele>169</ele>
        <time>2017-12-22T09:56:52Z</time>
      </trkpt>
      <trkpt lat="45.92921" lon="4.76319">
        <ele>169</ele>
        <time>2017-12-22T09:56:53Z</time>
      </trkpt>
      <trkpt lat="45.92927" lon="4.76324">
        <ele>169</ele>
        <time>2017-12-22T09:56:54Z</time>
      </trkpt>
      <trkpt lat="45.92932" lon="4.76328">
        <ele>169</ele>
        <time>2017-12-22T09:56:55Z</time>
      </trkpt>
      <trkpt lat="45.92936" lon="4.76333">
        <ele>169</ele>
        <time>2017-12-22T09:56:56Z</time>
      </trkpt>
      <trkpt lat="45.92941" lon="4.7634">
        <ele>169</ele>
        <time>2017-12-22T09:56:57Z</time>
      </trkpt>
      <trkpt lat="45.92946" lon="4.76344">
        <ele>169</ele>
        <time>2017-12-22T09:56:58Z</time>
      </trkpt>
      <trkpt lat="45.92951" lon="4.7635">
        <ele>169</ele>
        <time>2017-12-22T09:56:59Z</time>
      </trkpt>
      <trkpt lat="45.92956" lon="4.76354">
        <ele>169</ele>
        <time>2017-12-22T09:57:00Z</time>
      </trkpt>
      <trkpt lat="45.92961" lon="4.7636">
        <ele>169</ele>
        <time>2017-12-22T09:57:01Z</time>
      </trkpt>
      <trkpt lat="45.92966" lon="4.76365">
        <ele>169</ele>
        <time>2017-12-22T09:57:02Z</time>
      </trkpt>
      <trkpt lat="45.92972" lon="4.76369">
        <ele>169</ele>
        <time>2017-12-22T09:57:03Z</time>
      </trkpt>
      <trkpt lat="45.92977" lon="4.76375">
        <ele>169</ele>
        <time>2017-12-22T09:57:04Z</time>
      </trkpt>
      <trkpt lat="45.92982" lon="4.7638">
        <ele>169</ele>
        <time>2017-12-22T09:57:05Z</time>
      </trkpt>
      <trkpt lat="45.92987" lon="4.76385">
        <ele>169</ele>
        <time>2017-12-22T09:57:06Z</time>
      </trkpt>
      <trkpt lat="45.92992" lon="4.7639">
        <ele>169</ele>
        <time>2017-12-22T09:57:07Z</time>
      </trkpt>
      <trkpt lat="45.92996" lon="4.76394">
        <ele>169</ele>
        <time>2017-12-22T09:57:08Z</time>
      </trkpt>
      <trkpt lat="45.93001" lon="4.76399">
        <ele>169</ele>
        <time>2017-12-22T09:57:09Z</time>
      </trkpt>
      <trkpt lat="45.93004" lon="4.76406">
        <ele>169</ele>
        <time>2017-12-22T09:57:10Z</time>
      </trkpt>
      <trkpt lat="45.93009" lon="4.7641">
        <ele>169</ele>
        <time>2017-12-22T09:57:11Z</time>
      </trkpt>
      <trkpt lat="45.93014" lon="4.76416">
        <ele>169</ele>
        <time>2017-12-22T09:57:12Z</time>
      </trkpt>
      <trkpt lat="45.93018" lon="4.76419">
        <ele>169</ele>
        <time>2017-12-22T09:57:13Z</time>
      </trkpt>
      <trkpt lat="45.93023" lon="4.76423">
        <ele>169</ele>
        <time>2017-12-22T09:57:14Z</time>
      </trkpt>
      <trkpt lat="45.93027" lon="4.76427">
        <ele>169</ele>
        <time>2017-12-22T09:57:15Z</time>
      </trkpt>
      <trkpt lat="45.93031" lon="4.76431">
        <ele>169</ele>
        <time>2017-12-22T09:57:16Z</time>
      </trkpt>
      <trkpt lat="45.93037" lon="4.76436">
        <ele>169</ele>
        <time>2017-12-22T09:57:17Z</time>
      </trkpt>
      <trkpt lat="45.93042" lon="4.76442">
        <ele>169</ele>
        <time>2017-12-22T09:57:18Z</time>
      </trkpt>
      <trkpt lat="45.93047" lon="4.76448">
        <ele>169</ele>
        <time>2017-12-22T09:57:19Z</time>
      </trkpt>
      <trkpt lat="45.93051" lon="4.76453">
        <ele>169</ele>
        <time>2017-12-22T09:57:20Z</time>
      </trkpt>
      <trkpt lat="45.93056" lon="4.76457">
        <ele>169</ele>
        <time>2017-12-22T09:57:21Z</time>
      </trkpt>
      <trkpt lat="45.9306" lon="4.76463">
        <ele>169</ele>
        <time>2017-12-22T09:57:22Z</time>
      </trkpt>
      <trkpt lat="45.93066" lon="4.76467">
        <ele>169</ele>
        <time>2017-12-22T09:57:23Z</time>
      </trkpt>
      <trkpt lat="45.93071" lon="4.76472">
        <ele>169</ele>
        <time>2017-12-22T09:57:24Z</time>
      </trkpt>
      <trkpt lat="45.93075" lon="4.76476">
        <ele>169</ele>
        <time>2017-12-22T09:57:25Z</time>
      </trkpt>
      <trkpt lat="45.93081" lon="4.7648">
        <ele>169</ele>
        <time>2017-12-22T09:57:26Z</time>
      </trkpt>
      <trkpt lat="45.93085" lon="4.76485">
        <ele>170</ele>
        <time>2017-12-22T09:57:27Z</time>
      </trkpt>
      <trkpt lat="45.93091" lon="4.76489">
        <ele>170</ele>
        <time>2017-12-22T09:57:28Z</time>
      </trkpt>
      <trkpt lat="45.93096" lon="4.76492">
        <ele>170</ele>
        <time>2017-12-22T09:57:29Z</time>
      </trkpt>
      <trkpt lat="45.93102" lon="4.76497">
        <ele>169</ele>
        <time>2017-12-22T09:57:30Z</time>
      </trkpt>
      <trkpt lat="45.93106" lon="4.76502">
        <ele>170</ele>
        <time>2017-12-22T09:57:31Z</time>
      </trkpt>
      <trkpt lat="45.93111" lon="4.76506">
        <ele>170</ele>
        <time>2017-12-22T09:57:32Z</time>
      </trkpt>
      <trkpt lat="45.93117" lon="4.76511">
        <ele>170</ele>
        <time>2017-12-22T09:57:33Z</time>
      </trkpt>
      <trkpt lat="45.93122" lon="4.76515">
        <ele>170</ele>
        <time>2017-12-22T09:57:34Z</time>
      </trkpt>
      <trkpt lat="45.93127" lon="4.76519">
        <ele>170</ele>
        <time>2017-12-22T09:57:35Z</time>
      </trkpt>
      <trkpt lat="45.93131" lon="4.76523">
        <ele>170</ele>
        <time>2017-12-22T09:57:36Z</time>
      </trkpt>
      <trkpt lat="45.93135" lon="4.76528">
        <ele>170</ele>
        <time>2017-12-22T09:57:37Z</time>
      </trkpt>
      <trkpt lat="45.93138" lon="4.76531">
        <ele>170</ele>
        <time>2017-12-22T09:57:38Z</time>
      </trkpt>
      <trkpt lat="45.93143" lon="4.76536">
        <ele>170</ele>
        <time>2017-12-22T09:57:39Z</time>
      </trkpt>
      <trkpt lat="45.93148" lon="4.76539">
        <ele>170</ele>
        <time>2017-12-22T09:57:40Z</time>
      </trkpt>
      <trkpt lat="45.93153" lon="4.76542">
        <ele>170</ele>
        <time>2017-12-22T09:57:41Z</time>
      </trkpt>
      <trkpt lat="45.93157" lon="4.76546">
        <ele>170</ele>
        <time>2017-12-22T09:57:42Z</time>
      </trkpt>
      <trkpt lat="45.9316" lon="4.76552">
        <ele>170</ele>
        <time>2017-12-22T09:57:43Z</time>
      </trkpt>
      <trkpt lat="45.93163" lon="4.76558">
        <ele>170</ele>
        <time>2017-12-22T09:57:44Z</time>
      </trkpt>
      <trkpt lat="45.93167" lon="4.76561">
        <ele>170</ele>
        <time>2017-12-22T09:57:45Z</time>
      </trkpt>
      <trkpt lat="45.93173" lon="4.76565">
        <ele>170</ele>
        <time>2017-12-22T09:57:46Z</time>
      </trkpt>
      <trkpt lat="45.93177" lon="4.76569">
        <ele>170</ele>
        <time>2017-12-22T09:57:47Z</time>
      </trkpt>
      <trkpt lat="45.93183" lon="4.76574">
        <ele>170</ele>
        <time>2017-12-22T09:57:48Z</time>
      </trkpt>
      <trkpt lat="45.93188" lon="4.76579">
        <ele>170</ele>
        <time>2017-12-22T09:57:49Z</time>
      </trkpt>
      <trkpt lat="45.93193" lon="4.76585">
        <ele>170</ele>
        <time>2017-12-22T09:57:50Z</time>
      </trkpt>
      <trkpt lat="45.93198" lon="4.76591">
        <ele>170</ele>
        <time>2017-12-22T09:57:51Z</time>
      </trkpt>
      <trkpt lat="45.93202" lon="4.76596">
        <ele>170</ele>
        <time>2017-12-22T09:57:52Z</time>
      </trkpt>
      <trkpt lat="45.93206" lon="4.766">
        <ele>170</ele>
        <time>2017-12-22T09:57:53Z</time>
      </trkpt>
      <trkpt lat="45.93211" lon="4.76605">
        <ele>170</ele>
        <time>2017-12-22T09:57:54Z</time>
      </trkpt>
      <trkpt lat="45.93216" lon="4.76611">
        <ele>170</ele>
        <time>2017-12-22T09:57:55Z</time>
      </trkpt>
      <trkpt lat="45.9322" lon="4.76616">
        <ele>170</ele>
        <time>2017-12-22T09:57:56Z</time>
      </trkpt>
      <trkpt lat="45.93226" lon="4.7662">
        <ele>170</ele>
        <time>2017-12-22T09:57:57Z</time>
      </trkpt>
      <trkpt lat="45.9323" lon="4.76625">
        <ele>170</ele>
        <time>2017-12-22T09:57:58Z</time>
      </trkpt>
      <trkpt lat="45.93235" lon="4.7663">
        <ele>170</ele>
        <time>2017-12-22T09:57:59Z</time>
      </trkpt>
      <trkpt lat="45.9324" lon="4.76635">
        <ele>171</ele>
        <time>2017-12-22T09:58:00Z</time>
      </trkpt>
      <trkpt lat="45.93245" lon="4.76641">
        <ele>171</ele>
        <time>2017-12-22T09:58:01Z</time>
      </trkpt>
      <trkpt lat="45.9325" lon="4.76646">
        <ele>171</ele>
        <time>2017-12-22T09:58:02Z</time>
      </trkpt>
      <trkpt lat="45.93255" lon="4.7665">
        <ele>171</ele>
        <time>2017-12-22T09:58:03Z</time>
      </trkpt>
      <trkpt lat="45.93261" lon="4.76653">
        <ele>171</ele>
        <time>2017-12-22T09:58:04Z</time>
      </trkpt>
      <trkpt lat="45.93264" lon="4.76657">
        <ele>171</ele>
        <time>2017-12-22T09:58:05Z</time>
      </trkpt>
      <trkpt lat="45.93269" lon="4.76661">
        <ele>171</ele>
        <time>2017-12-22T09:58:06Z</time>
      </trkpt>
      <trkpt lat="45.93274" lon="4.76666">
        <ele>171</ele>
        <time>2017-12-22T09:58:07Z</time>
      </trkpt>
      <trkpt lat="45.93279" lon="4.76672">
        <ele>172</ele>
        <time>2017-12-22T09:58:08Z</time>
      </trkpt>
      <trkpt lat="45.93282" lon="4.76676">
        <ele>172</ele>
        <time>2017-12-22T09:58:09Z</time>
      </trkpt>
      <trkpt lat="45.93287" lon="4.76679">
        <ele>172</ele>
        <time>2017-12-22T09:58:10Z</time>
      </trkpt>
      <trkpt lat="45.93291" lon="4.76684">
        <ele>172</ele>
        <time>2017-12-22T09:58:11Z</time>
      </trkpt>
      <trkpt lat="45.93294" lon="4.76687">
        <ele>172</ele>
        <time>2017-12-22T09:58:12Z</time>
      </trkpt>
      <trkpt lat="45.93297" lon="4.76692">
        <ele>172</ele>
        <time>2017-12-22T09:58:13Z</time>
      </trkpt>
      <trkpt lat="45.93301" lon="4.76696">
        <ele>172</ele>
        <time>2017-12-22T09:58:14Z</time>
      </trkpt>
      <trkpt lat="45.93306" lon="4.76701">
        <ele>172</ele>
        <time>2017-12-22T09:58:15Z</time>
      </trkpt>
      <trkpt lat="45.93311" lon="4.76707">
        <ele>172</ele>
        <time>2017-12-22T09:58:16Z</time>
      </trkpt>
      <trkpt lat="45.93315" lon="4.76712">
        <ele>172</ele>
        <time>2017-12-22T09:58:17Z</time>
      </trkpt>
      <trkpt lat="45.93318" lon="4.76717">
        <ele>172</ele>
        <time>2017-12-22T09:58:18Z</time>
      </trkpt>
      <trkpt lat="45.93323" lon="4.76725">
        <ele>172</ele>
        <time>2017-12-22T09:58:19Z</time>
      </trkpt>
      <trkpt lat="45.93327" lon="4.7673">
        <ele>172</ele>
        <time>2017-12-22T09:58:20Z</time>
      </trkpt>
      <trkpt lat="45.93333" lon="4.76734">
        <ele>172</ele>
        <time>2017-12-22T09:58:21Z</time>
      </trkpt>
      <trkpt lat="45.93338" lon="4.76739">
        <ele>172</ele>
        <time>2017-12-22T09:58:22Z</time>
      </trkpt>
      <trkpt lat="45.93343" lon="4.76745">
        <ele>173</ele>
        <time>2017-12-22T09:58:23Z</time>
      </trkpt>
      <trkpt lat="45.93346" lon="4.76749">
        <ele>172</ele>
        <time>2017-12-22T09:58:24Z</time>
      </trkpt>
      <trkpt lat="45.93351" lon="4.76753">
        <ele>172</ele>
        <time>2017-12-22T09:58:25Z</time>
      </trkpt>
      <trkpt lat="45.93356" lon="4.76757">
        <ele>172</ele>
        <time>2017-12-22T09:58:26Z</time>
      </trkpt>
      <trkpt lat="45.93359" lon="4.76761">
        <ele>172</ele>
        <time>2017-12-22T09:58:27Z</time>
      </trkpt>
      <trkpt lat="45.93363" lon="4.76765">
        <ele>172</ele>
        <time>2017-12-22T09:58:28Z</time>
      </trkpt>
      <trkpt lat="45.93368" lon="4.76769">
        <ele>172</ele>
        <time>2017-12-22T09:58:29Z</time>
      </trkpt>
      <trkpt lat="45.93373" lon="4.76774">
        <ele>172</ele>
        <time>2017-12-22T09:58:30Z</time>
      </trkpt>
      <trkpt lat="45.93378" lon="4.76778">
        <ele>172</ele>
        <time>2017-12-22T09:58:31Z</time>
      </trkpt>
      <trkpt lat="45.93383" lon="4.76783">
        <ele>172</ele>
        <time>2017-12-22T09:58:32Z</time>
      </trkpt>
      <trkpt lat="45.93388" lon="4.76788">
        <ele>172</ele>
        <time>2017-12-22T09:58:33Z</time>
      </trkpt>
      <trkpt lat="45.93393" lon="4.76794">
        <ele>172</ele>
        <time>2017-12-22T09:58:34Z</time>
      </trkpt>
      <trkpt lat="45.93397" lon="4.76801">
        <ele>172</ele>
        <time>2017-12-22T09:58:35Z</time>
      </trkpt>
      <trkpt lat="45.934" lon="4.76808">
        <ele>172</ele>
        <time>2017-12-22T09:58:36Z</time>
      </trkpt>
      <trkpt lat="45.93404" lon="4.76814">
        <ele>172</ele>
        <time>2017-12-22T09:58:37Z</time>
      </trkpt>
      <trkpt lat="45.93409" lon="4.7682">
        <ele>172</ele>
        <time>2017-12-22T09:58:38Z</time>
      </trkpt>
      <trkpt lat="45.93413" lon="4.76827">
        <ele>172</ele>
        <time>2017-12-22T09:58:39Z</time>
      </trkpt>
      <trkpt lat="45.93417" lon="4.76835">
        <ele>172</ele>
        <time>2017-12-22T09:58:40Z</time>
      </trkpt>
      <trkpt lat="45.9342" lon="4.76842">
        <ele>171</ele>
        <time>2017-12-22T09:58:41Z</time>
      </trkpt>
      <trkpt lat="45.93424" lon="4.76849">
        <ele>171</ele>
        <time>2017-12-22T09:58:42Z</time>
      </trkpt>
      <trkpt lat="45.93428" lon="4.76856">
        <ele>171</ele>
        <time>2017-12-22T09:58:43Z</time>
      </trkpt>
      <trkpt lat="45.9343" lon="4.76863">
        <ele>171</ele>
        <time>2017-12-22T09:58:44Z</time>
      </trkpt>
      <trkpt lat="45.93434" lon="4.76869">
        <ele>171</ele>
        <time>2017-12-22T09:58:45Z</time>
      </trkpt>
      <trkpt lat="45.93436" lon="4.76876">
        <ele>171</ele>
        <time>2017-12-22T09:58:46Z</time>
      </trkpt>
      <trkpt lat="45.93439" lon="4.76883">
        <ele>170</ele>
        <time>2017-12-22T09:58:47Z</time>
      </trkpt>
      <trkpt lat="45.93441" lon="4.7689">
        <ele>170</ele>
        <time>2017-12-22T09:58:48Z</time>
      </trkpt>
      <trkpt lat="45.93444" lon="4.76897">
        <ele>170</ele>
        <time>2017-12-22T09:58:49Z</time>
      </trkpt>
      <trkpt lat="45.93446" lon="4.76904">
        <ele>170</ele>
        <time>2017-12-22T09:58:50Z</time>
      </trkpt>
      <trkpt lat="45.93449" lon="4.76912">
        <ele>170</ele>
        <time>2017-12-22T09:58:51Z</time>
      </trkpt>
      <trkpt lat="45.9345" lon="4.7692">
        <ele>170</ele>
        <time>2017-12-22T09:58:52Z</time>
      </trkpt>
      <trkpt lat="45.93451" lon="4.76928">
        <ele>170</ele>
        <time>2017-12-22T09:58:53Z</time>
      </trkpt>
      <trkpt lat="45.93452" lon="4.76936">
        <ele>170</ele>
        <time>2017-12-22T09:58:54Z</time>
      </trkpt>
      <trkpt lat="45.93454" lon="4.76944">
        <ele>170</ele>
        <time>2017-12-22T09:58:55Z</time>
      </trkpt>
      <trkpt lat="45.93455" lon="4.76952">
        <ele>170</ele>
        <time>2017-12-22T09:58:56Z</time>
      </trkpt>
      <trkpt lat="45.93457" lon="4.76961">
        <ele>170</ele>
        <time>2017-12-22T09:58:57Z</time>
      </trkpt>
      <trkpt lat="45.93458" lon="4.76969">
        <ele>170</ele>
        <time>2017-12-22T09:58:58Z</time>
      </trkpt>
      <trkpt lat="45.93459" lon="4.76977">
        <ele>170</ele>
        <time>2017-12-22T09:58:59Z</time>
      </trkpt>
      <trkpt lat="45.9346" lon="4.76986">
        <ele>170</ele>
        <time>2017-12-22T09:59:00Z</time>
      </trkpt>
      <trkpt lat="45.93462" lon="4.76995">
        <ele>170</ele>
        <time>2017-12-22T09:59:01Z</time>
      </trkpt>
      <trkpt lat="45.93463" lon="4.77003">
        <ele>170</ele>
        <time>2017-12-22T09:59:02Z</time>
      </trkpt>
      <trkpt lat="45.93464" lon="4.77011">
        <ele>170</ele>
        <time>2017-12-22T09:59:03Z</time>
      </trkpt>
      <trkpt lat="45.93465" lon="4.77019">
        <ele>170</ele>
        <time>2017-12-22T09:59:04Z</time>
      </trkpt>
      <trkpt lat="45.93467" lon="4.77028">
        <ele>170</ele>
        <time>2017-12-22T09:59:05Z</time>
      </trkpt>
      <trkpt lat="45.93469" lon="4.77037">
        <ele>170</ele>
        <time>2017-12-22T09:59:06Z</time>
      </trkpt>
      <trkpt lat="45.9347" lon="4.77045">
        <ele>170</ele>
        <time>2017-12-22T09:59:07Z</time>
      </trkpt>
      <trkpt lat="45.93472" lon="4.77053">
        <ele>170</ele>
        <time>2017-12-22T09:59:08Z</time>
      </trkpt>
      <trkpt lat="45.93473" lon="4.7706">
        <ele>170</ele>
        <time>2017-12-22T09:59:09Z</time>
      </trkpt>
      <trkpt lat="45.93474" lon="4.77068">
        <ele>170</ele>
        <time>2017-12-22T09:59:10Z</time>
      </trkpt>
      <trkpt lat="45.93475" lon="4.77076">
        <ele>170</ele>
        <time>2017-12-22T09:59:11Z</time>
      </trkpt>
      <trkpt lat="45.93476" lon="4.77083">
        <ele>170</ele>
        <time>2017-12-22T09:59:12Z</time>
      </trkpt>
      <trkpt lat="45.93478" lon="4.77091">
        <ele>169</ele>
        <time>2017-12-22T09:59:13Z</time>
      </trkpt>
      <trkpt lat="45.93479" lon="4.77098">
        <ele>169</ele>
        <time>2017-12-22T09:59:14Z</time>
      </trkpt>
      <trkpt lat="45.9348" lon="4.77104">
        <ele>169</ele>
        <time>2017-12-22T09:59:15Z</time>
      </trkpt>
      <trkpt lat="45.93482" lon="4.77112">
        <ele>169</ele>
        <time>2017-12-22T09:59:16Z</time>
      </trkpt>
      <trkpt lat="45.93485" lon="4.77118">
        <ele>169</ele>
        <time>2017-12-22T09:59:17Z</time>
      </trkpt>
      <trkpt lat="45.93486" lon="4.77125">
        <ele>169</ele>
        <time>2017-12-22T09:59:18Z</time>
      </trkpt>
      <trkpt lat="45.93488" lon="4.77132">
        <ele>169</ele>
        <time>2017-12-22T09:59:19Z</time>
      </trkpt>
      <trkpt lat="45.93489" lon="4.77139">
        <ele>169</ele>
        <time>2017-12-22T09:59:20Z</time>
      </trkpt>
      <trkpt lat="45.9349" lon="4.77147">
        <ele>169</ele>
        <time>2017-12-22T09:59:21Z</time>
      </trkpt>
      <trkpt lat="45.93492" lon="4.77155">
        <ele>169</ele>
        <time>2017-12-22T09:59:22Z</time>
      </trkpt>
      <trkpt lat="45.93493" lon="4.77164">
        <ele>169</ele>
        <time>2017-12-22T09:59:23Z</time>
      </trkpt>
      <trkpt lat="45.93491" lon="4.77173">
        <ele>169</ele>
        <time>2017-12-22T09:59:24Z</time>
      </trkpt>
      <trkpt lat="45.93493" lon="4.77181">
        <ele>169</ele>
        <time>2017-12-22T09:59:25Z</time>
      </trkpt>
      <trkpt lat="45.93495" lon="4.77188">
        <ele>169</ele>
        <time>2017-12-22T09:59:26Z</time>
      </trkpt>
      <trkpt lat="45.93497" lon="4.77195">
        <ele>169</ele>
        <time>2017-12-22T09:59:27Z</time>
      </trkpt>
      <trkpt lat="45.93499" lon="4.77203">
        <ele>169</ele>
        <time>2017-12-22T09:59:28Z</time>
      </trkpt>
      <trkpt lat="45.93501" lon="4.77212">
        <ele>169</ele>
        <time>2017-12-22T09:59:29Z</time>
      </trkpt>
      <trkpt lat="45.93503" lon="4.7722">
        <ele>169</ele>
        <time>2017-12-22T09:59:30Z</time>
      </trkpt>
      <trkpt lat="45.93505" lon="4.77227">
        <ele>169</ele>
        <time>2017-12-22T09:59:31Z</time>
      </trkpt>
      <trkpt lat="45.93506" lon="4.77235">
        <ele>169</ele>
        <time>2017-12-22T09:59:32Z</time>
      </trkpt>
      <trkpt lat="45.93508" lon="4.77244">
        <ele>170</ele>
        <time>2017-12-22T09:59:33Z</time>
      </trkpt>
      <trkpt lat="45.93509" lon="4.77252">
        <ele>170</ele>
        <time>2017-12-22T09:59:34Z</time>
      </trkpt>
      <trkpt lat="45.93511" lon="4.77261">
        <ele>170</ele>
        <time>2017-12-22T09:59:35Z</time>
      </trkpt>
      <trkpt lat="45.93513" lon="4.77269">
        <ele>170</ele>
        <time>2017-12-22T09:59:36Z</time>
      </trkpt>
      <trkpt lat="45.93515" lon="4.77277">
        <ele>170</ele>
        <time>2017-12-22T09:59:37Z</time>
      </trkpt>
      <trkpt lat="45.93516" lon="4.77284">
        <ele>170</ele>
        <time>2017-12-22T09:59:38Z</time>
      </trkpt>
      <trkpt lat="45.93518" lon="4.77291">
        <ele>170</ele>
        <time>2017-12-22T09:59:39Z</time>
      </trkpt>
      <trkpt lat="45.9352" lon="4.77297">
        <ele>170</ele>
        <time>2017-12-22T09:59:40Z</time>
      </trkpt>
      <trkpt lat="45.93522" lon="4.77304">
        <ele>170</ele>
        <time>2017-12-22T09:59:41Z</time>
      </trkpt>
      <trkpt lat="45.93524" lon="4.7731">
        <ele>170</ele>
        <time>2017-12-22T09:59:42Z</time>
      </trkpt>
      <trkpt lat="45.93526" lon="4.77318">
        <ele>170</ele>
        <time>2017-12-22T09:59:43Z</time>
      </trkpt>
      <trkpt lat="45.93527" lon="4.77325">
        <ele>170</ele>
        <time>2017-12-22T09:59:44Z</time>
      </trkpt>
      <trkpt lat="45.93528" lon="4.77332">
        <ele>170</ele>
        <time>2017-12-22T09:59:45Z</time>
      </trkpt>
      <trkpt lat="45.93529" lon="4.7734">
        <ele>170</ele>
        <time>2017-12-22T09:59:46Z</time>
      </trkpt>
      <trkpt lat="45.93532" lon="4.77347">
        <ele>170</ele>
        <time>2017-12-22T09:59:47Z</time>
      </trkpt>
      <trkpt lat="45.93534" lon="4.77355">
        <ele>170</ele>
        <time>2017-12-22T09:59:48Z</time>
      </trkpt>
      <trkpt lat="45.93536" lon="4.77363">
        <ele>170</ele>
        <time>2017-12-22T09:59:49Z</time>
      </trkpt>
      <trkpt lat="45.93538" lon="4.77371">
        <ele>170</ele>
        <time>2017-12-22T09:59:50Z</time>
      </trkpt>
      <trkpt lat="45.9354" lon="4.77379">
        <ele>170</ele>
        <time>2017-12-22T09:59:51Z</time>
      </trkpt>
      <trkpt lat="45.93542" lon="4.77388">
        <ele>170</ele>
        <time>2017-12-22T09:59:52Z</time>
      </trkpt>
      <trkpt lat="45.93544" lon="4.77396">
        <ele>170</ele>
        <time>2017-12-22T09:59:53Z</time>
      </trkpt>
      <trkpt lat="45.93545" lon="4.77404">
        <ele>170</ele>
        <time>2017-12-22T09:59:54Z</time>
      </trkpt>
      <trkpt lat="45.93547" lon="4.77413">
        <ele>170</ele>
        <time>2017-12-22T09:59:55Z</time>
      </trkpt>
      <trkpt lat="45.93548" lon="4.77422">
        <ele>170</ele>
        <time>2017-12-22T09:59:56Z</time>
      </trkpt>
      <trkpt lat="45.93549" lon="4.7743">
        <ele>169</ele>
        <time>2017-12-22T09:59:57Z</time>
      </trkpt>
      <trkpt lat="45.93552" lon="4.77437">
        <ele>169</ele>
        <time>2017-12-22T09:59:58Z</time>
      </trkpt>
      <trkpt lat="45.93551" lon="4.77443">
        <ele>169</ele>
        <time>2017-12-22T09:59:59Z</time>
      </trkpt>
      <trkpt lat="45.93554" lon="4.77451">
        <ele>169</ele>
        <time>2017-12-22T10:00:00Z</time>
      </trkpt>
      <trkpt lat="45.93556" lon="4.77457">
        <ele>169</ele>
        <time>2017-12-22T10:00:01Z</time>
      </trkpt>
      <trkpt lat="45.93558" lon="4.77464">
        <ele>169</ele>
        <time>2017-12-22T10:00:02Z</time>
      </trkpt>
      <trkpt lat="45.9356" lon="4.77472">
        <ele>169</ele>
        <time>2017-12-22T10:00:03Z</time>
      </trkpt>
      <trkpt lat="45.9356" lon="4.77478">
        <ele>169</ele>
        <time>2017-12-22T10:00:04Z</time>
      </trkpt>
      <trkpt lat="45.93562" lon="4.77486">
        <ele>169</ele>
        <time>2017-12-22T10:00:05Z</time>
      </trkpt>
      <trkpt lat="45.93564" lon="4.77492">
        <ele>169</ele>
        <time>2017-12-22T10:00:06Z</time>
      </trkpt>
      <trkpt lat="45.93566" lon="4.77498">
        <ele>169</ele>
        <time>2017-12-22T10:00:07Z</time>
      </trkpt>
      <trkpt lat="45.93568" lon="4.77505">
        <ele>169</ele>
        <time>2017-12-22T10:00:08Z</time>
      </trkpt>
      <trkpt lat="45.9357" lon="4.77513">
        <ele>169</ele>
        <time>2017-12-22T10:00:09Z</time>
      </trkpt>
      <trkpt lat="45.93572" lon="4.7752">
        <ele>169</ele>
        <time>2017-12-22T10:00:10Z</time>
      </trkpt>
      <trkpt lat="45.93574" lon="4.77527">
        <ele>169</ele>
        <time>2017-12-22T10:00:11Z</time>
      </trkpt>
      <trkpt lat="45.93576" lon="4.77536">
        <ele>169</ele>
        <time>2017-12-22T10:00:12Z</time>
      </trkpt>
      <trkpt lat="45.93576" lon="4.77544">
        <ele>169</ele>
        <time>2017-12-22T10:00:13Z</time>
      </trkpt>
      <trkpt lat="45.93579" lon="4.77551">
        <ele>169</ele>
        <time>2017-12-22T10:00:14Z</time>
      </trkpt>
      <trkpt lat="45.9358" lon="4.77558">
        <ele>169</ele>
        <time>2017-12-22T10:00:15Z</time>
      </trkpt>
      <trkpt lat="45.93582" lon="4.77564">
        <ele>169</ele>
        <time>2017-12-22T10:00:16Z</time>
      </trkpt>
      <trkpt lat="45.93584" lon="4.77572">
        <ele>170</ele>
        <time>2017-12-22T10:00:17Z</time>
      </trkpt>
      <trkpt lat="45.93588" lon="4.77579">
        <ele>170</ele>
        <time>2017-12-22T10:00:18Z</time>
      </trkpt>
      <trkpt lat="45.9359" lon="4.77586">
        <ele>170</ele>
        <time>2017-12-22T10:00:19Z</time>
      </trkpt>
      <trkpt lat="45.93592" lon="4.77593">
        <ele>170</ele>
        <time>2017-12-22T10:00:20Z</time>
      </trkpt>
      <trkpt lat="45.93594" lon="4.776">
        <ele>170</ele>
        <time>2017-12-22T10:00:21Z</time>
      </trkpt>
      <trkpt lat="45.93596" lon="4.77607">
        <ele>170</ele>
        <time>2017-12-22T10:00:22Z</time>
      </trkpt>
      <trkpt lat="45.93598" lon="4.77613">
        <ele>170</ele>
        <time>2017-12-22T10:00:23Z</time>
      </trkpt>
      <trkpt lat="45.936" lon="4.77619">
        <ele>170</ele>
        <time>2017-12-22T10:00:24Z</time>
      </trkpt>
      <trkpt lat="45.93602" lon="4.77625">
        <ele>170</ele>
        <time>2017-12-22T10:00:25Z</time>
      </trkpt>
      <trkpt lat="45.93605" lon="4.77631">
        <ele>169</ele>
        <time>2017-12-22T10:00:26Z</time>
      </trkpt>
      <trkpt lat="45.93607" lon="4.77637">
        <ele>169</ele>
        <time>2017-12-22T10:00:27Z</time>
      </trkpt>
      <trkpt lat="45.9361" lon="4.77644">
        <ele>169</ele>
        <time>2017-12-22T10:00:28Z</time>
      </trkpt>
      <trkpt lat="45.93613" lon="4.7765">
        <ele>169</ele>
        <time>2017-12-22T10:00:29Z</time>
      </trkpt>
      <trkpt lat="45.93616" lon="4.77656">
        <ele>169</ele>
        <time>2017-12-22T10:00:30Z</time>
      </trkpt>
      <trkpt lat="45.93619" lon="4.77661">
        <ele>169</ele>
        <time>2017-12-22T10:00:31Z</time>
      </trkpt>
      <trkpt lat="45.93621" lon="4.77669">
        <ele>169</ele>
        <time>2017-12-22T10:00:32Z</time>
      </trkpt>
      <trkpt lat="45.93624" lon="4.77674">
        <ele>169</ele>
        <time>2017-12-22T10:00:33Z</time>
      </trkpt>
      <trkpt lat="45.93628" lon="4.77681">
        <ele>169</ele>
        <time>2017-12-22T10:00:34Z</time>
      </trkpt>
      <trkpt lat="45.93631" lon="4.77687">
        <ele>169</ele>
        <time>2017-12-22T10:00:35Z</time>
      </trkpt>
      <trkpt lat="45.93633" lon="4.77692">
        <ele>169</ele>
        <time>2017-12-22T10:00:36Z</time>
      </trkpt>
      <trkpt lat="45.93637" lon="4.77697">
        <ele>169</ele>
        <time>2017-12-22T10:00:37Z</time>
      </trkpt>
      <trkpt lat="45.93639" lon="4.77703">
        <ele>170</ele>
        <time>2017-12-22T10:00:38Z</time>
      </trkpt>
      <trkpt lat="45.93644" lon="4.77713">
        <ele>170</ele>
        <time>2017-12-22T10:00:40Z</time>
      </trkpt>
      <trkpt lat="45.93646" lon="4.77718">
        <ele>170</ele>
        <time>2017-12-22T10:00:41Z</time>
      </trkpt>
      <trkpt lat="45.93651" lon="4.77727">
        <ele>170</ele>
        <time>2017-12-22T10:00:43Z</time>
      </trkpt>
      <trkpt lat="45.93653" lon="4.77732">
        <ele>170</ele>
        <time>2017-12-22T10:00:44Z</time>
      </trkpt>
      <trkpt lat="45.93659" lon="4.7774">
        <ele>170</ele>
        <time>2017-12-22T10:00:46Z</time>
      </trkpt>
      <trkpt lat="45.93662" lon="4.77745">
        <ele>171</ele>
        <time>2017-12-22T10:00:47Z</time>
      </trkpt>
      <trkpt lat="45.93667" lon="4.77753">
        <ele>171</ele>
        <time>2017-12-22T10:00:49Z</time>
      </trkpt>
      <trkpt lat="45.9367" lon="4.77757">
        <ele>171</ele>
        <time>2017-12-22T10:00:50Z</time>
      </trkpt>
      <trkpt lat="45.93676" lon="4.77765">
        <ele>170</ele>
        <time>2017-12-22T10:00:52Z</time>
      </trkpt>
      <trkpt lat="45.93679" lon="4.77769">
        <ele>170</ele>
        <time>2017-12-22T10:00:53Z</time>
      </trkpt>
      <trkpt lat="45.93685" lon="4.77777">
        <ele>170</ele>
        <time>2017-12-22T10:00:55Z</time>
      </trkpt>
      <trkpt lat="45.93688" lon="4.77781">
        <ele>170</ele>
        <time>2017-12-22T10:00:56Z</time>
      </trkpt>
      <trkpt lat="45.93693" lon="4.77789">
        <ele>170</ele>
        <time>2017-12-22T10:00:58Z</time>
      </trkpt>
      <trkpt lat="45.93696" lon="4.77793">
        <ele>169</ele>
        <time>2017-12-22T10:00:59Z</time>
      </trkpt>
      <trkpt lat="45.93702" lon="4.77801">
        <ele>169</ele>
        <time>2017-12-22T10:01:01Z</time>
      </trkpt>
      <trkpt lat="45.93706" lon="4.77806">
        <ele>169</ele>
        <time>2017-12-22T10:01:02Z</time>
      </trkpt>
      <trkpt lat="45.93709" lon="4.7781">
        <ele>169</ele>
        <time>2017-12-22T10:01:03Z</time>
      </trkpt>
      <trkpt lat="45.93712" lon="4.77815">
        <ele>169</ele>
        <time>2017-12-22T10:01:04Z</time>
      </trkpt>
      <trkpt lat="45.93719" lon="4.77822">
        <ele>169</ele>
        <time>2017-12-22T10:01:06Z</time>
      </trkpt>
      <trkpt lat="45.93724" lon="4.77827">
        <ele>168</ele>
        <time>2017-12-22T10:01:07Z</time>
      </trkpt>
      <trkpt lat="45.9373" lon="4.77835">
        <ele>167</ele>
        <time>2017-12-22T10:01:09Z</time>
      </trkpt>
      <trkpt lat="45.93734" lon="4.7784">
        <ele>167</ele>
        <time>2017-12-22T10:01:10Z</time>
      </trkpt>
      <trkpt lat="45.9374" lon="4.77848">
        <ele>167</ele>
        <time>2017-12-22T10:01:12Z</time>
      </trkpt>
      <trkpt lat="45.93743" lon="4.77851">
        <ele>167</ele>
        <time>2017-12-22T10:01:13Z</time>
      </trkpt>
      <trkpt lat="45.93749" lon="4.77859">
        <ele>167</ele>
        <time>2017-12-22T10:01:15Z</time>
      </trkpt>
      <trkpt lat="45.93752" lon="4.77863">
        <ele>166</ele>
        <time>2017-12-22T10:01:16Z</time>
      </trkpt>
      <trkpt lat="45.93756" lon="4.77868">
        <ele>166</ele>
        <time>2017-12-22T10:01:17Z</time>
      </trkpt>
      <trkpt lat="45.93759" lon="4.77872">
        <ele>166</ele>
        <time>2017-12-22T10:01:18Z</time>
      </trkpt>
      <trkpt lat="45.93762" lon="4.77876">
        <ele>166</ele>
        <time>2017-12-22T10:01:19Z</time>
      </trkpt>
      <trkpt lat="45.93766" lon="4.77881">
        <ele>166</ele>
        <time>2017-12-22T10:01:20Z</time>
      </trkpt>
      <trkpt lat="45.93769" lon="4.77886">
        <ele>166</ele>
        <time>2017-12-22T10:01:21Z</time>
      </trkpt>
      <trkpt lat="45.93772" lon="4.7789">
        <ele>166</ele>
        <time>2017-12-22T10:01:22Z</time>
      </trkpt>
      <trkpt lat="45.93776" lon="4.77896">
        <ele>166</ele>
        <time>2017-12-22T10:01:23Z</time>
      </trkpt>
      <trkpt lat="45.93779" lon="4.779">
        <ele>166</ele>
        <time>2017-12-22T10:01:24Z</time>
      </trkpt>
      <trkpt lat="45.93783" lon="4.77905">
        <ele>166</ele>
        <time>2017-12-22T10:01:25Z</time>
      </trkpt>
      <trkpt lat="45.93785" lon="4.7791">
        <ele>166</ele>
        <time>2017-12-22T10:01:26Z</time>
      </trkpt>
      <trkpt lat="45.93789" lon="4.77915">
        <ele>166</ele>
        <time>2017-12-22T10:01:27Z</time>
      </trkpt>
      <trkpt lat="45.93793" lon="4.77921">
        <ele>168</ele>
        <time>2017-12-22T10:01:28Z</time>
      </trkpt>
      <trkpt lat="45.938" lon="4.77929">
        <ele>168</ele>
        <time>2017-12-22T10:01:30Z</time>
      </trkpt>
      <trkpt lat="45.93803" lon="4.77933">
        <ele>168</ele>
        <time>2017-12-22T10:01:31Z</time>
      </trkpt>
      <trkpt lat="45.93806" lon="4.77938">
        <ele>169</ele>
        <time>2017-12-22T10:01:32Z</time>
      </trkpt>
      <trkpt lat="45.9381" lon="4.77943">
        <ele>169</ele>
        <time>2017-12-22T10:01:33Z</time>
      </trkpt>
      <trkpt lat="45.93813" lon="4.77948">
        <ele>169</ele>
        <time>2017-12-22T10:01:34Z</time>
      </trkpt>
      <trkpt lat="45.93817" lon="4.77953">
        <ele>170</ele>
        <time>2017-12-22T10:01:35Z</time>
      </trkpt>
      <trkpt lat="45.93821" lon="4.77958">
        <ele>170</ele>
        <time>2017-12-22T10:01:36Z</time>
      </trkpt>
      <trkpt lat="45.93824" lon="4.77962">
        <ele>171</ele>
        <time>2017-12-22T10:01:37Z</time>
      </trkpt>
      <trkpt lat="45.93828" lon="4.77967">
        <ele>171</ele>
        <time>2017-12-22T10:01:38Z</time>
      </trkpt>
      <trkpt lat="45.93832" lon="4.77971">
        <ele>172</ele>
        <time>2017-12-22T10:01:39Z</time>
      </trkpt>
      <trkpt lat="45.93837" lon="4.77979">
        <ele>178</ele>
        <time>2017-12-22T10:01:42Z</time>
      </trkpt>
      <trkpt lat="45.93839" lon="4.77981">
        <ele>178</ele>
        <time>2017-12-22T10:01:43Z</time>
      </trkpt>
      <trkpt lat="45.93844" lon="4.7799">
        <ele>179</ele>
        <time>2017-12-22T10:01:49Z</time>
      </trkpt>
      <trkpt lat="45.93845" lon="4.77992">
        <ele>179</ele>
        <time>2017-12-22T10:01:50Z</time>
      </trkpt>
      <trkpt lat="45.93846" lon="4.78001">
        <ele>181</ele>
        <time>2017-12-22T10:01:53Z</time>
      </trkpt>
      <trkpt lat="45.93846" lon="4.78006">
        <ele>181</ele>
        <time>2017-12-22T10:01:54Z</time>
      </trkpt>
      <trkpt lat="45.93846" lon="4.78012">
        <ele>181</ele>
        <time>2017-12-22T10:01:55Z</time>
      </trkpt>
      <trkpt lat="45.93845" lon="4.78019">
        <ele>182</ele>
        <time>2017-12-22T10:01:56Z</time>
      </trkpt>
      <trkpt lat="45.93848" lon="4.78031">
        <ele>182</ele>
        <time>2017-12-22T10:01:58Z</time>
      </trkpt>
      <trkpt lat="45.93848" lon="4.78037">
        <ele>182</ele>
        <time>2017-12-22T10:01:59Z</time>
      </trkpt>
      <trkpt lat="45.93848" lon="4.78048">
        <ele>183</ele>
        <time>2017-12-22T10:02:01Z</time>
      </trkpt>
      <trkpt lat="45.93847" lon="4.78054">
        <ele>182</ele>
        <time>2017-12-22T10:02:02Z</time>
      </trkpt>
      <trkpt lat="45.93847" lon="4.78061">
        <ele>182</ele>
        <time>2017-12-22T10:02:03Z</time>
      </trkpt>
      <trkpt lat="45.93846" lon="4.78069">
        <ele>182</ele>
        <time>2017-12-22T10:02:04Z</time>
      </trkpt>
      <trkpt lat="45.93845" lon="4.78076">
        <ele>182</ele>
        <time>2017-12-22T10:02:05Z</time>
      </trkpt>
      <trkpt lat="45.93844" lon="4.78083">
        <ele>181</ele>
        <time>2017-12-22T10:02:06Z</time>
      </trkpt>
      <trkpt lat="45.93843" lon="4.78095">
        <ele>183</ele>
        <time>2017-12-22T10:02:08Z</time>
      </trkpt>
      <trkpt lat="45.93841" lon="4.78101">
        <ele>183</ele>
        <time>2017-12-22T10:02:09Z</time>
      </trkpt>
      <trkpt lat="45.9384" lon="4.78107">
        <ele>184</ele>
        <time>2017-12-22T10:02:10Z</time>
      </trkpt>
      <trkpt lat="45.93838" lon="4.78114">
        <ele>184</ele>
        <time>2017-12-22T10:02:11Z</time>
      </trkpt>
      <trkpt lat="45.93836" lon="4.78121">
        <ele>184</ele>
        <time>2017-12-22T10:02:12Z</time>
      </trkpt>
      <trkpt lat="45.93835" lon="4.78126">
        <ele>184</ele>
        <time>2017-12-22T10:02:13Z</time>
      </trkpt>
      <trkpt lat="45.93833" lon="4.78133">
        <ele>180</ele>
        <time>2017-12-22T10:02:14Z</time>
      </trkpt>
      <trkpt lat="45.93832" lon="4.7814">
        <ele>180</ele>
        <time>2017-12-22T10:02:15Z</time>
      </trkpt>
      <trkpt lat="45.9383" lon="4.78147">
        <ele>180</ele>
        <time>2017-12-22T10:02:16Z</time>
      </trkpt>
      <trkpt lat="45.93828" lon="4.78154">
        <ele>181</ele>
        <time>2017-12-22T10:02:17Z</time>
      </trkpt>
      <trkpt lat="45.93826" lon="4.7816">
        <ele>181</ele>
        <time>2017-12-22T10:02:18Z</time>
      </trkpt>
      <trkpt lat="45.93824" lon="4.78167">
        <ele>182</ele>
        <time>2017-12-22T10:02:19Z</time>
      </trkpt>
      <trkpt lat="45.9382" lon="4.78178">
        <ele>182</ele>
        <time>2017-12-22T10:02:21Z</time>
      </trkpt>
      <trkpt lat="45.93819" lon="4.78184">
        <ele>182</ele>
        <time>2017-12-22T10:02:22Z</time>
      </trkpt>
      <trkpt lat="45.93816" lon="4.78195">
        <ele>182</ele>
        <time>2017-12-22T10:02:24Z</time>
      </trkpt>
      <trkpt lat="45.93814" lon="4.782">
        <ele>182</ele>
        <time>2017-12-22T10:02:25Z</time>
      </trkpt>
      <trkpt lat="45.93811" lon="4.78212">
        <ele>182</ele>
        <time>2017-12-22T10:02:27Z</time>
      </trkpt>
      <trkpt lat="45.93809" lon="4.78217">
        <ele>182</ele>
        <time>2017-12-22T10:02:28Z</time>
      </trkpt>
      <trkpt lat="45.93805" lon="4.78227">
        <ele>182</ele>
        <time>2017-12-22T10:02:30Z</time>
      </trkpt>
      <trkpt lat="45.93802" lon="4.78233">
        <ele>182</ele>
        <time>2017-12-22T10:02:31Z</time>
      </trkpt>
      <trkpt lat="45.938" lon="4.7824">
        <ele>182</ele>
        <time>2017-12-22T10:02:32Z</time>
      </trkpt>
      <trkpt lat="45.93796" lon="4.78246">
        <ele>182</ele>
        <time>2017-12-22T10:02:33Z</time>
      </trkpt>
      <trkpt lat="45.93795" lon="4.78253">
        <ele>183</ele>
        <time>2017-12-22T10:02:34Z</time>
      </trkpt>
      <trkpt lat="45.93793" lon="4.78259">
        <ele>183</ele>
        <time>2017-12-22T10:02:35Z</time>
      </trkpt>
      <trkpt lat="45.9379" lon="4.78271">
        <ele>183</ele>
        <time>2017-12-22T10:02:37Z</time>
      </trkpt>
      <trkpt lat="45.93788" lon="4.78277">
        <ele>183</ele>
        <time>2017-12-22T10:02:38Z</time>
      </trkpt>
      <trkpt lat="45.93787" lon="4.78284">
        <ele>183</ele>
        <time>2017-12-22T10:02:39Z</time>
      </trkpt>
      <trkpt lat="45.93785" lon="4.78291">
        <ele>183</ele>
        <time>2017-12-22T10:02:40Z</time>
      </trkpt>
      <trkpt lat="45.93783" lon="4.78297">
        <ele>183</ele>
        <time>2017-12-22T10:02:41Z</time>
      </trkpt>
      <trkpt lat="45.93781" lon="4.78303">
        <ele>183</ele>
        <time>2017-12-22T10:02:42Z</time>
      </trkpt>
      <trkpt lat="45.93779" lon="4.7831">
        <ele>183</ele>
        <time>2017-12-22T10:02:43Z</time>
      </trkpt>
      <trkpt lat="45.93776" lon="4.78317">
        <ele>183</ele>
        <time>2017-12-22T10:02:44Z</time>
      </trkpt>
      <trkpt lat="45.93774" lon="4.78324">
        <ele>183</ele>
        <time>2017-12-22T10:02:45Z</time>
      </trkpt>
      <trkpt lat="45.93772" lon="4.78332">
        <ele>183</ele>
        <time>2017-12-22T10:02:46Z</time>
      </trkpt>
      <trkpt lat="45.9377" lon="4.78339">
        <ele>183</ele>
        <time>2017-12-22T10:02:47Z</time>
      </trkpt>
      <trkpt lat="45.93769" lon="4.78347">
        <ele>183</ele>
        <time>2017-12-22T10:02:48Z</time>
      </trkpt>
      <trkpt lat="45.93767" lon="4.78354">
        <ele>183</ele>
        <time>2017-12-22T10:02:49Z</time>
      </trkpt>
      <trkpt lat="45.93765" lon="4.7836">
        <ele>183</ele>
        <time>2017-12-22T10:02:50Z</time>
      </trkpt>
      <trkpt lat="45.93763" lon="4.78366">
        <ele>183</ele>
        <time>2017-12-22T10:02:51Z</time>
      </trkpt>
      <trkpt lat="45.93761" lon="4.78373">
        <ele>183</ele>
        <time>2017-12-22T10:02:52Z</time>
      </trkpt>
      <trkpt lat="45.9376" lon="4.7838">
        <ele>183</ele>
        <time>2017-12-22T10:02:53Z</time>
      </trkpt>
      <trkpt lat="45.93759" lon="4.78387">
        <ele>183</ele>
        <time>2017-12-22T10:02:54Z</time>
      </trkpt>
      <trkpt lat="45.93757" lon="4.78393">
        <ele>183</ele>
        <time>2017-12-22T10:02:55Z</time>
      </trkpt>
      <trkpt lat="45.93756" lon="4.784">
        <ele>182</ele>
        <time>2017-12-22T10:02:56Z</time>
      </trkpt>
      <trkpt lat="45.93754" lon="4.78408">
        <ele>182</ele>
        <time>2017-12-22T10:02:57Z</time>
      </trkpt>
      <trkpt lat="45.93752" lon="4.78415">
        <ele>181</ele>
        <time>2017-12-22T10:02:58Z</time>
      </trkpt>
      <trkpt lat="45.9375" lon="4.78422">
        <ele>181</ele>
        <time>2017-12-22T10:02:59Z</time>
      </trkpt>
      <trkpt lat="45.93747" lon="4.78429">
        <ele>180</ele>
        <time>2017-12-22T10:03:00Z</time>
      </trkpt>
      <trkpt lat="45.93745" lon="4.78435">
        <ele>180</ele>
        <time>2017-12-22T10:03:01Z</time>
      </trkpt>
      <trkpt lat="45.93743" lon="4.78443">
        <ele>180</ele>
        <time>2017-12-22T10:03:02Z</time>
      </trkpt>
      <trkpt lat="45.93741" lon="4.78449">
        <ele>180</ele>
        <time>2017-12-22T10:03:03Z</time>
      </trkpt>
      <trkpt lat="45.93739" lon="4.78457">
        <ele>180</ele>
        <time>2017-12-22T10:03:04Z</time>
      </trkpt>
      <trkpt lat="45.93738" lon="4.78464">
        <ele>180</ele>
        <time>2017-12-22T10:03:05Z</time>
      </trkpt>
      <trkpt lat="45.93737" lon="4.78472">
        <ele>180</ele>
        <time>2017-12-22T10:03:06Z</time>
      </trkpt>
      <trkpt lat="45.93733" lon="4.78481">
        <ele>180</ele>
        <time>2017-12-22T10:03:07Z</time>
      </trkpt>
      <trkpt lat="45.9373" lon="4.78489">
        <ele>180</ele>
        <time>2017-12-22T10:03:08Z</time>
      </trkpt>
      <trkpt lat="45.93728" lon="4.78497">
        <ele>180</ele>
        <time>2017-12-22T10:03:09Z</time>
      </trkpt>
      <trkpt lat="45.93725" lon="4.78505">
        <ele>179</ele>
        <time>2017-12-22T10:03:10Z</time>
      </trkpt>
      <trkpt lat="45.93723" lon="4.78513">
        <ele>179</ele>
        <time>2017-12-22T10:03:11Z</time>
      </trkpt>
      <trkpt lat="45.93721" lon="4.78521">
        <ele>178</ele>
        <time>2017-12-22T10:03:12Z</time>
      </trkpt>
      <trkpt lat="45.9372" lon="4.78529">
        <ele>178</ele>
        <time>2017-12-22T10:03:13Z</time>
      </trkpt>
      <trkpt lat="45.93718" lon="4.78537">
        <ele>178</ele>
        <time>2017-12-22T10:03:14Z</time>
      </trkpt>
      <trkpt lat="45.93716" lon="4.78546">
        <ele>178</ele>
        <time>2017-12-22T10:03:15Z</time>
      </trkpt>
      <trkpt lat="45.93715" lon="4.78555">
        <ele>178</ele>
        <time>2017-12-22T10:03:16Z</time>
      </trkpt>
      <trkpt lat="45.93713" lon="4.78563">
        <ele>178</ele>
        <time>2017-12-22T10:03:17Z</time>
      </trkpt>
      <trkpt lat="45.93711" lon="4.78572">
        <ele>177</ele>
        <time>2017-12-22T10:03:18Z</time>
      </trkpt>
      <trkpt lat="45.93709" lon="4.78579">
        <ele>177</ele>
        <time>2017-12-22T10:03:19Z</time>
      </trkpt>
      <trkpt lat="45.93708" lon="4.78586">
        <ele>176</ele>
        <time>2017-12-22T10:03:20Z</time>
      </trkpt>
      <trkpt lat="45.93706" lon="4.78592">
        <ele>176</ele>
        <time>2017-12-22T10:03:21Z</time>
      </trkpt>
      <trkpt lat="45.93704" lon="4.78601">
        <ele>176</ele>
        <time>2017-12-22T10:03:22Z</time>
      </trkpt>
      <trkpt lat="45.93702" lon="4.78607">
        <ele>176</ele>
        <time>2017-12-22T10:03:23Z</time>
      </trkpt>
      <trkpt lat="45.93701" lon="4.78615">
        <ele>176</ele>
        <time>2017-12-22T10:03:24Z</time>
      </trkpt>
      <trkpt lat="45.93703" lon="4.78622">
        <ele>176</ele>
        <time>2017-12-22T10:03:25Z</time>
      </trkpt>
      <trkpt lat="45.93706" lon="4.78626">
        <ele>176</ele>
        <time>2017-12-22T10:03:26Z</time>
      </trkpt>
      <trkpt lat="45.93714" lon="4.78628">
        <ele>176</ele>
        <time>2017-12-22T10:03:28Z</time>
      </trkpt>
      <trkpt lat="45.93719" lon="4.78628">
        <ele>177</ele>
        <time>2017-12-22T10:03:29Z</time>
      </trkpt>
      <trkpt lat="45.93726" lon="4.78625">
        <ele>177</ele>
        <time>2017-12-22T10:03:31Z</time>
      </trkpt>
      <trkpt lat="45.9373" lon="4.78624">
        <ele>177</ele>
        <time>2017-12-22T10:03:32Z</time>
      </trkpt>
      <trkpt lat="45.93737" lon="4.78622">
        <ele>177</ele>
        <time>2017-12-22T10:03:34Z</time>
      </trkpt>
      <trkpt lat="45.93741" lon="4.7862">
        <ele>177</ele>
        <time>2017-12-22T10:03:35Z</time>
      </trkpt>
      <trkpt lat="45.93749" lon="4.7862">
        <ele>177</ele>
        <time>2017-12-22T10:03:37Z</time>
      </trkpt>
      <trkpt lat="45.93753" lon="4.7862">
        <ele>181</ele>
        <time>2017-12-22T10:03:38Z</time>
      </trkpt>
      <trkpt lat="45.9376" lon="4.78617">
        <ele>181</ele>
        <time>2017-12-22T10:03:40Z</time>
      </trkpt>
      <trkpt lat="45.93763" lon="4.78616">
        <ele>181</ele>
        <time>2017-12-22T10:03:41Z</time>
      </trkpt>
      <trkpt lat="45.9377" lon="4.78613">
        <ele>181</ele>
        <time>2017-12-22T10:03:43Z</time>
      </trkpt>
      <trkpt lat="45.93773" lon="4.78612">
        <ele>181</ele>
        <time>2017-12-22T10:03:44Z</time>
      </trkpt>
      <trkpt lat="45.9378" lon="4.78611">
        <ele>181</ele>
        <time>2017-12-22T10:03:46Z</time>
      </trkpt>
      <trkpt lat="45.93783" lon="4.7861">
        <ele>182</ele>
        <time>2017-12-22T10:03:47Z</time>
      </trkpt>
      <trkpt lat="45.9379" lon="4.78608">
        <ele>182</ele>
        <time>2017-12-22T10:03:49Z</time>
      </trkpt>
      <trkpt lat="45.93794" lon="4.78607">
        <ele>182</ele>
        <time>2017-12-22T10:03:50Z</time>
      </trkpt>
      <trkpt lat="45.93801" lon="4.78605">
        <ele>183</ele>
        <time>2017-12-22T10:03:52Z</time>
      </trkpt>
      <trkpt lat="45.93805" lon="4.78604">
        <ele>183</ele>
        <time>2017-12-22T10:03:53Z</time>
      </trkpt>
      <trkpt lat="45.93813" lon="4.78601">
        <ele>183</ele>
        <time>2017-12-22T10:03:55Z</time>
      </trkpt>
      <trkpt lat="45.93817" lon="4.786">
        <ele>184</ele>
        <time>2017-12-22T10:03:56Z</time>
      </trkpt>
      <trkpt lat="45.93825" lon="4.78598">
        <ele>184</ele>
        <time>2017-12-22T10:03:58Z</time>
      </trkpt>
      <trkpt lat="45.93829" lon="4.78597">
        <ele>185</ele>
        <time>2017-12-22T10:03:59Z</time>
      </trkpt>
      <trkpt lat="45.93835" lon="4.78594">
        <ele>187</ele>
        <time>2017-12-22T10:04:01Z</time>
      </trkpt>
      <trkpt lat="45.93838" lon="4.78593">
        <ele>187</ele>
        <time>2017-12-22T10:04:02Z</time>
      </trkpt>
      <trkpt lat="45.93845" lon="4.78591">
        <ele>188</ele>
        <time>2017-12-22T10:04:04Z</time>
      </trkpt>
      <trkpt lat="45.93848" lon="4.78591">
        <ele>188</ele>
        <time>2017-12-22T10:04:05Z</time>
      </trkpt>
      <trkpt lat="45.93856" lon="4.7859">
        <ele>188</ele>
        <time>2017-12-22T10:04:08Z</time>
      </trkpt>
      <trkpt lat="45.93857" lon="4.78589">
        <ele>188</ele>
        <time>2017-12-22T10:04:09Z</time>
      </trkpt>
      <trkpt lat="45.93866" lon="4.78588">
        <ele>188</ele>
        <time>2017-12-22T10:04:14Z</time>
      </trkpt>
      <trkpt lat="45.93867" lon="4.78588">
        <ele>188</ele>
        <time>2017-12-22T10:04:15Z</time>
      </trkpt>
      <trkpt lat="45.93873" lon="4.78587">
        <ele>189</ele>
        <time>2017-12-22T10:04:17Z</time>
      </trkpt>
      <trkpt lat="45.93876" lon="4.78585">
        <ele>189</ele>
        <time>2017-12-22T10:04:18Z</time>
      </trkpt>
      <trkpt lat="45.93883" lon="4.78581">
        <ele>191</ele>
        <time>2017-12-22T10:04:20Z</time>
      </trkpt>
      <trkpt lat="45.93886" lon="4.78581">
        <ele>191</ele>
        <time>2017-12-22T10:04:21Z</time>
      </trkpt>
      <trkpt lat="45.93894" lon="4.7858">
        <ele>192</ele>
        <time>2017-12-22T10:04:24Z</time>
      </trkpt>
      <trkpt lat="45.93897" lon="4.78579">
        <ele>192</ele>
        <time>2017-12-22T10:04:25Z</time>
      </trkpt>
      <trkpt lat="45.93906" lon="4.78577">
        <ele>192</ele>
        <time>2017-12-22T10:04:29Z</time>
      </trkpt>
      <trkpt lat="45.93908" lon="4.78576">
        <ele>192</ele>
        <time>2017-12-22T10:04:30Z</time>
      </trkpt>
      <trkpt lat="45.93914" lon="4.78574">
        <ele>193</ele>
        <time>2017-12-22T10:04:33Z</time>
      </trkpt>
      <trkpt lat="45.93917" lon="4.78572">
        <ele>195</ele>
        <time>2017-12-22T10:04:34Z</time>
      </trkpt>
      <trkpt lat="45.93923" lon="4.78567">
        <ele>196</ele>
        <time>2017-12-22T10:04:37Z</time>
      </trkpt>
      <trkpt lat="45.93926" lon="4.78565">
        <ele>196</ele>
        <time>2017-12-22T10:04:38Z</time>
      </trkpt>
      <trkpt lat="45.93932" lon="4.7857">
        <ele>196</ele>
        <time>2017-12-22T10:04:42Z</time>
      </trkpt>
      <trkpt lat="45.93933" lon="4.78574">
        <ele>196</ele>
        <time>2017-12-22T10:04:43Z</time>
      </trkpt>
      <trkpt lat="45.93933" lon="4.78584">
        <ele>195</ele>
        <time>2017-12-22T10:04:45Z</time>
      </trkpt>
      <trkpt lat="45.93933" lon="4.7859">
        <ele>195</ele>
        <time>2017-12-22T10:04:46Z</time>
      </trkpt>
      <trkpt lat="45.93934" lon="4.786">
        <ele>195</ele>
        <time>2017-12-22T10:04:48Z</time>
      </trkpt>
      <trkpt lat="45.93934" lon="4.78605">
        <ele>195</ele>
        <time>2017-12-22T10:04:49Z</time>
      </trkpt>
      <trkpt lat="45.93934" lon="4.78615">
        <ele>195</ele>
        <time>2017-12-22T10:04:51Z</time>
      </trkpt>
      <trkpt lat="45.93934" lon="4.7862">
        <ele>195</ele>
        <time>2017-12-22T10:04:52Z</time>
      </trkpt>
      <trkpt lat="45.93934" lon="4.78629">
        <ele>195</ele>
        <time>2017-12-22T10:04:54Z</time>
      </trkpt>
      <trkpt lat="45.93934" lon="4.78634">
        <ele>195</ele>
        <time>2017-12-22T10:04:55Z</time>
      </trkpt>
      <trkpt lat="45.93934" lon="4.78644">
        <ele>195</ele>
        <time>2017-12-22T10:04:57Z</time>
      </trkpt>
      <trkpt lat="45.93935" lon="4.7865">
        <ele>194</ele>
        <time>2017-12-22T10:04:58Z</time>
      </trkpt>
      <trkpt lat="45.93934" lon="4.78661">
        <ele>194</ele>
        <time>2017-12-22T10:05:00Z</time>
      </trkpt>
      <trkpt lat="45.93934" lon="4.78667">
        <ele>193</ele>
        <time>2017-12-22T10:05:01Z</time>
      </trkpt>
      <trkpt lat="45.93934" lon="4.78678">
        <ele>193</ele>
        <time>2017-12-22T10:05:03Z</time>
      </trkpt>
      <trkpt lat="45.93935" lon="4.78684">
        <ele>193</ele>
        <time>2017-12-22T10:05:04Z</time>
      </trkpt>
      <trkpt lat="45.93935" lon="4.78694">
        <ele>194</ele>
        <time>2017-12-22T10:05:06Z</time>
      </trkpt>
      <trkpt lat="45.93935" lon="4.787">
        <ele>194</ele>
        <time>2017-12-22T10:05:07Z</time>
      </trkpt>
      <trkpt lat="45.93934" lon="4.7871">
        <ele>194</ele>
        <time>2017-12-22T10:05:09Z</time>
      </trkpt>
      <trkpt lat="45.93934" lon="4.78716">
        <ele>194</ele>
        <time>2017-12-22T10:05:10Z</time>
      </trkpt>
      <trkpt lat="45.93935" lon="4.78727">
        <ele>194</ele>
        <time>2017-12-22T10:05:12Z</time>
      </trkpt>
      <trkpt lat="45.93936" lon="4.78734">
        <ele>193</ele>
        <time>2017-12-22T10:05:13Z</time>
      </trkpt>
      <trkpt lat="45.93937" lon="4.78746">
        <ele>193</ele>
        <time>2017-12-22T10:05:15Z</time>
      </trkpt>
      <trkpt lat="45.93936" lon="4.78753">
        <ele>193</ele>
        <time>2017-12-22T10:05:16Z</time>
      </trkpt>
      <trkpt lat="45.93936" lon="4.78765">
        <ele>193</ele>
        <time>2017-12-22T10:05:18Z</time>
      </trkpt>
      <trkpt lat="45.93935" lon="4.78771">
        <ele>193</ele>
        <time>2017-12-22T10:05:19Z</time>
      </trkpt>
      <trkpt lat="45.93936" lon="4.78783">
        <ele>194</ele>
        <time>2017-12-22T10:05:21Z</time>
      </trkpt>
      <trkpt lat="45.93935" lon="4.78789">
        <ele>194</ele>
        <time>2017-12-22T10:05:22Z</time>
      </trkpt>
      <trkpt lat="45.93935" lon="4.78801">
        <ele>194</ele>
        <time>2017-12-22T10:05:24Z</time>
      </trkpt>
      <trkpt lat="45.93936" lon="4.78807">
        <ele>194</ele>
        <time>2017-12-22T10:05:25Z</time>
      </trkpt>
      <trkpt lat="45.93936" lon="4.78814">
        <ele>194</ele>
        <time>2017-12-22T10:05:26Z</time>
      </trkpt>
      <trkpt lat="45.93937" lon="4.78821">
        <ele>194</ele>
        <time>2017-12-22T10:05:27Z</time>
      </trkpt>
      <trkpt lat="45.93937" lon="4.78828">
        <ele>193</ele>
        <time>2017-12-22T10:05:28Z</time>
      </trkpt>
      <trkpt lat="45.93938" lon="4.78834">
        <ele>193</ele>
        <time>2017-12-22T10:05:29Z</time>
      </trkpt>
      <trkpt lat="45.93939" lon="4.78847">
        <ele>193</ele>
        <time>2017-12-22T10:05:31Z</time>
      </trkpt>
      <trkpt lat="45.93939" lon="4.78852">
        <ele>194</ele>
        <time>2017-12-22T10:05:32Z</time>
      </trkpt>
      <trkpt lat="45.9394" lon="4.78864">
        <ele>194</ele>
        <time>2017-12-22T10:05:34Z</time>
      </trkpt>
      <trkpt lat="45.9394" lon="4.78871">
        <ele>194</ele>
        <time>2017-12-22T10:05:35Z</time>
      </trkpt>
      <trkpt lat="45.9394" lon="4.78877">
        <ele>194</ele>
        <time>2017-12-22T10:05:36Z</time>
      </trkpt>
      <trkpt lat="45.93941" lon="4.78883">
        <ele>194</ele>
        <time>2017-12-22T10:05:37Z</time>
      </trkpt>
      <trkpt lat="45.9394" lon="4.7889">
        <ele>193</ele>
        <time>2017-12-22T10:05:38Z</time>
      </trkpt>
      <trkpt lat="45.9394" lon="4.78897">
        <ele>193</ele>
        <time>2017-12-22T10:05:39Z</time>
      </trkpt>
      <trkpt lat="45.93942" lon="4.78903">
        <ele>193</ele>
        <time>2017-12-22T10:05:40Z</time>
      </trkpt>
      <trkpt lat="45.93942" lon="4.7891">
        <ele>193</ele>
        <time>2017-12-22T10:05:41Z</time>
      </trkpt>
      <trkpt lat="45.93942" lon="4.78917">
        <ele>193</ele>
        <time>2017-12-22T10:05:42Z</time>
      </trkpt>
      <trkpt lat="45.93942" lon="4.78923">
        <ele>193</ele>
        <time>2017-12-22T10:05:43Z</time>
      </trkpt>
      <trkpt lat="45.93943" lon="4.78934">
        <ele>193</ele>
        <time>2017-12-22T10:05:45Z</time>
      </trkpt>
      <trkpt lat="45.93942" lon="4.7894">
        <ele>194</ele>
        <time>2017-12-22T10:05:46Z</time>
      </trkpt>
      <trkpt lat="45.93943" lon="4.78952">
        <ele>194</ele>
        <time>2017-12-22T10:05:48Z</time>
      </trkpt>
      <trkpt lat="45.93943" lon="4.78959">
        <ele>194</ele>
        <time>2017-12-22T10:05:49Z</time>
      </trkpt>
      <trkpt lat="45.93944" lon="4.7897">
        <ele>194</ele>
        <time>2017-12-22T10:05:51Z</time>
      </trkpt>
      <trkpt lat="45.93945" lon="4.78976">
        <ele>194</ele>
        <time>2017-12-22T10:05:52Z</time>
      </trkpt>
      <trkpt lat="45.93946" lon="4.78982">
        <ele>194</ele>
        <time>2017-12-22T10:05:53Z</time>
      </trkpt>
      <trkpt lat="45.93946" lon="4.78989">
        <ele>194</ele>
        <time>2017-12-22T10:05:54Z</time>
      </trkpt>
      <trkpt lat="45.93944" lon="4.79">
        <ele>194</ele>
        <time>2017-12-22T10:05:56Z</time>
      </trkpt>
      <trkpt lat="45.93945" lon="4.79006">
        <ele>195</ele>
        <time>2017-12-22T10:05:57Z</time>
      </trkpt>
      <trkpt lat="45.93945" lon="4.79018">
        <ele>195</ele>
        <time>2017-12-22T10:05:59Z</time>
      </trkpt>
      <trkpt lat="45.93946" lon="4.79023">
        <ele>195</ele>
        <time>2017-12-22T10:06:00Z</time>
      </trkpt>
      <trkpt lat="45.93946" lon="4.79035">
        <ele>195</ele>
        <time>2017-12-22T10:06:02Z</time>
      </trkpt>
      <trkpt lat="45.93945" lon="4.79042">
        <ele>195</ele>
        <time>2017-12-22T10:06:03Z</time>
      </trkpt>
      <trkpt lat="45.93948" lon="4.79052">
        <ele>196</ele>
        <time>2017-12-22T10:06:05Z</time>
      </trkpt>
      <trkpt lat="45.93949" lon="4.79058">
        <ele>196</ele>
        <time>2017-12-22T10:06:06Z</time>
      </trkpt>
      <trkpt lat="45.93951" lon="4.79068">
        <ele>196</ele>
        <time>2017-12-22T10:06:08Z</time>
      </trkpt>
      <trkpt lat="45.93951" lon="4.79073">
        <ele>196</ele>
        <time>2017-12-22T10:06:09Z</time>
      </trkpt>
      <trkpt lat="45.93952" lon="4.79084">
        <ele>197</ele>
        <time>2017-12-22T10:06:11Z</time>
      </trkpt>
      <trkpt lat="45.93953" lon="4.79089">
        <ele>197</ele>
        <time>2017-12-22T10:06:12Z</time>
      </trkpt>
      <trkpt lat="45.93953" lon="4.79101">
        <ele>197</ele>
        <time>2017-12-22T10:06:14Z</time>
      </trkpt>
      <trkpt lat="45.93953" lon="4.79107">
        <ele>197</ele>
        <time>2017-12-22T10:06:15Z</time>
      </trkpt>
      <trkpt lat="45.93953" lon="4.79119">
        <ele>197</ele>
        <time>2017-12-22T10:06:17Z</time>
      </trkpt>
      <trkpt lat="45.93953" lon="4.79124">
        <ele>197</ele>
        <time>2017-12-22T10:06:18Z</time>
      </trkpt>
      <trkpt lat="45.93953" lon="4.79135">
        <ele>197</ele>
        <time>2017-12-22T10:06:20Z</time>
      </trkpt>
      <trkpt lat="45.93953" lon="4.79141">
        <ele>197</ele>
        <time>2017-12-22T10:06:21Z</time>
      </trkpt>
      <trkpt lat="45.93952" lon="4.79152">
        <ele>197</ele>
        <time>2017-12-22T10:06:23Z</time>
      </trkpt>
      <trkpt lat="45.93952" lon="4.79157">
        <ele>197</ele>
        <time>2017-12-22T10:06:24Z</time>
      </trkpt>
      <trkpt lat="45.93952" lon="4.79169">
        <ele>197</ele>
        <time>2017-12-22T10:06:26Z</time>
      </trkpt>
      <trkpt lat="45.93952" lon="4.79175">
        <ele>197</ele>
        <time>2017-12-22T10:06:27Z</time>
      </trkpt>
      <trkpt lat="45.93952" lon="4.79186">
        <ele>197</ele>
        <time>2017-12-22T10:06:29Z</time>
      </trkpt>
      <trkpt lat="45.93952" lon="4.79192">
        <ele>197</ele>
        <time>2017-12-22T10:06:30Z</time>
      </trkpt>
      <trkpt lat="45.93952" lon="4.79203">
        <ele>197</ele>
        <time>2017-12-22T10:06:32Z</time>
      </trkpt>
      <trkpt lat="45.93953" lon="4.79209">
        <ele>197</ele>
        <time>2017-12-22T10:06:33Z</time>
      </trkpt>
      <trkpt lat="45.93954" lon="4.7922">
        <ele>197</ele>
        <time>2017-12-22T10:06:35Z</time>
      </trkpt>
      <trkpt lat="45.93955" lon="4.79226">
        <ele>197</ele>
        <time>2017-12-22T10:06:36Z</time>
      </trkpt>
      <trkpt lat="45.93955" lon="4.79238">
        <ele>197</ele>
        <time>2017-12-22T10:06:38Z</time>
      </trkpt>
      <trkpt lat="45.93955" lon="4.79244">
        <ele>197</ele>
        <time>2017-12-22T10:06:39Z</time>
      </trkpt>
      <trkpt lat="45.93954" lon="4.79256">
        <ele>198</ele>
        <time>2017-12-22T10:06:41Z</time>
      </trkpt>
      <trkpt lat="45.93954" lon="4.79262">
        <ele>198</ele>
        <time>2017-12-22T10:06:42Z</time>
      </trkpt>
      <trkpt lat="45.93954" lon="4.79274">
        <ele>198</ele>
        <time>2017-12-22T10:06:44Z</time>
      </trkpt>
      <trkpt lat="45.93954" lon="4.7928">
        <ele>198</ele>
        <time>2017-12-22T10:06:45Z</time>
      </trkpt>
      <trkpt lat="45.93954" lon="4.79291">
        <ele>198</ele>
        <time>2017-12-22T10:06:47Z</time>
      </trkpt>
      <trkpt lat="45.93954" lon="4.79297">
        <ele>199</ele>
        <time>2017-12-22T10:06:48Z</time>
      </trkpt>
      <trkpt lat="45.93954" lon="4.79308">
        <ele>199</ele>
        <time>2017-12-22T10:06:50Z</time>
      </trkpt>
      <trkpt lat="45.93954" lon="4.79314">
        <ele>199</ele>
        <time>2017-12-22T10:06:51Z</time>
      </trkpt>
      <trkpt lat="45.93953" lon="4.79325">
        <ele>199</ele>
        <time>2017-12-22T10:06:53Z</time>
      </trkpt>
      <trkpt lat="45.93953" lon="4.79331">
        <ele>199</ele>
        <time>2017-12-22T10:06:54Z</time>
      </trkpt>
      <trkpt lat="45.93953" lon="4.79342">
        <ele>200</ele>
        <time>2017-12-22T10:06:56Z</time>
      </trkpt>
      <trkpt lat="45.93953" lon="4.79348">
        <ele>200</ele>
        <time>2017-12-22T10:06:57Z</time>
      </trkpt>
      <trkpt lat="45.93953" lon="4.7936">
        <ele>201</ele>
        <time>2017-12-22T10:06:59Z</time>
      </trkpt>
      <trkpt lat="45.93953" lon="4.79365">
        <ele>201</ele>
        <time>2017-12-22T10:07:00Z</time>
      </trkpt>
      <trkpt lat="45.93953" lon="4.79376">
        <ele>201</ele>
        <time>2017-12-22T10:07:02Z</time>
      </trkpt>
      <trkpt lat="45.93953" lon="4.79382">
        <ele>201</ele>
        <time>2017-12-22T10:07:03Z</time>
      </trkpt>
      <trkpt lat="45.93952" lon="4.79393">
        <ele>201</ele>
        <time>2017-12-22T10:07:05Z</time>
      </trkpt>
      <trkpt lat="45.93952" lon="4.79399">
        <ele>201</ele>
        <time>2017-12-22T10:07:06Z</time>
      </trkpt>
      <trkpt lat="45.93951" lon="4.79409">
        <ele>201</ele>
        <time>2017-12-22T10:07:08Z</time>
      </trkpt>
      <trkpt lat="45.93951" lon="4.79414">
        <ele>201</ele>
        <time>2017-12-22T10:07:09Z</time>
      </trkpt>
      <trkpt lat="45.93951" lon="4.79425">
        <ele>202</ele>
        <time>2017-12-22T10:07:11Z</time>
      </trkpt>
      <trkpt lat="45.9395" lon="4.79431">
        <ele>202</ele>
        <time>2017-12-22T10:07:12Z</time>
      </trkpt>
      <trkpt lat="45.93949" lon="4.79442">
        <ele>202</ele>
        <time>2017-12-22T10:07:14Z</time>
      </trkpt>
      <trkpt lat="45.93949" lon="4.79448">
        <ele>202</ele>
        <time>2017-12-22T10:07:15Z</time>
      </trkpt>
      <trkpt lat="45.93949" lon="4.79459">
        <ele>202</ele>
        <time>2017-12-22T10:07:17Z</time>
      </trkpt>
      <trkpt lat="45.9395" lon="4.79465">
        <ele>202</ele>
        <time>2017-12-22T10:07:18Z</time>
      </trkpt>
      <trkpt lat="45.9395" lon="4.79477">
        <ele>202</ele>
        <time>2017-12-22T10:07:20Z</time>
      </trkpt>
      <trkpt lat="45.9395" lon="4.79483">
        <ele>202</ele>
        <time>2017-12-22T10:07:21Z</time>
      </trkpt>
      <trkpt lat="45.93951" lon="4.79494">
        <ele>202</ele>
        <time>2017-12-22T10:07:23Z</time>
      </trkpt>
      <trkpt lat="45.93952" lon="4.79499">
        <ele>202</ele>
        <time>2017-12-22T10:07:24Z</time>
      </trkpt>
      <trkpt lat="45.93953" lon="4.7951">
        <ele>204</ele>
        <time>2017-12-22T10:07:26Z</time>
      </trkpt>
      <trkpt lat="45.93954" lon="4.79516">
        <ele>204</ele>
        <time>2017-12-22T10:07:27Z</time>
      </trkpt>
      <trkpt lat="45.93955" lon="4.79527">
        <ele>204</ele>
        <time>2017-12-22T10:07:29Z</time>
      </trkpt>
      <trkpt lat="45.93956" lon="4.79533">
        <ele>205</ele>
        <time>2017-12-22T10:07:30Z</time>
      </trkpt>
      <trkpt lat="45.93958" lon="4.79545">
        <ele>205</ele>
        <time>2017-12-22T10:07:32Z</time>
      </trkpt>
      <trkpt lat="45.93958" lon="4.79551">
        <ele>205</ele>
        <time>2017-12-22T10:07:33Z</time>
      </trkpt>
      <trkpt lat="45.93958" lon="4.79563">
        <ele>205</ele>
        <time>2017-12-22T10:07:35Z</time>
      </trkpt>
      <trkpt lat="45.93959" lon="4.79569">
        <ele>205</ele>
        <time>2017-12-22T10:07:36Z</time>
      </trkpt>
      <trkpt lat="45.9396" lon="4.79581">
        <ele>206</ele>
        <time>2017-12-22T10:07:38Z</time>
      </trkpt>
      <trkpt lat="45.9396" lon="4.79587">
        <ele>207</ele>
        <time>2017-12-22T10:07:39Z</time>
      </trkpt>
      <trkpt lat="45.93962" lon="4.79598">
        <ele>207</ele>
        <time>2017-12-22T10:07:41Z</time>
      </trkpt>
      <trkpt lat="45.93963" lon="4.79603">
        <ele>207</ele>
        <time>2017-12-22T10:07:42Z</time>
      </trkpt>
      <trkpt lat="45.93963" lon="4.79615">
        <ele>207</ele>
        <time>2017-12-22T10:07:44Z</time>
      </trkpt>
      <trkpt lat="45.93963" lon="4.79621">
        <ele>207</ele>
        <time>2017-12-22T10:07:45Z</time>
      </trkpt>
      <trkpt lat="45.93965" lon="4.79632">
        <ele>207</ele>
        <time>2017-12-22T10:07:47Z</time>
      </trkpt>
      <trkpt lat="45.93966" lon="4.79638">
        <ele>207</ele>
        <time>2017-12-22T10:07:48Z</time>
      </trkpt>
      <trkpt lat="45.93967" lon="4.79651">
        <ele>208</ele>
        <time>2017-12-22T10:07:50Z</time>
      </trkpt>
      <trkpt lat="45.93967" lon="4.79657">
        <ele>208</ele>
        <time>2017-12-22T10:07:51Z</time>
      </trkpt>
      <trkpt lat="45.93969" lon="4.79667">
        <ele>207</ele>
        <time>2017-12-22T10:07:53Z</time>
      </trkpt>
      <trkpt lat="45.93969" lon="4.79672">
        <ele>207</ele>
        <time>2017-12-22T10:07:54Z</time>
      </trkpt>
      <trkpt lat="45.9397" lon="4.79682">
        <ele>207</ele>
        <time>2017-12-22T10:07:56Z</time>
      </trkpt>
      <trkpt lat="45.9397" lon="4.79688">
        <ele>207</ele>
        <time>2017-12-22T10:07:57Z</time>
      </trkpt>
      <trkpt lat="45.93971" lon="4.79699">
        <ele>207</ele>
        <time>2017-12-22T10:07:59Z</time>
      </trkpt>
      <trkpt lat="45.93971" lon="4.79705">
        <ele>207</ele>
        <time>2017-12-22T10:08:00Z</time>
      </trkpt>
      <trkpt lat="45.93972" lon="4.79715">
        <ele>207</ele>
        <time>2017-12-22T10:08:02Z</time>
      </trkpt>
      <trkpt lat="45.93972" lon="4.7972">
        <ele>207</ele>
        <time>2017-12-22T10:08:03Z</time>
      </trkpt>
      <trkpt lat="45.93973" lon="4.7973">
        <ele>207</ele>
        <time>2017-12-22T10:08:05Z</time>
      </trkpt>
      <trkpt lat="45.93974" lon="4.79735">
        <ele>207</ele>
        <time>2017-12-22T10:08:06Z</time>
      </trkpt>
      <trkpt lat="45.93974" lon="4.79745">
        <ele>207</ele>
        <time>2017-12-22T10:08:08Z</time>
      </trkpt>
      <trkpt lat="45.93975" lon="4.7975">
        <ele>207</ele>
        <time>2017-12-22T10:08:09Z</time>
      </trkpt>
      <trkpt lat="45.93975" lon="4.79762">
        <ele>207</ele>
        <time>2017-12-22T10:08:11Z</time>
      </trkpt>
      <trkpt lat="45.93976" lon="4.79769">
        <ele>206</ele>
        <time>2017-12-22T10:08:12Z</time>
      </trkpt>
      <trkpt lat="45.93975" lon="4.79777">
        <ele>206</ele>
        <time>2017-12-22T10:08:13Z</time>
      </trkpt>
      <trkpt lat="45.93975" lon="4.79783">
        <ele>206</ele>
        <time>2017-12-22T10:08:14Z</time>
      </trkpt>
      <trkpt lat="45.93973" lon="4.79795">
        <ele>206</ele>
        <time>2017-12-22T10:08:16Z</time>
      </trkpt>
      <trkpt lat="45.93972" lon="4.798">
        <ele>206</ele>
        <time>2017-12-22T10:08:17Z</time>
      </trkpt>
      <trkpt lat="45.93972" lon="4.79813">
        <ele>207</ele>
        <time>2017-12-22T10:08:19Z</time>
      </trkpt>
      <trkpt lat="45.9397" lon="4.79819">
        <ele>207</ele>
        <time>2017-12-22T10:08:20Z</time>
      </trkpt>
      <trkpt lat="45.93969" lon="4.79825">
        <ele>207</ele>
        <time>2017-12-22T10:08:21Z</time>
      </trkpt>
      <trkpt lat="45.93969" lon="4.79832">
        <ele>207</ele>
        <time>2017-12-22T10:08:22Z</time>
      </trkpt>
      <trkpt lat="45.93967" lon="4.79839">
        <ele>206</ele>
        <time>2017-12-22T10:08:23Z</time>
      </trkpt>
      <trkpt lat="45.93965" lon="4.79846">
        <ele>206</ele>
        <time>2017-12-22T10:08:24Z</time>
      </trkpt>
      <trkpt lat="45.93964" lon="4.79852">
        <ele>206</ele>
        <time>2017-12-22T10:08:25Z</time>
      </trkpt>
      <trkpt lat="45.93963" lon="4.79859">
        <ele>206</ele>
        <time>2017-12-22T10:08:26Z</time>
      </trkpt>
      <trkpt lat="45.93961" lon="4.79865">
        <ele>206</ele>
        <time>2017-12-22T10:08:27Z</time>
      </trkpt>
      <trkpt lat="45.93959" lon="4.79871">
        <ele>206</ele>
        <time>2017-12-22T10:08:28Z</time>
      </trkpt>
      <trkpt lat="45.93956" lon="4.79883">
        <ele>206</ele>
        <time>2017-12-22T10:08:30Z</time>
      </trkpt>
      <trkpt lat="45.93955" lon="4.79888">
        <ele>206</ele>
        <time>2017-12-22T10:08:31Z</time>
      </trkpt>
      <trkpt lat="45.93954" lon="4.79901">
        <ele>205</ele>
        <time>2017-12-22T10:08:33Z</time>
      </trkpt>
      <trkpt lat="45.93954" lon="4.79906">
        <ele>205</ele>
        <time>2017-12-22T10:08:34Z</time>
      </trkpt>
      <trkpt lat="45.93953" lon="4.79913">
        <ele>205</ele>
        <time>2017-12-22T10:08:35Z</time>
      </trkpt>
      <trkpt lat="45.93952" lon="4.7992">
        <ele>205</ele>
        <time>2017-12-22T10:08:36Z</time>
      </trkpt>
      <trkpt lat="45.9395" lon="4.79931">
        <ele>205</ele>
        <time>2017-12-22T10:08:38Z</time>
      </trkpt>
      <trkpt lat="45.93949" lon="4.79938">
        <ele>205</ele>
        <time>2017-12-22T10:08:39Z</time>
      </trkpt>
      <trkpt lat="45.93948" lon="4.79951">
        <ele>205</ele>
        <time>2017-12-22T10:08:41Z</time>
      </trkpt>
      <trkpt lat="45.93947" lon="4.79956">
        <ele>205</ele>
        <time>2017-12-22T10:08:42Z</time>
      </trkpt>
      <trkpt lat="45.93944" lon="4.79967">
        <ele>205</ele>
        <time>2017-12-22T10:08:44Z</time>
      </trkpt>
      <trkpt lat="45.93943" lon="4.79973">
        <ele>205</ele>
        <time>2017-12-22T10:08:45Z</time>
      </trkpt>
      <trkpt lat="45.93943" lon="4.79985">
        <ele>204</ele>
        <time>2017-12-22T10:08:47Z</time>
      </trkpt>
      <trkpt lat="45.93941" lon="4.79991">
        <ele>204</ele>
        <time>2017-12-22T10:08:48Z</time>
      </trkpt>
      <trkpt lat="45.9394" lon="4.79998">
        <ele>204</ele>
        <time>2017-12-22T10:08:49Z</time>
      </trkpt>
      <trkpt lat="45.93939" lon="4.80005">
        <ele>205</ele>
        <time>2017-12-22T10:08:50Z</time>
      </trkpt>
      <trkpt lat="45.93939" lon="4.80012">
        <ele>206</ele>
        <time>2017-12-22T10:08:51Z</time>
      </trkpt>
      <trkpt lat="45.93938" lon="4.80019">
        <ele>206</ele>
        <time>2017-12-22T10:08:52Z</time>
      </trkpt>
      <trkpt lat="45.93938" lon="4.80026">
        <ele>206</ele>
        <time>2017-12-22T10:08:53Z</time>
      </trkpt>
      <trkpt lat="45.93938" lon="4.80033">
        <ele>207</ele>
        <time>2017-12-22T10:08:54Z</time>
      </trkpt>
      <trkpt lat="45.93937" lon="4.8004">
        <ele>207</ele>
        <time>2017-12-22T10:08:55Z</time>
      </trkpt>
      <trkpt lat="45.93936" lon="4.80046">
        <ele>207</ele>
        <time>2017-12-22T10:08:56Z</time>
      </trkpt>
      <trkpt lat="45.93935" lon="4.80053">
        <ele>207</ele>
        <time>2017-12-22T10:08:57Z</time>
      </trkpt>
      <trkpt lat="45.93935" lon="4.80059">
        <ele>207</ele>
        <time>2017-12-22T10:08:58Z</time>
      </trkpt>
      <trkpt lat="45.93935" lon="4.80071">
        <ele>207</ele>
        <time>2017-12-22T10:09:00Z</time>
      </trkpt>
      <trkpt lat="45.93935" lon="4.80078">
        <ele>207</ele>
        <time>2017-12-22T10:09:01Z</time>
      </trkpt>
      <trkpt lat="45.93937" lon="4.80089">
        <ele>208</ele>
        <time>2017-12-22T10:09:03Z</time>
      </trkpt>
      <trkpt lat="45.93937" lon="4.80096">
        <ele>208</ele>
        <time>2017-12-22T10:09:04Z</time>
      </trkpt>
      <trkpt lat="45.93937" lon="4.80104">
        <ele>208</ele>
        <time>2017-12-22T10:09:05Z</time>
      </trkpt>
      <trkpt lat="45.93938" lon="4.80111">
        <ele>208</ele>
        <time>2017-12-22T10:09:06Z</time>
      </trkpt>
      <trkpt lat="45.93939" lon="4.80118">
        <ele>208</ele>
        <time>2017-12-22T10:09:07Z</time>
      </trkpt>
      <trkpt lat="45.93941" lon="4.80124">
        <ele>208</ele>
        <time>2017-12-22T10:09:08Z</time>
      </trkpt>
      <trkpt lat="45.93942" lon="4.80135">
        <ele>208</ele>
        <time>2017-12-22T10:09:10Z</time>
      </trkpt>
      <trkpt lat="45.93943" lon="4.80141">
        <ele>208</ele>
        <time>2017-12-22T10:09:11Z</time>
      </trkpt>
      <trkpt lat="45.93945" lon="4.80153">
        <ele>208</ele>
        <time>2017-12-22T10:09:13Z</time>
      </trkpt>
      <trkpt lat="45.93946" lon="4.80159">
        <ele>208</ele>
        <time>2017-12-22T10:09:14Z</time>
      </trkpt>
      <trkpt lat="45.93947" lon="4.80171">
        <ele>206</ele>
        <time>2017-12-22T10:09:16Z</time>
      </trkpt>
      <trkpt lat="45.93948" lon="4.80178">
        <ele>206</ele>
        <time>2017-12-22T10:09:17Z</time>
      </trkpt>
      <trkpt lat="45.9395" lon="4.80185">
        <ele>206</ele>
        <time>2017-12-22T10:09:18Z</time>
      </trkpt>
      <trkpt lat="45.93952" lon="4.80192">
        <ele>206</ele>
        <time>2017-12-22T10:09:19Z</time>
      </trkpt>
      <trkpt lat="45.93954" lon="4.80199">
        <ele>205</ele>
        <time>2017-12-22T10:09:20Z</time>
      </trkpt>
      <trkpt lat="45.93956" lon="4.80206">
        <ele>205</ele>
        <time>2017-12-22T10:09:21Z</time>
      </trkpt>
      <trkpt lat="45.93959" lon="4.80212">
        <ele>205</ele>
        <time>2017-12-22T10:09:22Z</time>
      </trkpt>
      <trkpt lat="45.93961" lon="4.80218">
        <ele>205</ele>
        <time>2017-12-22T10:09:23Z</time>
      </trkpt>
      <trkpt lat="45.93964" lon="4.8023">
        <ele>205</ele>
        <time>2017-12-22T10:09:25Z</time>
      </trkpt>
      <trkpt lat="45.93964" lon="4.80235">
        <ele>205</ele>
        <time>2017-12-22T10:09:26Z</time>
      </trkpt>
      <trkpt lat="45.93968" lon="4.80246">
        <ele>204</ele>
        <time>2017-12-22T10:09:28Z</time>
      </trkpt>
      <trkpt lat="45.93969" lon="4.80251">
        <ele>202</ele>
        <time>2017-12-22T10:09:29Z</time>
      </trkpt>
      <trkpt lat="45.93971" lon="4.80261">
        <ele>202</ele>
        <time>2017-12-22T10:09:31Z</time>
      </trkpt>
      <trkpt lat="45.93973" lon="4.80267">
        <ele>203</ele>
        <time>2017-12-22T10:09:32Z</time>
      </trkpt>
      <trkpt lat="45.93977" lon="4.80277">
        <ele>203</ele>
        <time>2017-12-22T10:09:34Z</time>
      </trkpt>
      <trkpt lat="45.93978" lon="4.80283">
        <ele>203</ele>
        <time>2017-12-22T10:09:35Z</time>
      </trkpt>
      <trkpt lat="45.93981" lon="4.80294">
        <ele>203</ele>
        <time>2017-12-22T10:09:37Z</time>
      </trkpt>
      <trkpt lat="45.93982" lon="4.80299">
        <ele>203</ele>
        <time>2017-12-22T10:09:38Z</time>
      </trkpt>
      <trkpt lat="45.93984" lon="4.80309">
        <ele>203</ele>
        <time>2017-12-22T10:09:40Z</time>
      </trkpt>
      <trkpt lat="45.93985" lon="4.80313">
        <ele>203</ele>
        <time>2017-12-22T10:09:41Z</time>
      </trkpt>
      <trkpt lat="45.93989" lon="4.80321">
        <ele>204</ele>
        <time>2017-12-22T10:09:43Z</time>
      </trkpt>
      <trkpt lat="45.93991" lon="4.80326">
        <ele>204</ele>
        <time>2017-12-22T10:09:44Z</time>
      </trkpt>
      <trkpt lat="45.93994" lon="4.80336">
        <ele>206</ele>
        <time>2017-12-22T10:09:46Z</time>
      </trkpt>
      <trkpt lat="45.93996" lon="4.8034">
        <ele>206</ele>
        <time>2017-12-22T10:09:47Z</time>
      </trkpt>
      <trkpt lat="45.93999" lon="4.80349">
        <ele>206</ele>
        <time>2017-12-22T10:09:49Z</time>
      </trkpt>
      <trkpt lat="45.94" lon="4.80354">
        <ele>213</ele>
        <time>2017-12-22T10:09:50Z</time>
      </trkpt>
      <trkpt lat="45.94004" lon="4.80365">
        <ele>215</ele>
        <time>2017-12-22T10:09:53Z</time>
      </trkpt>
      <trkpt lat="45.94005" lon="4.80369">
        <ele>215</ele>
        <time>2017-12-22T10:09:54Z</time>
      </trkpt>
      <trkpt lat="45.94009" lon="4.80379">
        <ele>217</ele>
        <time>2017-12-22T10:09:58Z</time>
      </trkpt>
      <trkpt lat="45.9401" lon="4.80382">
        <ele>217</ele>
        <time>2017-12-22T10:09:59Z</time>
      </trkpt>
      <trkpt lat="45.94012" lon="4.80393">
        <ele>217</ele>
        <time>2017-12-22T10:10:02Z</time>
      </trkpt>
      <trkpt lat="45.94013" lon="4.80397">
        <ele>217</ele>
        <time>2017-12-22T10:10:03Z</time>
      </trkpt>
      <trkpt lat="45.94015" lon="4.80405">
        <ele>218</ele>
        <time>2017-12-22T10:10:05Z</time>
      </trkpt>
      <trkpt lat="45.94016" lon="4.80409">
        <ele>218</ele>
        <time>2017-12-22T10:10:06Z</time>
      </trkpt>
      <trkpt lat="45.94019" lon="4.80419">
        <ele>221</ele>
        <time>2017-12-22T10:10:09Z</time>
      </trkpt>
      <trkpt lat="45.9402" lon="4.80422">
        <ele>221</ele>
        <time>2017-12-22T10:10:10Z</time>
      </trkpt>
      <trkpt lat="45.94021" lon="4.80433">
        <ele>222</ele>
        <time>2017-12-22T10:10:13Z</time>
      </trkpt>
      <trkpt lat="45.94021" lon="4.80437">
        <ele>222</ele>
        <time>2017-12-22T10:10:14Z</time>
      </trkpt>
      <trkpt lat="45.94023" lon="4.80446">
        <ele>223</ele>
        <time>2017-12-22T10:10:16Z</time>
      </trkpt>
      <trkpt lat="45.94024" lon="4.80454">
        <ele>224</ele>
        <time>2017-12-22T10:10:17Z</time>
      </trkpt>
      <trkpt lat="45.94023" lon="4.80465">
        <ele>224</ele>
        <time>2017-12-22T10:10:20Z</time>
      </trkpt>
      <trkpt lat="45.94024" lon="4.80469">
        <ele>224</ele>
        <time>2017-12-22T10:10:21Z</time>
      </trkpt>
      <trkpt lat="45.94024" lon="4.8048">
        <ele>223</ele>
        <time>2017-12-22T10:10:24Z</time>
      </trkpt>
      <trkpt lat="45.94024" lon="4.80483">
        <ele>223</ele>
        <time>2017-12-22T10:10:25Z</time>
      </trkpt>
      <trkpt lat="45.94024" lon="4.80493">
        <ele>223</ele>
        <time>2017-12-22T10:10:28Z</time>
      </trkpt>
      <trkpt lat="45.94025" lon="4.80497">
        <ele>223</ele>
        <time>2017-12-22T10:10:29Z</time>
      </trkpt>
      <trkpt lat="45.94022" lon="4.80507">
        <ele>224</ele>
        <time>2017-12-22T10:10:33Z</time>
      </trkpt>
      <trkpt lat="45.94021" lon="4.8051">
        <ele>224</ele>
        <time>2017-12-22T10:10:34Z</time>
      </trkpt>
      <trkpt lat="45.94019" lon="4.80519">
        <ele>224</ele>
        <time>2017-12-22T10:10:36Z</time>
      </trkpt>
      <trkpt lat="45.94019" lon="4.80523">
        <ele>224</ele>
        <time>2017-12-22T10:10:37Z</time>
      </trkpt>
      <trkpt lat="45.9402" lon="4.80534">
        <ele>225</ele>
        <time>2017-12-22T10:10:40Z</time>
      </trkpt>
      <trkpt lat="45.94021" lon="4.80539">
        <ele>225</ele>
        <time>2017-12-22T10:10:41Z</time>
      </trkpt>
      <trkpt lat="45.94022" lon="4.80549">
        <ele>225</ele>
        <time>2017-12-22T10:10:43Z</time>
      </trkpt>
      <trkpt lat="45.94023" lon="4.80553">
        <ele>225</ele>
        <time>2017-12-22T10:10:44Z</time>
      </trkpt>
      <trkpt lat="45.94026" lon="4.80565">
        <ele>225</ele>
        <time>2017-12-22T10:10:47Z</time>
      </trkpt>
      <trkpt lat="45.94027" lon="4.80569">
        <ele>225</ele>
        <time>2017-12-22T10:10:48Z</time>
      </trkpt>
      <trkpt lat="45.94028" lon="4.8058">
        <ele>225</ele>
        <time>2017-12-22T10:10:51Z</time>
      </trkpt>
      <trkpt lat="45.94028" lon="4.80584">
        <ele>224</ele>
        <time>2017-12-22T10:10:52Z</time>
      </trkpt>
      <trkpt lat="45.94028" lon="4.80593">
        <ele>225</ele>
        <time>2017-12-22T10:10:54Z</time>
      </trkpt>
      <trkpt lat="45.94029" lon="4.80597">
        <ele>225</ele>
        <time>2017-12-22T10:10:55Z</time>
      </trkpt>
      <trkpt lat="45.9403" lon="4.80609">
        <ele>225</ele>
        <time>2017-12-22T10:10:58Z</time>
      </trkpt>
      <trkpt lat="45.9403" lon="4.80614">
        <ele>225</ele>
        <time>2017-12-22T10:10:59Z</time>
      </trkpt>
      <trkpt lat="45.9403" lon="4.80624">
        <ele>225</ele>
        <time>2017-12-22T10:11:02Z</time>
      </trkpt>
      <trkpt lat="45.9403" lon="4.80627">
        <ele>225</ele>
        <time>2017-12-22T10:11:03Z</time>
      </trkpt>
      <trkpt lat="45.94032" lon="4.80639">
        <ele>225</ele>
        <time>2017-12-22T10:11:06Z</time>
      </trkpt>
      <trkpt lat="45.94032" lon="4.80643">
        <ele>225</ele>
        <time>2017-12-22T10:11:07Z</time>
      </trkpt>
      <trkpt lat="45.94033" lon="4.80653">
        <ele>225</ele>
        <time>2017-12-22T10:11:09Z</time>
      </trkpt>
      <trkpt lat="45.94034" lon="4.80657">
        <ele>225</ele>
        <time>2017-12-22T10:11:10Z</time>
      </trkpt>
      <trkpt lat="45.94036" lon="4.8067">
        <ele>225</ele>
        <time>2017-12-22T10:11:13Z</time>
      </trkpt>
      <trkpt lat="45.94037" lon="4.80674">
        <ele>226</ele>
        <time>2017-12-22T10:11:14Z</time>
      </trkpt>
      <trkpt lat="45.94038" lon="4.80686">
        <ele>226</ele>
        <time>2017-12-22T10:11:17Z</time>
      </trkpt>
      <trkpt lat="45.94039" lon="4.8069">
        <ele>226</ele>
        <time>2017-12-22T10:11:18Z</time>
      </trkpt>
      <trkpt lat="45.94039" lon="4.80702">
        <ele>226</ele>
        <time>2017-12-22T10:11:21Z</time>
      </trkpt>
      <trkpt lat="45.94039" lon="4.80706">
        <ele>226</ele>
        <time>2017-12-22T10:11:22Z</time>
      </trkpt>
      <trkpt lat="45.9404" lon="4.80719">
        <ele>227</ele>
        <time>2017-12-22T10:11:25Z</time>
      </trkpt>
      <trkpt lat="45.94041" lon="4.80723">
        <ele>227</ele>
        <time>2017-12-22T10:11:26Z</time>
      </trkpt>
      <trkpt lat="45.94042" lon="4.80735">
        <ele>227</ele>
        <time>2017-12-22T10:11:29Z</time>
      </trkpt>
      <trkpt lat="45.94042" lon="4.80739">
        <ele>227</ele>
        <time>2017-12-22T10:11:30Z</time>
      </trkpt>
      <trkpt lat="45.94043" lon="4.80751">
        <ele>228</ele>
        <time>2017-12-22T10:11:34Z</time>
      </trkpt>
      <trkpt lat="45.94044" lon="4.80754">
        <ele>228</ele>
        <time>2017-12-22T10:11:35Z</time>
      </trkpt>
      <trkpt lat="45.94046" lon="4.80766">
        <ele>228</ele>
        <time>2017-12-22T10:11:38Z</time>
      </trkpt>
      <trkpt lat="45.94046" lon="4.8077">
        <ele>229</ele>
        <time>2017-12-22T10:11:39Z</time>
      </trkpt>
      <trkpt lat="45.94047" lon="4.80781">
        <ele>229</ele>
        <time>2017-12-22T10:11:42Z</time>
      </trkpt>
      <trkpt lat="45.94048" lon="4.80785">
        <ele>229</ele>
        <time>2017-12-22T10:11:43Z</time>
      </trkpt>
      <trkpt lat="45.94049" lon="4.80795">
        <ele>229</ele>
        <time>2017-12-22T10:11:45Z</time>
      </trkpt>
      <trkpt lat="45.94049" lon="4.80799">
        <ele>229</ele>
        <time>2017-12-22T10:11:46Z</time>
      </trkpt>
      <trkpt lat="45.94051" lon="4.80808">
        <ele>229</ele>
        <time>2017-12-22T10:11:48Z</time>
      </trkpt>
      <trkpt lat="45.94052" lon="4.80812">
        <ele>230</ele>
        <time>2017-12-22T10:11:49Z</time>
      </trkpt>
      <trkpt lat="45.94053" lon="4.80825">
        <ele>230</ele>
        <time>2017-12-22T10:11:52Z</time>
      </trkpt>
      <trkpt lat="45.94053" lon="4.80828">
        <ele>231</ele>
        <time>2017-12-22T10:11:53Z</time>
      </trkpt>
      <trkpt lat="45.94053" lon="4.80839">
        <ele>231</ele>
        <time>2017-12-22T10:11:56Z</time>
      </trkpt>
      <trkpt lat="45.94053" lon="4.80842">
        <ele>231</ele>
        <time>2017-12-22T10:11:57Z</time>
      </trkpt>
      <trkpt lat="45.94055" lon="4.80853">
        <ele>231</ele>
        <time>2017-12-22T10:12:00Z</time>
      </trkpt>
      <trkpt lat="45.94056" lon="4.80857">
        <ele>231</ele>
        <time>2017-12-22T10:12:01Z</time>
      </trkpt>
      <trkpt lat="45.94058" lon="4.80868">
        <ele>231</ele>
        <time>2017-12-22T10:12:04Z</time>
      </trkpt>
      <trkpt lat="45.94059" lon="4.80872">
        <ele>231</ele>
        <time>2017-12-22T10:12:05Z</time>
      </trkpt>
      <trkpt lat="45.94061" lon="4.80884">
        <ele>231</ele>
        <time>2017-12-22T10:12:08Z</time>
      </trkpt>
      <trkpt lat="45.94061" lon="4.80887">
        <ele>231</ele>
        <time>2017-12-22T10:12:09Z</time>
      </trkpt>
      <trkpt lat="45.94063" lon="4.80899">
        <ele>232</ele>
        <time>2017-12-22T10:12:12Z</time>
      </trkpt>
      <trkpt lat="45.94063" lon="4.80903">
        <ele>232</ele>
        <time>2017-12-22T10:12:13Z</time>
      </trkpt>
      <trkpt lat="45.94064" lon="4.80914">
        <ele>233</ele>
        <time>2017-12-22T10:12:16Z</time>
      </trkpt>
      <trkpt lat="45.94065" lon="4.80918">
        <ele>234</ele>
        <time>2017-12-22T10:12:17Z</time>
      </trkpt>
      <trkpt lat="45.94066" lon="4.80929">
        <ele>233</ele>
        <time>2017-12-22T10:12:20Z</time>
      </trkpt>
      <trkpt lat="45.94067" lon="4.80932">
        <ele>233</ele>
        <time>2017-12-22T10:12:21Z</time>
      </trkpt>
      <trkpt lat="45.94068" lon="4.80944">
        <ele>233</ele>
        <time>2017-12-22T10:12:24Z</time>
      </trkpt>
      <trkpt lat="45.94068" lon="4.80948">
        <ele>232</ele>
        <time>2017-12-22T10:12:25Z</time>
      </trkpt>
      <trkpt lat="45.9407" lon="4.80959">
        <ele>232</ele>
        <time>2017-12-22T10:12:28Z</time>
      </trkpt>
      <trkpt lat="45.9407" lon="4.80963">
        <ele>233</ele>
        <time>2017-12-22T10:12:29Z</time>
      </trkpt>
      <trkpt lat="45.94072" lon="4.80975">
        <ele>233</ele>
        <time>2017-12-22T10:12:32Z</time>
      </trkpt>
      <trkpt lat="45.94072" lon="4.80979">
        <ele>234</ele>
        <time>2017-12-22T10:12:33Z</time>
      </trkpt>
      <trkpt lat="45.94074" lon="4.8099">
        <ele>236</ele>
        <time>2017-12-22T10:12:36Z</time>
      </trkpt>
      <trkpt lat="45.94074" lon="4.80993">
        <ele>236</ele>
        <time>2017-12-22T10:12:37Z</time>
      </trkpt>
      <trkpt lat="45.94076" lon="4.81004">
        <ele>237</ele>
        <time>2017-12-22T10:12:40Z</time>
      </trkpt>
      <trkpt lat="45.94076" lon="4.81008">
        <ele>237</ele>
        <time>2017-12-22T10:12:41Z</time>
      </trkpt>
      <trkpt lat="45.94078" lon="4.81017">
        <ele>235</ele>
        <time>2017-12-22T10:12:44Z</time>
      </trkpt>
      <trkpt lat="45.94079" lon="4.81021">
        <ele>235</ele>
        <time>2017-12-22T10:12:45Z</time>
      </trkpt>
      <trkpt lat="45.94082" lon="4.81032">
        <ele>234</ele>
        <time>2017-12-22T10:12:48Z</time>
      </trkpt>
      <trkpt lat="45.94083" lon="4.81036">
        <ele>244</ele>
        <time>2017-12-22T10:12:49Z</time>
      </trkpt>
      <trkpt lat="45.94087" lon="4.81046">
        <ele>243</ele>
        <time>2017-12-22T10:12:52Z</time>
      </trkpt>
      <trkpt lat="45.94088" lon="4.81049">
        <ele>243</ele>
        <time>2017-12-22T10:12:53Z</time>
      </trkpt>
      <trkpt lat="45.94092" lon="4.81059">
        <ele>243</ele>
        <time>2017-12-22T10:12:56Z</time>
      </trkpt>
      <trkpt lat="45.94093" lon="4.81063">
        <ele>242</ele>
        <time>2017-12-22T10:12:57Z</time>
      </trkpt>
      <trkpt lat="45.94097" lon="4.81074">
        <ele>242</ele>
        <time>2017-12-22T10:13:00Z</time>
      </trkpt>
      <trkpt lat="45.94098" lon="4.81077">
        <ele>242</ele>
        <time>2017-12-22T10:13:01Z</time>
      </trkpt>
      <trkpt lat="45.94102" lon="4.81086">
        <ele>241</ele>
        <time>2017-12-22T10:13:04Z</time>
      </trkpt>
      <trkpt lat="45.94104" lon="4.81089">
        <ele>241</ele>
        <time>2017-12-22T10:13:05Z</time>
      </trkpt>
      <trkpt lat="45.94108" lon="4.81098">
        <ele>242</ele>
        <time>2017-12-22T10:13:08Z</time>
      </trkpt>
      <trkpt lat="45.9411" lon="4.81101">
        <ele>242</ele>
        <time>2017-12-22T10:13:09Z</time>
      </trkpt>
      <trkpt lat="45.94115" lon="4.8111">
        <ele>243</ele>
        <time>2017-12-22T10:13:12Z</time>
      </trkpt>
      <trkpt lat="45.94116" lon="4.81112">
        <ele>243</ele>
        <time>2017-12-22T10:13:13Z</time>
      </trkpt>
      <trkpt lat="45.94122" lon="4.81121">
        <ele>243</ele>
        <time>2017-12-22T10:13:16Z</time>
      </trkpt>
      <trkpt lat="45.94124" lon="4.81124">
        <ele>243</ele>
        <time>2017-12-22T10:13:17Z</time>
      </trkpt>
      <trkpt lat="45.9413" lon="4.81133">
        <ele>243</ele>
        <time>2017-12-22T10:13:20Z</time>
      </trkpt>
      <trkpt lat="45.94131" lon="4.81136">
        <ele>244</ele>
        <time>2017-12-22T10:13:21Z</time>
      </trkpt>
      <trkpt lat="45.94135" lon="4.81147">
        <ele>244</ele>
        <time>2017-12-22T10:13:24Z</time>
      </trkpt>
      <trkpt lat="45.94136" lon="4.81151">
        <ele>244</ele>
        <time>2017-12-22T10:13:25Z</time>
      </trkpt>
      <trkpt lat="45.9414" lon="4.81161">
        <ele>244</ele>
        <time>2017-12-22T10:13:28Z</time>
      </trkpt>
      <trkpt lat="45.94141" lon="4.81164">
        <ele>244</ele>
        <time>2017-12-22T10:13:29Z</time>
      </trkpt>
      <trkpt lat="45.94145" lon="4.81174">
        <ele>244</ele>
        <time>2017-12-22T10:13:33Z</time>
      </trkpt>
      <trkpt lat="45.94146" lon="4.81177">
        <ele>244</ele>
        <time>2017-12-22T10:13:34Z</time>
      </trkpt>
      <trkpt lat="45.9415" lon="4.81188">
        <ele>244</ele>
        <time>2017-12-22T10:13:38Z</time>
      </trkpt>
      <trkpt lat="45.9415" lon="4.81191">
        <ele>244</ele>
        <time>2017-12-22T10:13:39Z</time>
      </trkpt>
      <trkpt lat="45.94153" lon="4.812">
        <ele>244</ele>
        <time>2017-12-22T10:13:42Z</time>
      </trkpt>
      <trkpt lat="45.94153" lon="4.81204">
        <ele>244</ele>
        <time>2017-12-22T10:13:43Z</time>
      </trkpt>
      <trkpt lat="45.94155" lon="4.81214">
        <ele>245</ele>
        <time>2017-12-22T10:13:46Z</time>
      </trkpt>
      <trkpt lat="45.94156" lon="4.81217">
        <ele>245</ele>
        <time>2017-12-22T10:13:47Z</time>
      </trkpt>
      <trkpt lat="45.94158" lon="4.81226">
        <ele>246</ele>
        <time>2017-12-22T10:13:50Z</time>
      </trkpt>
      <trkpt lat="45.94159" lon="4.8123">
        <ele>246</ele>
        <time>2017-12-22T10:13:51Z</time>
      </trkpt>
      <trkpt lat="45.94161" lon="4.81242">
        <ele>248</ele>
        <time>2017-12-22T10:13:55Z</time>
      </trkpt>
      <trkpt lat="45.94162" lon="4.81244">
        <ele>248</ele>
        <time>2017-12-22T10:13:56Z</time>
      </trkpt>
      <trkpt lat="45.94162" lon="4.81255">
        <ele>249</ele>
        <time>2017-12-22T10:14:00Z</time>
      </trkpt>
      <trkpt lat="45.94163" lon="4.81259">
        <ele>248</ele>
        <time>2017-12-22T10:14:01Z</time>
      </trkpt>
      <trkpt lat="45.94165" lon="4.81271">
        <ele>248</ele>
        <time>2017-12-22T10:14:04Z</time>
      </trkpt>
      <trkpt lat="45.94166" lon="4.81275">
        <ele>247</ele>
        <time>2017-12-22T10:14:05Z</time>
      </trkpt>
      <trkpt lat="45.94167" lon="4.81286">
        <ele>255</ele>
        <time>2017-12-22T10:14:08Z</time>
      </trkpt>
      <trkpt lat="45.94167" lon="4.81289">
        <ele>247</ele>
        <time>2017-12-22T10:14:09Z</time>
      </trkpt>
      <trkpt lat="45.94167" lon="4.813">
        <ele>255</ele>
        <time>2017-12-22T10:14:13Z</time>
      </trkpt>
      <trkpt lat="45.94167" lon="4.81303">
        <ele>248</ele>
        <time>2017-12-22T10:14:14Z</time>
      </trkpt>
      <trkpt lat="45.94167" lon="4.81315">
        <ele>249</ele>
        <time>2017-12-22T10:14:17Z</time>
      </trkpt>
      <trkpt lat="45.94167" lon="4.81319">
        <ele>249</ele>
        <time>2017-12-22T10:14:18Z</time>
      </trkpt>
      <trkpt lat="45.94165" lon="4.81329">
        <ele>251</ele>
        <time>2017-12-22T10:14:21Z</time>
      </trkpt>
      <trkpt lat="45.94165" lon="4.81333">
        <ele>252</ele>
        <time>2017-12-22T10:14:22Z</time>
      </trkpt>
      <trkpt lat="45.94165" lon="4.81345">
        <ele>251</ele>
        <time>2017-12-22T10:14:26Z</time>
      </trkpt>
      <trkpt lat="45.94165" lon="4.81349">
        <ele>251</ele>
        <time>2017-12-22T10:14:27Z</time>
      </trkpt>
      <trkpt lat="45.94166" lon="4.8136">
        <ele>251</ele>
        <time>2017-12-22T10:14:30Z</time>
      </trkpt>
      <trkpt lat="45.94166" lon="4.81363">
        <ele>251</ele>
        <time>2017-12-22T10:14:31Z</time>
      </trkpt>
      <trkpt lat="45.94166" lon="4.81374">
        <ele>251</ele>
        <time>2017-12-22T10:14:34Z</time>
      </trkpt>
      <trkpt lat="45.94165" lon="4.81378">
        <ele>251</ele>
        <time>2017-12-22T10:14:35Z</time>
      </trkpt>
      <trkpt lat="45.94164" lon="4.8139">
        <ele>252</ele>
        <time>2017-12-22T10:14:38Z</time>
      </trkpt>
      <trkpt lat="45.94164" lon="4.81394">
        <ele>252</ele>
        <time>2017-12-22T10:14:39Z</time>
      </trkpt>
      <trkpt lat="45.94165" lon="4.81404">
        <ele>253</ele>
        <time>2017-12-22T10:14:42Z</time>
      </trkpt>
      <trkpt lat="45.94164" lon="4.81408">
        <ele>254</ele>
        <time>2017-12-22T10:14:43Z</time>
      </trkpt>
      <trkpt lat="45.94163" lon="4.81414">
        <ele>255</ele>
        <time>2017-12-22T10:14:46Z</time>
      </trkpt>
      <trkpt lat="45.94161" lon="4.81427">
        <ele>256</ele>
        <time>2017-12-22T10:14:47Z</time>
      </trkpt>
      <trkpt lat="45.9416" lon="4.81436">
        <ele>256</ele>
        <time>2017-12-22T10:14:49Z</time>
      </trkpt>
      <trkpt lat="45.9416" lon="4.81441">
        <ele>256</ele>
        <time>2017-12-22T10:14:50Z</time>
      </trkpt>
      <trkpt lat="45.94156" lon="4.81448">
        <ele>257</ele>
        <time>2017-12-22T10:14:52Z</time>
      </trkpt>
      <trkpt lat="45.94157" lon="4.81456">
        <ele>257</ele>
        <time>2017-12-22T10:14:53Z</time>
      </trkpt>
      <trkpt lat="45.94156" lon="4.81465">
        <ele>258</ele>
        <time>2017-12-22T10:14:55Z</time>
      </trkpt>
      <trkpt lat="45.94155" lon="4.81469">
        <ele>258</ele>
        <time>2017-12-22T10:14:56Z</time>
      </trkpt>
      <trkpt lat="45.94155" lon="4.81481">
        <ele>259</ele>
        <time>2017-12-22T10:14:59Z</time>
      </trkpt>
      <trkpt lat="45.94156" lon="4.81484">
        <ele>259</ele>
        <time>2017-12-22T10:15:00Z</time>
      </trkpt>
      <trkpt lat="45.94156" lon="4.81496">
        <ele>261</ele>
        <time>2017-12-22T10:15:04Z</time>
      </trkpt>
      <trkpt lat="45.94155" lon="4.81497">
        <ele>261</ele>
        <time>2017-12-22T10:15:05Z</time>
      </trkpt>
      <trkpt lat="45.94153" lon="4.81507">
        <ele>263</ele>
        <time>2017-12-22T10:15:09Z</time>
      </trkpt>
      <trkpt lat="45.94152" lon="4.81511">
        <ele>263</ele>
        <time>2017-12-22T10:15:10Z</time>
      </trkpt>
      <trkpt lat="45.94152" lon="4.81523">
        <ele>263</ele>
        <time>2017-12-22T10:15:13Z</time>
      </trkpt>
      <trkpt lat="45.94152" lon="4.81527">
        <ele>263</ele>
        <time>2017-12-22T10:15:14Z</time>
      </trkpt>
      <trkpt lat="45.94153" lon="4.81535">
        <ele>264</ele>
        <time>2017-12-22T10:15:16Z</time>
      </trkpt>
      <trkpt lat="45.94154" lon="4.81539">
        <ele>264</ele>
        <time>2017-12-22T10:15:17Z</time>
      </trkpt>
      <trkpt lat="45.94159" lon="4.8155">
        <ele>264</ele>
        <time>2017-12-22T10:15:21Z</time>
      </trkpt>
      <trkpt lat="45.94159" lon="4.81555">
        <ele>265</ele>
        <time>2017-12-22T10:15:22Z</time>
      </trkpt>
      <trkpt lat="45.94161" lon="4.81564">
        <ele>265</ele>
        <time>2017-12-22T10:15:24Z</time>
      </trkpt>
      <trkpt lat="45.94161" lon="4.81568">
        <ele>265</ele>
        <time>2017-12-22T10:15:25Z</time>
      </trkpt>
      <trkpt lat="45.94162" lon="4.81579">
        <ele>266</ele>
        <time>2017-12-22T10:15:27Z</time>
      </trkpt>
      <trkpt lat="45.94162" lon="4.81584">
        <ele>267</ele>
        <time>2017-12-22T10:15:28Z</time>
      </trkpt>
      <trkpt lat="45.94164" lon="4.81593">
        <ele>267</ele>
        <time>2017-12-22T10:15:30Z</time>
      </trkpt>
      <trkpt lat="45.94164" lon="4.81599">
        <ele>267</ele>
        <time>2017-12-22T10:15:31Z</time>
      </trkpt>
      <trkpt lat="45.94166" lon="4.81609">
        <ele>267</ele>
        <time>2017-12-22T10:15:33Z</time>
      </trkpt>
      <trkpt lat="45.94167" lon="4.81613">
        <ele>267</ele>
        <time>2017-12-22T10:15:34Z</time>
      </trkpt>
      <trkpt lat="45.94169" lon="4.81622">
        <ele>267</ele>
        <time>2017-12-22T10:15:36Z</time>
      </trkpt>
      <trkpt lat="45.94169" lon="4.81627">
        <ele>267</ele>
        <time>2017-12-22T10:15:37Z</time>
      </trkpt>
      <trkpt lat="45.94172" lon="4.81636">
        <ele>268</ele>
        <time>2017-12-22T10:15:39Z</time>
      </trkpt>
      <trkpt lat="45.94172" lon="4.81641">
        <ele>268</ele>
        <time>2017-12-22T10:15:40Z</time>
      </trkpt>
      <trkpt lat="45.94173" lon="4.8165">
        <ele>268</ele>
        <time>2017-12-22T10:15:42Z</time>
      </trkpt>
      <trkpt lat="45.94174" lon="4.81655">
        <ele>268</ele>
        <time>2017-12-22T10:15:43Z</time>
      </trkpt>
      <trkpt lat="45.94175" lon="4.81665">
        <ele>268</ele>
        <time>2017-12-22T10:15:45Z</time>
      </trkpt>
      <trkpt lat="45.94176" lon="4.8167">
        <ele>268</ele>
        <time>2017-12-22T10:15:46Z</time>
      </trkpt>
      <trkpt lat="45.94179" lon="4.81679">
        <ele>268</ele>
        <time>2017-12-22T10:15:48Z</time>
      </trkpt>
      <trkpt lat="45.94181" lon="4.81683">
        <ele>267</ele>
        <time>2017-12-22T10:15:49Z</time>
      </trkpt>
      <trkpt lat="45.94184" lon="4.8169">
        <ele>267</ele>
        <time>2017-12-22T10:15:51Z</time>
      </trkpt>
      <trkpt lat="45.94186" lon="4.81694">
        <ele>267</ele>
        <time>2017-12-22T10:15:52Z</time>
      </trkpt>
      <trkpt lat="45.94188" lon="4.81702">
        <ele>267</ele>
        <time>2017-12-22T10:15:54Z</time>
      </trkpt>
      <trkpt lat="45.94188" lon="4.81707">
        <ele>267</ele>
        <time>2017-12-22T10:15:55Z</time>
      </trkpt>
      <trkpt lat="45.94187" lon="4.81717">
        <ele>267</ele>
        <time>2017-12-22T10:15:57Z</time>
      </trkpt>
      <trkpt lat="45.94187" lon="4.81722">
        <ele>267</ele>
        <time>2017-12-22T10:15:58Z</time>
      </trkpt>
      <trkpt lat="45.94188" lon="4.81733">
        <ele>267</ele>
        <time>2017-12-22T10:16:00Z</time>
      </trkpt>
      <trkpt lat="45.94189" lon="4.81738">
        <ele>267</ele>
        <time>2017-12-22T10:16:01Z</time>
      </trkpt>
      <trkpt lat="45.94191" lon="4.81746">
        <ele>267</ele>
        <time>2017-12-22T10:16:03Z</time>
      </trkpt>
      <trkpt lat="45.94192" lon="4.81751">
        <ele>266</ele>
        <time>2017-12-22T10:16:04Z</time>
      </trkpt>
      <trkpt lat="45.94196" lon="4.81761">
        <ele>266</ele>
        <time>2017-12-22T10:16:06Z</time>
      </trkpt>
      <trkpt lat="45.94198" lon="4.81766">
        <ele>266</ele>
        <time>2017-12-22T10:16:07Z</time>
      </trkpt>
      <trkpt lat="45.942" lon="4.81777">
        <ele>266</ele>
        <time>2017-12-22T10:16:09Z</time>
      </trkpt>
      <trkpt lat="45.942" lon="4.81782">
        <ele>266</ele>
        <time>2017-12-22T10:16:10Z</time>
      </trkpt>
      <trkpt lat="45.94199" lon="4.81793">
        <ele>266</ele>
        <time>2017-12-22T10:16:12Z</time>
      </trkpt>
      <trkpt lat="45.94199" lon="4.81798">
        <ele>266</ele>
        <time>2017-12-22T10:16:13Z</time>
      </trkpt>
      <trkpt lat="45.94199" lon="4.81807">
        <ele>266</ele>
        <time>2017-12-22T10:16:15Z</time>
      </trkpt>
      <trkpt lat="45.94199" lon="4.81812">
        <ele>266</ele>
        <time>2017-12-22T10:16:16Z</time>
      </trkpt>
      <trkpt lat="45.94201" lon="4.81823">
        <ele>266</ele>
        <time>2017-12-22T10:16:18Z</time>
      </trkpt>
      <trkpt lat="45.94202" lon="4.81828">
        <ele>266</ele>
        <time>2017-12-22T10:16:19Z</time>
      </trkpt>
      <trkpt lat="45.94204" lon="4.81837">
        <ele>266</ele>
        <time>2017-12-22T10:16:21Z</time>
      </trkpt>
      <trkpt lat="45.94205" lon="4.81842">
        <ele>266</ele>
        <time>2017-12-22T10:16:22Z</time>
      </trkpt>
      <trkpt lat="45.94208" lon="4.81851">
        <ele>265</ele>
        <time>2017-12-22T10:16:24Z</time>
      </trkpt>
      <trkpt lat="45.94209" lon="4.81857">
        <ele>265</ele>
        <time>2017-12-22T10:16:25Z</time>
      </trkpt>
      <trkpt lat="45.9421" lon="4.81863">
        <ele>265</ele>
        <time>2017-12-22T10:16:26Z</time>
      </trkpt>
      <trkpt lat="45.94213" lon="4.8187">
        <ele>265</ele>
        <time>2017-12-22T10:16:27Z</time>
      </trkpt>
      <trkpt lat="45.94213" lon="4.81877">
        <ele>265</ele>
        <time>2017-12-22T10:16:28Z</time>
      </trkpt>
      <trkpt lat="45.94215" lon="4.81883">
        <ele>265</ele>
        <time>2017-12-22T10:16:29Z</time>
      </trkpt>
      <trkpt lat="45.94216" lon="4.81889">
        <ele>265</ele>
        <time>2017-12-22T10:16:30Z</time>
      </trkpt>
      <trkpt lat="45.94218" lon="4.81896">
        <ele>265</ele>
        <time>2017-12-22T10:16:31Z</time>
      </trkpt>
      <trkpt lat="45.9422" lon="4.81907">
        <ele>264</ele>
        <time>2017-12-22T10:16:33Z</time>
      </trkpt>
      <trkpt lat="45.94221" lon="4.81912">
        <ele>264</ele>
        <time>2017-12-22T10:16:34Z</time>
      </trkpt>
      <trkpt lat="45.94224" lon="4.81924">
        <ele>264</ele>
        <time>2017-12-22T10:16:36Z</time>
      </trkpt>
      <trkpt lat="45.94225" lon="4.8193">
        <ele>264</ele>
        <time>2017-12-22T10:16:37Z</time>
      </trkpt>
      <trkpt lat="45.94228" lon="4.81941">
        <ele>264</ele>
        <time>2017-12-22T10:16:39Z</time>
      </trkpt>
      <trkpt lat="45.9423" lon="4.81947">
        <ele>264</ele>
        <time>2017-12-22T10:16:40Z</time>
      </trkpt>
      <trkpt lat="45.94231" lon="4.81954">
        <ele>264</ele>
        <time>2017-12-22T10:16:41Z</time>
      </trkpt>
      <trkpt lat="45.94233" lon="4.8196">
        <ele>264</ele>
        <time>2017-12-22T10:16:42Z</time>
      </trkpt>
      <trkpt lat="45.94235" lon="4.81967">
        <ele>264</ele>
        <time>2017-12-22T10:16:43Z</time>
      </trkpt>
      <trkpt lat="45.94236" lon="4.81974">
        <ele>263</ele>
        <time>2017-12-22T10:16:44Z</time>
      </trkpt>
      <trkpt lat="45.94237" lon="4.81986">
        <ele>263</ele>
        <time>2017-12-22T10:16:46Z</time>
      </trkpt>
      <trkpt lat="45.94237" lon="4.81992">
        <ele>263</ele>
        <time>2017-12-22T10:16:47Z</time>
      </trkpt>
      <trkpt lat="45.94238" lon="4.82004">
        <ele>263</ele>
        <time>2017-12-22T10:16:49Z</time>
      </trkpt>
      <trkpt lat="45.94239" lon="4.82009">
        <ele>263</ele>
        <time>2017-12-22T10:16:50Z</time>
      </trkpt>
      <trkpt lat="45.94241" lon="4.8202">
        <ele>263</ele>
        <time>2017-12-22T10:16:52Z</time>
      </trkpt>
      <trkpt lat="45.94243" lon="4.82026">
        <ele>263</ele>
        <time>2017-12-22T10:16:53Z</time>
      </trkpt>
      <trkpt lat="45.94245" lon="4.82033">
        <ele>263</ele>
        <time>2017-12-22T10:16:54Z</time>
      </trkpt>
      <trkpt lat="45.94246" lon="4.82042">
        <ele>263</ele>
        <time>2017-12-22T10:16:55Z</time>
      </trkpt>
      <trkpt lat="45.94246" lon="4.8205">
        <ele>263</ele>
        <time>2017-12-22T10:16:56Z</time>
      </trkpt>
      <trkpt lat="45.94247" lon="4.82055">
        <ele>263</ele>
        <time>2017-12-22T10:16:57Z</time>
      </trkpt>
      <trkpt lat="45.94249" lon="4.82067">
        <ele>263</ele>
        <time>2017-12-22T10:16:59Z</time>
      </trkpt>
      <trkpt lat="45.9425" lon="4.82071">
        <ele>262</ele>
        <time>2017-12-22T10:17:00Z</time>
      </trkpt>
      <trkpt lat="45.94251" lon="4.8208">
        <ele>262</ele>
        <time>2017-12-22T10:17:01Z</time>
      </trkpt>
      <trkpt lat="45.94254" lon="4.82083">
        <ele>262</ele>
        <time>2017-12-22T10:17:02Z</time>
      </trkpt>
      <trkpt lat="45.94256" lon="4.82092">
        <ele>262</ele>
        <time>2017-12-22T10:17:04Z</time>
      </trkpt>
      <trkpt lat="45.94254" lon="4.82099">
        <ele>262</ele>
        <time>2017-12-22T10:17:05Z</time>
      </trkpt>
      <trkpt lat="45.94256" lon="4.82108">
        <ele>262</ele>
        <time>2017-12-22T10:17:06Z</time>
      </trkpt>
      <trkpt lat="45.94258" lon="4.82116">
        <ele>263</ele>
        <time>2017-12-22T10:17:07Z</time>
      </trkpt>
      <trkpt lat="45.94259" lon="4.82121">
        <ele>263</ele>
        <time>2017-12-22T10:17:08Z</time>
      </trkpt>
      <trkpt lat="45.94261" lon="4.82129">
        <ele>263</ele>
        <time>2017-12-22T10:17:09Z</time>
      </trkpt>
      <trkpt lat="45.94262" lon="4.82137">
        <ele>263</ele>
        <time>2017-12-22T10:17:10Z</time>
      </trkpt>
      <trkpt lat="45.94264" lon="4.82144">
        <ele>263</ele>
        <time>2017-12-22T10:17:11Z</time>
      </trkpt>
      <trkpt lat="45.94266" lon="4.8215">
        <ele>263</ele>
        <time>2017-12-22T10:17:12Z</time>
      </trkpt>
      <trkpt lat="45.94267" lon="4.82157">
        <ele>263</ele>
        <time>2017-12-22T10:17:13Z</time>
      </trkpt>
      <trkpt lat="45.94269" lon="4.82163">
        <ele>263</ele>
        <time>2017-12-22T10:17:14Z</time>
      </trkpt>
      <trkpt lat="45.94269" lon="4.8217">
        <ele>263</ele>
        <time>2017-12-22T10:17:15Z</time>
      </trkpt>
      <trkpt lat="45.94272" lon="4.82182">
        <ele>264</ele>
        <time>2017-12-22T10:17:17Z</time>
      </trkpt>
      <trkpt lat="45.94272" lon="4.82189">
        <ele>264</ele>
        <time>2017-12-22T10:17:18Z</time>
      </trkpt>
      <trkpt lat="45.94273" lon="4.822">
        <ele>264</ele>
        <time>2017-12-22T10:17:20Z</time>
      </trkpt>
      <trkpt lat="45.94274" lon="4.82205">
        <ele>264</ele>
        <time>2017-12-22T10:17:21Z</time>
      </trkpt>
      <trkpt lat="45.94276" lon="4.82218">
        <ele>264</ele>
        <time>2017-12-22T10:17:23Z</time>
      </trkpt>
      <trkpt lat="45.94277" lon="4.82224">
        <ele>264</ele>
        <time>2017-12-22T10:17:24Z</time>
      </trkpt>
      <trkpt lat="45.94278" lon="4.8223">
        <ele>264</ele>
        <time>2017-12-22T10:17:25Z</time>
      </trkpt>
      <trkpt lat="45.94279" lon="4.82237">
        <ele>264</ele>
        <time>2017-12-22T10:17:26Z</time>
      </trkpt>
      <trkpt lat="45.94279" lon="4.82245">
        <ele>264</ele>
        <time>2017-12-22T10:17:27Z</time>
      </trkpt>
      <trkpt lat="45.9428" lon="4.82251">
        <ele>265</ele>
        <time>2017-12-22T10:17:28Z</time>
      </trkpt>
      <trkpt lat="45.94281" lon="4.82261">
        <ele>265</ele>
        <time>2017-12-22T10:17:30Z</time>
      </trkpt>
      <trkpt lat="45.94282" lon="4.82269">
        <ele>265</ele>
        <time>2017-12-22T10:17:31Z</time>
      </trkpt>
      <trkpt lat="45.94282" lon="4.82276">
        <ele>265</ele>
        <time>2017-12-22T10:17:32Z</time>
      </trkpt>
      <trkpt lat="45.94283" lon="4.82282">
        <ele>265</ele>
        <time>2017-12-22T10:17:33Z</time>
      </trkpt>
      <trkpt lat="45.94284" lon="4.82294">
        <ele>265</ele>
        <time>2017-12-22T10:17:35Z</time>
      </trkpt>
      <trkpt lat="45.94285" lon="4.82301">
        <ele>265</ele>
        <time>2017-12-22T10:17:36Z</time>
      </trkpt>
      <trkpt lat="45.94284" lon="4.82309">
        <ele>265</ele>
        <time>2017-12-22T10:17:37Z</time>
      </trkpt>
      <trkpt lat="45.94285" lon="4.82316">
        <ele>265</ele>
        <time>2017-12-22T10:17:38Z</time>
      </trkpt>
      <trkpt lat="45.94285" lon="4.82322">
        <ele>265</ele>
        <time>2017-12-22T10:17:39Z</time>
      </trkpt>
      <trkpt lat="45.94285" lon="4.82329">
        <ele>265</ele>
        <time>2017-12-22T10:17:40Z</time>
      </trkpt>
      <trkpt lat="45.94286" lon="4.8234">
        <ele>264</ele>
        <time>2017-12-22T10:17:42Z</time>
      </trkpt>
      <trkpt lat="45.94286" lon="4.82345">
        <ele>264</ele>
        <time>2017-12-22T10:17:43Z</time>
      </trkpt>
      <trkpt lat="45.94286" lon="4.82358">
        <ele>264</ele>
        <time>2017-12-22T10:17:45Z</time>
      </trkpt>
      <trkpt lat="45.94287" lon="4.82364">
        <ele>264</ele>
        <time>2017-12-22T10:17:46Z</time>
      </trkpt>
      <trkpt lat="45.94287" lon="4.82371">
        <ele>264</ele>
        <time>2017-12-22T10:17:47Z</time>
      </trkpt>
      <trkpt lat="45.94287" lon="4.82379">
        <ele>264</ele>
        <time>2017-12-22T10:17:48Z</time>
      </trkpt>
      <trkpt lat="45.94287" lon="4.82387">
        <ele>264</ele>
        <time>2017-12-22T10:17:49Z</time>
      </trkpt>
      <trkpt lat="45.94288" lon="4.82396">
        <ele>264</ele>
        <time>2017-12-22T10:17:50Z</time>
      </trkpt>
      <trkpt lat="45.94288" lon="4.82403">
        <ele>264</ele>
        <time>2017-12-22T10:17:51Z</time>
      </trkpt>
      <trkpt lat="45.94288" lon="4.8241">
        <ele>264</ele>
        <time>2017-12-22T10:17:52Z</time>
      </trkpt>
      <trkpt lat="45.94288" lon="4.82416">
        <ele>264</ele>
        <time>2017-12-22T10:17:53Z</time>
      </trkpt>
      <trkpt lat="45.94288" lon="4.82423">
        <ele>264</ele>
        <time>2017-12-22T10:17:54Z</time>
      </trkpt>
      <trkpt lat="45.9429" lon="4.82435">
        <ele>264</ele>
        <time>2017-12-22T10:17:56Z</time>
      </trkpt>
      <trkpt lat="45.9429" lon="4.8244">
        <ele>264</ele>
        <time>2017-12-22T10:17:57Z</time>
      </trkpt>
      <trkpt lat="45.9429" lon="4.82452">
        <ele>264</ele>
        <time>2017-12-22T10:17:59Z</time>
      </trkpt>
      <trkpt lat="45.9429" lon="4.82458">
        <ele>264</ele>
        <time>2017-12-22T10:18:00Z</time>
      </trkpt>
      <trkpt lat="45.9429" lon="4.8247">
        <ele>264</ele>
        <time>2017-12-22T10:18:02Z</time>
      </trkpt>
      <trkpt lat="45.94292" lon="4.82477">
        <ele>264</ele>
        <time>2017-12-22T10:18:03Z</time>
      </trkpt>
      <trkpt lat="45.94292" lon="4.82484">
        <ele>264</ele>
        <time>2017-12-22T10:18:04Z</time>
      </trkpt>
      <trkpt lat="45.94293" lon="4.82491">
        <ele>264</ele>
        <time>2017-12-22T10:18:05Z</time>
      </trkpt>
      <trkpt lat="45.94292" lon="4.82498">
        <ele>264</ele>
        <time>2017-12-22T10:18:06Z</time>
      </trkpt>
      <trkpt lat="45.94292" lon="4.82505">
        <ele>264</ele>
        <time>2017-12-22T10:18:07Z</time>
      </trkpt>
      <trkpt lat="45.94292" lon="4.82517">
        <ele>264</ele>
        <time>2017-12-22T10:18:09Z</time>
      </trkpt>
      <trkpt lat="45.94293" lon="4.82523">
        <ele>264</ele>
        <time>2017-12-22T10:18:10Z</time>
      </trkpt>
      <trkpt lat="45.94293" lon="4.82535">
        <ele>264</ele>
        <time>2017-12-22T10:18:12Z</time>
      </trkpt>
      <trkpt lat="45.94293" lon="4.82542">
        <ele>264</ele>
        <time>2017-12-22T10:18:13Z</time>
      </trkpt>
      <trkpt lat="45.94293" lon="4.82554">
        <ele>264</ele>
        <time>2017-12-22T10:18:15Z</time>
      </trkpt>
      <trkpt lat="45.94293" lon="4.8256">
        <ele>264</ele>
        <time>2017-12-22T10:18:16Z</time>
      </trkpt>
      <trkpt lat="45.94293" lon="4.82573">
        <ele>264</ele>
        <time>2017-12-22T10:18:18Z</time>
      </trkpt>
      <trkpt lat="45.94293" lon="4.82578">
        <ele>264</ele>
        <time>2017-12-22T10:18:19Z</time>
      </trkpt>
      <trkpt lat="45.94293" lon="4.82586">
        <ele>265</ele>
        <time>2017-12-22T10:18:20Z</time>
      </trkpt>
      <trkpt lat="45.94293" lon="4.82592">
        <ele>265</ele>
        <time>2017-12-22T10:18:21Z</time>
      </trkpt>
      <trkpt lat="45.94292" lon="4.82604">
        <ele>265</ele>
        <time>2017-12-22T10:18:23Z</time>
      </trkpt>
      <trkpt lat="45.94292" lon="4.82611">
        <ele>265</ele>
        <time>2017-12-22T10:18:24Z</time>
      </trkpt>
      <trkpt lat="45.94292" lon="4.82623">
        <ele>265</ele>
        <time>2017-12-22T10:18:26Z</time>
      </trkpt>
      <trkpt lat="45.94292" lon="4.82629">
        <ele>265</ele>
        <time>2017-12-22T10:18:27Z</time>
      </trkpt>
      <trkpt lat="45.94292" lon="4.82642">
        <ele>265</ele>
        <time>2017-12-22T10:18:29Z</time>
      </trkpt>
      <trkpt lat="45.94292" lon="4.82648">
        <ele>265</ele>
        <time>2017-12-22T10:18:30Z</time>
      </trkpt>
      <trkpt lat="45.94292" lon="4.8266">
        <ele>265</ele>
        <time>2017-12-22T10:18:32Z</time>
      </trkpt>
      <trkpt lat="45.94292" lon="4.82666">
        <ele>265</ele>
        <time>2017-12-22T10:18:33Z</time>
      </trkpt>
      <trkpt lat="45.94291" lon="4.82677">
        <ele>265</ele>
        <time>2017-12-22T10:18:35Z</time>
      </trkpt>
      <trkpt lat="45.94291" lon="4.82682">
        <ele>265</ele>
        <time>2017-12-22T10:18:36Z</time>
      </trkpt>
      <trkpt lat="45.94291" lon="4.82692">
        <ele>265</ele>
        <time>2017-12-22T10:18:38Z</time>
      </trkpt>
      <trkpt lat="45.9429" lon="4.82698">
        <ele>265</ele>
        <time>2017-12-22T10:18:39Z</time>
      </trkpt>
      <trkpt lat="45.9429" lon="4.8271">
        <ele>265</ele>
        <time>2017-12-22T10:18:41Z</time>
      </trkpt>
      <trkpt lat="45.9429" lon="4.82716">
        <ele>265</ele>
        <time>2017-12-22T10:18:42Z</time>
      </trkpt>
      <trkpt lat="45.9429" lon="4.82723">
        <ele>265</ele>
        <time>2017-12-22T10:18:43Z</time>
      </trkpt>
      <trkpt lat="45.9429" lon="4.82731">
        <ele>265</ele>
        <time>2017-12-22T10:18:44Z</time>
      </trkpt>
      <trkpt lat="45.9429" lon="4.82744">
        <ele>265</ele>
        <time>2017-12-22T10:18:46Z</time>
      </trkpt>
      <trkpt lat="45.9429" lon="4.8275">
        <ele>265</ele>
        <time>2017-12-22T10:18:47Z</time>
      </trkpt>
      <trkpt lat="45.94291" lon="4.82762">
        <ele>265</ele>
        <time>2017-12-22T10:18:49Z</time>
      </trkpt>
      <trkpt lat="45.94291" lon="4.82767">
        <ele>265</ele>
        <time>2017-12-22T10:18:50Z</time>
      </trkpt>
      <trkpt lat="45.94291" lon="4.82777">
        <ele>265</ele>
        <time>2017-12-22T10:18:52Z</time>
      </trkpt>
      <trkpt lat="45.94291" lon="4.82783">
        <ele>265</ele>
        <time>2017-12-22T10:18:53Z</time>
      </trkpt>
      <trkpt lat="45.94289" lon="4.82794">
        <ele>265</ele>
        <time>2017-12-22T10:18:55Z</time>
      </trkpt>
      <trkpt lat="45.94289" lon="4.828">
        <ele>265</ele>
        <time>2017-12-22T10:18:56Z</time>
      </trkpt>
      <trkpt lat="45.94289" lon="4.82808">
        <ele>265</ele>
        <time>2017-12-22T10:18:57Z</time>
      </trkpt>
      <trkpt lat="45.94288" lon="4.82814">
        <ele>265</ele>
        <time>2017-12-22T10:18:58Z</time>
      </trkpt>
      <trkpt lat="45.94288" lon="4.82822">
        <ele>265</ele>
        <time>2017-12-22T10:18:59Z</time>
      </trkpt>
      <trkpt lat="45.94288" lon="4.82829">
        <ele>265</ele>
        <time>2017-12-22T10:19:00Z</time>
      </trkpt>
      <trkpt lat="45.94288" lon="4.82835">
        <ele>265</ele>
        <time>2017-12-22T10:19:01Z</time>
      </trkpt>
      <trkpt lat="45.94287" lon="4.82842">
        <ele>265</ele>
        <time>2017-12-22T10:19:02Z</time>
      </trkpt>
      <trkpt lat="45.94287" lon="4.82854">
        <ele>265</ele>
        <time>2017-12-22T10:19:04Z</time>
      </trkpt>
      <trkpt lat="45.94288" lon="4.82861">
        <ele>265</ele>
        <time>2017-12-22T10:19:05Z</time>
      </trkpt>
      <trkpt lat="45.94287" lon="4.82868">
        <ele>265</ele>
        <time>2017-12-22T10:19:06Z</time>
      </trkpt>
      <trkpt lat="45.94287" lon="4.82874">
        <ele>265</ele>
        <time>2017-12-22T10:19:07Z</time>
      </trkpt>
      <trkpt lat="45.94286" lon="4.82882">
        <ele>265</ele>
        <time>2017-12-22T10:19:08Z</time>
      </trkpt>
      <trkpt lat="45.94286" lon="4.82888">
        <ele>265</ele>
        <time>2017-12-22T10:19:09Z</time>
      </trkpt>
      <trkpt lat="45.94286" lon="4.82895">
        <ele>265</ele>
        <time>2017-12-22T10:19:10Z</time>
      </trkpt>
      <trkpt lat="45.94285" lon="4.82903">
        <ele>265</ele>
        <time>2017-12-22T10:19:11Z</time>
      </trkpt>
      <trkpt lat="45.94285" lon="4.8291">
        <ele>265</ele>
        <time>2017-12-22T10:19:12Z</time>
      </trkpt>
      <trkpt lat="45.94284" lon="4.82917">
        <ele>265</ele>
        <time>2017-12-22T10:19:13Z</time>
      </trkpt>
      <trkpt lat="45.94284" lon="4.82923">
        <ele>265</ele>
        <time>2017-12-22T10:19:14Z</time>
      </trkpt>
      <trkpt lat="45.94283" lon="4.82929">
        <ele>265</ele>
        <time>2017-12-22T10:19:15Z</time>
      </trkpt>
      <trkpt lat="45.94282" lon="4.82936">
        <ele>265</ele>
        <time>2017-12-22T10:19:16Z</time>
      </trkpt>
      <trkpt lat="45.94281" lon="4.82944">
        <ele>265</ele>
        <time>2017-12-22T10:19:17Z</time>
      </trkpt>
      <trkpt lat="45.9428" lon="4.82952">
        <ele>265</ele>
        <time>2017-12-22T10:19:18Z</time>
      </trkpt>
      <trkpt lat="45.9428" lon="4.8296">
        <ele>265</ele>
        <time>2017-12-22T10:19:19Z</time>
      </trkpt>
      <trkpt lat="45.94282" lon="4.82971">
        <ele>265</ele>
        <time>2017-12-22T10:19:21Z</time>
      </trkpt>
      <trkpt lat="45.94285" lon="4.82977">
        <ele>265</ele>
        <time>2017-12-22T10:19:22Z</time>
      </trkpt>
      <trkpt lat="45.94286" lon="4.82985">
        <ele>265</ele>
        <time>2017-12-22T10:19:23Z</time>
      </trkpt>
      <trkpt lat="45.94288" lon="4.82991">
        <ele>265</ele>
        <time>2017-12-22T10:19:24Z</time>
      </trkpt>
      <trkpt lat="45.94292" lon="4.83002">
        <ele>266</ele>
        <time>2017-12-22T10:19:26Z</time>
      </trkpt>
      <trkpt lat="45.94294" lon="4.83008">
        <ele>266</ele>
        <time>2017-12-22T10:19:27Z</time>
      </trkpt>
      <trkpt lat="45.94295" lon="4.83014">
        <ele>266</ele>
        <time>2017-12-22T10:19:28Z</time>
      </trkpt>
      <trkpt lat="45.94296" lon="4.83021">
        <ele>266</ele>
        <time>2017-12-22T10:19:29Z</time>
      </trkpt>
      <trkpt lat="45.94297" lon="4.83028">
        <ele>266</ele>
        <time>2017-12-22T10:19:30Z</time>
      </trkpt>
      <trkpt lat="45.94298" lon="4.83035">
        <ele>266</ele>
        <time>2017-12-22T10:19:31Z</time>
      </trkpt>
      <trkpt lat="45.94299" lon="4.83041">
        <ele>266</ele>
        <time>2017-12-22T10:19:32Z</time>
      </trkpt>
      <trkpt lat="45.94301" lon="4.83048">
        <ele>266</ele>
        <time>2017-12-22T10:19:33Z</time>
      </trkpt>
      <trkpt lat="45.94303" lon="4.83055">
        <ele>266</ele>
        <time>2017-12-22T10:19:34Z</time>
      </trkpt>
      <trkpt lat="45.94305" lon="4.83062">
        <ele>266</ele>
        <time>2017-12-22T10:19:35Z</time>
      </trkpt>
      <trkpt lat="45.94307" lon="4.83068">
        <ele>266</ele>
        <time>2017-12-22T10:19:36Z</time>
      </trkpt>
      <trkpt lat="45.94308" lon="4.83075">
        <ele>266</ele>
        <time>2017-12-22T10:19:37Z</time>
      </trkpt>
      <trkpt lat="45.94311" lon="4.83087">
        <ele>266</ele>
        <time>2017-12-22T10:19:39Z</time>
      </trkpt>
      <trkpt lat="45.94313" lon="4.83092">
        <ele>266</ele>
        <time>2017-12-22T10:19:40Z</time>
      </trkpt>
      <trkpt lat="45.94315" lon="4.83104">
        <ele>266</ele>
        <time>2017-12-22T10:19:42Z</time>
      </trkpt>
      <trkpt lat="45.94317" lon="4.83109">
        <ele>266</ele>
        <time>2017-12-22T10:19:43Z</time>
      </trkpt>
      <trkpt lat="45.94321" lon="4.83119">
        <ele>266</ele>
        <time>2017-12-22T10:19:45Z</time>
      </trkpt>
      <trkpt lat="45.94323" lon="4.83124">
        <ele>266</ele>
        <time>2017-12-22T10:19:46Z</time>
      </trkpt>
      <trkpt lat="45.94324" lon="4.8313">
        <ele>266</ele>
        <time>2017-12-22T10:19:47Z</time>
      </trkpt>
      <trkpt lat="45.94328" lon="4.83137">
        <ele>266</ele>
        <time>2017-12-22T10:19:48Z</time>
      </trkpt>
      <trkpt lat="45.94329" lon="4.83142">
        <ele>266</ele>
        <time>2017-12-22T10:19:49Z</time>
      </trkpt>
      <trkpt lat="45.94332" lon="4.83149">
        <ele>266</ele>
        <time>2017-12-22T10:19:50Z</time>
      </trkpt>
      <trkpt lat="45.94334" lon="4.83155">
        <ele>266</ele>
        <time>2017-12-22T10:19:51Z</time>
      </trkpt>
      <trkpt lat="45.94336" lon="4.83161">
        <ele>266</ele>
        <time>2017-12-22T10:19:52Z</time>
      </trkpt>
      <trkpt lat="45.94339" lon="4.83167">
        <ele>266</ele>
        <time>2017-12-22T10:19:53Z</time>
      </trkpt>
      <trkpt lat="45.9434" lon="4.83173">
        <ele>266</ele>
        <time>2017-12-22T10:19:54Z</time>
      </trkpt>
      <trkpt lat="45.94342" lon="4.83179">
        <ele>266</ele>
        <time>2017-12-22T10:19:55Z</time>
      </trkpt>
      <trkpt lat="45.94344" lon="4.83185">
        <ele>266</ele>
        <time>2017-12-22T10:19:56Z</time>
      </trkpt>
      <trkpt lat="45.94347" lon="4.83196">
        <ele>266</ele>
        <time>2017-12-22T10:19:58Z</time>
      </trkpt>
      <trkpt lat="45.94349" lon="4.83202">
        <ele>266</ele>
        <time>2017-12-22T10:19:59Z</time>
      </trkpt>
      <trkpt lat="45.94352" lon="4.83208">
        <ele>266</ele>
        <time>2017-12-22T10:20:00Z</time>
      </trkpt>
      <trkpt lat="45.94354" lon="4.83214">
        <ele>266</ele>
        <time>2017-12-22T10:20:01Z</time>
      </trkpt>
      <trkpt lat="45.94357" lon="4.8322">
        <ele>266</ele>
        <time>2017-12-22T10:20:02Z</time>
      </trkpt>
      <trkpt lat="45.94359" lon="4.83228">
        <ele>266</ele>
        <time>2017-12-22T10:20:03Z</time>
      </trkpt>
      <trkpt lat="45.94361" lon="4.83235">
        <ele>265</ele>
        <time>2017-12-22T10:20:04Z</time>
      </trkpt>
      <trkpt lat="45.94364" lon="4.83242">
        <ele>265</ele>
        <time>2017-12-22T10:20:05Z</time>
      </trkpt>
      <trkpt lat="45.94366" lon="4.83249">
        <ele>265</ele>
        <time>2017-12-22T10:20:06Z</time>
      </trkpt>
      <trkpt lat="45.94369" lon="4.83256">
        <ele>265</ele>
        <time>2017-12-22T10:20:07Z</time>
      </trkpt>
      <trkpt lat="45.9437" lon="4.83263">
        <ele>264</ele>
        <time>2017-12-22T10:20:08Z</time>
      </trkpt>
      <trkpt lat="45.94373" lon="4.8327">
        <ele>264</ele>
        <time>2017-12-22T10:20:09Z</time>
      </trkpt>
      <trkpt lat="45.94376" lon="4.83276">
        <ele>264</ele>
        <time>2017-12-22T10:20:10Z</time>
      </trkpt>
      <trkpt lat="45.94378" lon="4.83284">
        <ele>264</ele>
        <time>2017-12-22T10:20:11Z</time>
      </trkpt>
      <trkpt lat="45.94381" lon="4.8329">
        <ele>264</ele>
        <time>2017-12-22T10:20:12Z</time>
      </trkpt>
      <trkpt lat="45.94384" lon="4.83298">
        <ele>264</ele>
        <time>2017-12-22T10:20:13Z</time>
      </trkpt>
      <trkpt lat="45.94386" lon="4.83305">
        <ele>264</ele>
        <time>2017-12-22T10:20:14Z</time>
      </trkpt>
      <trkpt lat="45.94388" lon="4.83311">
        <ele>264</ele>
        <time>2017-12-22T10:20:15Z</time>
      </trkpt>
      <trkpt lat="45.9439" lon="4.83317">
        <ele>264</ele>
        <time>2017-12-22T10:20:16Z</time>
      </trkpt>
      <trkpt lat="45.94392" lon="4.83324">
        <ele>264</ele>
        <time>2017-12-22T10:20:17Z</time>
      </trkpt>
      <trkpt lat="45.94395" lon="4.83331">
        <ele>264</ele>
        <time>2017-12-22T10:20:18Z</time>
      </trkpt>
      <trkpt lat="45.94397" lon="4.83336">
        <ele>263</ele>
        <time>2017-12-22T10:20:19Z</time>
      </trkpt>
      <trkpt lat="45.94399" lon="4.83343">
        <ele>263</ele>
        <time>2017-12-22T10:20:20Z</time>
      </trkpt>
      <trkpt lat="45.94402" lon="4.83349">
        <ele>263</ele>
        <time>2017-12-22T10:20:21Z</time>
      </trkpt>
      <trkpt lat="45.94404" lon="4.83356">
        <ele>264</ele>
        <time>2017-12-22T10:20:22Z</time>
      </trkpt>
      <trkpt lat="45.94407" lon="4.83363">
        <ele>264</ele>
        <time>2017-12-22T10:20:23Z</time>
      </trkpt>
      <trkpt lat="45.9441" lon="4.8337">
        <ele>264</ele>
        <time>2017-12-22T10:20:24Z</time>
      </trkpt>
      <trkpt lat="45.94413" lon="4.83376">
        <ele>264</ele>
        <time>2017-12-22T10:20:25Z</time>
      </trkpt>
      <trkpt lat="45.94415" lon="4.83382">
        <ele>264</ele>
        <time>2017-12-22T10:20:26Z</time>
      </trkpt>
      <trkpt lat="45.94418" lon="4.83387">
        <ele>264</ele>
        <time>2017-12-22T10:20:27Z</time>
      </trkpt>
      <trkpt lat="45.94422" lon="4.83397">
        <ele>264</ele>
        <time>2017-12-22T10:20:29Z</time>
      </trkpt>
      <trkpt lat="45.94425" lon="4.83402">
        <ele>264</ele>
        <time>2017-12-22T10:20:30Z</time>
      </trkpt>
      <trkpt lat="45.94427" lon="4.83408">
        <ele>264</ele>
        <time>2017-12-22T10:20:31Z</time>
      </trkpt>
      <trkpt lat="45.9443" lon="4.83413">
        <ele>264</ele>
        <time>2017-12-22T10:20:32Z</time>
      </trkpt>
      <trkpt lat="45.94435" lon="4.83423">
        <ele>264</ele>
        <time>2017-12-22T10:20:34Z</time>
      </trkpt>
      <trkpt lat="45.94438" lon="4.83429">
        <ele>264</ele>
        <time>2017-12-22T10:20:35Z</time>
      </trkpt>
      <trkpt lat="45.9444" lon="4.83436">
        <ele>263</ele>
        <time>2017-12-22T10:20:36Z</time>
      </trkpt>
      <trkpt lat="45.94443" lon="4.83442">
        <ele>263</ele>
        <time>2017-12-22T10:20:37Z</time>
      </trkpt>
      <trkpt lat="45.94447" lon="4.83449">
        <ele>263</ele>
        <time>2017-12-22T10:20:38Z</time>
      </trkpt>
      <trkpt lat="45.9445" lon="4.83455">
        <ele>263</ele>
        <time>2017-12-22T10:20:39Z</time>
      </trkpt>
      <trkpt lat="45.94453" lon="4.83461">
        <ele>263</ele>
        <time>2017-12-22T10:20:40Z</time>
      </trkpt>
      <trkpt lat="45.94456" lon="4.83467">
        <ele>263</ele>
        <time>2017-12-22T10:20:41Z</time>
      </trkpt>
      <trkpt lat="45.94459" lon="4.83472">
        <ele>263</ele>
        <time>2017-12-22T10:20:42Z</time>
      </trkpt>
      <trkpt lat="45.94463" lon="4.83477">
        <ele>263</ele>
        <time>2017-12-22T10:20:43Z</time>
      </trkpt>
      <trkpt lat="45.94466" lon="4.83483">
        <ele>263</ele>
        <time>2017-12-22T10:20:44Z</time>
      </trkpt>
      <trkpt lat="45.94469" lon="4.83488">
        <ele>263</ele>
        <time>2017-12-22T10:20:45Z</time>
      </trkpt>
      <trkpt lat="45.94472" lon="4.83493">
        <ele>263</ele>
        <time>2017-12-22T10:20:46Z</time>
      </trkpt>
      <trkpt lat="45.94476" lon="4.83498">
        <ele>263</ele>
        <time>2017-12-22T10:20:47Z</time>
      </trkpt>
      <trkpt lat="45.94481" lon="4.83507">
        <ele>262</ele>
        <time>2017-12-22T10:20:49Z</time>
      </trkpt>
      <trkpt lat="45.94484" lon="4.83513">
        <ele>262</ele>
        <time>2017-12-22T10:20:50Z</time>
      </trkpt>
      <trkpt lat="45.94489" lon="4.83523">
        <ele>262</ele>
        <time>2017-12-22T10:20:52Z</time>
      </trkpt>
      <trkpt lat="45.94492" lon="4.83527">
        <ele>262</ele>
        <time>2017-12-22T10:20:53Z</time>
      </trkpt>
      <trkpt lat="45.94496" lon="4.83533">
        <ele>262</ele>
        <time>2017-12-22T10:20:54Z</time>
      </trkpt>
      <trkpt lat="45.94499" lon="4.83538">
        <ele>262</ele>
        <time>2017-12-22T10:20:55Z</time>
      </trkpt>
      <trkpt lat="45.94505" lon="4.83547">
        <ele>261</ele>
        <time>2017-12-22T10:20:57Z</time>
      </trkpt>
      <trkpt lat="45.94508" lon="4.83551">
        <ele>261</ele>
        <time>2017-12-22T10:20:58Z</time>
      </trkpt>
      <trkpt lat="45.94511" lon="4.83556">
        <ele>261</ele>
        <time>2017-12-22T10:20:59Z</time>
      </trkpt>
      <trkpt lat="45.94513" lon="4.83561">
        <ele>261</ele>
        <time>2017-12-22T10:21:00Z</time>
      </trkpt>
      <trkpt lat="45.94518" lon="4.83565">
        <ele>261</ele>
        <time>2017-12-22T10:21:01Z</time>
      </trkpt>
      <trkpt lat="45.94521" lon="4.83568">
        <ele>261</ele>
        <time>2017-12-22T10:21:02Z</time>
      </trkpt>
      <trkpt lat="45.94526" lon="4.83572">
        <ele>261</ele>
        <time>2017-12-22T10:21:03Z</time>
      </trkpt>
      <trkpt lat="45.9453" lon="4.83577">
        <ele>261</ele>
        <time>2017-12-22T10:21:04Z</time>
      </trkpt>
      <trkpt lat="45.94534" lon="4.83583">
        <ele>261</ele>
        <time>2017-12-22T10:21:05Z</time>
      </trkpt>
      <trkpt lat="45.94538" lon="4.83588">
        <ele>261</ele>
        <time>2017-12-22T10:21:06Z</time>
      </trkpt>
      <trkpt lat="45.94542" lon="4.83594">
        <ele>261</ele>
        <time>2017-12-22T10:21:07Z</time>
      </trkpt>
      <trkpt lat="45.94546" lon="4.83599">
        <ele>261</ele>
        <time>2017-12-22T10:21:08Z</time>
      </trkpt>
      <trkpt lat="45.94551" lon="4.83603">
        <ele>261</ele>
        <time>2017-12-22T10:21:09Z</time>
      </trkpt>
      <trkpt lat="45.94555" lon="4.83609">
        <ele>261</ele>
        <time>2017-12-22T10:21:10Z</time>
      </trkpt>
      <trkpt lat="45.9456" lon="4.83613">
        <ele>261</ele>
        <time>2017-12-22T10:21:11Z</time>
      </trkpt>
      <trkpt lat="45.94564" lon="4.83617">
        <ele>261</ele>
        <time>2017-12-22T10:21:12Z</time>
      </trkpt>
      <trkpt lat="45.94568" lon="4.83621">
        <ele>261</ele>
        <time>2017-12-22T10:21:13Z</time>
      </trkpt>
      <trkpt lat="45.94572" lon="4.83626">
        <ele>261</ele>
        <time>2017-12-22T10:21:14Z</time>
      </trkpt>
      <trkpt lat="45.94576" lon="4.83631">
        <ele>261</ele>
        <time>2017-12-22T10:21:15Z</time>
      </trkpt>
      <trkpt lat="45.94579" lon="4.83635">
        <ele>261</ele>
        <time>2017-12-22T10:21:16Z</time>
      </trkpt>
      <trkpt lat="45.94583" lon="4.83638">
        <ele>261</ele>
        <time>2017-12-22T10:21:17Z</time>
      </trkpt>
      <trkpt lat="45.94587" lon="4.83643">
        <ele>260</ele>
        <time>2017-12-22T10:21:18Z</time>
      </trkpt>
      <trkpt lat="45.94591" lon="4.83646">
        <ele>260</ele>
        <time>2017-12-22T10:21:19Z</time>
      </trkpt>
      <trkpt lat="45.94595" lon="4.8365">
        <ele>260</ele>
        <time>2017-12-22T10:21:20Z</time>
      </trkpt>
      <trkpt lat="45.946" lon="4.83654">
        <ele>260</ele>
        <time>2017-12-22T10:21:21Z</time>
      </trkpt>
      <trkpt lat="45.94604" lon="4.83659">
        <ele>260</ele>
        <time>2017-12-22T10:21:22Z</time>
      </trkpt>
      <trkpt lat="45.94609" lon="4.83663">
        <ele>260</ele>
        <time>2017-12-22T10:21:23Z</time>
      </trkpt>
      <trkpt lat="45.94613" lon="4.83666">
        <ele>260</ele>
        <time>2017-12-22T10:21:24Z</time>
      </trkpt>
      <trkpt lat="45.94617" lon="4.83669">
        <ele>261</ele>
        <time>2017-12-22T10:21:25Z</time>
      </trkpt>
      <trkpt lat="45.94621" lon="4.83673">
        <ele>261</ele>
        <time>2017-12-22T10:21:26Z</time>
      </trkpt>
      <trkpt lat="45.94628" lon="4.83681">
        <ele>261</ele>
        <time>2017-12-22T10:21:28Z</time>
      </trkpt>
      <trkpt lat="45.94632" lon="4.83684">
        <ele>261</ele>
        <time>2017-12-22T10:21:29Z</time>
      </trkpt>
      <trkpt lat="45.94636" lon="4.83689">
        <ele>261</ele>
        <time>2017-12-22T10:21:30Z</time>
      </trkpt>
      <trkpt lat="45.9464" lon="4.83692">
        <ele>261</ele>
        <time>2017-12-22T10:21:31Z</time>
      </trkpt>
      <trkpt lat="45.94644" lon="4.83696">
        <ele>261</ele>
        <time>2017-12-22T10:21:32Z</time>
      </trkpt>
      <trkpt lat="45.94651" lon="4.83699">
        <ele>261</ele>
        <time>2017-12-22T10:21:33Z</time>
      </trkpt>
      <trkpt lat="45.94656" lon="4.83703">
        <ele>261</ele>
        <time>2017-12-22T10:21:34Z</time>
      </trkpt>
      <trkpt lat="45.94659" lon="4.83708">
        <ele>261</ele>
        <time>2017-12-22T10:21:35Z</time>
      </trkpt>
      <trkpt lat="45.94664" lon="4.83712">
        <ele>261</ele>
        <time>2017-12-22T10:21:36Z</time>
      </trkpt>
      <trkpt lat="45.94668" lon="4.83716">
        <ele>261</ele>
        <time>2017-12-22T10:21:37Z</time>
      </trkpt>
      <trkpt lat="45.94672" lon="4.8372">
        <ele>261</ele>
        <time>2017-12-22T10:21:38Z</time>
      </trkpt>
      <trkpt lat="45.94676" lon="4.83725">
        <ele>261</ele>
        <time>2017-12-22T10:21:39Z</time>
      </trkpt>
      <trkpt lat="45.94679" lon="4.8373">
        <ele>261</ele>
        <time>2017-12-22T10:21:40Z</time>
      </trkpt>
      <trkpt lat="45.94683" lon="4.83734">
        <ele>262</ele>
        <time>2017-12-22T10:21:41Z</time>
      </trkpt>
      <trkpt lat="45.94687" lon="4.83738">
        <ele>262</ele>
        <time>2017-12-22T10:21:42Z</time>
      </trkpt>
      <trkpt lat="45.94691" lon="4.83743">
        <ele>262</ele>
        <time>2017-12-22T10:21:43Z</time>
      </trkpt>
      <trkpt lat="45.94695" lon="4.83747">
        <ele>262</ele>
        <time>2017-12-22T10:21:44Z</time>
      </trkpt>
      <trkpt lat="45.94699" lon="4.83751">
        <ele>263</ele>
        <time>2017-12-22T10:21:45Z</time>
      </trkpt>
      <trkpt lat="45.94703" lon="4.83755">
        <ele>263</ele>
        <time>2017-12-22T10:21:46Z</time>
      </trkpt>
      <trkpt lat="45.94706" lon="4.8376">
        <ele>263</ele>
        <time>2017-12-22T10:21:47Z</time>
      </trkpt>
      <trkpt lat="45.9471" lon="4.83766">
        <ele>263</ele>
        <time>2017-12-22T10:21:48Z</time>
      </trkpt>
      <trkpt lat="45.94714" lon="4.83771">
        <ele>263</ele>
        <time>2017-12-22T10:21:49Z</time>
      </trkpt>
      <trkpt lat="45.94717" lon="4.83775">
        <ele>263</ele>
        <time>2017-12-22T10:21:50Z</time>
      </trkpt>
      <trkpt lat="45.94721" lon="4.8378">
        <ele>263</ele>
        <time>2017-12-22T10:21:51Z</time>
      </trkpt>
      <trkpt lat="45.94725" lon="4.83784">
        <ele>263</ele>
        <time>2017-12-22T10:21:52Z</time>
      </trkpt>
      <trkpt lat="45.9473" lon="4.83788">
        <ele>263</ele>
        <time>2017-12-22T10:21:53Z</time>
      </trkpt>
      <trkpt lat="45.94733" lon="4.83793">
        <ele>264</ele>
        <time>2017-12-22T10:21:54Z</time>
      </trkpt>
      <trkpt lat="45.94736" lon="4.83799">
        <ele>264</ele>
        <time>2017-12-22T10:21:55Z</time>
      </trkpt>
      <trkpt lat="45.94742" lon="4.83807">
        <ele>264</ele>
        <time>2017-12-22T10:21:57Z</time>
      </trkpt>
      <trkpt lat="45.94745" lon="4.8381">
        <ele>264</ele>
        <time>2017-12-22T10:21:58Z</time>
      </trkpt>
      <trkpt lat="45.94749" lon="4.83813">
        <ele>264</ele>
        <time>2017-12-22T10:21:59Z</time>
      </trkpt>
      <trkpt lat="45.94753" lon="4.83816">
        <ele>264</ele>
        <time>2017-12-22T10:22:00Z</time>
      </trkpt>
      <trkpt lat="45.94756" lon="4.83821">
        <ele>264</ele>
        <time>2017-12-22T10:22:01Z</time>
      </trkpt>
      <trkpt lat="45.94759" lon="4.83826">
        <ele>264</ele>
        <time>2017-12-22T10:22:02Z</time>
      </trkpt>
      <trkpt lat="45.94762" lon="4.83831">
        <ele>264</ele>
        <time>2017-12-22T10:22:03Z</time>
      </trkpt>
      <trkpt lat="45.94765" lon="4.83836">
        <ele>265</ele>
        <time>2017-12-22T10:22:04Z</time>
      </trkpt>
      <trkpt lat="45.94769" lon="4.8384">
        <ele>265</ele>
        <time>2017-12-22T10:22:05Z</time>
      </trkpt>
      <trkpt lat="45.94772" lon="4.83845">
        <ele>265</ele>
        <time>2017-12-22T10:22:06Z</time>
      </trkpt>
      <trkpt lat="45.94778" lon="4.83852">
        <ele>265</ele>
        <time>2017-12-22T10:22:08Z</time>
      </trkpt>
      <trkpt lat="45.94781" lon="4.83856">
        <ele>265</ele>
        <time>2017-12-22T10:22:09Z</time>
      </trkpt>
      <trkpt lat="45.94786" lon="4.83864">
        <ele>265</ele>
        <time>2017-12-22T10:22:11Z</time>
      </trkpt>
      <trkpt lat="45.94789" lon="4.83869">
        <ele>265</ele>
        <time>2017-12-22T10:22:12Z</time>
      </trkpt>
      <trkpt lat="45.94794" lon="4.83879">
        <ele>266</ele>
        <time>2017-12-22T10:22:14Z</time>
      </trkpt>
      <trkpt lat="45.94796" lon="4.83884">
        <ele>266</ele>
        <time>2017-12-22T10:22:15Z</time>
      </trkpt>
      <trkpt lat="45.94801" lon="4.83894">
        <ele>266</ele>
        <time>2017-12-22T10:22:17Z</time>
      </trkpt>
      <trkpt lat="45.94804" lon="4.83898">
        <ele>265</ele>
        <time>2017-12-22T10:22:18Z</time>
      </trkpt>
      <trkpt lat="45.94808" lon="4.83907">
        <ele>265</ele>
        <time>2017-12-22T10:22:20Z</time>
      </trkpt>
      <trkpt lat="45.9481" lon="4.83912">
        <ele>265</ele>
        <time>2017-12-22T10:22:21Z</time>
      </trkpt>
      <trkpt lat="45.94815" lon="4.83922">
        <ele>266</ele>
        <time>2017-12-22T10:22:23Z</time>
      </trkpt>
      <trkpt lat="45.94817" lon="4.83927">
        <ele>266</ele>
        <time>2017-12-22T10:22:24Z</time>
      </trkpt>
      <trkpt lat="45.9482" lon="4.83933">
        <ele>266</ele>
        <time>2017-12-22T10:22:25Z</time>
      </trkpt>
      <trkpt lat="45.94822" lon="4.83939">
        <ele>266</ele>
        <time>2017-12-22T10:22:26Z</time>
      </trkpt>
      <trkpt lat="45.94828" lon="4.83949">
        <ele>266</ele>
        <time>2017-12-22T10:22:28Z</time>
      </trkpt>
      <trkpt lat="45.94829" lon="4.83953">
        <ele>266</ele>
        <time>2017-12-22T10:22:29Z</time>
      </trkpt>
      <trkpt lat="45.94834" lon="4.83963">
        <ele>265</ele>
        <time>2017-12-22T10:22:31Z</time>
      </trkpt>
      <trkpt lat="45.94836" lon="4.83967">
        <ele>265</ele>
        <time>2017-12-22T10:22:32Z</time>
      </trkpt>
      <trkpt lat="45.9484" lon="4.83977">
        <ele>265</ele>
        <time>2017-12-22T10:22:34Z</time>
      </trkpt>
      <trkpt lat="45.94842" lon="4.83982">
        <ele>265</ele>
        <time>2017-12-22T10:22:35Z</time>
      </trkpt>
      <trkpt lat="45.94847" lon="4.83992">
        <ele>265</ele>
        <time>2017-12-22T10:22:37Z</time>
      </trkpt>
      <trkpt lat="45.94849" lon="4.83997">
        <ele>265</ele>
        <time>2017-12-22T10:22:38Z</time>
      </trkpt>
      <trkpt lat="45.94852" lon="4.84003">
        <ele>266</ele>
        <time>2017-12-22T10:22:39Z</time>
      </trkpt>
      <trkpt lat="45.94855" lon="4.84009">
        <ele>266</ele>
        <time>2017-12-22T10:22:40Z</time>
      </trkpt>
      <trkpt lat="45.94857" lon="4.84015">
        <ele>266</ele>
        <time>2017-12-22T10:22:41Z</time>
      </trkpt>
      <trkpt lat="45.9486" lon="4.84021">
        <ele>266</ele>
        <time>2017-12-22T10:22:42Z</time>
      </trkpt>
      <trkpt lat="45.94861" lon="4.84027">
        <ele>266</ele>
        <time>2017-12-22T10:22:43Z</time>
      </trkpt>
      <trkpt lat="45.94863" lon="4.84034">
        <ele>266</ele>
        <time>2017-12-22T10:22:44Z</time>
      </trkpt>
      <trkpt lat="45.94866" lon="4.84039">
        <ele>266</ele>
        <time>2017-12-22T10:22:45Z</time>
      </trkpt>
      <trkpt lat="45.94867" lon="4.84046">
        <ele>266</ele>
        <time>2017-12-22T10:22:46Z</time>
      </trkpt>
      <trkpt lat="45.94869" lon="4.84052">
        <ele>267</ele>
        <time>2017-12-22T10:22:47Z</time>
      </trkpt>
      <trkpt lat="45.94872" lon="4.84057">
        <ele>267</ele>
        <time>2017-12-22T10:22:48Z</time>
      </trkpt>
      <trkpt lat="45.94876" lon="4.84068">
        <ele>267</ele>
        <time>2017-12-22T10:22:50Z</time>
      </trkpt>
      <trkpt lat="45.94878" lon="4.84073">
        <ele>267</ele>
        <time>2017-12-22T10:22:51Z</time>
      </trkpt>
      <trkpt lat="45.9488" lon="4.8408">
        <ele>267</ele>
        <time>2017-12-22T10:22:52Z</time>
      </trkpt>
      <trkpt lat="45.94882" lon="4.84085">
        <ele>267</ele>
        <time>2017-12-22T10:22:53Z</time>
      </trkpt>
      <trkpt lat="45.94885" lon="4.84091">
        <ele>267</ele>
        <time>2017-12-22T10:22:54Z</time>
      </trkpt>
      <trkpt lat="45.94887" lon="4.84097">
        <ele>267</ele>
        <time>2017-12-22T10:22:55Z</time>
      </trkpt>
      <trkpt lat="45.94891" lon="4.84103">
        <ele>267</ele>
        <time>2017-12-22T10:22:56Z</time>
      </trkpt>
      <trkpt lat="45.94893" lon="4.84109">
        <ele>267</ele>
        <time>2017-12-22T10:22:57Z</time>
      </trkpt>
      <trkpt lat="45.94896" lon="4.84115">
        <ele>267</ele>
        <time>2017-12-22T10:22:58Z</time>
      </trkpt>
      <trkpt lat="45.94899" lon="4.8412">
        <ele>267</ele>
        <time>2017-12-22T10:22:59Z</time>
      </trkpt>
      <trkpt lat="45.94903" lon="4.84126">
        <ele>267</ele>
        <time>2017-12-22T10:23:00Z</time>
      </trkpt>
      <trkpt lat="45.94906" lon="4.84131">
        <ele>268</ele>
        <time>2017-12-22T10:23:01Z</time>
      </trkpt>
      <trkpt lat="45.94909" lon="4.84137">
        <ele>268</ele>
        <time>2017-12-22T10:23:02Z</time>
      </trkpt>
      <trkpt lat="45.94913" lon="4.84141">
        <ele>268</ele>
        <time>2017-12-22T10:23:03Z</time>
      </trkpt>
      <trkpt lat="45.94919" lon="4.84151">
        <ele>268</ele>
        <time>2017-12-22T10:23:05Z</time>
      </trkpt>
      <trkpt lat="45.94921" lon="4.84155">
        <ele>268</ele>
        <time>2017-12-22T10:23:06Z</time>
      </trkpt>
      <trkpt lat="45.94925" lon="4.8416">
        <ele>268</ele>
        <time>2017-12-22T10:23:07Z</time>
      </trkpt>
      <trkpt lat="45.94927" lon="4.84166">
        <ele>268</ele>
        <time>2017-12-22T10:23:08Z</time>
      </trkpt>
      <trkpt lat="45.9493" lon="4.8417">
        <ele>268</ele>
        <time>2017-12-22T10:23:09Z</time>
      </trkpt>
      <trkpt lat="45.94934" lon="4.84175">
        <ele>267</ele>
        <time>2017-12-22T10:23:10Z</time>
      </trkpt>
      <trkpt lat="45.94937" lon="4.84179">
        <ele>267</ele>
        <time>2017-12-22T10:23:11Z</time>
      </trkpt>
      <trkpt lat="45.9494" lon="4.84184">
        <ele>267</ele>
        <time>2017-12-22T10:23:12Z</time>
      </trkpt>
      <trkpt lat="45.94945" lon="4.84194">
        <ele>267</ele>
        <time>2017-12-22T10:23:14Z</time>
      </trkpt>
      <trkpt lat="45.94949" lon="4.84199">
        <ele>267</ele>
        <time>2017-12-22T10:23:15Z</time>
      </trkpt>
      <trkpt lat="45.94952" lon="4.84204">
        <ele>267</ele>
        <time>2017-12-22T10:23:16Z</time>
      </trkpt>
      <trkpt lat="45.94955" lon="4.84209">
        <ele>267</ele>
        <time>2017-12-22T10:23:17Z</time>
      </trkpt>
      <trkpt lat="45.94961" lon="4.84218">
        <ele>267</ele>
        <time>2017-12-22T10:23:19Z</time>
      </trkpt>
      <trkpt lat="45.94964" lon="4.84224">
        <ele>267</ele>
        <time>2017-12-22T10:23:20Z</time>
      </trkpt>
      <trkpt lat="45.9497" lon="4.84233">
        <ele>267</ele>
        <time>2017-12-22T10:23:22Z</time>
      </trkpt>
      <trkpt lat="45.94973" lon="4.84238">
        <ele>267</ele>
        <time>2017-12-22T10:23:23Z</time>
      </trkpt>
      <trkpt lat="45.94976" lon="4.84243">
        <ele>267</ele>
        <time>2017-12-22T10:23:24Z</time>
      </trkpt>
      <trkpt lat="45.9498" lon="4.84247">
        <ele>267</ele>
        <time>2017-12-22T10:23:25Z</time>
      </trkpt>
      <trkpt lat="45.94985" lon="4.84257">
        <ele>267</ele>
        <time>2017-12-22T10:23:27Z</time>
      </trkpt>
      <trkpt lat="45.94989" lon="4.84261">
        <ele>267</ele>
        <time>2017-12-22T10:23:28Z</time>
      </trkpt>
      <trkpt lat="45.94994" lon="4.84271">
        <ele>267</ele>
        <time>2017-12-22T10:23:30Z</time>
      </trkpt>
      <trkpt lat="45.94996" lon="4.84275">
        <ele>267</ele>
        <time>2017-12-22T10:23:31Z</time>
      </trkpt>
      <trkpt lat="45.95002" lon="4.84282">
        <ele>267</ele>
        <time>2017-12-22T10:23:33Z</time>
      </trkpt>
      <trkpt lat="45.95004" lon="4.84287">
        <ele>267</ele>
        <time>2017-12-22T10:23:34Z</time>
      </trkpt>
      <trkpt lat="45.95007" lon="4.84291">
        <ele>267</ele>
        <time>2017-12-22T10:23:35Z</time>
      </trkpt>
      <trkpt lat="45.95011" lon="4.84297">
        <ele>267</ele>
        <time>2017-12-22T10:23:36Z</time>
      </trkpt>
      <trkpt lat="45.95016" lon="4.84306">
        <ele>267</ele>
        <time>2017-12-22T10:23:38Z</time>
      </trkpt>
      <trkpt lat="45.95019" lon="4.84312">
        <ele>267</ele>
        <time>2017-12-22T10:23:39Z</time>
      </trkpt>
      <trkpt lat="45.95024" lon="4.84322">
        <ele>267</ele>
        <time>2017-12-22T10:23:41Z</time>
      </trkpt>
      <trkpt lat="45.95027" lon="4.84325">
        <ele>267</ele>
        <time>2017-12-22T10:23:42Z</time>
      </trkpt>
      <trkpt lat="45.95033" lon="4.84333">
        <ele>267</ele>
        <time>2017-12-22T10:23:44Z</time>
      </trkpt>
      <trkpt lat="45.95035" lon="4.84337">
        <ele>267</ele>
        <time>2017-12-22T10:23:45Z</time>
      </trkpt>
      <trkpt lat="45.95041" lon="4.84346">
        <ele>267</ele>
        <time>2017-12-22T10:23:47Z</time>
      </trkpt>
      <trkpt lat="45.95044" lon="4.84352">
        <ele>267</ele>
        <time>2017-12-22T10:23:48Z</time>
      </trkpt>
      <trkpt lat="45.95046" lon="4.84357">
        <ele>267</ele>
        <time>2017-12-22T10:23:49Z</time>
      </trkpt>
      <trkpt lat="45.9505" lon="4.84362">
        <ele>267</ele>
        <time>2017-12-22T10:23:50Z</time>
      </trkpt>
      <trkpt lat="45.95053" lon="4.84368">
        <ele>267</ele>
        <time>2017-12-22T10:23:51Z</time>
      </trkpt>
      <trkpt lat="45.95057" lon="4.84374">
        <ele>267</ele>
        <time>2017-12-22T10:23:52Z</time>
      </trkpt>
      <trkpt lat="45.95061" lon="4.84379">
        <ele>267</ele>
        <time>2017-12-22T10:23:53Z</time>
      </trkpt>
      <trkpt lat="45.95065" lon="4.84384">
        <ele>267</ele>
        <time>2017-12-22T10:23:54Z</time>
      </trkpt>
      <trkpt lat="45.95069" lon="4.84389">
        <ele>267</ele>
        <time>2017-12-22T10:23:55Z</time>
      </trkpt>
      <trkpt lat="45.95073" lon="4.84393">
        <ele>267</ele>
        <time>2017-12-22T10:23:56Z</time>
      </trkpt>
      <trkpt lat="45.95077" lon="4.84398">
        <ele>267</ele>
        <time>2017-12-22T10:23:57Z</time>
      </trkpt>
      <trkpt lat="45.95081" lon="4.84403">
        <ele>267</ele>
        <time>2017-12-22T10:23:58Z</time>
      </trkpt>
      <trkpt lat="45.95086" lon="4.84408">
        <ele>267</ele>
        <time>2017-12-22T10:23:59Z</time>
      </trkpt>
      <trkpt lat="45.95089" lon="4.84412">
        <ele>267</ele>
        <time>2017-12-22T10:24:00Z</time>
      </trkpt>
      <trkpt lat="45.95094" lon="4.84416">
        <ele>267</ele>
        <time>2017-12-22T10:24:01Z</time>
      </trkpt>
      <trkpt lat="45.95098" lon="4.84419">
        <ele>267</ele>
        <time>2017-12-22T10:24:02Z</time>
      </trkpt>
      <trkpt lat="45.95102" lon="4.84424">
        <ele>267</ele>
        <time>2017-12-22T10:24:03Z</time>
      </trkpt>
      <trkpt lat="45.95106" lon="4.84428">
        <ele>267</ele>
        <time>2017-12-22T10:24:04Z</time>
      </trkpt>
      <trkpt lat="45.95109" lon="4.84432">
        <ele>267</ele>
        <time>2017-12-22T10:24:05Z</time>
      </trkpt>
      <trkpt lat="45.95113" lon="4.84435">
        <ele>267</ele>
        <time>2017-12-22T10:24:06Z</time>
      </trkpt>
      <trkpt lat="45.95117" lon="4.84438">
        <ele>267</ele>
        <time>2017-12-22T10:24:07Z</time>
      </trkpt>
      <trkpt lat="45.95121" lon="4.84443">
        <ele>267</ele>
        <time>2017-12-22T10:24:08Z</time>
      </trkpt>
      <trkpt lat="45.95126" lon="4.84447">
        <ele>267</ele>
        <time>2017-12-22T10:24:09Z</time>
      </trkpt>
      <trkpt lat="45.9513" lon="4.84451">
        <ele>267</ele>
        <time>2017-12-22T10:24:10Z</time>
      </trkpt>
      <trkpt lat="45.95136" lon="4.84459">
        <ele>266</ele>
        <time>2017-12-22T10:24:12Z</time>
      </trkpt>
      <trkpt lat="45.95141" lon="4.84464">
        <ele>266</ele>
        <time>2017-12-22T10:24:13Z</time>
      </trkpt>
      <trkpt lat="45.95145" lon="4.84469">
        <ele>266</ele>
        <time>2017-12-22T10:24:14Z</time>
      </trkpt>
      <trkpt lat="45.9515" lon="4.84474">
        <ele>266</ele>
        <time>2017-12-22T10:24:15Z</time>
      </trkpt>
      <trkpt lat="45.95154" lon="4.84478">
        <ele>266</ele>
        <time>2017-12-22T10:24:16Z</time>
      </trkpt>
      <trkpt lat="45.95158" lon="4.84482">
        <ele>266</ele>
        <time>2017-12-22T10:24:17Z</time>
      </trkpt>
      <trkpt lat="45.95162" lon="4.84486">
        <ele>266</ele>
        <time>2017-12-22T10:24:18Z</time>
      </trkpt>
      <trkpt lat="45.95166" lon="4.8449">
        <ele>266</ele>
        <time>2017-12-22T10:24:19Z</time>
      </trkpt>
      <trkpt lat="45.9517" lon="4.84494">
        <ele>266</ele>
        <time>2017-12-22T10:24:20Z</time>
      </trkpt>
      <trkpt lat="45.95173" lon="4.845">
        <ele>266</ele>
        <time>2017-12-22T10:24:21Z</time>
      </trkpt>
      <trkpt lat="45.95177" lon="4.84505">
        <ele>265</ele>
        <time>2017-12-22T10:24:22Z</time>
      </trkpt>
      <trkpt lat="45.95181" lon="4.8451">
        <ele>265</ele>
        <time>2017-12-22T10:24:23Z</time>
      </trkpt>
      <trkpt lat="45.95185" lon="4.84516">
        <ele>265</ele>
        <time>2017-12-22T10:24:24Z</time>
      </trkpt>
      <trkpt lat="45.95189" lon="4.84521">
        <ele>265</ele>
        <time>2017-12-22T10:24:25Z</time>
      </trkpt>
      <trkpt lat="45.95193" lon="4.84526">
        <ele>265</ele>
        <time>2017-12-22T10:24:26Z</time>
      </trkpt>
      <trkpt lat="45.95196" lon="4.84531">
        <ele>265</ele>
        <time>2017-12-22T10:24:27Z</time>
      </trkpt>
      <trkpt lat="45.95201" lon="4.84536">
        <ele>265</ele>
        <time>2017-12-22T10:24:28Z</time>
      </trkpt>
      <trkpt lat="45.95206" lon="4.84541">
        <ele>265</ele>
        <time>2017-12-22T10:24:29Z</time>
      </trkpt>
      <trkpt lat="45.9521" lon="4.84546">
        <ele>264</ele>
        <time>2017-12-22T10:24:30Z</time>
      </trkpt>
      <trkpt lat="45.95215" lon="4.84551">
        <ele>264</ele>
        <time>2017-12-22T10:24:31Z</time>
      </trkpt>
      <trkpt lat="45.95219" lon="4.84556">
        <ele>264</ele>
        <time>2017-12-22T10:24:32Z</time>
      </trkpt>
      <trkpt lat="45.95223" lon="4.84561">
        <ele>264</ele>
        <time>2017-12-22T10:24:33Z</time>
      </trkpt>
      <trkpt lat="45.95227" lon="4.84566">
        <ele>264</ele>
        <time>2017-12-22T10:24:34Z</time>
      </trkpt>
      <trkpt lat="45.95231" lon="4.8457">
        <ele>264</ele>
        <time>2017-12-22T10:24:35Z</time>
      </trkpt>
      <trkpt lat="45.95234" lon="4.84574">
        <ele>264</ele>
        <time>2017-12-22T10:24:36Z</time>
      </trkpt>
      <trkpt lat="45.95238" lon="4.84578">
        <ele>264</ele>
        <time>2017-12-22T10:24:37Z</time>
      </trkpt>
      <trkpt lat="45.95244" lon="4.84586">
        <ele>264</ele>
        <time>2017-12-22T10:24:39Z</time>
      </trkpt>
      <trkpt lat="45.95248" lon="4.8459">
        <ele>264</ele>
        <time>2017-12-22T10:24:40Z</time>
      </trkpt>
      <trkpt lat="45.95252" lon="4.84594">
        <ele>264</ele>
        <time>2017-12-22T10:24:41Z</time>
      </trkpt>
      <trkpt lat="45.95256" lon="4.84598">
        <ele>264</ele>
        <time>2017-12-22T10:24:42Z</time>
      </trkpt>
      <trkpt lat="45.9526" lon="4.84603">
        <ele>264</ele>
        <time>2017-12-22T10:24:43Z</time>
      </trkpt>
      <trkpt lat="45.95263" lon="4.84607">
        <ele>264</ele>
        <time>2017-12-22T10:24:44Z</time>
      </trkpt>
      <trkpt lat="45.95268" lon="4.84612">
        <ele>264</ele>
        <time>2017-12-22T10:24:45Z</time>
      </trkpt>
      <trkpt lat="45.95271" lon="4.84617">
        <ele>264</ele>
        <time>2017-12-22T10:24:46Z</time>
      </trkpt>
      <trkpt lat="45.95274" lon="4.84622">
        <ele>264</ele>
        <time>2017-12-22T10:24:47Z</time>
      </trkpt>
      <trkpt lat="45.95278" lon="4.84625">
        <ele>264</ele>
        <time>2017-12-22T10:24:48Z</time>
      </trkpt>
      <trkpt lat="45.95282" lon="4.8463">
        <ele>264</ele>
        <time>2017-12-22T10:24:49Z</time>
      </trkpt>
      <trkpt lat="45.95285" lon="4.84633">
        <ele>264</ele>
        <time>2017-12-22T10:24:50Z</time>
      </trkpt>
      <trkpt lat="45.95289" lon="4.84637">
        <ele>264</ele>
        <time>2017-12-22T10:24:51Z</time>
      </trkpt>
      <trkpt lat="45.95294" lon="4.84641">
        <ele>264</ele>
        <time>2017-12-22T10:24:52Z</time>
      </trkpt>
      <trkpt lat="45.95301" lon="4.84649">
        <ele>264</ele>
        <time>2017-12-22T10:24:54Z</time>
      </trkpt>
      <trkpt lat="45.95306" lon="4.84653">
        <ele>264</ele>
        <time>2017-12-22T10:24:55Z</time>
      </trkpt>
      <trkpt lat="45.9531" lon="4.84657">
        <ele>265</ele>
        <time>2017-12-22T10:24:56Z</time>
      </trkpt>
      <trkpt lat="45.95314" lon="4.84661">
        <ele>265</ele>
        <time>2017-12-22T10:24:57Z</time>
      </trkpt>
      <trkpt lat="45.95319" lon="4.84664">
        <ele>265</ele>
        <time>2017-12-22T10:24:58Z</time>
      </trkpt>
      <trkpt lat="45.95323" lon="4.84666">
        <ele>265</ele>
        <time>2017-12-22T10:24:59Z</time>
      </trkpt>
      <trkpt lat="45.95328" lon="4.8467">
        <ele>265</ele>
        <time>2017-12-22T10:25:00Z</time>
      </trkpt>
      <trkpt lat="45.95331" lon="4.84674">
        <ele>265</ele>
        <time>2017-12-22T10:25:01Z</time>
      </trkpt>
      <trkpt lat="45.95337" lon="4.8468">
        <ele>265</ele>
        <time>2017-12-22T10:25:03Z</time>
      </trkpt>
      <trkpt lat="45.9534" lon="4.84683">
        <ele>265</ele>
        <time>2017-12-22T10:25:04Z</time>
      </trkpt>
      <trkpt lat="45.95345" lon="4.84687">
        <ele>266</ele>
        <time>2017-12-22T10:25:05Z</time>
      </trkpt>
      <trkpt lat="45.95349" lon="4.84691">
        <ele>266</ele>
        <time>2017-12-22T10:25:06Z</time>
      </trkpt>
      <trkpt lat="45.95356" lon="4.84696">
        <ele>266</ele>
        <time>2017-12-22T10:25:08Z</time>
      </trkpt>
      <trkpt lat="45.9536" lon="4.84699">
        <ele>266</ele>
        <time>2017-12-22T10:25:09Z</time>
      </trkpt>
      <trkpt lat="45.95365" lon="4.84703">
        <ele>266</ele>
        <time>2017-12-22T10:25:10Z</time>
      </trkpt>
      <trkpt lat="45.95369" lon="4.84707">
        <ele>266</ele>
        <time>2017-12-22T10:25:11Z</time>
      </trkpt>
      <trkpt lat="45.95373" lon="4.84711">
        <ele>266</ele>
        <time>2017-12-22T10:25:12Z</time>
      </trkpt>
      <trkpt lat="45.95377" lon="4.84714">
        <ele>266</ele>
        <time>2017-12-22T10:25:13Z</time>
      </trkpt>
      <trkpt lat="45.95384" lon="4.84721">
        <ele>266</ele>
        <time>2017-12-22T10:25:15Z</time>
      </trkpt>
      <trkpt lat="45.95388" lon="4.84724">
        <ele>266</ele>
        <time>2017-12-22T10:25:16Z</time>
      </trkpt>
      <trkpt lat="45.95395" lon="4.8473">
        <ele>266</ele>
        <time>2017-12-22T10:25:18Z</time>
      </trkpt>
      <trkpt lat="45.95398" lon="4.84734">
        <ele>266</ele>
        <time>2017-12-22T10:25:19Z</time>
      </trkpt>
      <trkpt lat="45.95405" lon="4.84741">
        <ele>267</ele>
        <time>2017-12-22T10:25:21Z</time>
      </trkpt>
      <trkpt lat="45.95408" lon="4.84744">
        <ele>267</ele>
        <time>2017-12-22T10:25:22Z</time>
      </trkpt>
      <trkpt lat="45.95414" lon="4.84752">
        <ele>267</ele>
        <time>2017-12-22T10:25:24Z</time>
      </trkpt>
      <trkpt lat="45.95418" lon="4.84756">
        <ele>267</ele>
        <time>2017-12-22T10:25:25Z</time>
      </trkpt>
      <trkpt lat="45.95424" lon="4.84763">
        <ele>267</ele>
        <time>2017-12-22T10:25:27Z</time>
      </trkpt>
      <trkpt lat="45.95428" lon="4.84766">
        <ele>267</ele>
        <time>2017-12-22T10:25:28Z</time>
      </trkpt>
      <trkpt lat="45.95435" lon="4.84773">
        <ele>267</ele>
        <time>2017-12-22T10:25:30Z</time>
      </trkpt>
      <trkpt lat="45.95438" lon="4.84777">
        <ele>267</ele>
        <time>2017-12-22T10:25:31Z</time>
      </trkpt>
      <trkpt lat="45.95443" lon="4.84783">
        <ele>267</ele>
        <time>2017-12-22T10:25:33Z</time>
      </trkpt>
      <trkpt lat="45.95446" lon="4.84786">
        <ele>267</ele>
        <time>2017-12-22T10:25:34Z</time>
      </trkpt>
      <trkpt lat="45.95452" lon="4.84793">
        <ele>267</ele>
        <time>2017-12-22T10:25:36Z</time>
      </trkpt>
      <trkpt lat="45.95455" lon="4.84797">
        <ele>267</ele>
        <time>2017-12-22T10:25:37Z</time>
      </trkpt>
      <trkpt lat="45.95462" lon="4.84805">
        <ele>267</ele>
        <time>2017-12-22T10:25:39Z</time>
      </trkpt>
      <trkpt lat="45.95465" lon="4.84808">
        <ele>267</ele>
        <time>2017-12-22T10:25:40Z</time>
      </trkpt>
      <trkpt lat="45.95472" lon="4.84816">
        <ele>267</ele>
        <time>2017-12-22T10:25:42Z</time>
      </trkpt>
      <trkpt lat="45.95475" lon="4.84819">
        <ele>267</ele>
        <time>2017-12-22T10:25:43Z</time>
      </trkpt>
      <trkpt lat="45.95481" lon="4.84826">
        <ele>267</ele>
        <time>2017-12-22T10:25:45Z</time>
      </trkpt>
      <trkpt lat="45.95484" lon="4.8483">
        <ele>267</ele>
        <time>2017-12-22T10:25:46Z</time>
      </trkpt>
      <trkpt lat="45.95489" lon="4.84838">
        <ele>267</ele>
        <time>2017-12-22T10:25:48Z</time>
      </trkpt>
      <trkpt lat="45.95493" lon="4.84841">
        <ele>267</ele>
        <time>2017-12-22T10:25:49Z</time>
      </trkpt>
      <trkpt lat="45.955" lon="4.84848">
        <ele>268</ele>
        <time>2017-12-22T10:25:51Z</time>
      </trkpt>
      <trkpt lat="45.95503" lon="4.84852">
        <ele>268</ele>
        <time>2017-12-22T10:25:52Z</time>
      </trkpt>
      <trkpt lat="45.95507" lon="4.84855">
        <ele>268</ele>
        <time>2017-12-22T10:25:53Z</time>
      </trkpt>
      <trkpt lat="45.95511" lon="4.84859">
        <ele>268</ele>
        <time>2017-12-22T10:25:54Z</time>
      </trkpt>
      <trkpt lat="45.95514" lon="4.84863">
        <ele>268</ele>
        <time>2017-12-22T10:25:55Z</time>
      </trkpt>
      <trkpt lat="45.95518" lon="4.84867">
        <ele>268</ele>
        <time>2017-12-22T10:25:56Z</time>
      </trkpt>
      <trkpt lat="45.95522" lon="4.8487">
        <ele>268</ele>
        <time>2017-12-22T10:25:57Z</time>
      </trkpt>
      <trkpt lat="45.95526" lon="4.84874">
        <ele>268</ele>
        <time>2017-12-22T10:25:58Z</time>
      </trkpt>
      <trkpt lat="45.9553" lon="4.84877">
        <ele>268</ele>
        <time>2017-12-22T10:25:59Z</time>
      </trkpt>
      <trkpt lat="45.95534" lon="4.84882">
        <ele>268</ele>
        <time>2017-12-22T10:26:00Z</time>
      </trkpt>
      <trkpt lat="45.95542" lon="4.84888">
        <ele>268</ele>
        <time>2017-12-22T10:26:02Z</time>
      </trkpt>
      <trkpt lat="45.95546" lon="4.8489">
        <ele>268</ele>
        <time>2017-12-22T10:26:03Z</time>
      </trkpt>
      <trkpt lat="45.9555" lon="4.84893">
        <ele>268</ele>
        <time>2017-12-22T10:26:04Z</time>
      </trkpt>
      <trkpt lat="45.95554" lon="4.84895">
        <ele>268</ele>
        <time>2017-12-22T10:26:05Z</time>
      </trkpt>
      <trkpt lat="45.95558" lon="4.84899">
        <ele>268</ele>
        <time>2017-12-22T10:26:06Z</time>
      </trkpt>
      <trkpt lat="45.95562" lon="4.84902">
        <ele>268</ele>
        <time>2017-12-22T10:26:07Z</time>
      </trkpt>
      <trkpt lat="45.9557" lon="4.84908">
        <ele>269</ele>
        <time>2017-12-22T10:26:09Z</time>
      </trkpt>
      <trkpt lat="45.95574" lon="4.84911">
        <ele>269</ele>
        <time>2017-12-22T10:26:10Z</time>
      </trkpt>
      <trkpt lat="45.95581" lon="4.84915">
        <ele>269</ele>
        <time>2017-12-22T10:26:12Z</time>
      </trkpt>
      <trkpt lat="45.95585" lon="4.84917">
        <ele>269</ele>
        <time>2017-12-22T10:26:13Z</time>
      </trkpt>
      <trkpt lat="45.95593" lon="4.84921">
        <ele>270</ele>
        <time>2017-12-22T10:26:15Z</time>
      </trkpt>
      <trkpt lat="45.95596" lon="4.84924">
        <ele>270</ele>
        <time>2017-12-22T10:26:16Z</time>
      </trkpt>
      <trkpt lat="45.95603" lon="4.84929">
        <ele>270</ele>
        <time>2017-12-22T10:26:18Z</time>
      </trkpt>
      <trkpt lat="45.95607" lon="4.84932">
        <ele>270</ele>
        <time>2017-12-22T10:26:19Z</time>
      </trkpt>
      <trkpt lat="45.95614" lon="4.84938">
        <ele>270</ele>
        <time>2017-12-22T10:26:21Z</time>
      </trkpt>
      <trkpt lat="45.95617" lon="4.84941">
        <ele>270</ele>
        <time>2017-12-22T10:26:22Z</time>
      </trkpt>
      <trkpt lat="45.95624" lon="4.84947">
        <ele>271</ele>
        <time>2017-12-22T10:26:24Z</time>
      </trkpt>
      <trkpt lat="45.95629" lon="4.8495">
        <ele>271</ele>
        <time>2017-12-22T10:26:25Z</time>
      </trkpt>
      <trkpt lat="45.95633" lon="4.84953">
        <ele>271</ele>
        <time>2017-12-22T10:26:26Z</time>
      </trkpt>
      <trkpt lat="45.95637" lon="4.84957">
        <ele>271</ele>
        <time>2017-12-22T10:26:27Z</time>
      </trkpt>
      <trkpt lat="45.95644" lon="4.84964">
        <ele>271</ele>
        <time>2017-12-22T10:26:29Z</time>
      </trkpt>
      <trkpt lat="45.95648" lon="4.84967">
        <ele>271</ele>
        <time>2017-12-22T10:26:30Z</time>
      </trkpt>
      <trkpt lat="45.95654" lon="4.84973">
        <ele>271</ele>
        <time>2017-12-22T10:26:32Z</time>
      </trkpt>
      <trkpt lat="45.95657" lon="4.84976">
        <ele>272</ele>
        <time>2017-12-22T10:26:33Z</time>
      </trkpt>
      <trkpt lat="45.95664" lon="4.84983">
        <ele>272</ele>
        <time>2017-12-22T10:26:35Z</time>
      </trkpt>
      <trkpt lat="45.95666" lon="4.84987">
        <ele>272</ele>
        <time>2017-12-22T10:26:36Z</time>
      </trkpt>
      <trkpt lat="45.95671" lon="4.84996">
        <ele>273</ele>
        <time>2017-12-22T10:26:38Z</time>
      </trkpt>
      <trkpt lat="45.95674" lon="4.85">
        <ele>274</ele>
        <time>2017-12-22T10:26:39Z</time>
      </trkpt>
      <trkpt lat="45.9568" lon="4.85008">
        <ele>275</ele>
        <time>2017-12-22T10:26:41Z</time>
      </trkpt>
      <trkpt lat="45.95682" lon="4.85012">
        <ele>275</ele>
        <time>2017-12-22T10:26:42Z</time>
      </trkpt>
      <trkpt lat="45.95687" lon="4.8502">
        <ele>275</ele>
        <time>2017-12-22T10:26:44Z</time>
      </trkpt>
      <trkpt lat="45.9569" lon="4.85024">
        <ele>276</ele>
        <time>2017-12-22T10:26:45Z</time>
      </trkpt>
      <trkpt lat="45.95695" lon="4.85032">
        <ele>276</ele>
        <time>2017-12-22T10:26:47Z</time>
      </trkpt>
      <trkpt lat="45.95698" lon="4.85036">
        <ele>276</ele>
        <time>2017-12-22T10:26:48Z</time>
      </trkpt>
      <trkpt lat="45.95702" lon="4.85045">
        <ele>276</ele>
        <time>2017-12-22T10:26:50Z</time>
      </trkpt>
      <trkpt lat="45.95704" lon="4.8505">
        <ele>276</ele>
        <time>2017-12-22T10:26:51Z</time>
      </trkpt>
      <trkpt lat="45.95709" lon="4.8506">
        <ele>277</ele>
        <time>2017-12-22T10:26:53Z</time>
      </trkpt>
      <trkpt lat="45.95711" lon="4.85065">
        <ele>277</ele>
        <time>2017-12-22T10:26:54Z</time>
      </trkpt>
      <trkpt lat="45.95715" lon="4.85075">
        <ele>277</ele>
        <time>2017-12-22T10:26:56Z</time>
      </trkpt>
      <trkpt lat="45.95717" lon="4.8508">
        <ele>277</ele>
        <time>2017-12-22T10:26:57Z</time>
      </trkpt>
      <trkpt lat="45.95722" lon="4.8509">
        <ele>279</ele>
        <time>2017-12-22T10:26:59Z</time>
      </trkpt>
      <trkpt lat="45.95725" lon="4.85095">
        <ele>279</ele>
        <time>2017-12-22T10:27:00Z</time>
      </trkpt>
      <trkpt lat="45.95729" lon="4.85106">
        <ele>279</ele>
        <time>2017-12-22T10:27:02Z</time>
      </trkpt>
      <trkpt lat="45.95731" lon="4.8511">
        <ele>279</ele>
        <time>2017-12-22T10:27:03Z</time>
      </trkpt>
      <trkpt lat="45.95737" lon="4.85118">
        <ele>279</ele>
        <time>2017-12-22T10:27:05Z</time>
      </trkpt>
      <trkpt lat="45.9574" lon="4.85124">
        <ele>279</ele>
        <time>2017-12-22T10:27:06Z</time>
      </trkpt>
      <trkpt lat="45.95743" lon="4.85127">
        <ele>279</ele>
        <time>2017-12-22T10:27:07Z</time>
      </trkpt>
      <trkpt lat="45.95748" lon="4.85131">
        <ele>279</ele>
        <time>2017-12-22T10:27:08Z</time>
      </trkpt>
      <trkpt lat="45.95753" lon="4.85139">
        <ele>276</ele>
        <time>2017-12-22T10:27:10Z</time>
      </trkpt>
      <trkpt lat="45.95757" lon="4.85142">
        <ele>276</ele>
        <time>2017-12-22T10:27:11Z</time>
      </trkpt>
      <trkpt lat="45.95761" lon="4.85147">
        <ele>276</ele>
        <time>2017-12-22T10:27:12Z</time>
      </trkpt>
      <trkpt lat="45.95764" lon="4.85153">
        <ele>277</ele>
        <time>2017-12-22T10:27:13Z</time>
      </trkpt>
      <trkpt lat="45.95767" lon="4.85156">
        <ele>277</ele>
        <time>2017-12-22T10:27:14Z</time>
      </trkpt>
      <trkpt lat="45.95771" lon="4.8516">
        <ele>276</ele>
        <time>2017-12-22T10:27:15Z</time>
      </trkpt>
      <trkpt lat="45.95778" lon="4.8516">
        <ele>276</ele>
        <time>2017-12-22T10:27:16Z</time>
      </trkpt>
      <trkpt lat="45.95781" lon="4.85165">
        <ele>275</ele>
        <time>2017-12-22T10:27:17Z</time>
      </trkpt>
      <trkpt lat="45.95785" lon="4.85169">
        <ele>276</ele>
        <time>2017-12-22T10:27:18Z</time>
      </trkpt>
      <trkpt lat="45.95795" lon="4.85169">
        <ele>275</ele>
        <time>2017-12-22T10:27:19Z</time>
      </trkpt>
      <trkpt lat="45.95799" lon="4.85172">
        <ele>275</ele>
        <time>2017-12-22T10:27:20Z</time>
      </trkpt>
      <trkpt lat="45.95803" lon="4.85174">
        <ele>275</ele>
        <time>2017-12-22T10:27:21Z</time>
      </trkpt>
      <trkpt lat="45.95808" lon="4.85175">
        <ele>274</ele>
        <time>2017-12-22T10:27:22Z</time>
      </trkpt>
      <trkpt lat="45.95813" lon="4.85179">
        <ele>274</ele>
        <time>2017-12-22T10:27:23Z</time>
      </trkpt>
      <trkpt lat="45.95815" lon="4.85186">
        <ele>274</ele>
        <time>2017-12-22T10:27:24Z</time>
      </trkpt>
      <trkpt lat="45.95819" lon="4.85189">
        <ele>274</ele>
        <time>2017-12-22T10:27:25Z</time>
      </trkpt>
      <trkpt lat="45.95822" lon="4.85192">
        <ele>274</ele>
        <time>2017-12-22T10:27:26Z</time>
      </trkpt>
      <trkpt lat="45.9582" lon="4.85205">
        <ele>275</ele>
        <time>2017-12-22T10:27:27Z</time>
      </trkpt>
      <trkpt lat="45.95822" lon="4.85211">
        <ele>275</ele>
        <time>2017-12-22T10:27:28Z</time>
      </trkpt>
      <trkpt lat="45.95825" lon="4.85215">
        <ele>275</ele>
        <time>2017-12-22T10:27:29Z</time>
      </trkpt>
      <trkpt lat="45.95827" lon="4.85221">
        <ele>274</ele>
        <time>2017-12-22T10:27:30Z</time>
      </trkpt>
      <trkpt lat="45.95829" lon="4.85228">
        <ele>274</ele>
        <time>2017-12-22T10:27:31Z</time>
      </trkpt>
      <trkpt lat="45.95833" lon="4.85234">
        <ele>274</ele>
        <time>2017-12-22T10:27:32Z</time>
      </trkpt>
      <trkpt lat="45.95836" lon="4.85239">
        <ele>271</ele>
        <time>2017-12-22T10:27:33Z</time>
      </trkpt>
      <trkpt lat="45.95838" lon="4.85247">
        <ele>271</ele>
        <time>2017-12-22T10:27:34Z</time>
      </trkpt>
      <trkpt lat="45.95841" lon="4.85253">
        <ele>271</ele>
        <time>2017-12-22T10:27:35Z</time>
      </trkpt>
      <trkpt lat="45.95847" lon="4.85258">
        <ele>271</ele>
        <time>2017-12-22T10:27:36Z</time>
      </trkpt>
      <trkpt lat="45.9585" lon="4.85267">
        <ele>270</ele>
        <time>2017-12-22T10:27:37Z</time>
      </trkpt>
      <trkpt lat="45.95854" lon="4.85274">
        <ele>270</ele>
        <time>2017-12-22T10:27:38Z</time>
      </trkpt>
      <trkpt lat="45.95858" lon="4.85281">
        <ele>270</ele>
        <time>2017-12-22T10:27:39Z</time>
      </trkpt>
      <trkpt lat="45.95862" lon="4.85288">
        <ele>270</ele>
        <time>2017-12-22T10:27:40Z</time>
      </trkpt>
      <trkpt lat="45.95868" lon="4.85294">
        <ele>269</ele>
        <time>2017-12-22T10:27:41Z</time>
      </trkpt>
      <trkpt lat="45.95874" lon="4.85298">
        <ele>269</ele>
        <time>2017-12-22T10:27:42Z</time>
      </trkpt>
      <trkpt lat="45.95877" lon="4.85305">
        <ele>269</ele>
        <time>2017-12-22T10:27:43Z</time>
      </trkpt>
      <trkpt lat="45.95881" lon="4.85311">
        <ele>269</ele>
        <time>2017-12-22T10:27:44Z</time>
      </trkpt>
      <trkpt lat="45.95886" lon="4.85317">
        <ele>269</ele>
        <time>2017-12-22T10:27:45Z</time>
      </trkpt>
      <trkpt lat="45.95891" lon="4.85323">
        <ele>269</ele>
        <time>2017-12-22T10:27:46Z</time>
      </trkpt>
      <trkpt lat="45.95895" lon="4.85328">
        <ele>268</ele>
        <time>2017-12-22T10:27:47Z</time>
      </trkpt>
      <trkpt lat="45.959" lon="4.85332">
        <ele>268</ele>
        <time>2017-12-22T10:27:48Z</time>
      </trkpt>
      <trkpt lat="45.95905" lon="4.85335">
        <ele>267</ele>
        <time>2017-12-22T10:27:49Z</time>
      </trkpt>
      <trkpt lat="45.9591" lon="4.85337">
        <ele>267</ele>
        <time>2017-12-22T10:27:50Z</time>
      </trkpt>
      <trkpt lat="45.95915" lon="4.8534">
        <ele>267</ele>
        <time>2017-12-22T10:27:51Z</time>
      </trkpt>
      <trkpt lat="45.95921" lon="4.85343">
        <ele>266</ele>
        <time>2017-12-22T10:27:52Z</time>
      </trkpt>
      <trkpt lat="45.95926" lon="4.85345">
        <ele>266</ele>
        <time>2017-12-22T10:27:53Z</time>
      </trkpt>
      <trkpt lat="45.95932" lon="4.85347">
        <ele>266</ele>
        <time>2017-12-22T10:27:54Z</time>
      </trkpt>
      <trkpt lat="45.95938" lon="4.85348">
        <ele>266</ele>
        <time>2017-12-22T10:27:55Z</time>
      </trkpt>
      <trkpt lat="45.95944" lon="4.85348">
        <ele>266</ele>
        <time>2017-12-22T10:27:56Z</time>
      </trkpt>
      <trkpt lat="45.9595" lon="4.85348">
        <ele>266</ele>
        <time>2017-12-22T10:27:57Z</time>
      </trkpt>
      <trkpt lat="45.95958" lon="4.85346">
        <ele>265</ele>
        <time>2017-12-22T10:27:58Z</time>
      </trkpt>
      <trkpt lat="45.95964" lon="4.85345">
        <ele>265</ele>
        <time>2017-12-22T10:27:59Z</time>
      </trkpt>
      <trkpt lat="45.95971" lon="4.85346">
        <ele>265</ele>
        <time>2017-12-22T10:28:00Z</time>
      </trkpt>
      <trkpt lat="45.95978" lon="4.85345">
        <ele>265</ele>
        <time>2017-12-22T10:28:01Z</time>
      </trkpt>
      <trkpt lat="45.95984" lon="4.85345">
        <ele>265</ele>
        <time>2017-12-22T10:28:02Z</time>
      </trkpt>
      <trkpt lat="45.9599" lon="4.85345">
        <ele>265</ele>
        <time>2017-12-22T10:28:03Z</time>
      </trkpt>
      <trkpt lat="45.95996" lon="4.85346">
        <ele>265</ele>
        <time>2017-12-22T10:28:04Z</time>
      </trkpt>
      <trkpt lat="45.96004" lon="4.85347">
        <ele>264</ele>
        <time>2017-12-22T10:28:05Z</time>
      </trkpt>
      <trkpt lat="45.96011" lon="4.85347">
        <ele>264</ele>
        <time>2017-12-22T10:28:06Z</time>
      </trkpt>
      <trkpt lat="45.96019" lon="4.85347">
        <ele>263</ele>
        <time>2017-12-22T10:28:07Z</time>
      </trkpt>
      <trkpt lat="45.96027" lon="4.85347">
        <ele>263</ele>
        <time>2017-12-22T10:28:08Z</time>
      </trkpt>
      <trkpt lat="45.96034" lon="4.85347">
        <ele>263</ele>
        <time>2017-12-22T10:28:09Z</time>
      </trkpt>
      <trkpt lat="45.96042" lon="4.85346">
        <ele>262</ele>
        <time>2017-12-22T10:28:10Z</time>
      </trkpt>
      <trkpt lat="45.9605" lon="4.85344">
        <ele>262</ele>
        <time>2017-12-22T10:28:11Z</time>
      </trkpt>
      <trkpt lat="45.96056" lon="4.85342">
        <ele>262</ele>
        <time>2017-12-22T10:28:12Z</time>
      </trkpt>
      <trkpt lat="45.96065" lon="4.85344">
        <ele>262</ele>
        <time>2017-12-22T10:28:13Z</time>
      </trkpt>
      <trkpt lat="45.96073" lon="4.85344">
        <ele>262</ele>
        <time>2017-12-22T10:28:14Z</time>
      </trkpt>
      <trkpt lat="45.96082" lon="4.85346">
        <ele>261</ele>
        <time>2017-12-22T10:28:15Z</time>
      </trkpt>
      <trkpt lat="45.96088" lon="4.8535">
        <ele>260</ele>
        <time>2017-12-22T10:28:16Z</time>
      </trkpt>
      <trkpt lat="45.96095" lon="4.85353">
        <ele>259</ele>
        <time>2017-12-22T10:28:17Z</time>
      </trkpt>
      <trkpt lat="45.96103" lon="4.85357">
        <ele>259</ele>
        <time>2017-12-22T10:28:18Z</time>
      </trkpt>
      <trkpt lat="45.9611" lon="4.85361">
        <ele>259</ele>
        <time>2017-12-22T10:28:19Z</time>
      </trkpt>
      <trkpt lat="45.96119" lon="4.85364">
        <ele>258</ele>
        <time>2017-12-22T10:28:20Z</time>
      </trkpt>
      <trkpt lat="45.96125" lon="4.85369">
        <ele>258</ele>
        <time>2017-12-22T10:28:21Z</time>
      </trkpt>
      <trkpt lat="45.96131" lon="4.85372">
        <ele>258</ele>
        <time>2017-12-22T10:28:22Z</time>
      </trkpt>
      <trkpt lat="45.96137" lon="4.85376">
        <ele>258</ele>
        <time>2017-12-22T10:28:23Z</time>
      </trkpt>
      <trkpt lat="45.96144" lon="4.8538">
        <ele>258</ele>
        <time>2017-12-22T10:28:24Z</time>
      </trkpt>
      <trkpt lat="45.96151" lon="4.85384">
        <ele>258</ele>
        <time>2017-12-22T10:28:25Z</time>
      </trkpt>
      <trkpt lat="45.96158" lon="4.85386">
        <ele>258</ele>
        <time>2017-12-22T10:28:26Z</time>
      </trkpt>
      <trkpt lat="45.96164" lon="4.85391">
        <ele>258</ele>
        <time>2017-12-22T10:28:27Z</time>
      </trkpt>
      <trkpt lat="45.96169" lon="4.85396">
        <ele>258</ele>
        <time>2017-12-22T10:28:28Z</time>
      </trkpt>
      <trkpt lat="45.96175" lon="4.854">
        <ele>258</ele>
        <time>2017-12-22T10:28:29Z</time>
      </trkpt>
      <trkpt lat="45.9618" lon="4.85403">
        <ele>258</ele>
        <time>2017-12-22T10:28:30Z</time>
      </trkpt>
      <trkpt lat="45.96184" lon="4.85406">
        <ele>258</ele>
        <time>2017-12-22T10:28:31Z</time>
      </trkpt>
      <trkpt lat="45.9619" lon="4.85414">
        <ele>258</ele>
        <time>2017-12-22T10:28:33Z</time>
      </trkpt>
      <trkpt lat="45.96193" lon="4.85418">
        <ele>260</ele>
        <time>2017-12-22T10:28:34Z</time>
      </trkpt>
      <trkpt lat="45.962" lon="4.85425">
        <ele>260</ele>
        <time>2017-12-22T10:28:36Z</time>
      </trkpt>
      <trkpt lat="45.96203" lon="4.85428">
        <ele>260</ele>
        <time>2017-12-22T10:28:37Z</time>
      </trkpt>
      <trkpt lat="45.96209" lon="4.85427">
        <ele>261</ele>
        <time>2017-12-22T10:28:38Z</time>
      </trkpt>
      <trkpt lat="45.96212" lon="4.8543">
        <ele>261</ele>
        <time>2017-12-22T10:28:39Z</time>
      </trkpt>
      <trkpt lat="45.9622" lon="4.85433">
        <ele>261</ele>
        <time>2017-12-22T10:28:41Z</time>
      </trkpt>
      <trkpt lat="45.96224" lon="4.85435">
        <ele>261</ele>
        <time>2017-12-22T10:28:42Z</time>
      </trkpt>
      <trkpt lat="45.96231" lon="4.85438">
        <ele>261</ele>
        <time>2017-12-22T10:28:44Z</time>
      </trkpt>
      <trkpt lat="45.96235" lon="4.8544">
        <ele>261</ele>
        <time>2017-12-22T10:28:45Z</time>
      </trkpt>
      <trkpt lat="45.96238" lon="4.85443">
        <ele>261</ele>
        <time>2017-12-22T10:28:46Z</time>
      </trkpt>
      <trkpt lat="45.96244" lon="4.85444">
        <ele>261</ele>
        <time>2017-12-22T10:28:47Z</time>
      </trkpt>
      <trkpt lat="45.96248" lon="4.85445">
        <ele>261</ele>
        <time>2017-12-22T10:28:48Z</time>
      </trkpt>
      <trkpt lat="45.96254" lon="4.85446">
        <ele>264</ele>
        <time>2017-12-22T10:28:49Z</time>
      </trkpt>
      <trkpt lat="45.96261" lon="4.85449">
        <ele>264</ele>
        <time>2017-12-22T10:28:51Z</time>
      </trkpt>
      <trkpt lat="45.96265" lon="4.85451">
        <ele>264</ele>
        <time>2017-12-22T10:28:52Z</time>
      </trkpt>
      <trkpt lat="45.96274" lon="4.85452">
        <ele>264</ele>
        <time>2017-12-22T10:28:54Z</time>
      </trkpt>
      <trkpt lat="45.96277" lon="4.85453">
        <ele>264</ele>
        <time>2017-12-22T10:28:55Z</time>
      </trkpt>
      <trkpt lat="45.96283" lon="4.85456">
        <ele>265</ele>
        <time>2017-12-22T10:28:57Z</time>
      </trkpt>
      <trkpt lat="45.96288" lon="4.85457">
        <ele>265</ele>
        <time>2017-12-22T10:28:58Z</time>
      </trkpt>
      <trkpt lat="45.96295" lon="4.85459">
        <ele>265</ele>
        <time>2017-12-22T10:29:00Z</time>
      </trkpt>
      <trkpt lat="45.96299" lon="4.8546">
        <ele>265</ele>
        <time>2017-12-22T10:29:01Z</time>
      </trkpt>
      <trkpt lat="45.96307" lon="4.85461">
        <ele>265</ele>
        <time>2017-12-22T10:29:03Z</time>
      </trkpt>
      <trkpt lat="45.96311" lon="4.8546">
        <ele>265</ele>
        <time>2017-12-22T10:29:04Z</time>
      </trkpt>
      <trkpt lat="45.96318" lon="4.8546">
        <ele>265</ele>
        <time>2017-12-22T10:29:06Z</time>
      </trkpt>
      <trkpt lat="45.96322" lon="4.8546">
        <ele>265</ele>
        <time>2017-12-22T10:29:07Z</time>
      </trkpt>
      <trkpt lat="45.96328" lon="4.85461">
        <ele>265</ele>
        <time>2017-12-22T10:29:09Z</time>
      </trkpt>
      <trkpt lat="45.96332" lon="4.85462">
        <ele>265</ele>
        <time>2017-12-22T10:29:10Z</time>
      </trkpt>
      <trkpt lat="45.96339" lon="4.85464">
        <ele>268</ele>
        <time>2017-12-22T10:29:12Z</time>
      </trkpt>
      <trkpt lat="45.96342" lon="4.85465">
        <ele>268</ele>
        <time>2017-12-22T10:29:13Z</time>
      </trkpt>
      <trkpt lat="45.96349" lon="4.85464">
        <ele>268</ele>
        <time>2017-12-22T10:29:15Z</time>
      </trkpt>
      <trkpt lat="45.96352" lon="4.85464">
        <ele>268</ele>
        <time>2017-12-22T10:29:16Z</time>
      </trkpt>
      <trkpt lat="45.96359" lon="4.85464">
        <ele>268</ele>
        <time>2017-12-22T10:29:18Z</time>
      </trkpt>
      <trkpt lat="45.96362" lon="4.85465">
        <ele>268</ele>
        <time>2017-12-22T10:29:19Z</time>
      </trkpt>
      <trkpt lat="45.96369" lon="4.85467">
        <ele>268</ele>
        <time>2017-12-22T10:29:21Z</time>
      </trkpt>
      <trkpt lat="45.96372" lon="4.85468">
        <ele>268</ele>
        <time>2017-12-22T10:29:22Z</time>
      </trkpt>
      <trkpt lat="45.9638" lon="4.85467">
        <ele>268</ele>
        <time>2017-12-22T10:29:25Z</time>
      </trkpt>
      <trkpt lat="45.96383" lon="4.85467">
        <ele>268</ele>
        <time>2017-12-22T10:29:26Z</time>
      </trkpt>
      <trkpt lat="45.96389" lon="4.85467">
        <ele>269</ele>
        <time>2017-12-22T10:29:28Z</time>
      </trkpt>
      <trkpt lat="45.96392" lon="4.85468">
        <ele>269</ele>
        <time>2017-12-22T10:29:29Z</time>
      </trkpt>
      <trkpt lat="45.964" lon="4.85469">
        <ele>269</ele>
        <time>2017-12-22T10:29:31Z</time>
      </trkpt>
      <trkpt lat="45.96403" lon="4.8547">
        <ele>269</ele>
        <time>2017-12-22T10:29:32Z</time>
      </trkpt>
      <trkpt lat="45.96411" lon="4.85472">
        <ele>269</ele>
        <time>2017-12-22T10:29:35Z</time>
      </trkpt>
      <trkpt lat="45.96412" lon="4.85472">
        <ele>269</ele>
        <time>2017-12-22T10:29:36Z</time>
      </trkpt>
      <trkpt lat="45.9642" lon="4.85473">
        <ele>271</ele>
        <time>2017-12-22T10:29:39Z</time>
      </trkpt>
      <trkpt lat="45.96423" lon="4.85473">
        <ele>271</ele>
        <time>2017-12-22T10:29:40Z</time>
      </trkpt>
      <trkpt lat="45.96431" lon="4.85477">
        <ele>271</ele>
        <time>2017-12-22T10:29:43Z</time>
      </trkpt>
      <trkpt lat="45.96434" lon="4.85477">
        <ele>271</ele>
        <time>2017-12-22T10:29:44Z</time>
      </trkpt>
      <trkpt lat="45.9644" lon="4.85476">
        <ele>271</ele>
        <time>2017-12-22T10:29:47Z</time>
      </trkpt>
      <trkpt lat="45.96443" lon="4.85477">
        <ele>272</ele>
        <time>2017-12-22T10:29:48Z</time>
      </trkpt>
      <trkpt lat="45.96452" lon="4.85477">
        <ele>272</ele>
        <time>2017-12-22T10:29:52Z</time>
      </trkpt>
      <trkpt lat="45.96454" lon="4.85478">
        <ele>272</ele>
        <time>2017-12-22T10:29:53Z</time>
      </trkpt>
      <trkpt lat="45.9646" lon="4.85478">
        <ele>272</ele>
        <time>2017-12-22T10:29:57Z</time>
      </trkpt>
      <trkpt lat="45.96463" lon="4.85479">
        <ele>272</ele>
        <time>2017-12-22T10:29:58Z</time>
      </trkpt>
      <trkpt lat="45.9647" lon="4.8548">
        <ele>272</ele>
        <time>2017-12-22T10:30:00Z</time>
      </trkpt>
      <trkpt lat="45.96473" lon="4.8548">
        <ele>272</ele>
        <time>2017-12-22T10:30:01Z</time>
      </trkpt>
      <trkpt lat="45.96479" lon="4.85478">
        <ele>273</ele>
        <time>2017-12-22T10:30:03Z</time>
      </trkpt>
      <trkpt lat="45.96483" lon="4.85477">
        <ele>273</ele>
        <time>2017-12-22T10:30:04Z</time>
      </trkpt>
      <trkpt lat="45.9649" lon="4.85475">
        <ele>273</ele>
        <time>2017-12-22T10:30:06Z</time>
      </trkpt>
      <trkpt lat="45.96493" lon="4.85475">
        <ele>273</ele>
        <time>2017-12-22T10:30:07Z</time>
      </trkpt>
      <trkpt lat="45.965" lon="4.85474">
        <ele>275</ele>
        <time>2017-12-22T10:30:09Z</time>
      </trkpt>
      <trkpt lat="45.96504" lon="4.85473">
        <ele>275</ele>
        <time>2017-12-22T10:30:10Z</time>
      </trkpt>
      <trkpt lat="45.96509" lon="4.85472">
        <ele>275</ele>
        <time>2017-12-22T10:30:12Z</time>
      </trkpt>
      <trkpt lat="45.96513" lon="4.85471">
        <ele>275</ele>
        <time>2017-12-22T10:30:13Z</time>
      </trkpt>
      <trkpt lat="45.9652" lon="4.8547">
        <ele>275</ele>
        <time>2017-12-22T10:30:15Z</time>
      </trkpt>
      <trkpt lat="45.96523" lon="4.85468">
        <ele>275</ele>
        <time>2017-12-22T10:30:16Z</time>
      </trkpt>
      <trkpt lat="45.96531" lon="4.85464">
        <ele>275</ele>
        <time>2017-12-22T10:30:18Z</time>
      </trkpt>
      <trkpt lat="45.96534" lon="4.85462">
        <ele>275</ele>
        <time>2017-12-22T10:30:19Z</time>
      </trkpt>
      <trkpt lat="45.96543" lon="4.8546">
        <ele>275</ele>
        <time>2017-12-22T10:30:21Z</time>
      </trkpt>
      <trkpt lat="45.96546" lon="4.85459">
        <ele>275</ele>
        <time>2017-12-22T10:30:22Z</time>
      </trkpt>
      <trkpt lat="45.96553" lon="4.85456">
        <ele>275</ele>
        <time>2017-12-22T10:30:24Z</time>
      </trkpt>
      <trkpt lat="45.96556" lon="4.85455">
        <ele>275</ele>
        <time>2017-12-22T10:30:25Z</time>
      </trkpt>
      <trkpt lat="45.96563" lon="4.85453">
        <ele>275</ele>
        <time>2017-12-22T10:30:27Z</time>
      </trkpt>
      <trkpt lat="45.96566" lon="4.85451">
        <ele>275</ele>
        <time>2017-12-22T10:30:28Z</time>
      </trkpt>
      <trkpt lat="45.96574" lon="4.85448">
        <ele>275</ele>
        <time>2017-12-22T10:30:31Z</time>
      </trkpt>
      <trkpt lat="45.96577" lon="4.85448">
        <ele>275</ele>
        <time>2017-12-22T10:30:32Z</time>
      </trkpt>
      <trkpt lat="45.96584" lon="4.85447">
        <ele>276</ele>
        <time>2017-12-22T10:30:34Z</time>
      </trkpt>
      <trkpt lat="45.96587" lon="4.85446">
        <ele>276</ele>
        <time>2017-12-22T10:30:35Z</time>
      </trkpt>
      <trkpt lat="45.96593" lon="4.85445">
        <ele>276</ele>
        <time>2017-12-22T10:30:37Z</time>
      </trkpt>
      <trkpt lat="45.96597" lon="4.85444">
        <ele>276</ele>
        <time>2017-12-22T10:30:38Z</time>
      </trkpt>
      <trkpt lat="45.96604" lon="4.85441">
        <ele>276</ele>
        <time>2017-12-22T10:30:40Z</time>
      </trkpt>
      <trkpt lat="45.96608" lon="4.85441">
        <ele>276</ele>
        <time>2017-12-22T10:30:41Z</time>
      </trkpt>
      <trkpt lat="45.96614" lon="4.8544">
        <ele>276</ele>
        <time>2017-12-22T10:30:43Z</time>
      </trkpt>
      <trkpt lat="45.96618" lon="4.85439">
        <ele>276</ele>
        <time>2017-12-22T10:30:44Z</time>
      </trkpt>
      <trkpt lat="45.96625" lon="4.85438">
        <ele>276</ele>
        <time>2017-12-22T10:30:46Z</time>
      </trkpt>
      <trkpt lat="45.96628" lon="4.85437">
        <ele>276</ele>
        <time>2017-12-22T10:30:47Z</time>
      </trkpt>
      <trkpt lat="45.96636" lon="4.85435">
        <ele>276</ele>
        <time>2017-12-22T10:30:49Z</time>
      </trkpt>
      <trkpt lat="45.96639" lon="4.85434">
        <ele>276</ele>
        <time>2017-12-22T10:30:50Z</time>
      </trkpt>
      <trkpt lat="45.96646" lon="4.85433">
        <ele>276</ele>
        <time>2017-12-22T10:30:52Z</time>
      </trkpt>
      <trkpt lat="45.96649" lon="4.85432">
        <ele>276</ele>
        <time>2017-12-22T10:30:53Z</time>
      </trkpt>
      <trkpt lat="45.96655" lon="4.8543">
        <ele>276</ele>
        <time>2017-12-22T10:30:55Z</time>
      </trkpt>
      <trkpt lat="45.96659" lon="4.8543">
        <ele>276</ele>
        <time>2017-12-22T10:30:56Z</time>
      </trkpt>
      <trkpt lat="45.96667" lon="4.85428">
        <ele>276</ele>
        <time>2017-12-22T10:30:58Z</time>
      </trkpt>
      <trkpt lat="45.9667" lon="4.85427">
        <ele>276</ele>
        <time>2017-12-22T10:30:59Z</time>
      </trkpt>
      <trkpt lat="45.96677" lon="4.85424">
        <ele>276</ele>
        <time>2017-12-22T10:31:01Z</time>
      </trkpt>
      <trkpt lat="45.9668" lon="4.85423">
        <ele>276</ele>
        <time>2017-12-22T10:31:02Z</time>
      </trkpt>
      <trkpt lat="45.96687" lon="4.85421">
        <ele>276</ele>
        <time>2017-12-22T10:31:04Z</time>
      </trkpt>
      <trkpt lat="45.96691" lon="4.8542">
        <ele>276</ele>
        <time>2017-12-22T10:31:05Z</time>
      </trkpt>
      <trkpt lat="45.96698" lon="4.85417">
        <ele>276</ele>
        <time>2017-12-22T10:31:07Z</time>
      </trkpt>
      <trkpt lat="45.96702" lon="4.85415">
        <ele>276</ele>
        <time>2017-12-22T10:31:08Z</time>
      </trkpt>
      <trkpt lat="45.9671" lon="4.85411">
        <ele>276</ele>
        <time>2017-12-22T10:31:11Z</time>
      </trkpt>
      <trkpt lat="45.96713" lon="4.8541">
        <ele>276</ele>
        <time>2017-12-22T10:31:12Z</time>
      </trkpt>
      <trkpt lat="45.96718" lon="4.85406">
        <ele>276</ele>
        <time>2017-12-22T10:31:14Z</time>
      </trkpt>
      <trkpt lat="45.96721" lon="4.85405">
        <ele>276</ele>
        <time>2017-12-22T10:31:15Z</time>
      </trkpt>
      <trkpt lat="45.96729" lon="4.85401">
        <ele>277</ele>
        <time>2017-12-22T10:31:17Z</time>
      </trkpt>
      <trkpt lat="45.96733" lon="4.85399">
        <ele>277</ele>
        <time>2017-12-22T10:31:18Z</time>
      </trkpt>
      <trkpt lat="45.9674" lon="4.85393">
        <ele>277</ele>
        <time>2017-12-22T10:31:20Z</time>
      </trkpt>
      <trkpt lat="45.96743" lon="4.8539">
        <ele>277</ele>
        <time>2017-12-22T10:31:21Z</time>
      </trkpt>
      <trkpt lat="45.9675" lon="4.85384">
        <ele>277</ele>
        <time>2017-12-22T10:31:23Z</time>
      </trkpt>
      <trkpt lat="45.96752" lon="4.85382">
        <ele>278</ele>
        <time>2017-12-22T10:31:24Z</time>
      </trkpt>
      <trkpt lat="45.96759" lon="4.85376">
        <ele>278</ele>
        <time>2017-12-22T10:31:27Z</time>
      </trkpt>
      <trkpt lat="45.96761" lon="4.85374">
        <ele>278</ele>
        <time>2017-12-22T10:31:28Z</time>
      </trkpt>
      <trkpt lat="45.96768" lon="4.85367">
        <ele>278</ele>
        <time>2017-12-22T10:31:31Z</time>
      </trkpt>
      <trkpt lat="45.96771" lon="4.85366">
        <ele>278</ele>
        <time>2017-12-22T10:31:32Z</time>
      </trkpt>
      <trkpt lat="45.96778" lon="4.85363">
        <ele>278</ele>
        <time>2017-12-22T10:31:35Z</time>
      </trkpt>
      <trkpt lat="45.96781" lon="4.85361">
        <ele>278</ele>
        <time>2017-12-22T10:31:36Z</time>
      </trkpt>
      <trkpt lat="45.96787" lon="4.85357">
        <ele>278</ele>
        <time>2017-12-22T10:31:38Z</time>
      </trkpt>
      <trkpt lat="45.9679" lon="4.85355">
        <ele>278</ele>
        <time>2017-12-22T10:31:39Z</time>
      </trkpt>
      <trkpt lat="45.96796" lon="4.85352">
        <ele>279</ele>
        <time>2017-12-22T10:31:41Z</time>
      </trkpt>
      <trkpt lat="45.968" lon="4.85351">
        <ele>279</ele>
        <time>2017-12-22T10:31:42Z</time>
      </trkpt>
      <trkpt lat="45.96807" lon="4.85346">
        <ele>279</ele>
        <time>2017-12-22T10:31:44Z</time>
      </trkpt>
      <trkpt lat="45.9681" lon="4.85344">
        <ele>279</ele>
        <time>2017-12-22T10:31:45Z</time>
      </trkpt>
      <trkpt lat="45.96818" lon="4.8534">
        <ele>279</ele>
        <time>2017-12-22T10:31:47Z</time>
      </trkpt>
      <trkpt lat="45.96822" lon="4.85337">
        <ele>279</ele>
        <time>2017-12-22T10:31:48Z</time>
      </trkpt>
      <trkpt lat="45.9683" lon="4.85334">
        <ele>280</ele>
        <time>2017-12-22T10:31:50Z</time>
      </trkpt>
      <trkpt lat="45.96834" lon="4.85332">
        <ele>280</ele>
        <time>2017-12-22T10:31:51Z</time>
      </trkpt>
      <trkpt lat="45.96843" lon="4.85329">
        <ele>281</ele>
        <time>2017-12-22T10:31:53Z</time>
      </trkpt>
      <trkpt lat="45.96846" lon="4.85327">
        <ele>281</ele>
        <time>2017-12-22T10:31:54Z</time>
      </trkpt>
      <trkpt lat="45.96855" lon="4.85325">
        <ele>282</ele>
        <time>2017-12-22T10:31:56Z</time>
      </trkpt>
      <trkpt lat="45.96859" lon="4.85323">
        <ele>282</ele>
        <time>2017-12-22T10:31:57Z</time>
      </trkpt>
      <trkpt lat="45.96866" lon="4.85319">
        <ele>282</ele>
        <time>2017-12-22T10:31:59Z</time>
      </trkpt>
      <trkpt lat="45.9687" lon="4.85317">
        <ele>282</ele>
        <time>2017-12-22T10:32:00Z</time>
      </trkpt>
      <trkpt lat="45.96878" lon="4.85314">
        <ele>283</ele>
        <time>2017-12-22T10:32:02Z</time>
      </trkpt>
      <trkpt lat="45.96882" lon="4.85313">
        <ele>283</ele>
        <time>2017-12-22T10:32:03Z</time>
      </trkpt>
      <trkpt lat="45.96889" lon="4.85311">
        <ele>283</ele>
        <time>2017-12-22T10:32:05Z</time>
      </trkpt>
      <trkpt lat="45.96892" lon="4.8531">
        <ele>283</ele>
        <time>2017-12-22T10:32:06Z</time>
      </trkpt>
      <trkpt lat="45.96899" lon="4.85309">
        <ele>284</ele>
        <time>2017-12-22T10:32:08Z</time>
      </trkpt>
      <trkpt lat="45.96903" lon="4.85308">
        <ele>284</ele>
        <time>2017-12-22T10:32:09Z</time>
      </trkpt>
      <trkpt lat="45.96909" lon="4.85307">
        <ele>284</ele>
        <time>2017-12-22T10:32:11Z</time>
      </trkpt>
      <trkpt lat="45.96913" lon="4.85306">
        <ele>284</ele>
        <time>2017-12-22T10:32:12Z</time>
      </trkpt>
      <trkpt lat="45.9692" lon="4.85304">
        <ele>284</ele>
        <time>2017-12-22T10:32:14Z</time>
      </trkpt>
      <trkpt lat="45.96923" lon="4.85302">
        <ele>284</ele>
        <time>2017-12-22T10:32:15Z</time>
      </trkpt>
      <trkpt lat="45.9693" lon="4.853">
        <ele>284</ele>
        <time>2017-12-22T10:32:17Z</time>
      </trkpt>
      <trkpt lat="45.96933" lon="4.853">
        <ele>284</ele>
        <time>2017-12-22T10:32:18Z</time>
      </trkpt>
      <trkpt lat="45.96941" lon="4.85299">
        <ele>284</ele>
        <time>2017-12-22T10:32:20Z</time>
      </trkpt>
      <trkpt lat="45.96944" lon="4.85298">
        <ele>284</ele>
        <time>2017-12-22T10:32:21Z</time>
      </trkpt>
      <trkpt lat="45.96952" lon="4.85298">
        <ele>284</ele>
        <time>2017-12-22T10:32:23Z</time>
      </trkpt>
      <trkpt lat="45.96956" lon="4.85297">
        <ele>284</ele>
        <time>2017-12-22T10:32:24Z</time>
      </trkpt>
      <trkpt lat="45.96964" lon="4.85295">
        <ele>284</ele>
        <time>2017-12-22T10:32:26Z</time>
      </trkpt>
      <trkpt lat="45.96967" lon="4.85294">
        <ele>284</ele>
        <time>2017-12-22T10:32:27Z</time>
      </trkpt>
      <trkpt lat="45.96975" lon="4.85292">
        <ele>284</ele>
        <time>2017-12-22T10:32:29Z</time>
      </trkpt>
      <trkpt lat="45.96979" lon="4.85291">
        <ele>284</ele>
        <time>2017-12-22T10:32:30Z</time>
      </trkpt>
      <trkpt lat="45.96988" lon="4.8529">
        <ele>284</ele>
        <time>2017-12-22T10:32:32Z</time>
      </trkpt>
      <trkpt lat="45.96993" lon="4.85288">
        <ele>284</ele>
        <time>2017-12-22T10:32:33Z</time>
      </trkpt>
      <trkpt lat="45.96997" lon="4.85288">
        <ele>283</ele>
        <time>2017-12-22T10:32:34Z</time>
      </trkpt>
      <trkpt lat="45.97002" lon="4.85288">
        <ele>282</ele>
        <time>2017-12-22T10:32:35Z</time>
      </trkpt>
      <trkpt lat="45.97007" lon="4.85288">
        <ele>282</ele>
        <time>2017-12-22T10:32:36Z</time>
      </trkpt>
      <trkpt lat="45.97012" lon="4.85287">
        <ele>282</ele>
        <time>2017-12-22T10:32:37Z</time>
      </trkpt>
      <trkpt lat="45.97018" lon="4.85286">
        <ele>282</ele>
        <time>2017-12-22T10:32:38Z</time>
      </trkpt>
      <trkpt lat="45.97024" lon="4.85286">
        <ele>282</ele>
        <time>2017-12-22T10:32:39Z</time>
      </trkpt>
      <trkpt lat="45.97029" lon="4.85285">
        <ele>282</ele>
        <time>2017-12-22T10:32:40Z</time>
      </trkpt>
      <trkpt lat="45.97034" lon="4.85285">
        <ele>282</ele>
        <time>2017-12-22T10:32:41Z</time>
      </trkpt>
      <trkpt lat="45.9704" lon="4.85285">
        <ele>282</ele>
        <time>2017-12-22T10:32:42Z</time>
      </trkpt>
      <trkpt lat="45.97046" lon="4.85284">
        <ele>282</ele>
        <time>2017-12-22T10:32:43Z</time>
      </trkpt>
      <trkpt lat="45.97052" lon="4.85283">
        <ele>282</ele>
        <time>2017-12-22T10:32:44Z</time>
      </trkpt>
      <trkpt lat="45.97058" lon="4.85282">
        <ele>282</ele>
        <time>2017-12-22T10:32:45Z</time>
      </trkpt>
      <trkpt lat="45.97064" lon="4.85282">
        <ele>282</ele>
        <time>2017-12-22T10:32:46Z</time>
      </trkpt>
      <trkpt lat="45.97071" lon="4.85281">
        <ele>282</ele>
        <time>2017-12-22T10:32:47Z</time>
      </trkpt>
      <trkpt lat="45.97077" lon="4.8528">
        <ele>281</ele>
        <time>2017-12-22T10:32:48Z</time>
      </trkpt>
      <trkpt lat="45.97083" lon="4.85279">
        <ele>281</ele>
        <time>2017-12-22T10:32:49Z</time>
      </trkpt>
      <trkpt lat="45.97089" lon="4.85277">
        <ele>280</ele>
        <time>2017-12-22T10:32:50Z</time>
      </trkpt>
      <trkpt lat="45.97095" lon="4.85277">
        <ele>280</ele>
        <time>2017-12-22T10:32:51Z</time>
      </trkpt>
      <trkpt lat="45.97101" lon="4.85275">
        <ele>280</ele>
        <time>2017-12-22T10:32:52Z</time>
      </trkpt>
      <trkpt lat="45.97106" lon="4.85275">
        <ele>280</ele>
        <time>2017-12-22T10:32:53Z</time>
      </trkpt>
      <trkpt lat="45.97111" lon="4.85275">
        <ele>280</ele>
        <time>2017-12-22T10:32:54Z</time>
      </trkpt>
      <trkpt lat="45.97117" lon="4.85276">
        <ele>280</ele>
        <time>2017-12-22T10:32:55Z</time>
      </trkpt>
      <trkpt lat="45.97125" lon="4.85278">
        <ele>279</ele>
        <time>2017-12-22T10:32:57Z</time>
      </trkpt>
      <trkpt lat="45.9713" lon="4.85278">
        <ele>279</ele>
        <time>2017-12-22T10:32:58Z</time>
      </trkpt>
      <trkpt lat="45.97135" lon="4.85278">
        <ele>279</ele>
        <time>2017-12-22T10:32:59Z</time>
      </trkpt>
      <trkpt lat="45.97139" lon="4.85277">
        <ele>279</ele>
        <time>2017-12-22T10:33:00Z</time>
      </trkpt>
      <trkpt lat="45.97144" lon="4.85277">
        <ele>279</ele>
        <time>2017-12-22T10:33:01Z</time>
      </trkpt>
      <trkpt lat="45.97149" lon="4.85276">
        <ele>279</ele>
        <time>2017-12-22T10:33:02Z</time>
      </trkpt>
      <trkpt lat="45.97154" lon="4.85276">
        <ele>279</ele>
        <time>2017-12-22T10:33:03Z</time>
      </trkpt>
      <trkpt lat="45.9716" lon="4.85276">
        <ele>279</ele>
        <time>2017-12-22T10:33:04Z</time>
      </trkpt>
      <trkpt lat="45.97164" lon="4.85275">
        <ele>279</ele>
        <time>2017-12-22T10:33:05Z</time>
      </trkpt>
      <trkpt lat="45.97169" lon="4.85275">
        <ele>279</ele>
        <time>2017-12-22T10:33:06Z</time>
      </trkpt>
      <trkpt lat="45.97174" lon="4.85275">
        <ele>279</ele>
        <time>2017-12-22T10:33:07Z</time>
      </trkpt>
      <trkpt lat="45.97179" lon="4.85275">
        <ele>279</ele>
        <time>2017-12-22T10:33:08Z</time>
      </trkpt>
      <trkpt lat="45.97185" lon="4.85275">
        <ele>279</ele>
        <time>2017-12-22T10:33:09Z</time>
      </trkpt>
      <trkpt lat="45.9719" lon="4.85275">
        <ele>279</ele>
        <time>2017-12-22T10:33:10Z</time>
      </trkpt>
      <trkpt lat="45.97195" lon="4.85275">
        <ele>279</ele>
        <time>2017-12-22T10:33:11Z</time>
      </trkpt>
      <trkpt lat="45.972" lon="4.85275">
        <ele>279</ele>
        <time>2017-12-22T10:33:12Z</time>
      </trkpt>
      <trkpt lat="45.97206" lon="4.85274">
        <ele>279</ele>
        <time>2017-12-22T10:33:13Z</time>
      </trkpt>
      <trkpt lat="45.9721" lon="4.85274">
        <ele>279</ele>
        <time>2017-12-22T10:33:14Z</time>
      </trkpt>
      <trkpt lat="45.97216" lon="4.85273">
        <ele>279</ele>
        <time>2017-12-22T10:33:15Z</time>
      </trkpt>
      <trkpt lat="45.97221" lon="4.85271">
        <ele>279</ele>
        <time>2017-12-22T10:33:16Z</time>
      </trkpt>
      <trkpt lat="45.97227" lon="4.85273">
        <ele>279</ele>
        <time>2017-12-22T10:33:17Z</time>
      </trkpt>
      <trkpt lat="45.97233" lon="4.85272">
        <ele>279</ele>
        <time>2017-12-22T10:33:18Z</time>
      </trkpt>
      <trkpt lat="45.97238" lon="4.85274">
        <ele>279</ele>
        <time>2017-12-22T10:33:19Z</time>
      </trkpt>
      <trkpt lat="45.97243" lon="4.85273">
        <ele>279</ele>
        <time>2017-12-22T10:33:20Z</time>
      </trkpt>
      <trkpt lat="45.97248" lon="4.85273">
        <ele>279</ele>
        <time>2017-12-22T10:33:21Z</time>
      </trkpt>
      <trkpt lat="45.97254" lon="4.85272">
        <ele>281</ele>
        <time>2017-12-22T10:33:22Z</time>
      </trkpt>
      <trkpt lat="45.97259" lon="4.85271">
        <ele>281</ele>
        <time>2017-12-22T10:33:23Z</time>
      </trkpt>
      <trkpt lat="45.97264" lon="4.85271">
        <ele>281</ele>
        <time>2017-12-22T10:33:24Z</time>
      </trkpt>
      <trkpt lat="45.97269" lon="4.85271">
        <ele>281</ele>
        <time>2017-12-22T10:33:25Z</time>
      </trkpt>
      <trkpt lat="45.97274" lon="4.85271">
        <ele>281</ele>
        <time>2017-12-22T10:33:26Z</time>
      </trkpt>
      <trkpt lat="45.97282" lon="4.85271">
        <ele>281</ele>
        <time>2017-12-22T10:33:28Z</time>
      </trkpt>
      <trkpt lat="45.97285" lon="4.85271">
        <ele>281</ele>
        <time>2017-12-22T10:33:29Z</time>
      </trkpt>
      <trkpt lat="45.97293" lon="4.8527">
        <ele>282</ele>
        <time>2017-12-22T10:33:31Z</time>
      </trkpt>
      <trkpt lat="45.97298" lon="4.8527">
        <ele>282</ele>
        <time>2017-12-22T10:33:32Z</time>
      </trkpt>
      <trkpt lat="45.97304" lon="4.8527">
        <ele>282</ele>
        <time>2017-12-22T10:33:33Z</time>
      </trkpt>
      <trkpt lat="45.97309" lon="4.8527">
        <ele>282</ele>
        <time>2017-12-22T10:33:34Z</time>
      </trkpt>
      <trkpt lat="45.97318" lon="4.8527">
        <ele>282</ele>
        <time>2017-12-22T10:33:36Z</time>
      </trkpt>
      <trkpt lat="45.97323" lon="4.8527">
        <ele>282</ele>
        <time>2017-12-22T10:33:37Z</time>
      </trkpt>
      <trkpt lat="45.97332" lon="4.8527">
        <ele>282</ele>
        <time>2017-12-22T10:33:39Z</time>
      </trkpt>
      <trkpt lat="45.97337" lon="4.8527">
        <ele>284</ele>
        <time>2017-12-22T10:33:40Z</time>
      </trkpt>
      <trkpt lat="45.97346" lon="4.8527">
        <ele>284</ele>
        <time>2017-12-22T10:33:42Z</time>
      </trkpt>
      <trkpt lat="45.9735" lon="4.85269">
        <ele>284</ele>
        <time>2017-12-22T10:33:43Z</time>
      </trkpt>
      <trkpt lat="45.97355" lon="4.85268">
        <ele>284</ele>
        <time>2017-12-22T10:33:44Z</time>
      </trkpt>
      <trkpt lat="45.97359" lon="4.85268">
        <ele>284</ele>
        <time>2017-12-22T10:33:45Z</time>
      </trkpt>
      <trkpt lat="45.97364" lon="4.85266">
        <ele>284</ele>
        <time>2017-12-22T10:33:46Z</time>
      </trkpt>
      <trkpt lat="45.97369" lon="4.85267">
        <ele>285</ele>
        <time>2017-12-22T10:33:47Z</time>
      </trkpt>
      <trkpt lat="45.97376" lon="4.85264">
        <ele>285</ele>
        <time>2017-12-22T10:33:48Z</time>
      </trkpt>
      <trkpt lat="45.97382" lon="4.85262">
        <ele>285</ele>
        <time>2017-12-22T10:33:49Z</time>
      </trkpt>
      <trkpt lat="45.97386" lon="4.85266">
        <ele>285</ele>
        <time>2017-12-22T10:33:50Z</time>
      </trkpt>
      <trkpt lat="45.97392" lon="4.85266">
        <ele>285</ele>
        <time>2017-12-22T10:33:51Z</time>
      </trkpt>
      <trkpt lat="45.97397" lon="4.85267">
        <ele>286</ele>
        <time>2017-12-22T10:33:52Z</time>
      </trkpt>
      <trkpt lat="45.97402" lon="4.85267">
        <ele>286</ele>
        <time>2017-12-22T10:33:53Z</time>
      </trkpt>
      <trkpt lat="45.97407" lon="4.85268">
        <ele>286</ele>
        <time>2017-12-22T10:33:54Z</time>
      </trkpt>
      <trkpt lat="45.97411" lon="4.85268">
        <ele>286</ele>
        <time>2017-12-22T10:33:55Z</time>
      </trkpt>
      <trkpt lat="45.97416" lon="4.85267">
        <ele>286</ele>
        <time>2017-12-22T10:33:56Z</time>
      </trkpt>
      <trkpt lat="45.97421" lon="4.85268">
        <ele>285</ele>
        <time>2017-12-22T10:33:57Z</time>
      </trkpt>
      <trkpt lat="45.97427" lon="4.85267">
        <ele>285</ele>
        <time>2017-12-22T10:33:58Z</time>
      </trkpt>
      <trkpt lat="45.9743" lon="4.85266">
        <ele>285</ele>
        <time>2017-12-22T10:33:59Z</time>
      </trkpt>
      <trkpt lat="45.97435" lon="4.85268">
        <ele>285</ele>
        <time>2017-12-22T10:34:00Z</time>
      </trkpt>
      <trkpt lat="45.97439" lon="4.85268">
        <ele>285</ele>
        <time>2017-12-22T10:34:01Z</time>
      </trkpt>
      <trkpt lat="45.97445" lon="4.85268">
        <ele>285</ele>
        <time>2017-12-22T10:34:02Z</time>
      </trkpt>
      <trkpt lat="45.97452" lon="4.85266">
        <ele>285</ele>
        <time>2017-12-22T10:34:03Z</time>
      </trkpt>
      <trkpt lat="45.97458" lon="4.85264">
        <ele>284</ele>
        <time>2017-12-22T10:34:04Z</time>
      </trkpt>
      <trkpt lat="45.97464" lon="4.85264">
        <ele>284</ele>
        <time>2017-12-22T10:34:05Z</time>
      </trkpt>
      <trkpt lat="45.9747" lon="4.85264">
        <ele>284</ele>
        <time>2017-12-22T10:34:06Z</time>
      </trkpt>
      <trkpt lat="45.97477" lon="4.85262">
        <ele>284</ele>
        <time>2017-12-22T10:34:07Z</time>
      </trkpt>
      <trkpt lat="45.97484" lon="4.85261">
        <ele>284</ele>
        <time>2017-12-22T10:34:08Z</time>
      </trkpt>
      <trkpt lat="45.9749" lon="4.8526">
        <ele>283</ele>
        <time>2017-12-22T10:34:09Z</time>
      </trkpt>
      <trkpt lat="45.97496" lon="4.85259">
        <ele>283</ele>
        <time>2017-12-22T10:34:10Z</time>
      </trkpt>
      <trkpt lat="45.97502" lon="4.85259">
        <ele>282</ele>
        <time>2017-12-22T10:34:11Z</time>
      </trkpt>
      <trkpt lat="45.97507" lon="4.85259">
        <ele>282</ele>
        <time>2017-12-22T10:34:12Z</time>
      </trkpt>
      <trkpt lat="45.97512" lon="4.85258">
        <ele>282</ele>
        <time>2017-12-22T10:34:13Z</time>
      </trkpt>
      <trkpt lat="45.97517" lon="4.85266">
        <ele>281</ele>
        <time>2017-12-22T10:34:15Z</time>
      </trkpt>
      <trkpt lat="45.97522" lon="4.85265">
        <ele>281</ele>
        <time>2017-12-22T10:34:16Z</time>
      </trkpt>
      <trkpt lat="45.97531" lon="4.85266">
        <ele>281</ele>
        <time>2017-12-22T10:34:18Z</time>
      </trkpt>
      <trkpt lat="45.97535" lon="4.85266">
        <ele>281</ele>
        <time>2017-12-22T10:34:19Z</time>
      </trkpt>
      <trkpt lat="45.97541" lon="4.85265">
        <ele>281</ele>
        <time>2017-12-22T10:34:20Z</time>
      </trkpt>
      <trkpt lat="45.97548" lon="4.85263">
        <ele>281</ele>
        <time>2017-12-22T10:34:21Z</time>
      </trkpt>
      <trkpt lat="45.97553" lon="4.85263">
        <ele>281</ele>
        <time>2017-12-22T10:34:22Z</time>
      </trkpt>
      <trkpt lat="45.97559" lon="4.85261">
        <ele>281</ele>
        <time>2017-12-22T10:34:23Z</time>
      </trkpt>
      <trkpt lat="45.97565" lon="4.8526">
        <ele>281</ele>
        <time>2017-12-22T10:34:24Z</time>
      </trkpt>
      <trkpt lat="45.97571" lon="4.85259">
        <ele>281</ele>
        <time>2017-12-22T10:34:25Z</time>
      </trkpt>
      <trkpt lat="45.97578" lon="4.85258">
        <ele>281</ele>
        <time>2017-12-22T10:34:26Z</time>
      </trkpt>
      <trkpt lat="45.97584" lon="4.85258">
        <ele>281</ele>
        <time>2017-12-22T10:34:27Z</time>
      </trkpt>
      <trkpt lat="45.97589" lon="4.85257">
        <ele>281</ele>
        <time>2017-12-22T10:34:28Z</time>
      </trkpt>
      <trkpt lat="45.97595" lon="4.85256">
        <ele>280</ele>
        <time>2017-12-22T10:34:29Z</time>
      </trkpt>
      <trkpt lat="45.976" lon="4.85257">
        <ele>280</ele>
        <time>2017-12-22T10:34:30Z</time>
      </trkpt>
      <trkpt lat="45.97604" lon="4.85257">
        <ele>280</ele>
        <time>2017-12-22T10:34:31Z</time>
      </trkpt>
      <trkpt lat="45.97609" lon="4.85258">
        <ele>279</ele>
        <time>2017-12-22T10:34:32Z</time>
      </trkpt>
      <trkpt lat="45.97615" lon="4.85256">
        <ele>279</ele>
        <time>2017-12-22T10:34:33Z</time>
      </trkpt>
      <trkpt lat="45.97619" lon="4.85254">
        <ele>279</ele>
        <time>2017-12-22T10:34:34Z</time>
      </trkpt>
      <trkpt lat="45.97624" lon="4.85252">
        <ele>278</ele>
        <time>2017-12-22T10:34:35Z</time>
      </trkpt>
      <trkpt lat="45.97631" lon="4.85251">
        <ele>278</ele>
        <time>2017-12-22T10:34:36Z</time>
      </trkpt>
      <trkpt lat="45.97636" lon="4.85252">
        <ele>278</ele>
        <time>2017-12-22T10:34:37Z</time>
      </trkpt>
      <trkpt lat="45.97642" lon="4.85251">
        <ele>278</ele>
        <time>2017-12-22T10:34:38Z</time>
      </trkpt>
      <trkpt lat="45.97649" lon="4.8525">
        <ele>277</ele>
        <time>2017-12-22T10:34:39Z</time>
      </trkpt>
      <trkpt lat="45.97654" lon="4.8525">
        <ele>278</ele>
        <time>2017-12-22T10:34:40Z</time>
      </trkpt>
      <trkpt lat="45.9766" lon="4.8525">
        <ele>277</ele>
        <time>2017-12-22T10:34:41Z</time>
      </trkpt>
      <trkpt lat="45.97666" lon="4.85249">
        <ele>276</ele>
        <time>2017-12-22T10:34:42Z</time>
      </trkpt>
      <trkpt lat="45.9767" lon="4.85252">
        <ele>276</ele>
        <time>2017-12-22T10:34:43Z</time>
      </trkpt>
      <trkpt lat="45.97675" lon="4.85253">
        <ele>276</ele>
        <time>2017-12-22T10:34:44Z</time>
      </trkpt>
      <trkpt lat="45.9768" lon="4.85252">
        <ele>276</ele>
        <time>2017-12-22T10:34:45Z</time>
      </trkpt>
      <trkpt lat="45.97685" lon="4.8525">
        <ele>276</ele>
        <time>2017-12-22T10:34:46Z</time>
      </trkpt>
      <trkpt lat="45.9769" lon="4.85249">
        <ele>275</ele>
        <time>2017-12-22T10:34:47Z</time>
      </trkpt>
      <trkpt lat="45.97695" lon="4.85247">
        <ele>275</ele>
        <time>2017-12-22T10:34:48Z</time>
      </trkpt>
      <trkpt lat="45.977" lon="4.85245">
        <ele>275</ele>
        <time>2017-12-22T10:34:49Z</time>
      </trkpt>
      <trkpt lat="45.97706" lon="4.85244">
        <ele>275</ele>
        <time>2017-12-22T10:34:50Z</time>
      </trkpt>
      <trkpt lat="45.97711" lon="4.85243">
        <ele>275</ele>
        <time>2017-12-22T10:34:51Z</time>
      </trkpt>
      <trkpt lat="45.97719" lon="4.85241">
        <ele>275</ele>
        <time>2017-12-22T10:34:53Z</time>
      </trkpt>
      <trkpt lat="45.97726" lon="4.85241">
        <ele>275</ele>
        <time>2017-12-22T10:34:54Z</time>
      </trkpt>
      <trkpt lat="45.97732" lon="4.85239">
        <ele>275</ele>
        <time>2017-12-22T10:34:55Z</time>
      </trkpt>
      <trkpt lat="45.97737" lon="4.85237">
        <ele>275</ele>
        <time>2017-12-22T10:34:56Z</time>
      </trkpt>
      <trkpt lat="45.9774" lon="4.8524">
        <ele>275</ele>
        <time>2017-12-22T10:34:57Z</time>
      </trkpt>
      <trkpt lat="45.97746" lon="4.85241">
        <ele>274</ele>
        <time>2017-12-22T10:34:58Z</time>
      </trkpt>
      <trkpt lat="45.97751" lon="4.85242">
        <ele>274</ele>
        <time>2017-12-22T10:34:59Z</time>
      </trkpt>
      <trkpt lat="45.97757" lon="4.85241">
        <ele>274</ele>
        <time>2017-12-22T10:35:00Z</time>
      </trkpt>
      <trkpt lat="45.97761" lon="4.85241">
        <ele>274</ele>
        <time>2017-12-22T10:35:01Z</time>
      </trkpt>
      <trkpt lat="45.97767" lon="4.85242">
        <ele>274</ele>
        <time>2017-12-22T10:35:02Z</time>
      </trkpt>
      <trkpt lat="45.97772" lon="4.8524">
        <ele>274</ele>
        <time>2017-12-22T10:35:03Z</time>
      </trkpt>
      <trkpt lat="45.97778" lon="4.85239">
        <ele>274</ele>
        <time>2017-12-22T10:35:04Z</time>
      </trkpt>
      <trkpt lat="45.97783" lon="4.8524">
        <ele>274</ele>
        <time>2017-12-22T10:35:05Z</time>
      </trkpt>
      <trkpt lat="45.97788" lon="4.8524">
        <ele>274</ele>
        <time>2017-12-22T10:35:06Z</time>
      </trkpt>
      <trkpt lat="45.97793" lon="4.85241">
        <ele>274</ele>
        <time>2017-12-22T10:35:07Z</time>
      </trkpt>
      <trkpt lat="45.97798" lon="4.8524">
        <ele>274</ele>
        <time>2017-12-22T10:35:08Z</time>
      </trkpt>
      <trkpt lat="45.97803" lon="4.85239">
        <ele>274</ele>
        <time>2017-12-22T10:35:09Z</time>
      </trkpt>
      <trkpt lat="45.97807" lon="4.85239">
        <ele>274</ele>
        <time>2017-12-22T10:35:10Z</time>
      </trkpt>
      <trkpt lat="45.97812" lon="4.85239">
        <ele>275</ele>
        <time>2017-12-22T10:35:11Z</time>
      </trkpt>
      <trkpt lat="45.97817" lon="4.85239">
        <ele>275</ele>
        <time>2017-12-22T10:35:12Z</time>
      </trkpt>
      <trkpt lat="45.97822" lon="4.85237">
        <ele>275</ele>
        <time>2017-12-22T10:35:13Z</time>
      </trkpt>
      <trkpt lat="45.97827" lon="4.85236">
        <ele>275</ele>
        <time>2017-12-22T10:35:14Z</time>
      </trkpt>
      <trkpt lat="45.97832" lon="4.85236">
        <ele>275</ele>
        <time>2017-12-22T10:35:15Z</time>
      </trkpt>
      <trkpt lat="45.97838" lon="4.85234">
        <ele>275</ele>
        <time>2017-12-22T10:35:16Z</time>
      </trkpt>
      <trkpt lat="45.97844" lon="4.85234">
        <ele>275</ele>
        <time>2017-12-22T10:35:17Z</time>
      </trkpt>
      <trkpt lat="45.97849" lon="4.85233">
        <ele>275</ele>
        <time>2017-12-22T10:35:18Z</time>
      </trkpt>
      <trkpt lat="45.97855" lon="4.85233">
        <ele>275</ele>
        <time>2017-12-22T10:35:19Z</time>
      </trkpt>
      <trkpt lat="45.9786" lon="4.85232">
        <ele>275</ele>
        <time>2017-12-22T10:35:20Z</time>
      </trkpt>
      <trkpt lat="45.97865" lon="4.85232">
        <ele>275</ele>
        <time>2017-12-22T10:35:21Z</time>
      </trkpt>
      <trkpt lat="45.9787" lon="4.85231">
        <ele>275</ele>
        <time>2017-12-22T10:35:22Z</time>
      </trkpt>
      <trkpt lat="45.97876" lon="4.85231">
        <ele>275</ele>
        <time>2017-12-22T10:35:23Z</time>
      </trkpt>
      <trkpt lat="45.97881" lon="4.8523">
        <ele>275</ele>
        <time>2017-12-22T10:35:24Z</time>
      </trkpt>
      <trkpt lat="45.97886" lon="4.85231">
        <ele>275</ele>
        <time>2017-12-22T10:35:25Z</time>
      </trkpt>
      <trkpt lat="45.97891" lon="4.8523">
        <ele>275</ele>
        <time>2017-12-22T10:35:26Z</time>
      </trkpt>
      <trkpt lat="45.97897" lon="4.85229">
        <ele>275</ele>
        <time>2017-12-22T10:35:27Z</time>
      </trkpt>
      <trkpt lat="45.97903" lon="4.85228">
        <ele>275</ele>
        <time>2017-12-22T10:35:28Z</time>
      </trkpt>
      <trkpt lat="45.97908" lon="4.85227">
        <ele>275</ele>
        <time>2017-12-22T10:35:29Z</time>
      </trkpt>
      <trkpt lat="45.97914" lon="4.85225">
        <ele>275</ele>
        <time>2017-12-22T10:35:30Z</time>
      </trkpt>
      <trkpt lat="45.97919" lon="4.85225">
        <ele>276</ele>
        <time>2017-12-22T10:35:31Z</time>
      </trkpt>
      <trkpt lat="45.97925" lon="4.85224">
        <ele>276</ele>
        <time>2017-12-22T10:35:32Z</time>
      </trkpt>
      <trkpt lat="45.9793" lon="4.85224">
        <ele>276</ele>
        <time>2017-12-22T10:35:33Z</time>
      </trkpt>
      <trkpt lat="45.97936" lon="4.85223">
        <ele>276</ele>
        <time>2017-12-22T10:35:34Z</time>
      </trkpt>
      <trkpt lat="45.97941" lon="4.85223">
        <ele>276</ele>
        <time>2017-12-22T10:35:35Z</time>
      </trkpt>
      <trkpt lat="45.97946" lon="4.85223">
        <ele>276</ele>
        <time>2017-12-22T10:35:36Z</time>
      </trkpt>
      <trkpt lat="45.97951" lon="4.85222">
        <ele>276</ele>
        <time>2017-12-22T10:35:37Z</time>
      </trkpt>
      <trkpt lat="45.97955" lon="4.85223">
        <ele>276</ele>
        <time>2017-12-22T10:35:38Z</time>
      </trkpt>
      <trkpt lat="45.97961" lon="4.85222">
        <ele>276</ele>
        <time>2017-12-22T10:35:39Z</time>
      </trkpt>
      <trkpt lat="45.97966" lon="4.85222">
        <ele>276</ele>
        <time>2017-12-22T10:35:40Z</time>
      </trkpt>
      <trkpt lat="45.97971" lon="4.85221">
        <ele>276</ele>
        <time>2017-12-22T10:35:41Z</time>
      </trkpt>
      <trkpt lat="45.97975" lon="4.85221">
        <ele>276</ele>
        <time>2017-12-22T10:35:42Z</time>
      </trkpt>
      <trkpt lat="45.9798" lon="4.8522">
        <ele>276</ele>
        <time>2017-12-22T10:35:43Z</time>
      </trkpt>
      <trkpt lat="45.97984" lon="4.85219">
        <ele>276</ele>
        <time>2017-12-22T10:35:44Z</time>
      </trkpt>
      <trkpt lat="45.97989" lon="4.85218">
        <ele>276</ele>
        <time>2017-12-22T10:35:45Z</time>
      </trkpt>
      <trkpt lat="45.97995" lon="4.85218">
        <ele>276</ele>
        <time>2017-12-22T10:35:46Z</time>
      </trkpt>
      <trkpt lat="45.98" lon="4.85217">
        <ele>276</ele>
        <time>2017-12-22T10:35:47Z</time>
      </trkpt>
      <trkpt lat="45.98004" lon="4.85217">
        <ele>276</ele>
        <time>2017-12-22T10:35:48Z</time>
      </trkpt>
      <trkpt lat="45.98009" lon="4.85216">
        <ele>276</ele>
        <time>2017-12-22T10:35:49Z</time>
      </trkpt>
      <trkpt lat="45.98014" lon="4.85215">
        <ele>276</ele>
        <time>2017-12-22T10:35:50Z</time>
      </trkpt>
      <trkpt lat="45.98022" lon="4.85214">
        <ele>276</ele>
        <time>2017-12-22T10:35:52Z</time>
      </trkpt>
      <trkpt lat="45.98028" lon="4.85213">
        <ele>276</ele>
        <time>2017-12-22T10:35:53Z</time>
      </trkpt>
      <trkpt lat="45.98033" lon="4.85213">
        <ele>276</ele>
        <time>2017-12-22T10:35:54Z</time>
      </trkpt>
      <trkpt lat="45.98038" lon="4.85212">
        <ele>276</ele>
        <time>2017-12-22T10:35:55Z</time>
      </trkpt>
      <trkpt lat="45.98043" lon="4.85212">
        <ele>276</ele>
        <time>2017-12-22T10:35:56Z</time>
      </trkpt>
      <trkpt lat="45.98048" lon="4.85211">
        <ele>276</ele>
        <time>2017-12-22T10:35:57Z</time>
      </trkpt>
      <trkpt lat="45.98053" lon="4.8521">
        <ele>276</ele>
        <time>2017-12-22T10:35:58Z</time>
      </trkpt>
      <trkpt lat="45.98058" lon="4.8521">
        <ele>276</ele>
        <time>2017-12-22T10:35:59Z</time>
      </trkpt>
      <trkpt lat="45.98063" lon="4.85209">
        <ele>276</ele>
        <time>2017-12-22T10:36:00Z</time>
      </trkpt>
      <trkpt lat="45.98068" lon="4.85209">
        <ele>276</ele>
        <time>2017-12-22T10:36:01Z</time>
      </trkpt>
      <trkpt lat="45.98076" lon="4.85207">
        <ele>276</ele>
        <time>2017-12-22T10:36:03Z</time>
      </trkpt>
      <trkpt lat="45.98081" lon="4.85207">
        <ele>276</ele>
        <time>2017-12-22T10:36:04Z</time>
      </trkpt>
      <trkpt lat="45.98086" lon="4.85206">
        <ele>275</ele>
        <time>2017-12-22T10:36:05Z</time>
      </trkpt>
      <trkpt lat="45.98091" lon="4.85208">
        <ele>275</ele>
        <time>2017-12-22T10:36:06Z</time>
      </trkpt>
      <trkpt lat="45.98097" lon="4.85208">
        <ele>275</ele>
        <time>2017-12-22T10:36:07Z</time>
      </trkpt>
      <trkpt lat="45.98101" lon="4.85209">
        <ele>275</ele>
        <time>2017-12-22T10:36:08Z</time>
      </trkpt>
      <trkpt lat="45.98107" lon="4.85208">
        <ele>275</ele>
        <time>2017-12-22T10:36:09Z</time>
      </trkpt>
      <trkpt lat="45.98113" lon="4.85208">
        <ele>275</ele>
        <time>2017-12-22T10:36:10Z</time>
      </trkpt>
      <trkpt lat="45.98118" lon="4.85207">
        <ele>275</ele>
        <time>2017-12-22T10:36:11Z</time>
      </trkpt>
      <trkpt lat="45.98124" lon="4.85206">
        <ele>275</ele>
        <time>2017-12-22T10:36:12Z</time>
      </trkpt>
      <trkpt lat="45.9813" lon="4.85206">
        <ele>275</ele>
        <time>2017-12-22T10:36:13Z</time>
      </trkpt>
      <trkpt lat="45.98135" lon="4.85206">
        <ele>275</ele>
        <time>2017-12-22T10:36:14Z</time>
      </trkpt>
      <trkpt lat="45.9814" lon="4.85206">
        <ele>275</ele>
        <time>2017-12-22T10:36:15Z</time>
      </trkpt>
      <trkpt lat="45.98144" lon="4.85206">
        <ele>275</ele>
        <time>2017-12-22T10:36:16Z</time>
      </trkpt>
      <trkpt lat="45.9815" lon="4.85205">
        <ele>275</ele>
        <time>2017-12-22T10:36:17Z</time>
      </trkpt>
      <trkpt lat="45.98155" lon="4.85205">
        <ele>275</ele>
        <time>2017-12-22T10:36:18Z</time>
      </trkpt>
      <trkpt lat="45.98161" lon="4.85205">
        <ele>274</ele>
        <time>2017-12-22T10:36:19Z</time>
      </trkpt>
      <trkpt lat="45.98166" lon="4.85206">
        <ele>274</ele>
        <time>2017-12-22T10:36:20Z</time>
      </trkpt>
      <trkpt lat="45.98171" lon="4.85205">
        <ele>274</ele>
        <time>2017-12-22T10:36:21Z</time>
      </trkpt>
      <trkpt lat="45.98176" lon="4.85204">
        <ele>274</ele>
        <time>2017-12-22T10:36:22Z</time>
      </trkpt>
      <trkpt lat="45.98181" lon="4.85204">
        <ele>274</ele>
        <time>2017-12-22T10:36:23Z</time>
      </trkpt>
      <trkpt lat="45.98186" lon="4.85202">
        <ele>274</ele>
        <time>2017-12-22T10:36:24Z</time>
      </trkpt>
      <trkpt lat="45.9819" lon="4.85203">
        <ele>274</ele>
        <time>2017-12-22T10:36:25Z</time>
      </trkpt>
      <trkpt lat="45.98195" lon="4.85203">
        <ele>274</ele>
        <time>2017-12-22T10:36:26Z</time>
      </trkpt>
      <trkpt lat="45.982" lon="4.85202">
        <ele>274</ele>
        <time>2017-12-22T10:36:27Z</time>
      </trkpt>
      <trkpt lat="45.98206" lon="4.85201">
        <ele>274</ele>
        <time>2017-12-22T10:36:28Z</time>
      </trkpt>
      <trkpt lat="45.98211" lon="4.85201">
        <ele>274</ele>
        <time>2017-12-22T10:36:29Z</time>
      </trkpt>
      <trkpt lat="45.98217" lon="4.85201">
        <ele>274</ele>
        <time>2017-12-22T10:36:30Z</time>
      </trkpt>
      <trkpt lat="45.98223" lon="4.852">
        <ele>274</ele>
        <time>2017-12-22T10:36:31Z</time>
      </trkpt>
      <trkpt lat="45.98229" lon="4.85198">
        <ele>274</ele>
        <time>2017-12-22T10:36:32Z</time>
      </trkpt>
      <trkpt lat="45.98235" lon="4.85199">
        <ele>274</ele>
        <time>2017-12-22T10:36:33Z</time>
      </trkpt>
      <trkpt lat="45.98241" lon="4.85198">
        <ele>274</ele>
        <time>2017-12-22T10:36:34Z</time>
      </trkpt>
      <trkpt lat="45.98246" lon="4.85198">
        <ele>274</ele>
        <time>2017-12-22T10:36:35Z</time>
      </trkpt>
      <trkpt lat="45.98251" lon="4.85198">
        <ele>274</ele>
        <time>2017-12-22T10:36:36Z</time>
      </trkpt>
      <trkpt lat="45.98257" lon="4.85197">
        <ele>274</ele>
        <time>2017-12-22T10:36:37Z</time>
      </trkpt>
      <trkpt lat="45.98262" lon="4.85196">
        <ele>274</ele>
        <time>2017-12-22T10:36:38Z</time>
      </trkpt>
      <trkpt lat="45.98267" lon="4.85196">
        <ele>274</ele>
        <time>2017-12-22T10:36:39Z</time>
      </trkpt>
      <trkpt lat="45.98272" lon="4.85196">
        <ele>274</ele>
        <time>2017-12-22T10:36:40Z</time>
      </trkpt>
      <trkpt lat="45.98277" lon="4.85195">
        <ele>274</ele>
        <time>2017-12-22T10:36:41Z</time>
      </trkpt>
      <trkpt lat="45.98282" lon="4.85194">
        <ele>274</ele>
        <time>2017-12-22T10:36:42Z</time>
      </trkpt>
      <trkpt lat="45.98287" lon="4.85193">
        <ele>274</ele>
        <time>2017-12-22T10:36:43Z</time>
      </trkpt>
      <trkpt lat="45.98292" lon="4.85193">
        <ele>274</ele>
        <time>2017-12-22T10:36:44Z</time>
      </trkpt>
      <trkpt lat="45.98297" lon="4.85194">
        <ele>274</ele>
        <time>2017-12-22T10:36:45Z</time>
      </trkpt>
      <trkpt lat="45.98302" lon="4.85193">
        <ele>274</ele>
        <time>2017-12-22T10:36:46Z</time>
      </trkpt>
      <trkpt lat="45.98308" lon="4.85193">
        <ele>274</ele>
        <time>2017-12-22T10:36:47Z</time>
      </trkpt>
      <trkpt lat="45.98314" lon="4.85192">
        <ele>274</ele>
        <time>2017-12-22T10:36:48Z</time>
      </trkpt>
      <trkpt lat="45.98319" lon="4.85192">
        <ele>274</ele>
        <time>2017-12-22T10:36:49Z</time>
      </trkpt>
      <trkpt lat="45.98324" lon="4.85191">
        <ele>274</ele>
        <time>2017-12-22T10:36:50Z</time>
      </trkpt>
      <trkpt lat="45.98329" lon="4.85191">
        <ele>274</ele>
        <time>2017-12-22T10:36:51Z</time>
      </trkpt>
      <trkpt lat="45.98333" lon="4.85192">
        <ele>274</ele>
        <time>2017-12-22T10:36:52Z</time>
      </trkpt>
      <trkpt lat="45.98338" lon="4.85192">
        <ele>275</ele>
        <time>2017-12-22T10:36:53Z</time>
      </trkpt>
      <trkpt lat="45.98343" lon="4.85191">
        <ele>275</ele>
        <time>2017-12-22T10:36:54Z</time>
      </trkpt>
      <trkpt lat="45.98348" lon="4.85191">
        <ele>275</ele>
        <time>2017-12-22T10:36:55Z</time>
      </trkpt>
      <trkpt lat="45.98353" lon="4.8519">
        <ele>275</ele>
        <time>2017-12-22T10:36:56Z</time>
      </trkpt>
      <trkpt lat="45.98358" lon="4.85189">
        <ele>275</ele>
        <time>2017-12-22T10:36:57Z</time>
      </trkpt>
      <trkpt lat="45.98363" lon="4.85189">
        <ele>275</ele>
        <time>2017-12-22T10:36:58Z</time>
      </trkpt>
      <trkpt lat="45.98368" lon="4.85187">
        <ele>275</ele>
        <time>2017-12-22T10:36:59Z</time>
      </trkpt>
      <trkpt lat="45.98374" lon="4.85187">
        <ele>275</ele>
        <time>2017-12-22T10:37:00Z</time>
      </trkpt>
      <trkpt lat="45.9838" lon="4.85186">
        <ele>275</ele>
        <time>2017-12-22T10:37:01Z</time>
      </trkpt>
      <trkpt lat="45.98386" lon="4.85185">
        <ele>275</ele>
        <time>2017-12-22T10:37:02Z</time>
      </trkpt>
      <trkpt lat="45.98392" lon="4.85185">
        <ele>275</ele>
        <time>2017-12-22T10:37:03Z</time>
      </trkpt>
      <trkpt lat="45.98398" lon="4.85185">
        <ele>275</ele>
        <time>2017-12-22T10:37:04Z</time>
      </trkpt>
      <trkpt lat="45.98404" lon="4.85185">
        <ele>275</ele>
        <time>2017-12-22T10:37:05Z</time>
      </trkpt>
      <trkpt lat="45.9841" lon="4.85185">
        <ele>275</ele>
        <time>2017-12-22T10:37:06Z</time>
      </trkpt>
      <trkpt lat="45.98416" lon="4.85184">
        <ele>275</ele>
        <time>2017-12-22T10:37:07Z</time>
      </trkpt>
      <trkpt lat="45.98421" lon="4.85183">
        <ele>275</ele>
        <time>2017-12-22T10:37:08Z</time>
      </trkpt>
      <trkpt lat="45.98427" lon="4.85181">
        <ele>275</ele>
        <time>2017-12-22T10:37:09Z</time>
      </trkpt>
      <trkpt lat="45.98432" lon="4.8518">
        <ele>275</ele>
        <time>2017-12-22T10:37:10Z</time>
      </trkpt>
      <trkpt lat="45.98441" lon="4.85179">
        <ele>275</ele>
        <time>2017-12-22T10:37:12Z</time>
      </trkpt>
      <trkpt lat="45.98444" lon="4.85179">
        <ele>275</ele>
        <time>2017-12-22T10:37:13Z</time>
      </trkpt>
      <trkpt lat="45.98453" lon="4.85179">
        <ele>275</ele>
        <time>2017-12-22T10:37:15Z</time>
      </trkpt>
      <trkpt lat="45.98457" lon="4.85179">
        <ele>275</ele>
        <time>2017-12-22T10:37:16Z</time>
      </trkpt>
      <trkpt lat="45.98461" lon="4.85178">
        <ele>275</ele>
        <time>2017-12-22T10:37:17Z</time>
      </trkpt>
      <trkpt lat="45.98466" lon="4.85178">
        <ele>275</ele>
        <time>2017-12-22T10:37:18Z</time>
      </trkpt>
      <trkpt lat="45.9847" lon="4.85177">
        <ele>275</ele>
        <time>2017-12-22T10:37:19Z</time>
      </trkpt>
      <trkpt lat="45.98475" lon="4.85176">
        <ele>275</ele>
        <time>2017-12-22T10:37:20Z</time>
      </trkpt>
      <trkpt lat="45.9848" lon="4.85175">
        <ele>275</ele>
        <time>2017-12-22T10:37:21Z</time>
      </trkpt>
      <trkpt lat="45.98484" lon="4.85174">
        <ele>275</ele>
        <time>2017-12-22T10:37:22Z</time>
      </trkpt>
      <trkpt lat="45.98493" lon="4.85174">
        <ele>275</ele>
        <time>2017-12-22T10:37:24Z</time>
      </trkpt>
      <trkpt lat="45.98497" lon="4.85172">
        <ele>275</ele>
        <time>2017-12-22T10:37:25Z</time>
      </trkpt>
      <trkpt lat="45.98505" lon="4.85171">
        <ele>274</ele>
        <time>2017-12-22T10:37:27Z</time>
      </trkpt>
      <trkpt lat="45.98509" lon="4.85171">
        <ele>274</ele>
        <time>2017-12-22T10:37:28Z</time>
      </trkpt>
      <trkpt lat="45.98516" lon="4.85169">
        <ele>274</ele>
        <time>2017-12-22T10:37:30Z</time>
      </trkpt>
      <trkpt lat="45.9852" lon="4.85168">
        <ele>274</ele>
        <time>2017-12-22T10:37:31Z</time>
      </trkpt>
      <trkpt lat="45.98526" lon="4.85167">
        <ele>273</ele>
        <time>2017-12-22T10:37:32Z</time>
      </trkpt>
      <trkpt lat="45.98531" lon="4.85165">
        <ele>274</ele>
        <time>2017-12-22T10:37:33Z</time>
      </trkpt>
      <trkpt lat="45.98537" lon="4.85163">
        <ele>274</ele>
        <time>2017-12-22T10:37:34Z</time>
      </trkpt>
      <trkpt lat="45.98542" lon="4.85162">
        <ele>274</ele>
        <time>2017-12-22T10:37:35Z</time>
      </trkpt>
      <trkpt lat="45.98546" lon="4.85161">
        <ele>274</ele>
        <time>2017-12-22T10:37:36Z</time>
      </trkpt>
      <trkpt lat="45.98552" lon="4.85158">
        <ele>274</ele>
        <time>2017-12-22T10:37:37Z</time>
      </trkpt>
      <trkpt lat="45.98556" lon="4.85156">
        <ele>274</ele>
        <time>2017-12-22T10:37:38Z</time>
      </trkpt>
      <trkpt lat="45.98561" lon="4.85153">
        <ele>274</ele>
        <time>2017-12-22T10:37:39Z</time>
      </trkpt>
      <trkpt lat="45.98568" lon="4.85151">
        <ele>273</ele>
        <time>2017-12-22T10:37:40Z</time>
      </trkpt>
      <trkpt lat="45.98573" lon="4.85148">
        <ele>273</ele>
        <time>2017-12-22T10:37:41Z</time>
      </trkpt>
      <trkpt lat="45.98578" lon="4.85145">
        <ele>273</ele>
        <time>2017-12-22T10:37:42Z</time>
      </trkpt>
      <trkpt lat="45.98583" lon="4.85143">
        <ele>273</ele>
        <time>2017-12-22T10:37:43Z</time>
      </trkpt>
      <trkpt lat="45.98589" lon="4.8514">
        <ele>272</ele>
        <time>2017-12-22T10:37:44Z</time>
      </trkpt>
      <trkpt lat="45.98594" lon="4.85139">
        <ele>272</ele>
        <time>2017-12-22T10:37:45Z</time>
      </trkpt>
      <trkpt lat="45.986" lon="4.85137">
        <ele>272</ele>
        <time>2017-12-22T10:37:46Z</time>
      </trkpt>
      <trkpt lat="45.98605" lon="4.85134">
        <ele>272</ele>
        <time>2017-12-22T10:37:47Z</time>
      </trkpt>
      <trkpt lat="45.98609" lon="4.85132">
        <ele>272</ele>
        <time>2017-12-22T10:37:48Z</time>
      </trkpt>
      <trkpt lat="45.98614" lon="4.8513">
        <ele>272</ele>
        <time>2017-12-22T10:37:49Z</time>
      </trkpt>
      <trkpt lat="45.98619" lon="4.85127">
        <ele>272</ele>
        <time>2017-12-22T10:37:50Z</time>
      </trkpt>
      <trkpt lat="45.98625" lon="4.85125">
        <ele>272</ele>
        <time>2017-12-22T10:37:51Z</time>
      </trkpt>
      <trkpt lat="45.9863" lon="4.85122">
        <ele>272</ele>
        <time>2017-12-22T10:37:52Z</time>
      </trkpt>
      <trkpt lat="45.98635" lon="4.85119">
        <ele>272</ele>
        <time>2017-12-22T10:37:53Z</time>
      </trkpt>
      <trkpt lat="45.9864" lon="4.85118">
        <ele>272</ele>
        <time>2017-12-22T10:37:54Z</time>
      </trkpt>
      <trkpt lat="45.98645" lon="4.85115">
        <ele>272</ele>
        <time>2017-12-22T10:37:55Z</time>
      </trkpt>
      <trkpt lat="45.9865" lon="4.85113">
        <ele>271</ele>
        <time>2017-12-22T10:37:56Z</time>
      </trkpt>
      <trkpt lat="45.98656" lon="4.8511">
        <ele>271</ele>
        <time>2017-12-22T10:37:57Z</time>
      </trkpt>
      <trkpt lat="45.98663" lon="4.85107">
        <ele>271</ele>
        <time>2017-12-22T10:37:58Z</time>
      </trkpt>
      <trkpt lat="45.98668" lon="4.85104">
        <ele>270</ele>
        <time>2017-12-22T10:37:59Z</time>
      </trkpt>
      <trkpt lat="45.98675" lon="4.851">
        <ele>270</ele>
        <time>2017-12-22T10:38:00Z</time>
      </trkpt>
      <trkpt lat="45.9868" lon="4.85098">
        <ele>270</ele>
        <time>2017-12-22T10:38:01Z</time>
      </trkpt>
      <trkpt lat="45.98685" lon="4.85095">
        <ele>270</ele>
        <time>2017-12-22T10:38:02Z</time>
      </trkpt>
      <trkpt lat="45.98691" lon="4.85094">
        <ele>270</ele>
        <time>2017-12-22T10:38:03Z</time>
      </trkpt>
      <trkpt lat="45.98696" lon="4.85091">
        <ele>270</ele>
        <time>2017-12-22T10:38:04Z</time>
      </trkpt>
      <trkpt lat="45.98702" lon="4.85088">
        <ele>270</ele>
        <time>2017-12-22T10:38:05Z</time>
      </trkpt>
      <trkpt lat="45.98707" lon="4.85084">
        <ele>270</ele>
        <time>2017-12-22T10:38:06Z</time>
      </trkpt>
      <trkpt lat="45.98713" lon="4.85081">
        <ele>270</ele>
        <time>2017-12-22T10:38:07Z</time>
      </trkpt>
      <trkpt lat="45.98719" lon="4.85075">
        <ele>270</ele>
        <time>2017-12-22T10:38:08Z</time>
      </trkpt>
      <trkpt lat="45.98724" lon="4.85072">
        <ele>270</ele>
        <time>2017-12-22T10:38:09Z</time>
      </trkpt>
      <trkpt lat="45.98729" lon="4.8507">
        <ele>269</ele>
        <time>2017-12-22T10:38:10Z</time>
      </trkpt>
      <trkpt lat="45.98734" lon="4.85067">
        <ele>269</ele>
        <time>2017-12-22T10:38:11Z</time>
      </trkpt>
      <trkpt lat="45.9874" lon="4.85065">
        <ele>269</ele>
        <time>2017-12-22T10:38:12Z</time>
      </trkpt>
      <trkpt lat="45.98745" lon="4.85063">
        <ele>269</ele>
        <time>2017-12-22T10:38:13Z</time>
      </trkpt>
      <trkpt lat="45.98749" lon="4.8506">
        <ele>269</ele>
        <time>2017-12-22T10:38:14Z</time>
      </trkpt>
      <trkpt lat="45.98754" lon="4.85058">
        <ele>268</ele>
        <time>2017-12-22T10:38:15Z</time>
      </trkpt>
      <trkpt lat="45.98759" lon="4.85055">
        <ele>268</ele>
        <time>2017-12-22T10:38:16Z</time>
      </trkpt>
      <trkpt lat="45.98764" lon="4.85054">
        <ele>268</ele>
        <time>2017-12-22T10:38:17Z</time>
      </trkpt>
      <trkpt lat="45.98769" lon="4.85052">
        <ele>268</ele>
        <time>2017-12-22T10:38:18Z</time>
      </trkpt>
      <trkpt lat="45.98775" lon="4.85048">
        <ele>268</ele>
        <time>2017-12-22T10:38:19Z</time>
      </trkpt>
      <trkpt lat="45.9878" lon="4.85046">
        <ele>267</ele>
        <time>2017-12-22T10:38:20Z</time>
      </trkpt>
      <trkpt lat="45.98786" lon="4.85043">
        <ele>267</ele>
        <time>2017-12-22T10:38:21Z</time>
      </trkpt>
      <trkpt lat="45.98792" lon="4.8504">
        <ele>267</ele>
        <time>2017-12-22T10:38:22Z</time>
      </trkpt>
      <trkpt lat="45.98797" lon="4.85037">
        <ele>267</ele>
        <time>2017-12-22T10:38:23Z</time>
      </trkpt>
      <trkpt lat="45.98802" lon="4.85034">
        <ele>267</ele>
        <time>2017-12-22T10:38:24Z</time>
      </trkpt>
      <trkpt lat="45.98809" lon="4.8503">
        <ele>267</ele>
        <time>2017-12-22T10:38:25Z</time>
      </trkpt>
      <trkpt lat="45.98816" lon="4.85027">
        <ele>267</ele>
        <time>2017-12-22T10:38:26Z</time>
      </trkpt>
      <trkpt lat="45.98823" lon="4.85023">
        <ele>267</ele>
        <time>2017-12-22T10:38:27Z</time>
      </trkpt>
      <trkpt lat="45.9883" lon="4.8502">
        <ele>267</ele>
        <time>2017-12-22T10:38:28Z</time>
      </trkpt>
      <trkpt lat="45.98836" lon="4.85016">
        <ele>267</ele>
        <time>2017-12-22T10:38:29Z</time>
      </trkpt>
      <trkpt lat="45.98842" lon="4.85013">
        <ele>267</ele>
        <time>2017-12-22T10:38:30Z</time>
      </trkpt>
      <trkpt lat="45.98849" lon="4.85009">
        <ele>267</ele>
        <time>2017-12-22T10:38:31Z</time>
      </trkpt>
      <trkpt lat="45.98855" lon="4.85007">
        <ele>267</ele>
        <time>2017-12-22T10:38:32Z</time>
      </trkpt>
      <trkpt lat="45.98862" lon="4.85004">
        <ele>267</ele>
        <time>2017-12-22T10:38:33Z</time>
      </trkpt>
      <trkpt lat="45.98867" lon="4.85002">
        <ele>267</ele>
        <time>2017-12-22T10:38:34Z</time>
      </trkpt>
      <trkpt lat="45.98873" lon="4.84999">
        <ele>267</ele>
        <time>2017-12-22T10:38:35Z</time>
      </trkpt>
      <trkpt lat="45.9888" lon="4.84994">
        <ele>267</ele>
        <time>2017-12-22T10:38:36Z</time>
      </trkpt>
      <trkpt lat="45.98885" lon="4.84991">
        <ele>267</ele>
        <time>2017-12-22T10:38:37Z</time>
      </trkpt>
      <trkpt lat="45.9889" lon="4.84988">
        <ele>267</ele>
        <time>2017-12-22T10:38:38Z</time>
      </trkpt>
      <trkpt lat="45.98898" lon="4.84983">
        <ele>267</ele>
        <time>2017-12-22T10:38:39Z</time>
      </trkpt>
      <trkpt lat="45.98903" lon="4.84981">
        <ele>267</ele>
        <time>2017-12-22T10:38:40Z</time>
      </trkpt>
      <trkpt lat="45.9891" lon="4.84978">
        <ele>267</ele>
        <time>2017-12-22T10:38:41Z</time>
      </trkpt>
      <trkpt lat="45.98915" lon="4.84975">
        <ele>267</ele>
        <time>2017-12-22T10:38:42Z</time>
      </trkpt>
      <trkpt lat="45.9892" lon="4.84972">
        <ele>267</ele>
        <time>2017-12-22T10:38:43Z</time>
      </trkpt>
      <trkpt lat="45.98925" lon="4.84969">
        <ele>267</ele>
        <time>2017-12-22T10:38:44Z</time>
      </trkpt>
      <trkpt lat="45.9893" lon="4.84966">
        <ele>266</ele>
        <time>2017-12-22T10:38:45Z</time>
      </trkpt>
      <trkpt lat="45.98935" lon="4.84963">
        <ele>266</ele>
        <time>2017-12-22T10:38:46Z</time>
      </trkpt>
      <trkpt lat="45.98941" lon="4.8496">
        <ele>266</ele>
        <time>2017-12-22T10:38:47Z</time>
      </trkpt>
      <trkpt lat="45.98947" lon="4.84957">
        <ele>266</ele>
        <time>2017-12-22T10:38:48Z</time>
      </trkpt>
      <trkpt lat="45.98952" lon="4.84954">
        <ele>266</ele>
        <time>2017-12-22T10:38:49Z</time>
      </trkpt>
      <trkpt lat="45.98958" lon="4.84953">
        <ele>266</ele>
        <time>2017-12-22T10:38:50Z</time>
      </trkpt>
      <trkpt lat="45.98964" lon="4.84951">
        <ele>266</ele>
        <time>2017-12-22T10:38:51Z</time>
      </trkpt>
      <trkpt lat="45.9897" lon="4.84948">
        <ele>266</ele>
        <time>2017-12-22T10:38:52Z</time>
      </trkpt>
      <trkpt lat="45.98978" lon="4.84942">
        <ele>266</ele>
        <time>2017-12-22T10:38:53Z</time>
      </trkpt>
      <trkpt lat="45.98984" lon="4.84939">
        <ele>266</ele>
        <time>2017-12-22T10:38:54Z</time>
      </trkpt>
      <trkpt lat="45.98991" lon="4.84935">
        <ele>266</ele>
        <time>2017-12-22T10:38:55Z</time>
      </trkpt>
      <trkpt lat="45.98997" lon="4.84933">
        <ele>266</ele>
        <time>2017-12-22T10:38:56Z</time>
      </trkpt>
      <trkpt lat="45.99003" lon="4.8493">
        <ele>265</ele>
        <time>2017-12-22T10:38:57Z</time>
      </trkpt>
      <trkpt lat="45.99009" lon="4.84926">
        <ele>265</ele>
        <time>2017-12-22T10:38:58Z</time>
      </trkpt>
      <trkpt lat="45.99015" lon="4.84923">
        <ele>265</ele>
        <time>2017-12-22T10:38:59Z</time>
      </trkpt>
      <trkpt lat="45.99021" lon="4.8492">
        <ele>265</ele>
        <time>2017-12-22T10:39:00Z</time>
      </trkpt>
      <trkpt lat="45.99027" lon="4.84916">
        <ele>264</ele>
        <time>2017-12-22T10:39:01Z</time>
      </trkpt>
      <trkpt lat="45.99033" lon="4.84912">
        <ele>264</ele>
        <time>2017-12-22T10:39:02Z</time>
      </trkpt>
      <trkpt lat="45.99038" lon="4.84909">
        <ele>264</ele>
        <time>2017-12-22T10:39:03Z</time>
      </trkpt>
      <trkpt lat="45.99046" lon="4.84906">
        <ele>264</ele>
        <time>2017-12-22T10:39:04Z</time>
      </trkpt>
      <trkpt lat="45.99051" lon="4.84902">
        <ele>264</ele>
        <time>2017-12-22T10:39:05Z</time>
      </trkpt>
      <trkpt lat="45.99057" lon="4.849">
        <ele>263</ele>
        <time>2017-12-22T10:39:06Z</time>
      </trkpt>
      <trkpt lat="45.99062" lon="4.84897">
        <ele>263</ele>
        <time>2017-12-22T10:39:07Z</time>
      </trkpt>
      <trkpt lat="45.99068" lon="4.84894">
        <ele>263</ele>
        <time>2017-12-22T10:39:08Z</time>
      </trkpt>
      <trkpt lat="45.99073" lon="4.84891">
        <ele>263</ele>
        <time>2017-12-22T10:39:09Z</time>
      </trkpt>
      <trkpt lat="45.99079" lon="4.84888">
        <ele>263</ele>
        <time>2017-12-22T10:39:10Z</time>
      </trkpt>
      <trkpt lat="45.99085" lon="4.84884">
        <ele>261</ele>
        <time>2017-12-22T10:39:11Z</time>
      </trkpt>
      <trkpt lat="45.99091" lon="4.84881">
        <ele>261</ele>
        <time>2017-12-22T10:39:12Z</time>
      </trkpt>
      <trkpt lat="45.99099" lon="4.84877">
        <ele>261</ele>
        <time>2017-12-22T10:39:13Z</time>
      </trkpt>
      <trkpt lat="45.99105" lon="4.84875">
        <ele>261</ele>
        <time>2017-12-22T10:39:14Z</time>
      </trkpt>
      <trkpt lat="45.99112" lon="4.84871">
        <ele>260</ele>
        <time>2017-12-22T10:39:15Z</time>
      </trkpt>
      <trkpt lat="45.9912" lon="4.84867">
        <ele>260</ele>
        <time>2017-12-22T10:39:16Z</time>
      </trkpt>
      <trkpt lat="45.99128" lon="4.84864">
        <ele>260</ele>
        <time>2017-12-22T10:39:17Z</time>
      </trkpt>
      <trkpt lat="45.99137" lon="4.84859">
        <ele>260</ele>
        <time>2017-12-22T10:39:18Z</time>
      </trkpt>
      <trkpt lat="45.99144" lon="4.84855">
        <ele>260</ele>
        <time>2017-12-22T10:39:19Z</time>
      </trkpt>
      <trkpt lat="45.99151" lon="4.8485">
        <ele>260</ele>
        <time>2017-12-22T10:39:20Z</time>
      </trkpt>
      <trkpt lat="45.99158" lon="4.84847">
        <ele>259</ele>
        <time>2017-12-22T10:39:21Z</time>
      </trkpt>
      <trkpt lat="45.99165" lon="4.84843">
        <ele>259</ele>
        <time>2017-12-22T10:39:22Z</time>
      </trkpt>
      <trkpt lat="45.99173" lon="4.8484">
        <ele>258</ele>
        <time>2017-12-22T10:39:23Z</time>
      </trkpt>
      <trkpt lat="45.9918" lon="4.84837">
        <ele>258</ele>
        <time>2017-12-22T10:39:24Z</time>
      </trkpt>
      <trkpt lat="45.99188" lon="4.84833">
        <ele>258</ele>
        <time>2017-12-22T10:39:25Z</time>
      </trkpt>
      <trkpt lat="45.99195" lon="4.84828">
        <ele>258</ele>
        <time>2017-12-22T10:39:26Z</time>
      </trkpt>
      <trkpt lat="45.99203" lon="4.84824">
        <ele>257</ele>
        <time>2017-12-22T10:39:27Z</time>
      </trkpt>
      <trkpt lat="45.99211" lon="4.84819">
        <ele>257</ele>
        <time>2017-12-22T10:39:28Z</time>
      </trkpt>
      <trkpt lat="45.99219" lon="4.84814">
        <ele>257</ele>
        <time>2017-12-22T10:39:29Z</time>
      </trkpt>
      <trkpt lat="45.99229" lon="4.84809">
        <ele>257</ele>
        <time>2017-12-22T10:39:30Z</time>
      </trkpt>
      <trkpt lat="45.99238" lon="4.84804">
        <ele>256</ele>
        <time>2017-12-22T10:39:31Z</time>
      </trkpt>
      <trkpt lat="45.99246" lon="4.848">
        <ele>256</ele>
        <time>2017-12-22T10:39:32Z</time>
      </trkpt>
      <trkpt lat="45.99256" lon="4.84795">
        <ele>254</ele>
        <time>2017-12-22T10:39:33Z</time>
      </trkpt>
      <trkpt lat="45.99267" lon="4.84789">
        <ele>253</ele>
        <time>2017-12-22T10:39:34Z</time>
      </trkpt>
      <trkpt lat="45.99275" lon="4.84784">
        <ele>253</ele>
        <time>2017-12-22T10:39:35Z</time>
      </trkpt>
      <trkpt lat="45.99285" lon="4.84779">
        <ele>253</ele>
        <time>2017-12-22T10:39:36Z</time>
      </trkpt>
      <trkpt lat="45.99295" lon="4.84775">
        <ele>253</ele>
        <time>2017-12-22T10:39:37Z</time>
      </trkpt>
      <trkpt lat="45.99304" lon="4.8477">
        <ele>253</ele>
        <time>2017-12-22T10:39:38Z</time>
      </trkpt>
      <trkpt lat="45.99313" lon="4.84765">
        <ele>252</ele>
        <time>2017-12-22T10:39:39Z</time>
      </trkpt>
      <trkpt lat="45.99322" lon="4.8476">
        <ele>252</ele>
        <time>2017-12-22T10:39:40Z</time>
      </trkpt>
      <trkpt lat="45.99331" lon="4.84755">
        <ele>251</ele>
        <time>2017-12-22T10:39:41Z</time>
      </trkpt>
      <trkpt lat="45.9934" lon="4.8475">
        <ele>251</ele>
        <time>2017-12-22T10:39:42Z</time>
      </trkpt>
      <trkpt lat="45.99349" lon="4.84746">
        <ele>250</ele>
        <time>2017-12-22T10:39:43Z</time>
      </trkpt>
      <trkpt lat="45.99357" lon="4.84741">
        <ele>250</ele>
        <time>2017-12-22T10:39:44Z</time>
      </trkpt>
      <trkpt lat="45.99366" lon="4.84736">
        <ele>250</ele>
        <time>2017-12-22T10:39:45Z</time>
      </trkpt>
      <trkpt lat="45.99374" lon="4.84732">
        <ele>250</ele>
        <time>2017-12-22T10:39:46Z</time>
      </trkpt>
      <trkpt lat="45.99382" lon="4.84728">
        <ele>250</ele>
        <time>2017-12-22T10:39:47Z</time>
      </trkpt>
      <trkpt lat="45.9939" lon="4.84724">
        <ele>249</ele>
        <time>2017-12-22T10:39:48Z</time>
      </trkpt>
      <trkpt lat="45.99397" lon="4.84719">
        <ele>249</ele>
        <time>2017-12-22T10:39:49Z</time>
      </trkpt>
      <trkpt lat="45.99404" lon="4.84715">
        <ele>249</ele>
        <time>2017-12-22T10:39:50Z</time>
      </trkpt>
      <trkpt lat="45.99411" lon="4.84712">
        <ele>249</ele>
        <time>2017-12-22T10:39:51Z</time>
      </trkpt>
      <trkpt lat="45.99418" lon="4.84707">
        <ele>249</ele>
        <time>2017-12-22T10:39:52Z</time>
      </trkpt>
      <trkpt lat="45.99425" lon="4.84703">
        <ele>249</ele>
        <time>2017-12-22T10:39:53Z</time>
      </trkpt>
      <trkpt lat="45.99433" lon="4.84699">
        <ele>249</ele>
        <time>2017-12-22T10:39:54Z</time>
      </trkpt>
      <trkpt lat="45.9944" lon="4.84695">
        <ele>249</ele>
        <time>2017-12-22T10:39:55Z</time>
      </trkpt>
      <trkpt lat="45.99447" lon="4.84692">
        <ele>249</ele>
        <time>2017-12-22T10:39:56Z</time>
      </trkpt>
      <trkpt lat="45.99454" lon="4.84688">
        <ele>250</ele>
        <time>2017-12-22T10:39:57Z</time>
      </trkpt>
      <trkpt lat="45.99461" lon="4.84685">
        <ele>250</ele>
        <time>2017-12-22T10:39:58Z</time>
      </trkpt>
      <trkpt lat="45.99466" lon="4.84683">
        <ele>250</ele>
        <time>2017-12-22T10:39:59Z</time>
      </trkpt>
      <trkpt lat="45.99471" lon="4.84683">
        <ele>250</ele>
        <time>2017-12-22T10:40:00Z</time>
      </trkpt>
      <trkpt lat="45.99476" lon="4.84682">
        <ele>250</ele>
        <time>2017-12-22T10:40:01Z</time>
      </trkpt>
      <trkpt lat="45.99481" lon="4.84682">
        <ele>250</ele>
        <time>2017-12-22T10:40:02Z</time>
      </trkpt>
      <trkpt lat="45.99487" lon="4.8468">
        <ele>250</ele>
        <time>2017-12-22T10:40:03Z</time>
      </trkpt>
      <trkpt lat="45.99492" lon="4.84678">
        <ele>250</ele>
        <time>2017-12-22T10:40:04Z</time>
      </trkpt>
      <trkpt lat="45.99498" lon="4.84677">
        <ele>251</ele>
        <time>2017-12-22T10:40:05Z</time>
      </trkpt>
      <trkpt lat="45.99503" lon="4.84676">
        <ele>251</ele>
        <time>2017-12-22T10:40:06Z</time>
      </trkpt>
      <trkpt lat="45.9951" lon="4.84675">
        <ele>251</ele>
        <time>2017-12-22T10:40:07Z</time>
      </trkpt>
      <trkpt lat="45.99515" lon="4.84674">
        <ele>251</ele>
        <time>2017-12-22T10:40:08Z</time>
      </trkpt>
      <trkpt lat="45.99523" lon="4.84672">
        <ele>251</ele>
        <time>2017-12-22T10:40:09Z</time>
      </trkpt>
      <trkpt lat="45.99529" lon="4.8467">
        <ele>251</ele>
        <time>2017-12-22T10:40:10Z</time>
      </trkpt>
      <trkpt lat="45.99534" lon="4.84668">
        <ele>251</ele>
        <time>2017-12-22T10:40:11Z</time>
      </trkpt>
      <trkpt lat="45.9954" lon="4.84668">
        <ele>251</ele>
        <time>2017-12-22T10:40:12Z</time>
      </trkpt>
      <trkpt lat="45.99545" lon="4.84665">
        <ele>250</ele>
        <time>2017-12-22T10:40:13Z</time>
      </trkpt>
      <trkpt lat="45.99551" lon="4.84664">
        <ele>250</ele>
        <time>2017-12-22T10:40:14Z</time>
      </trkpt>
      <trkpt lat="45.99559" lon="4.84661">
        <ele>250</ele>
        <time>2017-12-22T10:40:15Z</time>
      </trkpt>
      <trkpt lat="45.99565" lon="4.84659">
        <ele>250</ele>
        <time>2017-12-22T10:40:16Z</time>
      </trkpt>
      <trkpt lat="45.99572" lon="4.84659">
        <ele>250</ele>
        <time>2017-12-22T10:40:17Z</time>
      </trkpt>
      <trkpt lat="45.99578" lon="4.84658">
        <ele>250</ele>
        <time>2017-12-22T10:40:18Z</time>
      </trkpt>
      <trkpt lat="45.99585" lon="4.84657">
        <ele>250</ele>
        <time>2017-12-22T10:40:19Z</time>
      </trkpt>
      <trkpt lat="45.99591" lon="4.84653">
        <ele>250</ele>
        <time>2017-12-22T10:40:20Z</time>
      </trkpt>
      <trkpt lat="45.99596" lon="4.84652">
        <ele>250</ele>
        <time>2017-12-22T10:40:21Z</time>
      </trkpt>
      <trkpt lat="45.99603" lon="4.84651">
        <ele>250</ele>
        <time>2017-12-22T10:40:22Z</time>
      </trkpt>
      <trkpt lat="45.9961" lon="4.84649">
        <ele>250</ele>
        <time>2017-12-22T10:40:23Z</time>
      </trkpt>
      <trkpt lat="45.99616" lon="4.84647">
        <ele>250</ele>
        <time>2017-12-22T10:40:24Z</time>
      </trkpt>
      <trkpt lat="45.99621" lon="4.84646">
        <ele>250</ele>
        <time>2017-12-22T10:40:25Z</time>
      </trkpt>
      <trkpt lat="45.99627" lon="4.84644">
        <ele>250</ele>
        <time>2017-12-22T10:40:26Z</time>
      </trkpt>
      <trkpt lat="45.99633" lon="4.84643">
        <ele>250</ele>
        <time>2017-12-22T10:40:27Z</time>
      </trkpt>
      <trkpt lat="45.99639" lon="4.84643">
        <ele>250</ele>
        <time>2017-12-22T10:40:28Z</time>
      </trkpt>
      <trkpt lat="45.99645" lon="4.84642">
        <ele>250</ele>
        <time>2017-12-22T10:40:29Z</time>
      </trkpt>
      <trkpt lat="45.99651" lon="4.84641">
        <ele>250</ele>
        <time>2017-12-22T10:40:30Z</time>
      </trkpt>
      <trkpt lat="45.99656" lon="4.8464">
        <ele>250</ele>
        <time>2017-12-22T10:40:31Z</time>
      </trkpt>
      <trkpt lat="45.99663" lon="4.84639">
        <ele>250</ele>
        <time>2017-12-22T10:40:32Z</time>
      </trkpt>
      <trkpt lat="45.99668" lon="4.84639">
        <ele>251</ele>
        <time>2017-12-22T10:40:33Z</time>
      </trkpt>
      <trkpt lat="45.99674" lon="4.84637">
        <ele>252</ele>
        <time>2017-12-22T10:40:34Z</time>
      </trkpt>
      <trkpt lat="45.99679" lon="4.84636">
        <ele>252</ele>
        <time>2017-12-22T10:40:35Z</time>
      </trkpt>
      <trkpt lat="45.99685" lon="4.84635">
        <ele>252</ele>
        <time>2017-12-22T10:40:36Z</time>
      </trkpt>
      <trkpt lat="45.9969" lon="4.84635">
        <ele>252</ele>
        <time>2017-12-22T10:40:37Z</time>
      </trkpt>
      <trkpt lat="45.99695" lon="4.84635">
        <ele>252</ele>
        <time>2017-12-22T10:40:38Z</time>
      </trkpt>
      <trkpt lat="45.99701" lon="4.84634">
        <ele>252</ele>
        <time>2017-12-22T10:40:39Z</time>
      </trkpt>
      <trkpt lat="45.99708" lon="4.84632">
        <ele>252</ele>
        <time>2017-12-22T10:40:40Z</time>
      </trkpt>
      <trkpt lat="45.99713" lon="4.84631">
        <ele>252</ele>
        <time>2017-12-22T10:40:41Z</time>
      </trkpt>
      <trkpt lat="45.99718" lon="4.84629">
        <ele>252</ele>
        <time>2017-12-22T10:40:42Z</time>
      </trkpt>
      <trkpt lat="45.99723" lon="4.84628">
        <ele>252</ele>
        <time>2017-12-22T10:40:43Z</time>
      </trkpt>
      <trkpt lat="45.99728" lon="4.84627">
        <ele>252</ele>
        <time>2017-12-22T10:40:44Z</time>
      </trkpt>
      <trkpt lat="45.99733" lon="4.84627">
        <ele>252</ele>
        <time>2017-12-22T10:40:45Z</time>
      </trkpt>
      <trkpt lat="45.99738" lon="4.84627">
        <ele>252</ele>
        <time>2017-12-22T10:40:46Z</time>
      </trkpt>
      <trkpt lat="45.99743" lon="4.84626">
        <ele>253</ele>
        <time>2017-12-22T10:40:47Z</time>
      </trkpt>
      <trkpt lat="45.99748" lon="4.84625">
        <ele>253</ele>
        <time>2017-12-22T10:40:48Z</time>
      </trkpt>
      <trkpt lat="45.99753" lon="4.84625">
        <ele>254</ele>
        <time>2017-12-22T10:40:49Z</time>
      </trkpt>
      <trkpt lat="45.99758" lon="4.84625">
        <ele>254</ele>
        <time>2017-12-22T10:40:50Z</time>
      </trkpt>
      <trkpt lat="45.99763" lon="4.84623">
        <ele>254</ele>
        <time>2017-12-22T10:40:51Z</time>
      </trkpt>
      <trkpt lat="45.99769" lon="4.84623">
        <ele>254</ele>
        <time>2017-12-22T10:40:52Z</time>
      </trkpt>
      <trkpt lat="45.99777" lon="4.84624">
        <ele>254</ele>
        <time>2017-12-22T10:40:54Z</time>
      </trkpt>
      <trkpt lat="45.99782" lon="4.84625">
        <ele>254</ele>
        <time>2017-12-22T10:40:55Z</time>
      </trkpt>
      <trkpt lat="45.99789" lon="4.84627">
        <ele>254</ele>
        <time>2017-12-22T10:40:57Z</time>
      </trkpt>
      <trkpt lat="45.99794" lon="4.84628">
        <ele>254</ele>
        <time>2017-12-22T10:40:58Z</time>
      </trkpt>
      <trkpt lat="45.99798" lon="4.8463">
        <ele>254</ele>
        <time>2017-12-22T10:40:59Z</time>
      </trkpt>
      <trkpt lat="45.99803" lon="4.8463">
        <ele>254</ele>
        <time>2017-12-22T10:41:00Z</time>
      </trkpt>
      <trkpt lat="45.99811" lon="4.8463">
        <ele>254</ele>
        <time>2017-12-22T10:41:02Z</time>
      </trkpt>
      <trkpt lat="45.99816" lon="4.84632">
        <ele>254</ele>
        <time>2017-12-22T10:41:03Z</time>
      </trkpt>
      <trkpt lat="45.99823" lon="4.84635">
        <ele>254</ele>
        <time>2017-12-22T10:41:05Z</time>
      </trkpt>
      <trkpt lat="45.99826" lon="4.84636">
        <ele>254</ele>
        <time>2017-12-22T10:41:06Z</time>
      </trkpt>
      <trkpt lat="45.99835" lon="4.84638">
        <ele>254</ele>
        <time>2017-12-22T10:41:08Z</time>
      </trkpt>
      <trkpt lat="45.99839" lon="4.8464">
        <ele>254</ele>
        <time>2017-12-22T10:41:09Z</time>
      </trkpt>
      <trkpt lat="45.99847" lon="4.84643">
        <ele>254</ele>
        <time>2017-12-22T10:41:11Z</time>
      </trkpt>
      <trkpt lat="45.99851" lon="4.84644">
        <ele>254</ele>
        <time>2017-12-22T10:41:12Z</time>
      </trkpt>
      <trkpt lat="45.99858" lon="4.84645">
        <ele>254</ele>
        <time>2017-12-22T10:41:14Z</time>
      </trkpt>
      <trkpt lat="45.99862" lon="4.84646">
        <ele>254</ele>
        <time>2017-12-22T10:41:15Z</time>
      </trkpt>
      <trkpt lat="45.99869" lon="4.84648">
        <ele>254</ele>
        <time>2017-12-22T10:41:17Z</time>
      </trkpt>
      <trkpt lat="45.99873" lon="4.8465">
        <ele>254</ele>
        <time>2017-12-22T10:41:18Z</time>
      </trkpt>
      <trkpt lat="45.99877" lon="4.84653">
        <ele>254</ele>
        <time>2017-12-22T10:41:19Z</time>
      </trkpt>
      <trkpt lat="45.99882" lon="4.84655">
        <ele>254</ele>
        <time>2017-12-22T10:41:20Z</time>
      </trkpt>
      <trkpt lat="45.99887" lon="4.84657">
        <ele>254</ele>
        <time>2017-12-22T10:41:21Z</time>
      </trkpt>
      <trkpt lat="45.99893" lon="4.84657">
        <ele>254</ele>
        <time>2017-12-22T10:41:22Z</time>
      </trkpt>
      <trkpt lat="45.99901" lon="4.84661">
        <ele>254</ele>
        <time>2017-12-22T10:41:24Z</time>
      </trkpt>
      <trkpt lat="45.99905" lon="4.84662">
        <ele>254</ele>
        <time>2017-12-22T10:41:25Z</time>
      </trkpt>
      <trkpt lat="45.99913" lon="4.84664">
        <ele>254</ele>
        <time>2017-12-22T10:41:27Z</time>
      </trkpt>
      <trkpt lat="45.99917" lon="4.84666">
        <ele>254</ele>
        <time>2017-12-22T10:41:28Z</time>
      </trkpt>
      <trkpt lat="45.99925" lon="4.84668">
        <ele>255</ele>
        <time>2017-12-22T10:41:30Z</time>
      </trkpt>
      <trkpt lat="45.9993" lon="4.84669">
        <ele>255</ele>
        <time>2017-12-22T10:41:31Z</time>
      </trkpt>
      <trkpt lat="45.99938" lon="4.8467">
        <ele>255</ele>
        <time>2017-12-22T10:41:33Z</time>
      </trkpt>
      <trkpt lat="45.99942" lon="4.84671">
        <ele>255</ele>
        <time>2017-12-22T10:41:34Z</time>
      </trkpt>
      <trkpt lat="45.99947" lon="4.84674">
        <ele>255</ele>
        <time>2017-12-22T10:41:35Z</time>
      </trkpt>
      <trkpt lat="45.99952" lon="4.84674">
        <ele>255</ele>
        <time>2017-12-22T10:41:36Z</time>
      </trkpt>
      <trkpt lat="45.9996" lon="4.84677">
        <ele>255</ele>
        <time>2017-12-22T10:41:38Z</time>
      </trkpt>
      <trkpt lat="45.99964" lon="4.84679">
        <ele>255</ele>
        <time>2017-12-22T10:41:39Z</time>
      </trkpt>
      <trkpt lat="45.99969" lon="4.8468">
        <ele>255</ele>
        <time>2017-12-22T10:41:40Z</time>
      </trkpt>
      <trkpt lat="45.99974" lon="4.84681">
        <ele>255</ele>
        <time>2017-12-22T10:41:41Z</time>
      </trkpt>
      <trkpt lat="45.99981" lon="4.84684">
        <ele>255</ele>
        <time>2017-12-22T10:41:43Z</time>
      </trkpt>
      <trkpt lat="45.99985" lon="4.84684">
        <ele>255</ele>
        <time>2017-12-22T10:41:44Z</time>
      </trkpt>
      <trkpt lat="45.99991" lon="4.84687">
        <ele>255</ele>
        <time>2017-12-22T10:41:45Z</time>
      </trkpt>
      <trkpt lat="45.99995" lon="4.84688">
        <ele>255</ele>
        <time>2017-12-22T10:41:46Z</time>
      </trkpt>
      <trkpt lat="46" lon="4.84689">
        <ele>256</ele>
        <time>2017-12-22T10:41:47Z</time>
      </trkpt>
      <trkpt lat="46.00004" lon="4.8469">
        <ele>256</ele>
        <time>2017-12-22T10:41:48Z</time>
      </trkpt>
      <trkpt lat="46.00012" lon="4.8469">
        <ele>256</ele>
        <time>2017-12-22T10:41:50Z</time>
      </trkpt>
      <trkpt lat="46.00015" lon="4.8469">
        <ele>256</ele>
        <time>2017-12-22T10:41:51Z</time>
      </trkpt>
      <trkpt lat="46.00023" lon="4.84691">
        <ele>256</ele>
        <time>2017-12-22T10:41:53Z</time>
      </trkpt>
      <trkpt lat="46.00026" lon="4.84693">
        <ele>256</ele>
        <time>2017-12-22T10:41:54Z</time>
      </trkpt>
      <trkpt lat="46.00034" lon="4.84694">
        <ele>256</ele>
        <time>2017-12-22T10:41:56Z</time>
      </trkpt>
      <trkpt lat="46.00038" lon="4.84694">
        <ele>256</ele>
        <time>2017-12-22T10:41:57Z</time>
      </trkpt>
      <trkpt lat="46.00047" lon="4.84695">
        <ele>256</ele>
        <time>2017-12-22T10:41:59Z</time>
      </trkpt>
      <trkpt lat="46.00051" lon="4.84695">
        <ele>256</ele>
        <time>2017-12-22T10:42:00Z</time>
      </trkpt>
      <trkpt lat="46.00058" lon="4.84697">
        <ele>256</ele>
        <time>2017-12-22T10:42:02Z</time>
      </trkpt>
      <trkpt lat="46.00061" lon="4.84697">
        <ele>256</ele>
        <time>2017-12-22T10:42:03Z</time>
      </trkpt>
      <trkpt lat="46.00068" lon="4.84698">
        <ele>256</ele>
        <time>2017-12-22T10:42:06Z</time>
      </trkpt>
      <trkpt lat="46.0007" lon="4.84698">
        <ele>256</ele>
        <time>2017-12-22T10:42:07Z</time>
      </trkpt>
      <trkpt lat="46.00078" lon="4.84701">
        <ele>257</ele>
        <time>2017-12-22T10:42:11Z</time>
      </trkpt>
      <trkpt lat="46.0008" lon="4.84699">
        <ele>257</ele>
        <time>2017-12-22T10:42:12Z</time>
      </trkpt>
      <trkpt lat="46.00083" lon="4.84692">
        <ele>256</ele>
        <time>2017-12-22T10:42:14Z</time>
      </trkpt>
      <trkpt lat="46.00083" lon="4.84687">
        <ele>256</ele>
        <time>2017-12-22T10:42:15Z</time>
      </trkpt>
      <trkpt lat="46.00083" lon="4.84675">
        <ele>256</ele>
        <time>2017-12-22T10:42:17Z</time>
      </trkpt>
      <trkpt lat="46.00084" lon="4.84669">
        <ele>256</ele>
        <time>2017-12-22T10:42:18Z</time>
      </trkpt>
      <trkpt lat="46.00083" lon="4.84663">
        <ele>256</ele>
        <time>2017-12-22T10:42:19Z</time>
      </trkpt>
      <trkpt lat="46.00083" lon="4.84656">
        <ele>256</ele>
        <time>2017-12-22T10:42:20Z</time>
      </trkpt>
      <trkpt lat="46.00083" lon="4.84649">
        <ele>256</ele>
        <time>2017-12-22T10:42:21Z</time>
      </trkpt>
      <trkpt lat="46.00084" lon="4.84642">
        <ele>257</ele>
        <time>2017-12-22T10:42:22Z</time>
      </trkpt>
      <trkpt lat="46.00083" lon="4.84636">
        <ele>256</ele>
        <time>2017-12-22T10:42:23Z</time>
      </trkpt>
      <trkpt lat="46.00085" lon="4.84628">
        <ele>257</ele>
        <time>2017-12-22T10:42:24Z</time>
      </trkpt>
      <trkpt lat="46.00084" lon="4.84615">
        <ele>257</ele>
        <time>2017-12-22T10:42:26Z</time>
      </trkpt>
      <trkpt lat="46.00083" lon="4.84609">
        <ele>257</ele>
        <time>2017-12-22T10:42:27Z</time>
      </trkpt>
      <trkpt lat="46.00083" lon="4.84599">
        <ele>256</ele>
        <time>2017-12-22T10:42:29Z</time>
      </trkpt>
      <trkpt lat="46.00081" lon="4.84594">
        <ele>257</ele>
        <time>2017-12-22T10:42:30Z</time>
      </trkpt>
      <trkpt lat="46.00081" lon="4.84583">
        <ele>257</ele>
        <time>2017-12-22T10:42:32Z</time>
      </trkpt>
      <trkpt lat="46.0008" lon="4.84577">
        <ele>257</ele>
        <time>2017-12-22T10:42:33Z</time>
      </trkpt>
      <trkpt lat="46.00078" lon="4.84565">
        <ele>257</ele>
        <time>2017-12-22T10:42:35Z</time>
      </trkpt>
      <trkpt lat="46.00077" lon="4.8456">
        <ele>257</ele>
        <time>2017-12-22T10:42:36Z</time>
      </trkpt>
      <trkpt lat="46.00076" lon="4.84549">
        <ele>257</ele>
        <time>2017-12-22T10:42:38Z</time>
      </trkpt>
      <trkpt lat="46.00077" lon="4.84544">
        <ele>257</ele>
        <time>2017-12-22T10:42:39Z</time>
      </trkpt>
      <trkpt lat="46.00079" lon="4.84534">
        <ele>257</ele>
        <time>2017-12-22T10:42:41Z</time>
      </trkpt>
      <trkpt lat="46.00081" lon="4.8453">
        <ele>257</ele>
        <time>2017-12-22T10:42:42Z</time>
      </trkpt>
      <trkpt lat="46.00083" lon="4.84519">
        <ele>259</ele>
        <time>2017-12-22T10:42:44Z</time>
      </trkpt>
      <trkpt lat="46.00085" lon="4.84513">
        <ele>259</ele>
        <time>2017-12-22T10:42:45Z</time>
      </trkpt>
      <trkpt lat="46.00089" lon="4.84502">
        <ele>259</ele>
        <time>2017-12-22T10:42:47Z</time>
      </trkpt>
      <trkpt lat="46.0009" lon="4.84497">
        <ele>259</ele>
        <time>2017-12-22T10:42:48Z</time>
      </trkpt>
      <trkpt lat="46.00092" lon="4.84488">
        <ele>259</ele>
        <time>2017-12-22T10:42:50Z</time>
      </trkpt>
      <trkpt lat="46.00093" lon="4.84483">
        <ele>259</ele>
        <time>2017-12-22T10:42:51Z</time>
      </trkpt>
      <trkpt lat="46.00095" lon="4.84471">
        <ele>260</ele>
        <time>2017-12-22T10:42:54Z</time>
      </trkpt>
      <trkpt lat="46.00096" lon="4.84467">
        <ele>260</ele>
        <time>2017-12-22T10:42:55Z</time>
      </trkpt>
      <trkpt lat="46.00097" lon="4.84456">
        <ele>260</ele>
        <time>2017-12-22T10:42:58Z</time>
      </trkpt>
      <trkpt lat="46.00098" lon="4.84453">
        <ele>260</ele>
        <time>2017-12-22T10:42:59Z</time>
      </trkpt>
      <trkpt lat="46.0009" lon="4.84455">
        <ele>260</ele>
        <time>2017-12-22T10:43:07Z</time>
      </trkpt>
      <trkpt lat="46.00089" lon="4.84457">
        <ele>260</ele>
        <time>2017-12-22T10:43:08Z</time>
      </trkpt>
      <trkpt lat="46.00085" lon="4.84454">
        <ele>260</ele>
        <time>2017-12-22T10:44:59Z</time>
      </trkpt>
      <trkpt lat="46.00085" lon="4.84454">
        <ele>260</ele>
        <time>2017-12-22T10:45:00Z</time>
      </trkpt>
      <trkpt lat="46.00085" lon="4.84455">
        <ele>260</ele>
        <time>2017-12-22T10:45:04Z</time>
      </trkpt>
      <trkpt lat="46.00085" lon="4.84455">
        <ele>260</ele>
        <time>2017-12-22T10:45:05Z</time>
      </trkpt>
      <trkpt lat="46.00081" lon="4.84454">
        <ele>258</ele>
        <time>2017-12-22T10:45:19Z</time>
      </trkpt>
      <trkpt lat="46.00081" lon="4.84454">
        <ele>258</ele>
        <time>2017-12-22T10:45:20Z</time>
      </trkpt>
      <trkpt lat="46.00082" lon="4.84456">
        <ele>258</ele>
        <time>2017-12-22T10:55:07Z</time>
      </trkpt>
      <trkpt lat="46.00082" lon="4.84456">
        <ele>258</ele>
        <time>2017-12-22T10:55:08Z</time>
      </trkpt>
      <trkpt lat="46.00083" lon="4.84458">
        <ele>258</ele>
        <time>2017-12-22T10:55:13Z</time>
      </trkpt>
      <trkpt lat="46.00083" lon="4.84458">
        <ele>258</ele>
        <time>2017-12-22T10:55:14Z</time>
      </trkpt>
      <trkpt lat="46.00085" lon="4.84455">
        <ele>260</ele>
        <time>2017-12-22T10:55:40Z</time>
      </trkpt>
      <trkpt lat="46.00085" lon="4.84455">
        <ele>260</ele>
        <time>2017-12-22T10:55:41Z</time>
      </trkpt>
      <trkpt lat="46.0009" lon="4.84464">
        <ele>260</ele>
        <time>2017-12-22T10:56:27Z</time>
      </trkpt>
      <trkpt lat="46.00091" lon="4.84465">
        <ele>260</ele>
        <time>2017-12-22T10:56:28Z</time>
      </trkpt>
      <trkpt lat="46.00094" lon="4.84475">
        <ele>260</ele>
        <time>2017-12-22T10:56:33Z</time>
      </trkpt>
      <trkpt lat="46.00094" lon="4.84478">
        <ele>260</ele>
        <time>2017-12-22T10:56:34Z</time>
      </trkpt>
      <trkpt lat="46.00091" lon="4.84491">
        <ele>259</ele>
        <time>2017-12-22T10:56:37Z</time>
      </trkpt>
      <trkpt lat="46.00091" lon="4.84495">
        <ele>259</ele>
        <time>2017-12-22T10:56:38Z</time>
      </trkpt>
      <trkpt lat="46.00088" lon="4.84505">
        <ele>259</ele>
        <time>2017-12-22T10:56:40Z</time>
      </trkpt>
      <trkpt lat="46.00087" lon="4.84509">
        <ele>259</ele>
        <time>2017-12-22T10:56:41Z</time>
      </trkpt>
      <trkpt lat="46.00082" lon="4.84501">
        <ele>259</ele>
        <time>2017-12-22T10:56:44Z</time>
      </trkpt>
      <trkpt lat="46.00082" lon="4.84496">
        <ele>259</ele>
        <time>2017-12-22T10:56:45Z</time>
      </trkpt>
      <trkpt lat="46.00079" lon="4.84487">
        <ele>259</ele>
        <time>2017-12-22T10:56:47Z</time>
      </trkpt>
      <trkpt lat="46.00077" lon="4.84484">
        <ele>258</ele>
        <time>2017-12-22T10:56:48Z</time>
      </trkpt>
      <trkpt lat="46.00077" lon="4.84474">
        <ele>258</ele>
        <time>2017-12-22T10:56:51Z</time>
      </trkpt>
      <trkpt lat="46.00076" lon="4.84471">
        <ele>258</ele>
        <time>2017-12-22T10:56:52Z</time>
      </trkpt>
      <trkpt lat="46.00074" lon="4.8446">
        <ele>258</ele>
        <time>2017-12-22T10:56:55Z</time>
      </trkpt>
      <trkpt lat="46.00073" lon="4.84455">
        <ele>258</ele>
        <time>2017-12-22T10:56:56Z</time>
      </trkpt>
      <trkpt lat="46.00071" lon="4.84446">
        <ele>258</ele>
        <time>2017-12-22T10:56:58Z</time>
      </trkpt>
      <trkpt lat="46.00071" lon="4.84442">
        <ele>258</ele>
        <time>2017-12-22T10:56:59Z</time>
      </trkpt>
      <trkpt lat="46.00069" lon="4.84431">
        <ele>258</ele>
        <time>2017-12-22T10:57:01Z</time>
      </trkpt>
      <trkpt lat="46.00068" lon="4.84425">
        <ele>259</ele>
        <time>2017-12-22T10:57:02Z</time>
      </trkpt>
      <trkpt lat="46.00067" lon="4.84413">
        <ele>259</ele>
        <time>2017-12-22T10:57:04Z</time>
      </trkpt>
      <trkpt lat="46.00066" lon="4.84407">
        <ele>259</ele>
        <time>2017-12-22T10:57:05Z</time>
      </trkpt>
      <trkpt lat="46.00065" lon="4.84401">
        <ele>259</ele>
        <time>2017-12-22T10:57:06Z</time>
      </trkpt>
      <trkpt lat="46.00064" lon="4.84395">
        <ele>259</ele>
        <time>2017-12-22T10:57:07Z</time>
      </trkpt>
      <trkpt lat="46.00063" lon="4.84387">
        <ele>259</ele>
        <time>2017-12-22T10:57:08Z</time>
      </trkpt>
      <trkpt lat="46.00061" lon="4.84381">
        <ele>259</ele>
        <time>2017-12-22T10:57:09Z</time>
      </trkpt>
      <trkpt lat="46.0006" lon="4.84375">
        <ele>259</ele>
        <time>2017-12-22T10:57:10Z</time>
      </trkpt>
      <trkpt lat="46.00059" lon="4.84367">
        <ele>259</ele>
        <time>2017-12-22T10:57:11Z</time>
      </trkpt>
      <trkpt lat="46.00058" lon="4.8436">
        <ele>259</ele>
        <time>2017-12-22T10:57:12Z</time>
      </trkpt>
      <trkpt lat="46.00057" lon="4.84354">
        <ele>259</ele>
        <time>2017-12-22T10:57:13Z</time>
      </trkpt>
      <trkpt lat="46.00055" lon="4.84348">
        <ele>259</ele>
        <time>2017-12-22T10:57:14Z</time>
      </trkpt>
      <trkpt lat="46.00053" lon="4.84342">
        <ele>259</ele>
        <time>2017-12-22T10:57:15Z</time>
      </trkpt>
      <trkpt lat="46.00051" lon="4.84336">
        <ele>259</ele>
        <time>2017-12-22T10:57:16Z</time>
      </trkpt>
      <trkpt lat="46.0005" lon="4.84329">
        <ele>260</ele>
        <time>2017-12-22T10:57:17Z</time>
      </trkpt>
      <trkpt lat="46.00048" lon="4.84323">
        <ele>260</ele>
        <time>2017-12-22T10:57:18Z</time>
      </trkpt>
      <trkpt lat="46.00046" lon="4.84316">
        <ele>260</ele>
        <time>2017-12-22T10:57:19Z</time>
      </trkpt>
      <trkpt lat="46.00045" lon="4.84309">
        <ele>260</ele>
        <time>2017-12-22T10:57:20Z</time>
      </trkpt>
      <trkpt lat="46.00043" lon="4.84303">
        <ele>260</ele>
        <time>2017-12-22T10:57:21Z</time>
      </trkpt>
      <trkpt lat="46.0004" lon="4.84292">
        <ele>259</ele>
        <time>2017-12-22T10:57:23Z</time>
      </trkpt>
      <trkpt lat="46.00038" lon="4.84287">
        <ele>260</ele>
        <time>2017-12-22T10:57:24Z</time>
      </trkpt>
      <trkpt lat="46.00036" lon="4.84275">
        <ele>260</ele>
        <time>2017-12-22T10:57:26Z</time>
      </trkpt>
      <trkpt lat="46.00034" lon="4.84268">
        <ele>260</ele>
        <time>2017-12-22T10:57:27Z</time>
      </trkpt>
      <trkpt lat="46.00031" lon="4.84262">
        <ele>260</ele>
        <time>2017-12-22T10:57:28Z</time>
      </trkpt>
      <trkpt lat="46.0003" lon="4.84254">
        <ele>260</ele>
        <time>2017-12-22T10:57:29Z</time>
      </trkpt>
      <trkpt lat="46.00029" lon="4.84247">
        <ele>259</ele>
        <time>2017-12-22T10:57:30Z</time>
      </trkpt>
      <trkpt lat="46.00027" lon="4.8424">
        <ele>259</ele>
        <time>2017-12-22T10:57:31Z</time>
      </trkpt>
      <trkpt lat="46.00025" lon="4.84232">
        <ele>259</ele>
        <time>2017-12-22T10:57:32Z</time>
      </trkpt>
      <trkpt lat="46.00023" lon="4.84225">
        <ele>259</ele>
        <time>2017-12-22T10:57:33Z</time>
      </trkpt>
      <trkpt lat="46.00019" lon="4.84217">
        <ele>259</ele>
        <time>2017-12-22T10:57:34Z</time>
      </trkpt>
      <trkpt lat="46.00017" lon="4.84209">
        <ele>259</ele>
        <time>2017-12-22T10:57:35Z</time>
      </trkpt>
      <trkpt lat="46.00014" lon="4.84201">
        <ele>259</ele>
        <time>2017-12-22T10:57:36Z</time>
      </trkpt>
      <trkpt lat="46.00013" lon="4.84192">
        <ele>258</ele>
        <time>2017-12-22T10:57:37Z</time>
      </trkpt>
      <trkpt lat="46.0001" lon="4.84184">
        <ele>258</ele>
        <time>2017-12-22T10:57:38Z</time>
      </trkpt>
      <trkpt lat="46.00006" lon="4.84175">
        <ele>258</ele>
        <time>2017-12-22T10:57:39Z</time>
      </trkpt>
      <trkpt lat="46.00005" lon="4.84168">
        <ele>257</ele>
        <time>2017-12-22T10:57:40Z</time>
      </trkpt>
      <trkpt lat="46.00003" lon="4.84161">
        <ele>257</ele>
        <time>2017-12-22T10:57:41Z</time>
      </trkpt>
      <trkpt lat="46" lon="4.84154">
        <ele>258</ele>
        <time>2017-12-22T10:57:42Z</time>
      </trkpt>
      <trkpt lat="45.99998" lon="4.84147">
        <ele>257</ele>
        <time>2017-12-22T10:57:43Z</time>
      </trkpt>
      <trkpt lat="45.99994" lon="4.84139">
        <ele>257</ele>
        <time>2017-12-22T10:57:44Z</time>
      </trkpt>
      <trkpt lat="45.99992" lon="4.84132">
        <ele>257</ele>
        <time>2017-12-22T10:57:45Z</time>
      </trkpt>
      <trkpt lat="45.99991" lon="4.84126">
        <ele>257</ele>
        <time>2017-12-22T10:57:46Z</time>
      </trkpt>
      <trkpt lat="45.99989" lon="4.84119">
        <ele>258</ele>
        <time>2017-12-22T10:57:47Z</time>
      </trkpt>
      <trkpt lat="45.99987" lon="4.84112">
        <ele>258</ele>
        <time>2017-12-22T10:57:48Z</time>
      </trkpt>
      <trkpt lat="45.99985" lon="4.84106">
        <ele>258</ele>
        <time>2017-12-22T10:57:49Z</time>
      </trkpt>
      <trkpt lat="45.99982" lon="4.84099">
        <ele>258</ele>
        <time>2017-12-22T10:57:50Z</time>
      </trkpt>
      <trkpt lat="45.99981" lon="4.84092">
        <ele>258</ele>
        <time>2017-12-22T10:57:51Z</time>
      </trkpt>
      <trkpt lat="45.99978" lon="4.84084">
        <ele>258</ele>
        <time>2017-12-22T10:57:52Z</time>
      </trkpt>
      <trkpt lat="45.99976" lon="4.84077">
        <ele>259</ele>
        <time>2017-12-22T10:57:53Z</time>
      </trkpt>
      <trkpt lat="45.99974" lon="4.8407">
        <ele>259</ele>
        <time>2017-12-22T10:57:54Z</time>
      </trkpt>
      <trkpt lat="45.9997" lon="4.84064">
        <ele>259</ele>
        <time>2017-12-22T10:57:55Z</time>
      </trkpt>
      <trkpt lat="45.99968" lon="4.84057">
        <ele>259</ele>
        <time>2017-12-22T10:57:56Z</time>
      </trkpt>
      <trkpt lat="45.99966" lon="4.84049">
        <ele>259</ele>
        <time>2017-12-22T10:57:57Z</time>
      </trkpt>
      <trkpt lat="45.99964" lon="4.84041">
        <ele>259</ele>
        <time>2017-12-22T10:57:58Z</time>
      </trkpt>
      <trkpt lat="45.99963" lon="4.84034">
        <ele>259</ele>
        <time>2017-12-22T10:57:59Z</time>
      </trkpt>
      <trkpt lat="45.99962" lon="4.84028">
        <ele>259</ele>
        <time>2017-12-22T10:58:00Z</time>
      </trkpt>
      <trkpt lat="45.9996" lon="4.84022">
        <ele>259</ele>
        <time>2017-12-22T10:58:01Z</time>
      </trkpt>
      <trkpt lat="45.99957" lon="4.84013">
        <ele>259</ele>
        <time>2017-12-22T10:58:02Z</time>
      </trkpt>
      <trkpt lat="45.99956" lon="4.84007">
        <ele>259</ele>
        <time>2017-12-22T10:58:03Z</time>
      </trkpt>
      <trkpt lat="45.99953" lon="4.84">
        <ele>259</ele>
        <time>2017-12-22T10:58:04Z</time>
      </trkpt>
      <trkpt lat="45.9995" lon="4.83993">
        <ele>259</ele>
        <time>2017-12-22T10:58:05Z</time>
      </trkpt>
      <trkpt lat="45.99948" lon="4.83986">
        <ele>259</ele>
        <time>2017-12-22T10:58:06Z</time>
      </trkpt>
      <trkpt lat="45.99946" lon="4.8398">
        <ele>259</ele>
        <time>2017-12-22T10:58:07Z</time>
      </trkpt>
      <trkpt lat="45.99944" lon="4.83972">
        <ele>259</ele>
        <time>2017-12-22T10:58:08Z</time>
      </trkpt>
      <trkpt lat="45.99942" lon="4.83963">
        <ele>259</ele>
        <time>2017-12-22T10:58:09Z</time>
      </trkpt>
      <trkpt lat="45.99941" lon="4.83955">
        <ele>259</ele>
        <time>2017-12-22T10:58:10Z</time>
      </trkpt>
      <trkpt lat="45.99938" lon="4.83949">
        <ele>259</ele>
        <time>2017-12-22T10:58:11Z</time>
      </trkpt>
      <trkpt lat="45.99936" lon="4.83942">
        <ele>259</ele>
        <time>2017-12-22T10:58:12Z</time>
      </trkpt>
      <trkpt lat="45.99934" lon="4.83936">
        <ele>259</ele>
        <time>2017-12-22T10:58:13Z</time>
      </trkpt>
      <trkpt lat="45.99932" lon="4.83929">
        <ele>259</ele>
        <time>2017-12-22T10:58:14Z</time>
      </trkpt>
      <trkpt lat="45.99929" lon="4.83922">
        <ele>259</ele>
        <time>2017-12-22T10:58:15Z</time>
      </trkpt>
      <trkpt lat="45.99928" lon="4.83913">
        <ele>259</ele>
        <time>2017-12-22T10:58:16Z</time>
      </trkpt>
      <trkpt lat="45.99926" lon="4.83906">
        <ele>259</ele>
        <time>2017-12-22T10:58:17Z</time>
      </trkpt>
      <trkpt lat="45.99923" lon="4.83897">
        <ele>259</ele>
        <time>2017-12-22T10:58:18Z</time>
      </trkpt>
      <trkpt lat="45.99921" lon="4.83891">
        <ele>259</ele>
        <time>2017-12-22T10:58:19Z</time>
      </trkpt>
      <trkpt lat="45.9992" lon="4.83884">
        <ele>259</ele>
        <time>2017-12-22T10:58:20Z</time>
      </trkpt>
      <trkpt lat="45.99917" lon="4.83877">
        <ele>259</ele>
        <time>2017-12-22T10:58:21Z</time>
      </trkpt>
      <trkpt lat="45.99915" lon="4.8387">
        <ele>258</ele>
        <time>2017-12-22T10:58:22Z</time>
      </trkpt>
      <trkpt lat="45.99913" lon="4.83863">
        <ele>258</ele>
        <time>2017-12-22T10:58:23Z</time>
      </trkpt>
      <trkpt lat="45.99911" lon="4.83856">
        <ele>258</ele>
        <time>2017-12-22T10:58:24Z</time>
      </trkpt>
      <trkpt lat="45.99908" lon="4.83848">
        <ele>258</ele>
        <time>2017-12-22T10:58:25Z</time>
      </trkpt>
      <trkpt lat="45.99905" lon="4.83841">
        <ele>258</ele>
        <time>2017-12-22T10:58:26Z</time>
      </trkpt>
      <trkpt lat="45.99903" lon="4.83833">
        <ele>257</ele>
        <time>2017-12-22T10:58:27Z</time>
      </trkpt>
      <trkpt lat="45.999" lon="4.83825">
        <ele>257</ele>
        <time>2017-12-22T10:58:28Z</time>
      </trkpt>
      <trkpt lat="45.99898" lon="4.83818">
        <ele>257</ele>
        <time>2017-12-22T10:58:29Z</time>
      </trkpt>
      <trkpt lat="45.99897" lon="4.83809">
        <ele>257</ele>
        <time>2017-12-22T10:58:30Z</time>
      </trkpt>
      <trkpt lat="45.99895" lon="4.83802">
        <ele>257</ele>
        <time>2017-12-22T10:58:31Z</time>
      </trkpt>
      <trkpt lat="45.99894" lon="4.83795">
        <ele>257</ele>
        <time>2017-12-22T10:58:32Z</time>
      </trkpt>
      <trkpt lat="45.99891" lon="4.83788">
        <ele>257</ele>
        <time>2017-12-22T10:58:33Z</time>
      </trkpt>
      <trkpt lat="45.99889" lon="4.83781">
        <ele>257</ele>
        <time>2017-12-22T10:58:34Z</time>
      </trkpt>
      <trkpt lat="45.99887" lon="4.83775">
        <ele>257</ele>
        <time>2017-12-22T10:58:35Z</time>
      </trkpt>
      <trkpt lat="45.99885" lon="4.83768">
        <ele>257</ele>
        <time>2017-12-22T10:58:36Z</time>
      </trkpt>
      <trkpt lat="45.99884" lon="4.83762">
        <ele>256</ele>
        <time>2017-12-22T10:58:37Z</time>
      </trkpt>
      <trkpt lat="45.99882" lon="4.83755">
        <ele>256</ele>
        <time>2017-12-22T10:58:38Z</time>
      </trkpt>
      <trkpt lat="45.9988" lon="4.83748">
        <ele>256</ele>
        <time>2017-12-22T10:58:39Z</time>
      </trkpt>
      <trkpt lat="45.99878" lon="4.8374">
        <ele>256</ele>
        <time>2017-12-22T10:58:40Z</time>
      </trkpt>
      <trkpt lat="45.99876" lon="4.83733">
        <ele>256</ele>
        <time>2017-12-22T10:58:41Z</time>
      </trkpt>
      <trkpt lat="45.99873" lon="4.83725">
        <ele>256</ele>
        <time>2017-12-22T10:58:42Z</time>
      </trkpt>
      <trkpt lat="45.99872" lon="4.83715">
        <ele>256</ele>
        <time>2017-12-22T10:58:43Z</time>
      </trkpt>
      <trkpt lat="45.9987" lon="4.83708">
        <ele>256</ele>
        <time>2017-12-22T10:58:44Z</time>
      </trkpt>
      <trkpt lat="45.99868" lon="4.837">
        <ele>256</ele>
        <time>2017-12-22T10:58:45Z</time>
      </trkpt>
      <trkpt lat="45.99867" lon="4.83693">
        <ele>256</ele>
        <time>2017-12-22T10:58:46Z</time>
      </trkpt>
      <trkpt lat="45.99866" lon="4.83683">
        <ele>256</ele>
        <time>2017-12-22T10:58:47Z</time>
      </trkpt>
      <trkpt lat="45.99864" lon="4.83676">
        <ele>256</ele>
        <time>2017-12-22T10:58:48Z</time>
      </trkpt>
      <trkpt lat="45.99862" lon="4.8367">
        <ele>256</ele>
        <time>2017-12-22T10:58:49Z</time>
      </trkpt>
      <trkpt lat="45.99861" lon="4.83661">
        <ele>257</ele>
        <time>2017-12-22T10:58:50Z</time>
      </trkpt>
      <trkpt lat="45.99859" lon="4.83654">
        <ele>257</ele>
        <time>2017-12-22T10:58:51Z</time>
      </trkpt>
      <trkpt lat="45.99856" lon="4.83648">
        <ele>257</ele>
        <time>2017-12-22T10:58:52Z</time>
      </trkpt>
      <trkpt lat="45.99855" lon="4.8364">
        <ele>257</ele>
        <time>2017-12-22T10:58:53Z</time>
      </trkpt>
      <trkpt lat="45.99853" lon="4.83633">
        <ele>257</ele>
        <time>2017-12-22T10:58:54Z</time>
      </trkpt>
      <trkpt lat="45.99852" lon="4.83626">
        <ele>257</ele>
        <time>2017-12-22T10:58:55Z</time>
      </trkpt>
      <trkpt lat="45.99851" lon="4.83619">
        <ele>257</ele>
        <time>2017-12-22T10:58:56Z</time>
      </trkpt>
      <trkpt lat="45.99847" lon="4.83611">
        <ele>257</ele>
        <time>2017-12-22T10:58:57Z</time>
      </trkpt>
      <trkpt lat="45.99846" lon="4.83603">
        <ele>257</ele>
        <time>2017-12-22T10:58:58Z</time>
      </trkpt>
      <trkpt lat="45.99844" lon="4.83595">
        <ele>257</ele>
        <time>2017-12-22T10:58:59Z</time>
      </trkpt>
      <trkpt lat="45.99843" lon="4.83589">
        <ele>257</ele>
        <time>2017-12-22T10:59:00Z</time>
      </trkpt>
      <trkpt lat="45.99841" lon="4.83581">
        <ele>257</ele>
        <time>2017-12-22T10:59:01Z</time>
      </trkpt>
      <trkpt lat="45.9984" lon="4.83575">
        <ele>257</ele>
        <time>2017-12-22T10:59:02Z</time>
      </trkpt>
      <trkpt lat="45.99838" lon="4.83567">
        <ele>258</ele>
        <time>2017-12-22T10:59:03Z</time>
      </trkpt>
      <trkpt lat="45.99835" lon="4.83559">
        <ele>258</ele>
        <time>2017-12-22T10:59:04Z</time>
      </trkpt>
      <trkpt lat="45.99833" lon="4.83553">
        <ele>258</ele>
        <time>2017-12-22T10:59:05Z</time>
      </trkpt>
      <trkpt lat="45.99831" lon="4.83545">
        <ele>259</ele>
        <time>2017-12-22T10:59:06Z</time>
      </trkpt>
      <trkpt lat="45.99829" lon="4.83538">
        <ele>259</ele>
        <time>2017-12-22T10:59:07Z</time>
      </trkpt>
      <trkpt lat="45.99828" lon="4.8353">
        <ele>259</ele>
        <time>2017-12-22T10:59:08Z</time>
      </trkpt>
      <trkpt lat="45.99826" lon="4.83524">
        <ele>259</ele>
        <time>2017-12-22T10:59:09Z</time>
      </trkpt>
      <trkpt lat="45.99824" lon="4.83517">
        <ele>259</ele>
        <time>2017-12-22T10:59:10Z</time>
      </trkpt>
      <trkpt lat="45.99823" lon="4.83511">
        <ele>259</ele>
        <time>2017-12-22T10:59:11Z</time>
      </trkpt>
      <trkpt lat="45.99821" lon="4.83504">
        <ele>259</ele>
        <time>2017-12-22T10:59:12Z</time>
      </trkpt>
      <trkpt lat="45.9982" lon="4.83498">
        <ele>260</ele>
        <time>2017-12-22T10:59:13Z</time>
      </trkpt>
      <trkpt lat="45.9982" lon="4.83488">
        <ele>260</ele>
        <time>2017-12-22T10:59:14Z</time>
      </trkpt>
      <trkpt lat="45.99818" lon="4.83482">
        <ele>260</ele>
        <time>2017-12-22T10:59:15Z</time>
      </trkpt>
      <trkpt lat="45.99816" lon="4.83475">
        <ele>260</ele>
        <time>2017-12-22T10:59:16Z</time>
      </trkpt>
      <trkpt lat="45.99815" lon="4.83468">
        <ele>260</ele>
        <time>2017-12-22T10:59:17Z</time>
      </trkpt>
      <trkpt lat="45.99814" lon="4.83462">
        <ele>261</ele>
        <time>2017-12-22T10:59:18Z</time>
      </trkpt>
      <trkpt lat="45.99813" lon="4.83455">
        <ele>261</ele>
        <time>2017-12-22T10:59:19Z</time>
      </trkpt>
      <trkpt lat="45.9981" lon="4.83443">
        <ele>261</ele>
        <time>2017-12-22T10:59:21Z</time>
      </trkpt>
      <trkpt lat="45.99809" lon="4.83436">
        <ele>261</ele>
        <time>2017-12-22T10:59:22Z</time>
      </trkpt>
      <trkpt lat="45.99807" lon="4.8343">
        <ele>261</ele>
        <time>2017-12-22T10:59:23Z</time>
      </trkpt>
      <trkpt lat="45.99806" lon="4.83423">
        <ele>261</ele>
        <time>2017-12-22T10:59:24Z</time>
      </trkpt>
      <trkpt lat="45.99804" lon="4.83416">
        <ele>262</ele>
        <time>2017-12-22T10:59:25Z</time>
      </trkpt>
      <trkpt lat="45.99801" lon="4.83409">
        <ele>262</ele>
        <time>2017-12-22T10:59:26Z</time>
      </trkpt>
      <trkpt lat="45.99801" lon="4.83403">
        <ele>262</ele>
        <time>2017-12-22T10:59:27Z</time>
      </trkpt>
      <trkpt lat="45.99798" lon="4.83395">
        <ele>262</ele>
        <time>2017-12-22T10:59:28Z</time>
      </trkpt>
      <trkpt lat="45.99797" lon="4.83389">
        <ele>262</ele>
        <time>2017-12-22T10:59:29Z</time>
      </trkpt>
      <trkpt lat="45.99795" lon="4.83381">
        <ele>262</ele>
        <time>2017-12-22T10:59:30Z</time>
      </trkpt>
      <trkpt lat="45.99794" lon="4.83375">
        <ele>262</ele>
        <time>2017-12-22T10:59:31Z</time>
      </trkpt>
      <trkpt lat="45.99793" lon="4.83367">
        <ele>262</ele>
        <time>2017-12-22T10:59:32Z</time>
      </trkpt>
      <trkpt lat="45.99791" lon="4.83361">
        <ele>262</ele>
        <time>2017-12-22T10:59:33Z</time>
      </trkpt>
      <trkpt lat="45.99789" lon="4.83354">
        <ele>262</ele>
        <time>2017-12-22T10:59:34Z</time>
      </trkpt>
      <trkpt lat="45.99787" lon="4.83347">
        <ele>262</ele>
        <time>2017-12-22T10:59:35Z</time>
      </trkpt>
      <trkpt lat="45.99786" lon="4.8334">
        <ele>263</ele>
        <time>2017-12-22T10:59:36Z</time>
      </trkpt>
      <trkpt lat="45.99784" lon="4.83333">
        <ele>264</ele>
        <time>2017-12-22T10:59:37Z</time>
      </trkpt>
      <trkpt lat="45.99784" lon="4.83325">
        <ele>264</ele>
        <time>2017-12-22T10:59:38Z</time>
      </trkpt>
      <trkpt lat="45.99783" lon="4.83318">
        <ele>264</ele>
        <time>2017-12-22T10:59:39Z</time>
      </trkpt>
      <trkpt lat="45.99782" lon="4.83311">
        <ele>264</ele>
        <time>2017-12-22T10:59:40Z</time>
      </trkpt>
      <trkpt lat="45.9978" lon="4.83305">
        <ele>264</ele>
        <time>2017-12-22T10:59:41Z</time>
      </trkpt>
      <trkpt lat="45.99779" lon="4.83298">
        <ele>264</ele>
        <time>2017-12-22T10:59:42Z</time>
      </trkpt>
      <trkpt lat="45.99779" lon="4.83291">
        <ele>264</ele>
        <time>2017-12-22T10:59:43Z</time>
      </trkpt>
      <trkpt lat="45.99778" lon="4.83284">
        <ele>265</ele>
        <time>2017-12-22T10:59:44Z</time>
      </trkpt>
      <trkpt lat="45.99778" lon="4.83277">
        <ele>265</ele>
        <time>2017-12-22T10:59:45Z</time>
      </trkpt>
      <trkpt lat="45.99778" lon="4.83269">
        <ele>265</ele>
        <time>2017-12-22T10:59:46Z</time>
      </trkpt>
      <trkpt lat="45.99777" lon="4.83262">
        <ele>265</ele>
        <time>2017-12-22T10:59:47Z</time>
      </trkpt>
      <trkpt lat="45.99776" lon="4.83256">
        <ele>265</ele>
        <time>2017-12-22T10:59:48Z</time>
      </trkpt>
      <trkpt lat="45.99775" lon="4.83248">
        <ele>267</ele>
        <time>2017-12-22T10:59:49Z</time>
      </trkpt>
      <trkpt lat="45.99774" lon="4.83241">
        <ele>267</ele>
        <time>2017-12-22T10:59:50Z</time>
      </trkpt>
      <trkpt lat="45.99773" lon="4.83234">
        <ele>267</ele>
        <time>2017-12-22T10:59:51Z</time>
      </trkpt>
      <trkpt lat="45.99772" lon="4.83227">
        <ele>267</ele>
        <time>2017-12-22T10:59:52Z</time>
      </trkpt>
      <trkpt lat="45.99772" lon="4.83219">
        <ele>268</ele>
        <time>2017-12-22T10:59:53Z</time>
      </trkpt>
      <trkpt lat="45.99771" lon="4.83212">
        <ele>268</ele>
        <time>2017-12-22T10:59:54Z</time>
      </trkpt>
      <trkpt lat="45.99771" lon="4.83205">
        <ele>268</ele>
        <time>2017-12-22T10:59:55Z</time>
      </trkpt>
      <trkpt lat="45.99769" lon="4.83198">
        <ele>268</ele>
        <time>2017-12-22T10:59:56Z</time>
      </trkpt>
      <trkpt lat="45.99769" lon="4.83191">
        <ele>269</ele>
        <time>2017-12-22T10:59:57Z</time>
      </trkpt>
      <trkpt lat="45.99768" lon="4.83185">
        <ele>269</ele>
        <time>2017-12-22T10:59:58Z</time>
      </trkpt>
      <trkpt lat="45.99767" lon="4.83174">
        <ele>269</ele>
        <time>2017-12-22T11:00:00Z</time>
      </trkpt>
      <trkpt lat="45.99766" lon="4.83167">
        <ele>269</ele>
        <time>2017-12-22T11:00:01Z</time>
      </trkpt>
      <trkpt lat="45.99765" lon="4.83161">
        <ele>271</ele>
        <time>2017-12-22T11:00:02Z</time>
      </trkpt>
      <trkpt lat="45.99765" lon="4.83153">
        <ele>271</ele>
        <time>2017-12-22T11:00:03Z</time>
      </trkpt>
      <trkpt lat="45.99764" lon="4.83141">
        <ele>271</ele>
        <time>2017-12-22T11:00:05Z</time>
      </trkpt>
      <trkpt lat="45.99763" lon="4.83134">
        <ele>271</ele>
        <time>2017-12-22T11:00:06Z</time>
      </trkpt>
      <trkpt lat="45.99761" lon="4.83123">
        <ele>271</ele>
        <time>2017-12-22T11:00:08Z</time>
      </trkpt>
      <trkpt lat="45.99761" lon="4.83117">
        <ele>271</ele>
        <time>2017-12-22T11:00:09Z</time>
      </trkpt>
      <trkpt lat="45.9976" lon="4.8311">
        <ele>271</ele>
        <time>2017-12-22T11:00:10Z</time>
      </trkpt>
      <trkpt lat="45.9976" lon="4.83104">
        <ele>271</ele>
        <time>2017-12-22T11:00:11Z</time>
      </trkpt>
      <trkpt lat="45.99759" lon="4.83093">
        <ele>272</ele>
        <time>2017-12-22T11:00:13Z</time>
      </trkpt>
      <trkpt lat="45.99759" lon="4.83087">
        <ele>272</ele>
        <time>2017-12-22T11:00:14Z</time>
      </trkpt>
      <trkpt lat="45.99756" lon="4.83077">
        <ele>272</ele>
        <time>2017-12-22T11:00:16Z</time>
      </trkpt>
      <trkpt lat="45.99756" lon="4.83072">
        <ele>272</ele>
        <time>2017-12-22T11:00:17Z</time>
      </trkpt>
      <trkpt lat="45.99754" lon="4.83061">
        <ele>272</ele>
        <time>2017-12-22T11:00:19Z</time>
      </trkpt>
      <trkpt lat="45.99754" lon="4.83056">
        <ele>272</ele>
        <time>2017-12-22T11:00:20Z</time>
      </trkpt>
      <trkpt lat="45.99752" lon="4.83046">
        <ele>272</ele>
        <time>2017-12-22T11:00:22Z</time>
      </trkpt>
      <trkpt lat="45.99751" lon="4.83041">
        <ele>271</ele>
        <time>2017-12-22T11:00:23Z</time>
      </trkpt>
      <trkpt lat="45.99749" lon="4.83031">
        <ele>271</ele>
        <time>2017-12-22T11:00:25Z</time>
      </trkpt>
      <trkpt lat="45.99748" lon="4.83026">
        <ele>271</ele>
        <time>2017-12-22T11:00:26Z</time>
      </trkpt>
      <trkpt lat="45.99745" lon="4.83016">
        <ele>271</ele>
        <time>2017-12-22T11:00:28Z</time>
      </trkpt>
      <trkpt lat="45.99744" lon="4.83011">
        <ele>271</ele>
        <time>2017-12-22T11:00:29Z</time>
      </trkpt>
      <trkpt lat="45.99741" lon="4.83">
        <ele>271</ele>
        <time>2017-12-22T11:00:31Z</time>
      </trkpt>
      <trkpt lat="45.9974" lon="4.82996">
        <ele>271</ele>
        <time>2017-12-22T11:00:32Z</time>
      </trkpt>
      <trkpt lat="45.99738" lon="4.82986">
        <ele>271</ele>
        <time>2017-12-22T11:00:34Z</time>
      </trkpt>
      <trkpt lat="45.99736" lon="4.82981">
        <ele>271</ele>
        <time>2017-12-22T11:00:35Z</time>
      </trkpt>
      <trkpt lat="45.99733" lon="4.82971">
        <ele>271</ele>
        <time>2017-12-22T11:00:37Z</time>
      </trkpt>
      <trkpt lat="45.99731" lon="4.82965">
        <ele>271</ele>
        <time>2017-12-22T11:00:38Z</time>
      </trkpt>
      <trkpt lat="45.99728" lon="4.82958">
        <ele>271</ele>
        <time>2017-12-22T11:00:39Z</time>
      </trkpt>
      <trkpt lat="45.99726" lon="4.82951">
        <ele>271</ele>
        <time>2017-12-22T11:00:40Z</time>
      </trkpt>
      <trkpt lat="45.99722" lon="4.8294">
        <ele>271</ele>
        <time>2017-12-22T11:00:42Z</time>
      </trkpt>
      <trkpt lat="45.9972" lon="4.82935">
        <ele>271</ele>
        <time>2017-12-22T11:00:43Z</time>
      </trkpt>
      <trkpt lat="45.99716" lon="4.82925">
        <ele>271</ele>
        <time>2017-12-22T11:00:45Z</time>
      </trkpt>
      <trkpt lat="45.99714" lon="4.82919">
        <ele>271</ele>
        <time>2017-12-22T11:00:46Z</time>
      </trkpt>
      <trkpt lat="45.99711" lon="4.82908">
        <ele>271</ele>
        <time>2017-12-22T11:00:48Z</time>
      </trkpt>
      <trkpt lat="45.9971" lon="4.82903">
        <ele>271</ele>
        <time>2017-12-22T11:00:49Z</time>
      </trkpt>
      <trkpt lat="45.99708" lon="4.82897">
        <ele>271</ele>
        <time>2017-12-22T11:00:50Z</time>
      </trkpt>
      <trkpt lat="45.99707" lon="4.82891">
        <ele>271</ele>
        <time>2017-12-22T11:00:51Z</time>
      </trkpt>
      <trkpt lat="45.99703" lon="4.8288">
        <ele>271</ele>
        <time>2017-12-22T11:00:53Z</time>
      </trkpt>
      <trkpt lat="45.99701" lon="4.82874">
        <ele>270</ele>
        <time>2017-12-22T11:00:54Z</time>
      </trkpt>
      <trkpt lat="45.99699" lon="4.82867">
        <ele>270</ele>
        <time>2017-12-22T11:00:55Z</time>
      </trkpt>
      <trkpt lat="45.99698" lon="4.8286">
        <ele>270</ele>
        <time>2017-12-22T11:00:56Z</time>
      </trkpt>
      <trkpt lat="45.99697" lon="4.82848">
        <ele>270</ele>
        <time>2017-12-22T11:00:58Z</time>
      </trkpt>
      <trkpt lat="45.99696" lon="4.82841">
        <ele>270</ele>
        <time>2017-12-22T11:00:59Z</time>
      </trkpt>
      <trkpt lat="45.99693" lon="4.82834">
        <ele>270</ele>
        <time>2017-12-22T11:01:00Z</time>
      </trkpt>
      <trkpt lat="45.9969" lon="4.82827">
        <ele>270</ele>
        <time>2017-12-22T11:01:01Z</time>
      </trkpt>
      <trkpt lat="45.99688" lon="4.8282">
        <ele>270</ele>
        <time>2017-12-22T11:01:02Z</time>
      </trkpt>
      <trkpt lat="45.99686" lon="4.82811">
        <ele>270</ele>
        <time>2017-12-22T11:01:03Z</time>
      </trkpt>
      <trkpt lat="45.99684" lon="4.82804">
        <ele>270</ele>
        <time>2017-12-22T11:01:04Z</time>
      </trkpt>
      <trkpt lat="45.99684" lon="4.82797">
        <ele>270</ele>
        <time>2017-12-22T11:01:05Z</time>
      </trkpt>
      <trkpt lat="45.99682" lon="4.8279">
        <ele>269</ele>
        <time>2017-12-22T11:01:06Z</time>
      </trkpt>
      <trkpt lat="45.99681" lon="4.82783">
        <ele>269</ele>
        <time>2017-12-22T11:01:07Z</time>
      </trkpt>
      <trkpt lat="45.9968" lon="4.82777">
        <ele>269</ele>
        <time>2017-12-22T11:01:08Z</time>
      </trkpt>
      <trkpt lat="45.99678" lon="4.8277">
        <ele>269</ele>
        <time>2017-12-22T11:01:09Z</time>
      </trkpt>
      <trkpt lat="45.99677" lon="4.82764">
        <ele>269</ele>
        <time>2017-12-22T11:01:10Z</time>
      </trkpt>
      <trkpt lat="45.99676" lon="4.82756">
        <ele>269</ele>
        <time>2017-12-22T11:01:11Z</time>
      </trkpt>
      <trkpt lat="45.99675" lon="4.82749">
        <ele>269</ele>
        <time>2017-12-22T11:01:12Z</time>
      </trkpt>
      <trkpt lat="45.99675" lon="4.82742">
        <ele>269</ele>
        <time>2017-12-22T11:01:13Z</time>
      </trkpt>
      <trkpt lat="45.99675" lon="4.82734">
        <ele>269</ele>
        <time>2017-12-22T11:01:14Z</time>
      </trkpt>
      <trkpt lat="45.99674" lon="4.82725">
        <ele>269</ele>
        <time>2017-12-22T11:01:15Z</time>
      </trkpt>
      <trkpt lat="45.99672" lon="4.82716">
        <ele>269</ele>
        <time>2017-12-22T11:01:16Z</time>
      </trkpt>
      <trkpt lat="45.99669" lon="4.82707">
        <ele>269</ele>
        <time>2017-12-22T11:01:17Z</time>
      </trkpt>
      <trkpt lat="45.99667" lon="4.82698">
        <ele>269</ele>
        <time>2017-12-22T11:01:18Z</time>
      </trkpt>
      <trkpt lat="45.99666" lon="4.82689">
        <ele>268</ele>
        <time>2017-12-22T11:01:19Z</time>
      </trkpt>
      <trkpt lat="45.99665" lon="4.82681">
        <ele>268</ele>
        <time>2017-12-22T11:01:20Z</time>
      </trkpt>
      <trkpt lat="45.99664" lon="4.82672">
        <ele>269</ele>
        <time>2017-12-22T11:01:21Z</time>
      </trkpt>
      <trkpt lat="45.99664" lon="4.82664">
        <ele>269</ele>
        <time>2017-12-22T11:01:22Z</time>
      </trkpt>
      <trkpt lat="45.99662" lon="4.82657">
        <ele>268</ele>
        <time>2017-12-22T11:01:23Z</time>
      </trkpt>
      <trkpt lat="45.99661" lon="4.82648">
        <ele>268</ele>
        <time>2017-12-22T11:01:24Z</time>
      </trkpt>
      <trkpt lat="45.9966" lon="4.82641">
        <ele>267</ele>
        <time>2017-12-22T11:01:25Z</time>
      </trkpt>
      <trkpt lat="45.99659" lon="4.82632">
        <ele>267</ele>
        <time>2017-12-22T11:01:26Z</time>
      </trkpt>
      <trkpt lat="45.99658" lon="4.82623">
        <ele>267</ele>
        <time>2017-12-22T11:01:27Z</time>
      </trkpt>
      <trkpt lat="45.99656" lon="4.82616">
        <ele>267</ele>
        <time>2017-12-22T11:01:28Z</time>
      </trkpt>
      <trkpt lat="45.99654" lon="4.82607">
        <ele>267</ele>
        <time>2017-12-22T11:01:29Z</time>
      </trkpt>
      <trkpt lat="45.99652" lon="4.82598">
        <ele>267</ele>
        <time>2017-12-22T11:01:30Z</time>
      </trkpt>
      <trkpt lat="45.99649" lon="4.82591">
        <ele>267</ele>
        <time>2017-12-22T11:01:31Z</time>
      </trkpt>
      <trkpt lat="45.99648" lon="4.82582">
        <ele>266</ele>
        <time>2017-12-22T11:01:32Z</time>
      </trkpt>
      <trkpt lat="45.99647" lon="4.82573">
        <ele>266</ele>
        <time>2017-12-22T11:01:33Z</time>
      </trkpt>
      <trkpt lat="45.99646" lon="4.82564">
        <ele>266</ele>
        <time>2017-12-22T11:01:34Z</time>
      </trkpt>
      <trkpt lat="45.99644" lon="4.82556">
        <ele>266</ele>
        <time>2017-12-22T11:01:35Z</time>
      </trkpt>
      <trkpt lat="45.99642" lon="4.82548">
        <ele>266</ele>
        <time>2017-12-22T11:01:36Z</time>
      </trkpt>
      <trkpt lat="45.9964" lon="4.82539">
        <ele>266</ele>
        <time>2017-12-22T11:01:37Z</time>
      </trkpt>
      <trkpt lat="45.99638" lon="4.8253">
        <ele>266</ele>
        <time>2017-12-22T11:01:38Z</time>
      </trkpt>
      <trkpt lat="45.99636" lon="4.82522">
        <ele>266</ele>
        <time>2017-12-22T11:01:39Z</time>
      </trkpt>
      <trkpt lat="45.99634" lon="4.82512">
        <ele>266</ele>
        <time>2017-12-22T11:01:40Z</time>
      </trkpt>
      <trkpt lat="45.99632" lon="4.82505">
        <ele>266</ele>
        <time>2017-12-22T11:01:41Z</time>
      </trkpt>
      <trkpt lat="45.99629" lon="4.82498">
        <ele>265</ele>
        <time>2017-12-22T11:01:42Z</time>
      </trkpt>
      <trkpt lat="45.99627" lon="4.8249">
        <ele>265</ele>
        <time>2017-12-22T11:01:43Z</time>
      </trkpt>
      <trkpt lat="45.99625" lon="4.82483">
        <ele>265</ele>
        <time>2017-12-22T11:01:44Z</time>
      </trkpt>
      <trkpt lat="45.99622" lon="4.82475">
        <ele>265</ele>
        <time>2017-12-22T11:01:45Z</time>
      </trkpt>
      <trkpt lat="45.99617" lon="4.82466">
        <ele>265</ele>
        <time>2017-12-22T11:01:46Z</time>
      </trkpt>
      <trkpt lat="45.99613" lon="4.82459">
        <ele>265</ele>
        <time>2017-12-22T11:01:47Z</time>
      </trkpt>
      <trkpt lat="45.99612" lon="4.82452">
        <ele>265</ele>
        <time>2017-12-22T11:01:48Z</time>
      </trkpt>
      <trkpt lat="45.9961" lon="4.82443">
        <ele>264</ele>
        <time>2017-12-22T11:01:49Z</time>
      </trkpt>
      <trkpt lat="45.99605" lon="4.82434">
        <ele>264</ele>
        <time>2017-12-22T11:01:50Z</time>
      </trkpt>
      <trkpt lat="45.99602" lon="4.82426">
        <ele>264</ele>
        <time>2017-12-22T11:01:51Z</time>
      </trkpt>
      <trkpt lat="45.99598" lon="4.82416">
        <ele>264</ele>
        <time>2017-12-22T11:01:52Z</time>
      </trkpt>
      <trkpt lat="45.99594" lon="4.82407">
        <ele>263</ele>
        <time>2017-12-22T11:01:53Z</time>
      </trkpt>
      <trkpt lat="45.99592" lon="4.82397">
        <ele>264</ele>
        <time>2017-12-22T11:01:54Z</time>
      </trkpt>
      <trkpt lat="45.99591" lon="4.82387">
        <ele>264</ele>
        <time>2017-12-22T11:01:55Z</time>
      </trkpt>
      <trkpt lat="45.99589" lon="4.82376">
        <ele>264</ele>
        <time>2017-12-22T11:01:56Z</time>
      </trkpt>
      <trkpt lat="45.99587" lon="4.82366">
        <ele>264</ele>
        <time>2017-12-22T11:01:57Z</time>
      </trkpt>
      <trkpt lat="45.99586" lon="4.82356">
        <ele>264</ele>
        <time>2017-12-22T11:01:58Z</time>
      </trkpt>
      <trkpt lat="45.99584" lon="4.82346">
        <ele>264</ele>
        <time>2017-12-22T11:01:59Z</time>
      </trkpt>
      <trkpt lat="45.99583" lon="4.82335">
        <ele>263</ele>
        <time>2017-12-22T11:02:00Z</time>
      </trkpt>
      <trkpt lat="45.99582" lon="4.82324">
        <ele>262</ele>
        <time>2017-12-22T11:02:01Z</time>
      </trkpt>
      <trkpt lat="45.99579" lon="4.82314">
        <ele>262</ele>
        <time>2017-12-22T11:02:02Z</time>
      </trkpt>
      <trkpt lat="45.99577" lon="4.82304">
        <ele>262</ele>
        <time>2017-12-22T11:02:03Z</time>
      </trkpt>
      <trkpt lat="45.99573" lon="4.82295">
        <ele>262</ele>
        <time>2017-12-22T11:02:04Z</time>
      </trkpt>
      <trkpt lat="45.99571" lon="4.82288">
        <ele>262</ele>
        <time>2017-12-22T11:02:05Z</time>
      </trkpt>
      <trkpt lat="45.99567" lon="4.82279">
        <ele>262</ele>
        <time>2017-12-22T11:02:06Z</time>
      </trkpt>
      <trkpt lat="45.99565" lon="4.8227">
        <ele>262</ele>
        <time>2017-12-22T11:02:07Z</time>
      </trkpt>
      <trkpt lat="45.99562" lon="4.82263">
        <ele>262</ele>
        <time>2017-12-22T11:02:08Z</time>
      </trkpt>
      <trkpt lat="45.99561" lon="4.82252">
        <ele>262</ele>
        <time>2017-12-22T11:02:09Z</time>
      </trkpt>
      <trkpt lat="45.99559" lon="4.82244">
        <ele>262</ele>
        <time>2017-12-22T11:02:10Z</time>
      </trkpt>
      <trkpt lat="45.99557" lon="4.82238">
        <ele>262</ele>
        <time>2017-12-22T11:02:11Z</time>
      </trkpt>
      <trkpt lat="45.99555" lon="4.8223">
        <ele>262</ele>
        <time>2017-12-22T11:02:12Z</time>
      </trkpt>
      <trkpt lat="45.99553" lon="4.82222">
        <ele>262</ele>
        <time>2017-12-22T11:02:13Z</time>
      </trkpt>
      <trkpt lat="45.99551" lon="4.82214">
        <ele>262</ele>
        <time>2017-12-22T11:02:14Z</time>
      </trkpt>
      <trkpt lat="45.99548" lon="4.82205">
        <ele>262</ele>
        <time>2017-12-22T11:02:15Z</time>
      </trkpt>
      <trkpt lat="45.99546" lon="4.82198">
        <ele>262</ele>
        <time>2017-12-22T11:02:16Z</time>
      </trkpt>
      <trkpt lat="45.99544" lon="4.82189">
        <ele>262</ele>
        <time>2017-12-22T11:02:17Z</time>
      </trkpt>
      <trkpt lat="45.99542" lon="4.82181">
        <ele>262</ele>
        <time>2017-12-22T11:02:18Z</time>
      </trkpt>
      <trkpt lat="45.9954" lon="4.82172">
        <ele>262</ele>
        <time>2017-12-22T11:02:19Z</time>
      </trkpt>
      <trkpt lat="45.99538" lon="4.82162">
        <ele>263</ele>
        <time>2017-12-22T11:02:20Z</time>
      </trkpt>
      <trkpt lat="45.99538" lon="4.82155">
        <ele>263</ele>
        <time>2017-12-22T11:02:21Z</time>
      </trkpt>
      <trkpt lat="45.99536" lon="4.82144">
        <ele>263</ele>
        <time>2017-12-22T11:02:22Z</time>
      </trkpt>
      <trkpt lat="45.99534" lon="4.82135">
        <ele>263</ele>
        <time>2017-12-22T11:02:23Z</time>
      </trkpt>
      <trkpt lat="45.99533" lon="4.82126">
        <ele>263</ele>
        <time>2017-12-22T11:02:24Z</time>
      </trkpt>
      <trkpt lat="45.99531" lon="4.82117">
        <ele>263</ele>
        <time>2017-12-22T11:02:25Z</time>
      </trkpt>
      <trkpt lat="45.9953" lon="4.82108">
        <ele>263</ele>
        <time>2017-12-22T11:02:26Z</time>
      </trkpt>
      <trkpt lat="45.99529" lon="4.821">
        <ele>262</ele>
        <time>2017-12-22T11:02:27Z</time>
      </trkpt>
      <trkpt lat="45.99529" lon="4.8209">
        <ele>262</ele>
        <time>2017-12-22T11:02:28Z</time>
      </trkpt>
      <trkpt lat="45.99529" lon="4.82083">
        <ele>262</ele>
        <time>2017-12-22T11:02:29Z</time>
      </trkpt>
      <trkpt lat="45.99528" lon="4.82075">
        <ele>262</ele>
        <time>2017-12-22T11:02:30Z</time>
      </trkpt>
      <trkpt lat="45.9953" lon="4.82067">
        <ele>262</ele>
        <time>2017-12-22T11:02:31Z</time>
      </trkpt>
      <trkpt lat="45.99529" lon="4.82059">
        <ele>262</ele>
        <time>2017-12-22T11:02:32Z</time>
      </trkpt>
      <trkpt lat="45.99529" lon="4.8205">
        <ele>262</ele>
        <time>2017-12-22T11:02:33Z</time>
      </trkpt>
      <trkpt lat="45.99528" lon="4.8204">
        <ele>262</ele>
        <time>2017-12-22T11:02:34Z</time>
      </trkpt>
      <trkpt lat="45.99527" lon="4.82032">
        <ele>262</ele>
        <time>2017-12-22T11:02:35Z</time>
      </trkpt>
      <trkpt lat="45.99526" lon="4.82023">
        <ele>261</ele>
        <time>2017-12-22T11:02:36Z</time>
      </trkpt>
      <trkpt lat="45.99525" lon="4.82015">
        <ele>261</ele>
        <time>2017-12-22T11:02:37Z</time>
      </trkpt>
      <trkpt lat="45.99524" lon="4.82007">
        <ele>261</ele>
        <time>2017-12-22T11:02:38Z</time>
      </trkpt>
      <trkpt lat="45.99523" lon="4.81997">
        <ele>261</ele>
        <time>2017-12-22T11:02:39Z</time>
      </trkpt>
      <trkpt lat="45.99523" lon="4.81988">
        <ele>261</ele>
        <time>2017-12-22T11:02:40Z</time>
      </trkpt>
      <trkpt lat="45.99522" lon="4.81979">
        <ele>261</ele>
        <time>2017-12-22T11:02:41Z</time>
      </trkpt>
      <trkpt lat="45.9952" lon="4.8197">
        <ele>261</ele>
        <time>2017-12-22T11:02:42Z</time>
      </trkpt>
      <trkpt lat="45.99519" lon="4.81963">
        <ele>261</ele>
        <time>2017-12-22T11:02:43Z</time>
      </trkpt>
      <trkpt lat="45.99519" lon="4.81954">
        <ele>261</ele>
        <time>2017-12-22T11:02:44Z</time>
      </trkpt>
      <trkpt lat="45.99518" lon="4.81945">
        <ele>261</ele>
        <time>2017-12-22T11:02:45Z</time>
      </trkpt>
      <trkpt lat="45.99516" lon="4.81936">
        <ele>261</ele>
        <time>2017-12-22T11:02:46Z</time>
      </trkpt>
      <trkpt lat="45.99515" lon="4.81928">
        <ele>260</ele>
        <time>2017-12-22T11:02:47Z</time>
      </trkpt>
      <trkpt lat="45.99514" lon="4.8192">
        <ele>260</ele>
        <time>2017-12-22T11:02:48Z</time>
      </trkpt>
      <trkpt lat="45.99513" lon="4.81912">
        <ele>260</ele>
        <time>2017-12-22T11:02:49Z</time>
      </trkpt>
      <trkpt lat="45.99511" lon="4.81904">
        <ele>261</ele>
        <time>2017-12-22T11:02:50Z</time>
      </trkpt>
      <trkpt lat="45.9951" lon="4.81895">
        <ele>261</ele>
        <time>2017-12-22T11:02:51Z</time>
      </trkpt>
      <trkpt lat="45.99509" lon="4.81888">
        <ele>261</ele>
        <time>2017-12-22T11:02:52Z</time>
      </trkpt>
      <trkpt lat="45.99508" lon="4.81879">
        <ele>261</ele>
        <time>2017-12-22T11:02:53Z</time>
      </trkpt>
      <trkpt lat="45.99507" lon="4.8187">
        <ele>262</ele>
        <time>2017-12-22T11:02:54Z</time>
      </trkpt>
      <trkpt lat="45.99505" lon="4.81862">
        <ele>262</ele>
        <time>2017-12-22T11:02:55Z</time>
      </trkpt>
      <trkpt lat="45.99504" lon="4.81853">
        <ele>262</ele>
        <time>2017-12-22T11:02:56Z</time>
      </trkpt>
      <trkpt lat="45.99503" lon="4.81844">
        <ele>262</ele>
        <time>2017-12-22T11:02:57Z</time>
      </trkpt>
      <trkpt lat="45.99502" lon="4.81836">
        <ele>262</ele>
        <time>2017-12-22T11:02:58Z</time>
      </trkpt>
      <trkpt lat="45.99502" lon="4.81826">
        <ele>262</ele>
        <time>2017-12-22T11:02:59Z</time>
      </trkpt>
      <trkpt lat="45.99499" lon="4.81818">
        <ele>262</ele>
        <time>2017-12-22T11:03:00Z</time>
      </trkpt>
      <trkpt lat="45.99496" lon="4.81809">
        <ele>262</ele>
        <time>2017-12-22T11:03:01Z</time>
      </trkpt>
      <trkpt lat="45.99493" lon="4.81802">
        <ele>262</ele>
        <time>2017-12-22T11:03:02Z</time>
      </trkpt>
      <trkpt lat="45.99492" lon="4.81792">
        <ele>262</ele>
        <time>2017-12-22T11:03:03Z</time>
      </trkpt>
      <trkpt lat="45.99492" lon="4.81783">
        <ele>262</ele>
        <time>2017-12-22T11:03:04Z</time>
      </trkpt>
      <trkpt lat="45.99492" lon="4.81775">
        <ele>262</ele>
        <time>2017-12-22T11:03:05Z</time>
      </trkpt>
      <trkpt lat="45.99491" lon="4.81766">
        <ele>262</ele>
        <time>2017-12-22T11:03:06Z</time>
      </trkpt>
      <trkpt lat="45.99491" lon="4.81756">
        <ele>262</ele>
        <time>2017-12-22T11:03:07Z</time>
      </trkpt>
      <trkpt lat="45.99491" lon="4.81748">
        <ele>262</ele>
        <time>2017-12-22T11:03:08Z</time>
      </trkpt>
      <trkpt lat="45.99489" lon="4.81738">
        <ele>262</ele>
        <time>2017-12-22T11:03:09Z</time>
      </trkpt>
      <trkpt lat="45.99488" lon="4.81729">
        <ele>261</ele>
        <time>2017-12-22T11:03:10Z</time>
      </trkpt>
      <trkpt lat="45.99488" lon="4.81716">
        <ele>261</ele>
        <time>2017-12-22T11:03:11Z</time>
      </trkpt>
      <trkpt lat="45.99488" lon="4.81707">
        <ele>261</ele>
        <time>2017-12-22T11:03:12Z</time>
      </trkpt>
      <trkpt lat="45.99487" lon="4.81697">
        <ele>261</ele>
        <time>2017-12-22T11:03:13Z</time>
      </trkpt>
      <trkpt lat="45.99486" lon="4.81689">
        <ele>261</ele>
        <time>2017-12-22T11:03:14Z</time>
      </trkpt>
      <trkpt lat="45.99484" lon="4.81679">
        <ele>261</ele>
        <time>2017-12-22T11:03:15Z</time>
      </trkpt>
      <trkpt lat="45.99482" lon="4.8167">
        <ele>260</ele>
        <time>2017-12-22T11:03:16Z</time>
      </trkpt>
      <trkpt lat="45.9948" lon="4.81662">
        <ele>259</ele>
        <time>2017-12-22T11:03:17Z</time>
      </trkpt>
      <trkpt lat="45.99478" lon="4.81652">
        <ele>259</ele>
        <time>2017-12-22T11:03:18Z</time>
      </trkpt>
      <trkpt lat="45.99476" lon="4.81644">
        <ele>259</ele>
        <time>2017-12-22T11:03:19Z</time>
      </trkpt>
      <trkpt lat="45.99476" lon="4.81635">
        <ele>258</ele>
        <time>2017-12-22T11:03:20Z</time>
      </trkpt>
      <trkpt lat="45.99475" lon="4.81626">
        <ele>258</ele>
        <time>2017-12-22T11:03:21Z</time>
      </trkpt>
      <trkpt lat="45.99474" lon="4.81618">
        <ele>258</ele>
        <time>2017-12-22T11:03:22Z</time>
      </trkpt>
      <trkpt lat="45.99474" lon="4.81609">
        <ele>258</ele>
        <time>2017-12-22T11:03:23Z</time>
      </trkpt>
      <trkpt lat="45.99472" lon="4.81601">
        <ele>257</ele>
        <time>2017-12-22T11:03:24Z</time>
      </trkpt>
      <trkpt lat="45.99471" lon="4.81591">
        <ele>257</ele>
        <time>2017-12-22T11:03:25Z</time>
      </trkpt>
      <trkpt lat="45.9947" lon="4.81582">
        <ele>255</ele>
        <time>2017-12-22T11:03:26Z</time>
      </trkpt>
      <trkpt lat="45.99468" lon="4.81574">
        <ele>255</ele>
        <time>2017-12-22T11:03:27Z</time>
      </trkpt>
      <trkpt lat="45.99467" lon="4.81564">
        <ele>255</ele>
        <time>2017-12-22T11:03:28Z</time>
      </trkpt>
      <trkpt lat="45.99466" lon="4.81554">
        <ele>255</ele>
        <time>2017-12-22T11:03:29Z</time>
      </trkpt>
      <trkpt lat="45.99464" lon="4.81545">
        <ele>255</ele>
        <time>2017-12-22T11:03:30Z</time>
      </trkpt>
      <trkpt lat="45.99462" lon="4.81535">
        <ele>255</ele>
        <time>2017-12-22T11:03:31Z</time>
      </trkpt>
      <trkpt lat="45.99462" lon="4.81526">
        <ele>255</ele>
        <time>2017-12-22T11:03:32Z</time>
      </trkpt>
      <trkpt lat="45.9946" lon="4.81516">
        <ele>255</ele>
        <time>2017-12-22T11:03:33Z</time>
      </trkpt>
      <trkpt lat="45.99459" lon="4.81507">
        <ele>255</ele>
        <time>2017-12-22T11:03:34Z</time>
      </trkpt>
      <trkpt lat="45.99458" lon="4.81497">
        <ele>254</ele>
        <time>2017-12-22T11:03:35Z</time>
      </trkpt>
      <trkpt lat="45.99457" lon="4.81488">
        <ele>254</ele>
        <time>2017-12-22T11:03:36Z</time>
      </trkpt>
      <trkpt lat="45.99454" lon="4.81479">
        <ele>254</ele>
        <time>2017-12-22T11:03:37Z</time>
      </trkpt>
      <trkpt lat="45.99453" lon="4.8147">
        <ele>254</ele>
        <time>2017-12-22T11:03:38Z</time>
      </trkpt>
      <trkpt lat="45.99452" lon="4.81462">
        <ele>254</ele>
        <time>2017-12-22T11:03:39Z</time>
      </trkpt>
      <trkpt lat="45.9945" lon="4.81452">
        <ele>254</ele>
        <time>2017-12-22T11:03:40Z</time>
      </trkpt>
      <trkpt lat="45.99449" lon="4.81444">
        <ele>254</ele>
        <time>2017-12-22T11:03:41Z</time>
      </trkpt>
      <trkpt lat="45.99448" lon="4.81437">
        <ele>254</ele>
        <time>2017-12-22T11:03:42Z</time>
      </trkpt>
      <trkpt lat="45.99447" lon="4.81429">
        <ele>254</ele>
        <time>2017-12-22T11:03:43Z</time>
      </trkpt>
      <trkpt lat="45.99446" lon="4.81421">
        <ele>254</ele>
        <time>2017-12-22T11:03:44Z</time>
      </trkpt>
      <trkpt lat="45.99445" lon="4.81412">
        <ele>254</ele>
        <time>2017-12-22T11:03:45Z</time>
      </trkpt>
      <trkpt lat="45.99444" lon="4.81404">
        <ele>254</ele>
        <time>2017-12-22T11:03:46Z</time>
      </trkpt>
      <trkpt lat="45.99443" lon="4.81395">
        <ele>254</ele>
        <time>2017-12-22T11:03:47Z</time>
      </trkpt>
      <trkpt lat="45.99442" lon="4.81386">
        <ele>254</ele>
        <time>2017-12-22T11:03:48Z</time>
      </trkpt>
      <trkpt lat="45.99442" lon="4.81375">
        <ele>254</ele>
        <time>2017-12-22T11:03:49Z</time>
      </trkpt>
      <trkpt lat="45.99439" lon="4.81365">
        <ele>254</ele>
        <time>2017-12-22T11:03:50Z</time>
      </trkpt>
      <trkpt lat="45.99438" lon="4.81356">
        <ele>254</ele>
        <time>2017-12-22T11:03:51Z</time>
      </trkpt>
      <trkpt lat="45.99437" lon="4.81348">
        <ele>254</ele>
        <time>2017-12-22T11:03:52Z</time>
      </trkpt>
      <trkpt lat="45.99436" lon="4.81339">
        <ele>254</ele>
        <time>2017-12-22T11:03:53Z</time>
      </trkpt>
      <trkpt lat="45.99435" lon="4.8133">
        <ele>254</ele>
        <time>2017-12-22T11:03:54Z</time>
      </trkpt>
      <trkpt lat="45.99433" lon="4.81323">
        <ele>254</ele>
        <time>2017-12-22T11:03:55Z</time>
      </trkpt>
      <trkpt lat="45.99432" lon="4.81315">
        <ele>254</ele>
        <time>2017-12-22T11:03:56Z</time>
      </trkpt>
      <trkpt lat="45.99431" lon="4.81307">
        <ele>253</ele>
        <time>2017-12-22T11:03:57Z</time>
      </trkpt>
      <trkpt lat="45.99429" lon="4.81299">
        <ele>253</ele>
        <time>2017-12-22T11:03:58Z</time>
      </trkpt>
      <trkpt lat="45.99429" lon="4.81291">
        <ele>253</ele>
        <time>2017-12-22T11:03:59Z</time>
      </trkpt>
      <trkpt lat="45.99429" lon="4.81282">
        <ele>253</ele>
        <time>2017-12-22T11:04:00Z</time>
      </trkpt>
      <trkpt lat="45.99428" lon="4.81274">
        <ele>253</ele>
        <time>2017-12-22T11:04:01Z</time>
      </trkpt>
      <trkpt lat="45.99425" lon="4.81264">
        <ele>252</ele>
        <time>2017-12-22T11:04:02Z</time>
      </trkpt>
      <trkpt lat="45.99423" lon="4.81255">
        <ele>252</ele>
        <time>2017-12-22T11:04:03Z</time>
      </trkpt>
      <trkpt lat="45.99422" lon="4.81246">
        <ele>252</ele>
        <time>2017-12-22T11:04:04Z</time>
      </trkpt>
      <trkpt lat="45.99422" lon="4.81236">
        <ele>252</ele>
        <time>2017-12-22T11:04:05Z</time>
      </trkpt>
      <trkpt lat="45.99421" lon="4.81227">
        <ele>251</ele>
        <time>2017-12-22T11:04:06Z</time>
      </trkpt>
      <trkpt lat="45.99417" lon="4.81216">
        <ele>252</ele>
        <time>2017-12-22T11:04:07Z</time>
      </trkpt>
      <trkpt lat="45.99415" lon="4.81207">
        <ele>252</ele>
        <time>2017-12-22T11:04:08Z</time>
      </trkpt>
      <trkpt lat="45.99413" lon="4.81197">
        <ele>252</ele>
        <time>2017-12-22T11:04:09Z</time>
      </trkpt>
      <trkpt lat="45.99411" lon="4.81186">
        <ele>251</ele>
        <time>2017-12-22T11:04:10Z</time>
      </trkpt>
      <trkpt lat="45.9941" lon="4.81178">
        <ele>251</ele>
        <time>2017-12-22T11:04:11Z</time>
      </trkpt>
      <trkpt lat="45.99409" lon="4.81169">
        <ele>251</ele>
        <time>2017-12-22T11:04:12Z</time>
      </trkpt>
      <trkpt lat="45.99407" lon="4.8116">
        <ele>251</ele>
        <time>2017-12-22T11:04:13Z</time>
      </trkpt>
      <trkpt lat="45.99406" lon="4.81151">
        <ele>251</ele>
        <time>2017-12-22T11:04:14Z</time>
      </trkpt>
      <trkpt lat="45.99403" lon="4.81142">
        <ele>251</ele>
        <time>2017-12-22T11:04:15Z</time>
      </trkpt>
      <trkpt lat="45.99402" lon="4.81133">
        <ele>251</ele>
        <time>2017-12-22T11:04:16Z</time>
      </trkpt>
      <trkpt lat="45.994" lon="4.81124">
        <ele>251</ele>
        <time>2017-12-22T11:04:17Z</time>
      </trkpt>
      <trkpt lat="45.994" lon="4.81114">
        <ele>251</ele>
        <time>2017-12-22T11:04:18Z</time>
      </trkpt>
      <trkpt lat="45.99399" lon="4.81104">
        <ele>251</ele>
        <time>2017-12-22T11:04:19Z</time>
      </trkpt>
      <trkpt lat="45.99399" lon="4.81095">
        <ele>251</ele>
        <time>2017-12-22T11:04:20Z</time>
      </trkpt>
      <trkpt lat="45.99398" lon="4.81085">
        <ele>251</ele>
        <time>2017-12-22T11:04:21Z</time>
      </trkpt>
      <trkpt lat="45.99396" lon="4.81075">
        <ele>251</ele>
        <time>2017-12-22T11:04:22Z</time>
      </trkpt>
      <trkpt lat="45.99395" lon="4.81065">
        <ele>251</ele>
        <time>2017-12-22T11:04:23Z</time>
      </trkpt>
      <trkpt lat="45.99393" lon="4.81056">
        <ele>251</ele>
        <time>2017-12-22T11:04:24Z</time>
      </trkpt>
      <trkpt lat="45.99391" lon="4.81047">
        <ele>251</ele>
        <time>2017-12-22T11:04:25Z</time>
      </trkpt>
      <trkpt lat="45.9939" lon="4.81038">
        <ele>251</ele>
        <time>2017-12-22T11:04:26Z</time>
      </trkpt>
      <trkpt lat="45.99388" lon="4.81029">
        <ele>251</ele>
        <time>2017-12-22T11:04:27Z</time>
      </trkpt>
      <trkpt lat="45.99387" lon="4.8102">
        <ele>251</ele>
        <time>2017-12-22T11:04:28Z</time>
      </trkpt>
      <trkpt lat="45.99386" lon="4.81012">
        <ele>251</ele>
        <time>2017-12-22T11:04:29Z</time>
      </trkpt>
      <trkpt lat="45.99386" lon="4.81003">
        <ele>251</ele>
        <time>2017-12-22T11:04:30Z</time>
      </trkpt>
      <trkpt lat="45.99384" lon="4.80994">
        <ele>250</ele>
        <time>2017-12-22T11:04:31Z</time>
      </trkpt>
      <trkpt lat="45.99383" lon="4.80986">
        <ele>250</ele>
        <time>2017-12-22T11:04:32Z</time>
      </trkpt>
      <trkpt lat="45.99383" lon="4.80977">
        <ele>250</ele>
        <time>2017-12-22T11:04:33Z</time>
      </trkpt>
      <trkpt lat="45.99381" lon="4.8097">
        <ele>250</ele>
        <time>2017-12-22T11:04:34Z</time>
      </trkpt>
      <trkpt lat="45.99381" lon="4.80962">
        <ele>250</ele>
        <time>2017-12-22T11:04:35Z</time>
      </trkpt>
      <trkpt lat="45.9938" lon="4.80953">
        <ele>250</ele>
        <time>2017-12-22T11:04:36Z</time>
      </trkpt>
      <trkpt lat="45.99379" lon="4.80944">
        <ele>250</ele>
        <time>2017-12-22T11:04:37Z</time>
      </trkpt>
      <trkpt lat="45.99378" lon="4.80936">
        <ele>250</ele>
        <time>2017-12-22T11:04:38Z</time>
      </trkpt>
      <trkpt lat="45.99377" lon="4.80927">
        <ele>250</ele>
        <time>2017-12-22T11:04:39Z</time>
      </trkpt>
      <trkpt lat="45.99376" lon="4.80919">
        <ele>250</ele>
        <time>2017-12-22T11:04:40Z</time>
      </trkpt>
      <trkpt lat="45.99375" lon="4.8091">
        <ele>248</ele>
        <time>2017-12-22T11:04:41Z</time>
      </trkpt>
      <trkpt lat="45.99373" lon="4.80902">
        <ele>248</ele>
        <time>2017-12-22T11:04:42Z</time>
      </trkpt>
      <trkpt lat="45.99373" lon="4.80892">
        <ele>248</ele>
        <time>2017-12-22T11:04:43Z</time>
      </trkpt>
      <trkpt lat="45.99372" lon="4.80884">
        <ele>248</ele>
        <time>2017-12-22T11:04:44Z</time>
      </trkpt>
      <trkpt lat="45.99371" lon="4.80874">
        <ele>248</ele>
        <time>2017-12-22T11:04:45Z</time>
      </trkpt>
      <trkpt lat="45.99369" lon="4.80866">
        <ele>248</ele>
        <time>2017-12-22T11:04:46Z</time>
      </trkpt>
      <trkpt lat="45.99368" lon="4.80857">
        <ele>248</ele>
        <time>2017-12-22T11:04:47Z</time>
      </trkpt>
      <trkpt lat="45.99367" lon="4.80847">
        <ele>247</ele>
        <time>2017-12-22T11:04:48Z</time>
      </trkpt>
      <trkpt lat="45.99366" lon="4.80838">
        <ele>247</ele>
        <time>2017-12-22T11:04:49Z</time>
      </trkpt>
      <trkpt lat="45.99364" lon="4.80828">
        <ele>246</ele>
        <time>2017-12-22T11:04:50Z</time>
      </trkpt>
      <trkpt lat="45.99363" lon="4.80818">
        <ele>246</ele>
        <time>2017-12-22T11:04:51Z</time>
      </trkpt>
      <trkpt lat="45.99362" lon="4.80806">
        <ele>246</ele>
        <time>2017-12-22T11:04:52Z</time>
      </trkpt>
      <trkpt lat="45.9936" lon="4.80796">
        <ele>246</ele>
        <time>2017-12-22T11:04:53Z</time>
      </trkpt>
      <trkpt lat="45.99359" lon="4.80787">
        <ele>246</ele>
        <time>2017-12-22T11:04:54Z</time>
      </trkpt>
      <trkpt lat="45.99358" lon="4.80777">
        <ele>245</ele>
        <time>2017-12-22T11:04:55Z</time>
      </trkpt>
      <trkpt lat="45.99357" lon="4.80767">
        <ele>245</ele>
        <time>2017-12-22T11:04:56Z</time>
      </trkpt>
      <trkpt lat="45.99356" lon="4.80758">
        <ele>245</ele>
        <time>2017-12-22T11:04:57Z</time>
      </trkpt>
      <trkpt lat="45.99355" lon="4.80749">
        <ele>245</ele>
        <time>2017-12-22T11:04:58Z</time>
      </trkpt>
      <trkpt lat="45.99354" lon="4.80737">
        <ele>245</ele>
        <time>2017-12-22T11:04:59Z</time>
      </trkpt>
      <trkpt lat="45.99354" lon="4.80727">
        <ele>244</ele>
        <time>2017-12-22T11:05:00Z</time>
      </trkpt>
      <trkpt lat="45.99352" lon="4.80717">
        <ele>244</ele>
        <time>2017-12-22T11:05:01Z</time>
      </trkpt>
      <trkpt lat="45.99351" lon="4.80707">
        <ele>244</ele>
        <time>2017-12-22T11:05:02Z</time>
      </trkpt>
      <trkpt lat="45.9935" lon="4.80698">
        <ele>244</ele>
        <time>2017-12-22T11:05:03Z</time>
      </trkpt>
      <trkpt lat="45.99348" lon="4.80689">
        <ele>244</ele>
        <time>2017-12-22T11:05:04Z</time>
      </trkpt>
      <trkpt lat="45.99348" lon="4.8068">
        <ele>244</ele>
        <time>2017-12-22T11:05:05Z</time>
      </trkpt>
      <trkpt lat="45.99347" lon="4.8067">
        <ele>244</ele>
        <time>2017-12-22T11:05:06Z</time>
      </trkpt>
      <trkpt lat="45.99346" lon="4.80661">
        <ele>244</ele>
        <time>2017-12-22T11:05:07Z</time>
      </trkpt>
      <trkpt lat="45.99345" lon="4.80652">
        <ele>244</ele>
        <time>2017-12-22T11:05:08Z</time>
      </trkpt>
      <trkpt lat="45.99344" lon="4.80643">
        <ele>244</ele>
        <time>2017-12-22T11:05:09Z</time>
      </trkpt>
      <trkpt lat="45.99342" lon="4.80633">
        <ele>243</ele>
        <time>2017-12-22T11:05:10Z</time>
      </trkpt>
      <trkpt lat="45.99341" lon="4.80625">
        <ele>243</ele>
        <time>2017-12-22T11:05:11Z</time>
      </trkpt>
      <trkpt lat="45.99339" lon="4.80614">
        <ele>243</ele>
        <time>2017-12-22T11:05:12Z</time>
      </trkpt>
      <trkpt lat="45.99339" lon="4.80605">
        <ele>243</ele>
        <time>2017-12-22T11:05:13Z</time>
      </trkpt>
      <trkpt lat="45.99338" lon="4.80596">
        <ele>243</ele>
        <time>2017-12-22T11:05:14Z</time>
      </trkpt>
      <trkpt lat="45.99337" lon="4.80587">
        <ele>242</ele>
        <time>2017-12-22T11:05:15Z</time>
      </trkpt>
      <trkpt lat="45.99334" lon="4.80577">
        <ele>242</ele>
        <time>2017-12-22T11:05:16Z</time>
      </trkpt>
      <trkpt lat="45.99331" lon="4.80567">
        <ele>242</ele>
        <time>2017-12-22T11:05:17Z</time>
      </trkpt>
      <trkpt lat="45.9933" lon="4.80559">
        <ele>242</ele>
        <time>2017-12-22T11:05:18Z</time>
      </trkpt>
      <trkpt lat="45.9933" lon="4.80551">
        <ele>241</ele>
        <time>2017-12-22T11:05:19Z</time>
      </trkpt>
      <trkpt lat="45.99327" lon="4.80542">
        <ele>241</ele>
        <time>2017-12-22T11:05:20Z</time>
      </trkpt>
      <trkpt lat="45.99327" lon="4.80533">
        <ele>241</ele>
        <time>2017-12-22T11:05:21Z</time>
      </trkpt>
      <trkpt lat="45.99325" lon="4.80524">
        <ele>241</ele>
        <time>2017-12-22T11:05:22Z</time>
      </trkpt>
      <trkpt lat="45.99327" lon="4.80515">
        <ele>241</ele>
        <time>2017-12-22T11:05:23Z</time>
      </trkpt>
      <trkpt lat="45.99325" lon="4.80507">
        <ele>241</ele>
        <time>2017-12-22T11:05:24Z</time>
      </trkpt>
      <trkpt lat="45.99323" lon="4.80499">
        <ele>240</ele>
        <time>2017-12-22T11:05:25Z</time>
      </trkpt>
      <trkpt lat="45.99322" lon="4.80491">
        <ele>241</ele>
        <time>2017-12-22T11:05:26Z</time>
      </trkpt>
      <trkpt lat="45.99321" lon="4.80483">
        <ele>241</ele>
        <time>2017-12-22T11:05:27Z</time>
      </trkpt>
      <trkpt lat="45.99321" lon="4.80475">
        <ele>241</ele>
        <time>2017-12-22T11:05:28Z</time>
      </trkpt>
      <trkpt lat="45.99322" lon="4.80467">
        <ele>241</ele>
        <time>2017-12-22T11:05:29Z</time>
      </trkpt>
      <trkpt lat="45.99321" lon="4.80458">
        <ele>241</ele>
        <time>2017-12-22T11:05:30Z</time>
      </trkpt>
      <trkpt lat="45.9932" lon="4.80449">
        <ele>241</ele>
        <time>2017-12-22T11:05:31Z</time>
      </trkpt>
      <trkpt lat="45.9932" lon="4.8044">
        <ele>241</ele>
        <time>2017-12-22T11:05:32Z</time>
      </trkpt>
      <trkpt lat="45.99321" lon="4.80433">
        <ele>241</ele>
        <time>2017-12-22T11:05:33Z</time>
      </trkpt>
      <trkpt lat="45.99323" lon="4.80425">
        <ele>241</ele>
        <time>2017-12-22T11:05:34Z</time>
      </trkpt>
      <trkpt lat="45.99325" lon="4.80419">
        <ele>241</ele>
        <time>2017-12-22T11:05:35Z</time>
      </trkpt>
      <trkpt lat="45.99326" lon="4.80411">
        <ele>242</ele>
        <time>2017-12-22T11:05:36Z</time>
      </trkpt>
      <trkpt lat="45.99326" lon="4.80404">
        <ele>242</ele>
        <time>2017-12-22T11:05:37Z</time>
      </trkpt>
      <trkpt lat="45.99326" lon="4.80395">
        <ele>242</ele>
        <time>2017-12-22T11:05:38Z</time>
      </trkpt>
      <trkpt lat="45.99323" lon="4.80388">
        <ele>242</ele>
        <time>2017-12-22T11:05:39Z</time>
      </trkpt>
      <trkpt lat="45.99319" lon="4.80382">
        <ele>242</ele>
        <time>2017-12-22T11:05:40Z</time>
      </trkpt>
      <trkpt lat="45.99313" lon="4.80378">
        <ele>242</ele>
        <time>2017-12-22T11:05:41Z</time>
      </trkpt>
      <trkpt lat="45.99307" lon="4.80377">
        <ele>242</ele>
        <time>2017-12-22T11:05:42Z</time>
      </trkpt>
      <trkpt lat="45.99301" lon="4.80377">
        <ele>242</ele>
        <time>2017-12-22T11:05:43Z</time>
      </trkpt>
      <trkpt lat="45.99294" lon="4.80378">
        <ele>242</ele>
        <time>2017-12-22T11:05:44Z</time>
      </trkpt>
      <trkpt lat="45.99287" lon="4.80377">
        <ele>242</ele>
        <time>2017-12-22T11:05:45Z</time>
      </trkpt>
      <trkpt lat="45.99279" lon="4.80375">
        <ele>242</ele>
        <time>2017-12-22T11:05:46Z</time>
      </trkpt>
      <trkpt lat="45.99274" lon="4.8037">
        <ele>243</ele>
        <time>2017-12-22T11:05:47Z</time>
      </trkpt>
      <trkpt lat="45.99265" lon="4.80369">
        <ele>243</ele>
        <time>2017-12-22T11:05:48Z</time>
      </trkpt>
      <trkpt lat="45.9926" lon="4.80363">
        <ele>243</ele>
        <time>2017-12-22T11:05:49Z</time>
      </trkpt>
      <trkpt lat="45.99256" lon="4.80356">
        <ele>243</ele>
        <time>2017-12-22T11:05:50Z</time>
      </trkpt>
      <trkpt lat="45.99251" lon="4.80351">
        <ele>243</ele>
        <time>2017-12-22T11:05:51Z</time>
      </trkpt>
      <trkpt lat="45.99248" lon="4.80344">
        <ele>242</ele>
        <time>2017-12-22T11:05:52Z</time>
      </trkpt>
      <trkpt lat="45.99244" lon="4.80337">
        <ele>243</ele>
        <time>2017-12-22T11:05:53Z</time>
      </trkpt>
      <trkpt lat="45.99243" lon="4.80329">
        <ele>243</ele>
        <time>2017-12-22T11:05:54Z</time>
      </trkpt>
      <trkpt lat="45.9924" lon="4.80322">
        <ele>243</ele>
        <time>2017-12-22T11:05:55Z</time>
      </trkpt>
      <trkpt lat="45.99236" lon="4.80316">
        <ele>243</ele>
        <time>2017-12-22T11:05:56Z</time>
      </trkpt>
      <trkpt lat="45.99232" lon="4.8031">
        <ele>243</ele>
        <time>2017-12-22T11:05:57Z</time>
      </trkpt>
      <trkpt lat="45.99228" lon="4.80305">
        <ele>242</ele>
        <time>2017-12-22T11:05:58Z</time>
      </trkpt>
      <trkpt lat="45.99223" lon="4.80299">
        <ele>242</ele>
        <time>2017-12-22T11:05:59Z</time>
      </trkpt>
      <trkpt lat="45.99218" lon="4.80294">
        <ele>242</ele>
        <time>2017-12-22T11:06:00Z</time>
      </trkpt>
      <trkpt lat="45.99214" lon="4.80287">
        <ele>242</ele>
        <time>2017-12-22T11:06:01Z</time>
      </trkpt>
      <trkpt lat="45.99209" lon="4.8028">
        <ele>242</ele>
        <time>2017-12-22T11:06:02Z</time>
      </trkpt>
      <trkpt lat="45.99205" lon="4.80274">
        <ele>242</ele>
        <time>2017-12-22T11:06:03Z</time>
      </trkpt>
      <trkpt lat="45.99201" lon="4.80267">
        <ele>242</ele>
        <time>2017-12-22T11:06:04Z</time>
      </trkpt>
      <trkpt lat="45.99195" lon="4.8026">
        <ele>242</ele>
        <time>2017-12-22T11:06:05Z</time>
      </trkpt>
      <trkpt lat="45.99191" lon="4.80255">
        <ele>242</ele>
        <time>2017-12-22T11:06:06Z</time>
      </trkpt>
      <trkpt lat="45.99187" lon="4.8025">
        <ele>242</ele>
        <time>2017-12-22T11:06:07Z</time>
      </trkpt>
      <trkpt lat="45.99183" lon="4.80244">
        <ele>242</ele>
        <time>2017-12-22T11:06:08Z</time>
      </trkpt>
      <trkpt lat="45.99179" lon="4.80239">
        <ele>242</ele>
        <time>2017-12-22T11:06:09Z</time>
      </trkpt>
      <trkpt lat="45.99175" lon="4.80234">
        <ele>242</ele>
        <time>2017-12-22T11:06:10Z</time>
      </trkpt>
      <trkpt lat="45.99171" lon="4.8023">
        <ele>242</ele>
        <time>2017-12-22T11:06:11Z</time>
      </trkpt>
      <trkpt lat="45.99167" lon="4.80225">
        <ele>243</ele>
        <time>2017-12-22T11:06:12Z</time>
      </trkpt>
      <trkpt lat="45.99164" lon="4.80219">
        <ele>242</ele>
        <time>2017-12-22T11:06:13Z</time>
      </trkpt>
      <trkpt lat="45.99159" lon="4.80214">
        <ele>242</ele>
        <time>2017-12-22T11:06:14Z</time>
      </trkpt>
      <trkpt lat="45.99157" lon="4.80209">
        <ele>242</ele>
        <time>2017-12-22T11:06:15Z</time>
      </trkpt>
      <trkpt lat="45.99152" lon="4.80203">
        <ele>242</ele>
        <time>2017-12-22T11:06:16Z</time>
      </trkpt>
      <trkpt lat="45.99148" lon="4.80198">
        <ele>242</ele>
        <time>2017-12-22T11:06:17Z</time>
      </trkpt>
      <trkpt lat="45.99141" lon="4.80193">
        <ele>242</ele>
        <time>2017-12-22T11:06:18Z</time>
      </trkpt>
      <trkpt lat="45.99136" lon="4.80188">
        <ele>242</ele>
        <time>2017-12-22T11:06:19Z</time>
      </trkpt>
      <trkpt lat="45.99131" lon="4.80184">
        <ele>242</ele>
        <time>2017-12-22T11:06:20Z</time>
      </trkpt>
      <trkpt lat="45.99127" lon="4.80178">
        <ele>242</ele>
        <time>2017-12-22T11:06:21Z</time>
      </trkpt>
      <trkpt lat="45.99122" lon="4.80173">
        <ele>242</ele>
        <time>2017-12-22T11:06:22Z</time>
      </trkpt>
      <trkpt lat="45.99117" lon="4.80167">
        <ele>242</ele>
        <time>2017-12-22T11:06:23Z</time>
      </trkpt>
      <trkpt lat="45.99113" lon="4.80161">
        <ele>243</ele>
        <time>2017-12-22T11:06:24Z</time>
      </trkpt>
      <trkpt lat="45.99109" lon="4.80156">
        <ele>243</ele>
        <time>2017-12-22T11:06:25Z</time>
      </trkpt>
      <trkpt lat="45.99105" lon="4.80151">
        <ele>243</ele>
        <time>2017-12-22T11:06:26Z</time>
      </trkpt>
      <trkpt lat="45.991" lon="4.80147">
        <ele>243</ele>
        <time>2017-12-22T11:06:27Z</time>
      </trkpt>
      <trkpt lat="45.99095" lon="4.80142">
        <ele>243</ele>
        <time>2017-12-22T11:06:28Z</time>
      </trkpt>
      <trkpt lat="45.99091" lon="4.80136">
        <ele>243</ele>
        <time>2017-12-22T11:06:29Z</time>
      </trkpt>
      <trkpt lat="45.99086" lon="4.80132">
        <ele>243</ele>
        <time>2017-12-22T11:06:30Z</time>
      </trkpt>
      <trkpt lat="45.99082" lon="4.80126">
        <ele>242</ele>
        <time>2017-12-22T11:06:31Z</time>
      </trkpt>
      <trkpt lat="45.99077" lon="4.80122">
        <ele>242</ele>
        <time>2017-12-22T11:06:32Z</time>
      </trkpt>
      <trkpt lat="45.99073" lon="4.80118">
        <ele>242</ele>
        <time>2017-12-22T11:06:33Z</time>
      </trkpt>
      <trkpt lat="45.99068" lon="4.80113">
        <ele>242</ele>
        <time>2017-12-22T11:06:34Z</time>
      </trkpt>
      <trkpt lat="45.99063" lon="4.80108">
        <ele>242</ele>
        <time>2017-12-22T11:06:35Z</time>
      </trkpt>
      <trkpt lat="45.99059" lon="4.80101">
        <ele>242</ele>
        <time>2017-12-22T11:06:36Z</time>
      </trkpt>
      <trkpt lat="45.99055" lon="4.80095">
        <ele>242</ele>
        <time>2017-12-22T11:06:37Z</time>
      </trkpt>
      <trkpt lat="45.9905" lon="4.8009">
        <ele>242</ele>
        <time>2017-12-22T11:06:38Z</time>
      </trkpt>
      <trkpt lat="45.99046" lon="4.80085">
        <ele>242</ele>
        <time>2017-12-22T11:06:39Z</time>
      </trkpt>
      <trkpt lat="45.99042" lon="4.8008">
        <ele>244</ele>
        <time>2017-12-22T11:06:40Z</time>
      </trkpt>
      <trkpt lat="45.99036" lon="4.80075">
        <ele>244</ele>
        <time>2017-12-22T11:06:41Z</time>
      </trkpt>
      <trkpt lat="45.99032" lon="4.8007">
        <ele>243</ele>
        <time>2017-12-22T11:06:42Z</time>
      </trkpt>
      <trkpt lat="45.99028" lon="4.80064">
        <ele>243</ele>
        <time>2017-12-22T11:06:43Z</time>
      </trkpt>
      <trkpt lat="45.99023" lon="4.80059">
        <ele>243</ele>
        <time>2017-12-22T11:06:44Z</time>
      </trkpt>
      <trkpt lat="45.99018" lon="4.80053">
        <ele>244</ele>
        <time>2017-12-22T11:06:45Z</time>
      </trkpt>
      <trkpt lat="45.99013" lon="4.80048">
        <ele>244</ele>
        <time>2017-12-22T11:06:46Z</time>
      </trkpt>
      <trkpt lat="45.99008" lon="4.80041">
        <ele>244</ele>
        <time>2017-12-22T11:06:47Z</time>
      </trkpt>
      <trkpt lat="45.99003" lon="4.80035">
        <ele>244</ele>
        <time>2017-12-22T11:06:48Z</time>
      </trkpt>
      <trkpt lat="45.98999" lon="4.8003">
        <ele>243</ele>
        <time>2017-12-22T11:06:49Z</time>
      </trkpt>
      <trkpt lat="45.98993" lon="4.80024">
        <ele>243</ele>
        <time>2017-12-22T11:06:50Z</time>
      </trkpt>
      <trkpt lat="45.98989" lon="4.80019">
        <ele>243</ele>
        <time>2017-12-22T11:06:51Z</time>
      </trkpt>
      <trkpt lat="45.98984" lon="4.80015">
        <ele>243</ele>
        <time>2017-12-22T11:06:52Z</time>
      </trkpt>
      <trkpt lat="45.9898" lon="4.80009">
        <ele>243</ele>
        <time>2017-12-22T11:06:53Z</time>
      </trkpt>
      <trkpt lat="45.98975" lon="4.80004">
        <ele>243</ele>
        <time>2017-12-22T11:06:54Z</time>
      </trkpt>
      <trkpt lat="45.98971" lon="4.79998">
        <ele>245</ele>
        <time>2017-12-22T11:06:55Z</time>
      </trkpt>
      <trkpt lat="45.98966" lon="4.79992">
        <ele>245</ele>
        <time>2017-12-22T11:06:56Z</time>
      </trkpt>
      <trkpt lat="45.98961" lon="4.79987">
        <ele>245</ele>
        <time>2017-12-22T11:06:57Z</time>
      </trkpt>
      <trkpt lat="45.98957" lon="4.79981">
        <ele>245</ele>
        <time>2017-12-22T11:06:58Z</time>
      </trkpt>
      <trkpt lat="45.98952" lon="4.79976">
        <ele>245</ele>
        <time>2017-12-22T11:06:59Z</time>
      </trkpt>
      <trkpt lat="45.98947" lon="4.7997">
        <ele>245</ele>
        <time>2017-12-22T11:07:00Z</time>
      </trkpt>
      <trkpt lat="45.98943" lon="4.79965">
        <ele>245</ele>
        <time>2017-12-22T11:07:01Z</time>
      </trkpt>
      <trkpt lat="45.98937" lon="4.79961">
        <ele>245</ele>
        <time>2017-12-22T11:07:02Z</time>
      </trkpt>
      <trkpt lat="45.98934" lon="4.79956">
        <ele>245</ele>
        <time>2017-12-22T11:07:03Z</time>
      </trkpt>
      <trkpt lat="45.98929" lon="4.79951">
        <ele>245</ele>
        <time>2017-12-22T11:07:04Z</time>
      </trkpt>
      <trkpt lat="45.98924" lon="4.79945">
        <ele>245</ele>
        <time>2017-12-22T11:07:05Z</time>
      </trkpt>
      <trkpt lat="45.9892" lon="4.79939">
        <ele>245</ele>
        <time>2017-12-22T11:07:06Z</time>
      </trkpt>
      <trkpt lat="45.98915" lon="4.79934">
        <ele>244</ele>
        <time>2017-12-22T11:07:07Z</time>
      </trkpt>
      <trkpt lat="45.9891" lon="4.79929">
        <ele>244</ele>
        <time>2017-12-22T11:07:08Z</time>
      </trkpt>
      <trkpt lat="45.98906" lon="4.79923">
        <ele>244</ele>
        <time>2017-12-22T11:07:09Z</time>
      </trkpt>
      <trkpt lat="45.98902" lon="4.79918">
        <ele>244</ele>
        <time>2017-12-22T11:07:10Z</time>
      </trkpt>
      <trkpt lat="45.98897" lon="4.79912">
        <ele>244</ele>
        <time>2017-12-22T11:07:11Z</time>
      </trkpt>
      <trkpt lat="45.98894" lon="4.79907">
        <ele>244</ele>
        <time>2017-12-22T11:07:12Z</time>
      </trkpt>
      <trkpt lat="45.98889" lon="4.79901">
        <ele>244</ele>
        <time>2017-12-22T11:07:13Z</time>
      </trkpt>
      <trkpt lat="45.98884" lon="4.79897">
        <ele>244</ele>
        <time>2017-12-22T11:07:14Z</time>
      </trkpt>
      <trkpt lat="45.9888" lon="4.79893">
        <ele>244</ele>
        <time>2017-12-22T11:07:15Z</time>
      </trkpt>
      <trkpt lat="45.98876" lon="4.79888">
        <ele>244</ele>
        <time>2017-12-22T11:07:16Z</time>
      </trkpt>
      <trkpt lat="45.98872" lon="4.79884">
        <ele>244</ele>
        <time>2017-12-22T11:07:17Z</time>
      </trkpt>
      <trkpt lat="45.98868" lon="4.79878">
        <ele>244</ele>
        <time>2017-12-22T11:07:18Z</time>
      </trkpt>
      <trkpt lat="45.98864" lon="4.79873">
        <ele>244</ele>
        <time>2017-12-22T11:07:19Z</time>
      </trkpt>
      <trkpt lat="45.98859" lon="4.79868">
        <ele>244</ele>
        <time>2017-12-22T11:07:20Z</time>
      </trkpt>
      <trkpt lat="45.98856" lon="4.79863">
        <ele>244</ele>
        <time>2017-12-22T11:07:21Z</time>
      </trkpt>
      <trkpt lat="45.98851" lon="4.79857">
        <ele>244</ele>
        <time>2017-12-22T11:07:22Z</time>
      </trkpt>
      <trkpt lat="45.98846" lon="4.79853">
        <ele>244</ele>
        <time>2017-12-22T11:07:23Z</time>
      </trkpt>
      <trkpt lat="45.98843" lon="4.79846">
        <ele>244</ele>
        <time>2017-12-22T11:07:24Z</time>
      </trkpt>
      <trkpt lat="45.98838" lon="4.79842">
        <ele>244</ele>
        <time>2017-12-22T11:07:25Z</time>
      </trkpt>
      <trkpt lat="45.98833" lon="4.79836">
        <ele>244</ele>
        <time>2017-12-22T11:07:26Z</time>
      </trkpt>
      <trkpt lat="45.98828" lon="4.79831">
        <ele>244</ele>
        <time>2017-12-22T11:07:27Z</time>
      </trkpt>
      <trkpt lat="45.98823" lon="4.79826">
        <ele>244</ele>
        <time>2017-12-22T11:07:28Z</time>
      </trkpt>
      <trkpt lat="45.98819" lon="4.79822">
        <ele>245</ele>
        <time>2017-12-22T11:07:29Z</time>
      </trkpt>
      <trkpt lat="45.98815" lon="4.79817">
        <ele>245</ele>
        <time>2017-12-22T11:07:30Z</time>
      </trkpt>
      <trkpt lat="45.9881" lon="4.79811">
        <ele>245</ele>
        <time>2017-12-22T11:07:31Z</time>
      </trkpt>
      <trkpt lat="45.98806" lon="4.79807">
        <ele>245</ele>
        <time>2017-12-22T11:07:32Z</time>
      </trkpt>
      <trkpt lat="45.98801" lon="4.79803">
        <ele>245</ele>
        <time>2017-12-22T11:07:33Z</time>
      </trkpt>
      <trkpt lat="45.98797" lon="4.79797">
        <ele>245</ele>
        <time>2017-12-22T11:07:34Z</time>
      </trkpt>
      <trkpt lat="45.98792" lon="4.79792">
        <ele>245</ele>
        <time>2017-12-22T11:07:35Z</time>
      </trkpt>
      <trkpt lat="45.98788" lon="4.79788">
        <ele>245</ele>
        <time>2017-12-22T11:07:36Z</time>
      </trkpt>
      <trkpt lat="45.98783" lon="4.79782">
        <ele>245</ele>
        <time>2017-12-22T11:07:37Z</time>
      </trkpt>
      <trkpt lat="45.98779" lon="4.79777">
        <ele>245</ele>
        <time>2017-12-22T11:07:38Z</time>
      </trkpt>
      <trkpt lat="45.98774" lon="4.79772">
        <ele>245</ele>
        <time>2017-12-22T11:07:39Z</time>
      </trkpt>
      <trkpt lat="45.9877" lon="4.79767">
        <ele>245</ele>
        <time>2017-12-22T11:07:40Z</time>
      </trkpt>
      <trkpt lat="45.98765" lon="4.79761">
        <ele>245</ele>
        <time>2017-12-22T11:07:41Z</time>
      </trkpt>
      <trkpt lat="45.9876" lon="4.79756">
        <ele>245</ele>
        <time>2017-12-22T11:07:42Z</time>
      </trkpt>
      <trkpt lat="45.98755" lon="4.79752">
        <ele>245</ele>
        <time>2017-12-22T11:07:43Z</time>
      </trkpt>
      <trkpt lat="45.98751" lon="4.79748">
        <ele>245</ele>
        <time>2017-12-22T11:07:44Z</time>
      </trkpt>
      <trkpt lat="45.98746" lon="4.79744">
        <ele>245</ele>
        <time>2017-12-22T11:07:45Z</time>
      </trkpt>
      <trkpt lat="45.98741" lon="4.79741">
        <ele>245</ele>
        <time>2017-12-22T11:07:46Z</time>
      </trkpt>
      <trkpt lat="45.98738" lon="4.79738">
        <ele>245</ele>
        <time>2017-12-22T11:07:47Z</time>
      </trkpt>
      <trkpt lat="45.98732" lon="4.79735">
        <ele>245</ele>
        <time>2017-12-22T11:07:49Z</time>
      </trkpt>
      <trkpt lat="45.98728" lon="4.79733">
        <ele>245</ele>
        <time>2017-12-22T11:07:50Z</time>
      </trkpt>
      <trkpt lat="45.9872" lon="4.79728">
        <ele>245</ele>
        <time>2017-12-22T11:07:52Z</time>
      </trkpt>
      <trkpt lat="45.98716" lon="4.79726">
        <ele>245</ele>
        <time>2017-12-22T11:07:53Z</time>
      </trkpt>
      <trkpt lat="45.98711" lon="4.79722">
        <ele>245</ele>
        <time>2017-12-22T11:07:54Z</time>
      </trkpt>
      <trkpt lat="45.98706" lon="4.79719">
        <ele>245</ele>
        <time>2017-12-22T11:07:55Z</time>
      </trkpt>
      <trkpt lat="45.98701" lon="4.79717">
        <ele>245</ele>
        <time>2017-12-22T11:07:56Z</time>
      </trkpt>
      <trkpt lat="45.98695" lon="4.79715">
        <ele>245</ele>
        <time>2017-12-22T11:07:57Z</time>
      </trkpt>
      <trkpt lat="45.9869" lon="4.79712">
        <ele>245</ele>
        <time>2017-12-22T11:07:58Z</time>
      </trkpt>
      <trkpt lat="45.98684" lon="4.79708">
        <ele>245</ele>
        <time>2017-12-22T11:07:59Z</time>
      </trkpt>
      <trkpt lat="45.98678" lon="4.79705">
        <ele>245</ele>
        <time>2017-12-22T11:08:00Z</time>
      </trkpt>
      <trkpt lat="45.98674" lon="4.797">
        <ele>245</ele>
        <time>2017-12-22T11:08:01Z</time>
      </trkpt>
      <trkpt lat="45.98669" lon="4.79695">
        <ele>245</ele>
        <time>2017-12-22T11:08:02Z</time>
      </trkpt>
      <trkpt lat="45.98664" lon="4.79691">
        <ele>245</ele>
        <time>2017-12-22T11:08:03Z</time>
      </trkpt>
      <trkpt lat="45.98659" lon="4.79684">
        <ele>245</ele>
        <time>2017-12-22T11:08:04Z</time>
      </trkpt>
      <trkpt lat="45.98656" lon="4.79677">
        <ele>245</ele>
        <time>2017-12-22T11:08:05Z</time>
      </trkpt>
      <trkpt lat="45.98652" lon="4.79671">
        <ele>245</ele>
        <time>2017-12-22T11:08:06Z</time>
      </trkpt>
      <trkpt lat="45.98648" lon="4.79664">
        <ele>245</ele>
        <time>2017-12-22T11:08:07Z</time>
      </trkpt>
      <trkpt lat="45.98644" lon="4.79659">
        <ele>245</ele>
        <time>2017-12-22T11:08:08Z</time>
      </trkpt>
      <trkpt lat="45.98641" lon="4.79653">
        <ele>245</ele>
        <time>2017-12-22T11:08:09Z</time>
      </trkpt>
      <trkpt lat="45.98638" lon="4.79647">
        <ele>245</ele>
        <time>2017-12-22T11:08:10Z</time>
      </trkpt>
      <trkpt lat="45.98635" lon="4.79641">
        <ele>245</ele>
        <time>2017-12-22T11:08:11Z</time>
      </trkpt>
      <trkpt lat="45.98631" lon="4.7963">
        <ele>245</ele>
        <time>2017-12-22T11:08:13Z</time>
      </trkpt>
      <trkpt lat="45.98631" lon="4.79626">
        <ele>245</ele>
        <time>2017-12-22T11:08:14Z</time>
      </trkpt>
      <trkpt lat="45.98631" lon="4.79616">
        <ele>245</ele>
        <time>2017-12-22T11:08:16Z</time>
      </trkpt>
      <trkpt lat="45.98631" lon="4.7961">
        <ele>245</ele>
        <time>2017-12-22T11:08:17Z</time>
      </trkpt>
      <trkpt lat="45.98633" lon="4.79598">
        <ele>245</ele>
        <time>2017-12-22T11:08:19Z</time>
      </trkpt>
      <trkpt lat="45.98631" lon="4.79592">
        <ele>245</ele>
        <time>2017-12-22T11:08:20Z</time>
      </trkpt>
      <trkpt lat="45.98629" lon="4.79585">
        <ele>245</ele>
        <time>2017-12-22T11:08:21Z</time>
      </trkpt>
      <trkpt lat="45.98625" lon="4.79581">
        <ele>245</ele>
        <time>2017-12-22T11:08:22Z</time>
      </trkpt>
      <trkpt lat="45.9862" lon="4.79577">
        <ele>245</ele>
        <time>2017-12-22T11:08:23Z</time>
      </trkpt>
      <trkpt lat="45.98614" lon="4.79576">
        <ele>245</ele>
        <time>2017-12-22T11:08:24Z</time>
      </trkpt>
      <trkpt lat="45.9861" lon="4.79575">
        <ele>245</ele>
        <time>2017-12-22T11:08:25Z</time>
      </trkpt>
      <trkpt lat="45.98602" lon="4.79577">
        <ele>245</ele>
        <time>2017-12-22T11:08:26Z</time>
      </trkpt>
      <trkpt lat="45.98597" lon="4.79578">
        <ele>245</ele>
        <time>2017-12-22T11:08:27Z</time>
      </trkpt>
      <trkpt lat="45.98592" lon="4.7958">
        <ele>245</ele>
        <time>2017-12-22T11:08:28Z</time>
      </trkpt>
      <trkpt lat="45.98586" lon="4.79579">
        <ele>245</ele>
        <time>2017-12-22T11:08:29Z</time>
      </trkpt>
      <trkpt lat="45.98582" lon="4.79578">
        <ele>245</ele>
        <time>2017-12-22T11:08:30Z</time>
      </trkpt>
      <trkpt lat="45.98576" lon="4.79578">
        <ele>245</ele>
        <time>2017-12-22T11:08:31Z</time>
      </trkpt>
      <trkpt lat="45.98571" lon="4.79575">
        <ele>245</ele>
        <time>2017-12-22T11:08:32Z</time>
      </trkpt>
      <trkpt lat="45.98566" lon="4.79571">
        <ele>244</ele>
        <time>2017-12-22T11:08:33Z</time>
      </trkpt>
      <trkpt lat="45.98562" lon="4.79567">
        <ele>244</ele>
        <time>2017-12-22T11:08:34Z</time>
      </trkpt>
      <trkpt lat="45.98558" lon="4.79562">
        <ele>244</ele>
        <time>2017-12-22T11:08:35Z</time>
      </trkpt>
      <trkpt lat="45.98554" lon="4.79557">
        <ele>244</ele>
        <time>2017-12-22T11:08:36Z</time>
      </trkpt>
      <trkpt lat="45.98548" lon="4.79551">
        <ele>244</ele>
        <time>2017-12-22T11:08:37Z</time>
      </trkpt>
      <trkpt lat="45.98544" lon="4.79544">
        <ele>244</ele>
        <time>2017-12-22T11:08:38Z</time>
      </trkpt>
      <trkpt lat="45.9854" lon="4.79538">
        <ele>244</ele>
        <time>2017-12-22T11:08:39Z</time>
      </trkpt>
      <trkpt lat="45.98537" lon="4.7953">
        <ele>244</ele>
        <time>2017-12-22T11:08:40Z</time>
      </trkpt>
      <trkpt lat="45.98535" lon="4.79523">
        <ele>244</ele>
        <time>2017-12-22T11:08:41Z</time>
      </trkpt>
      <trkpt lat="45.98532" lon="4.79514">
        <ele>244</ele>
        <time>2017-12-22T11:08:42Z</time>
      </trkpt>
      <trkpt lat="45.9853" lon="4.79504">
        <ele>244</ele>
        <time>2017-12-22T11:08:43Z</time>
      </trkpt>
      <trkpt lat="45.98528" lon="4.79494">
        <ele>244</ele>
        <time>2017-12-22T11:08:44Z</time>
      </trkpt>
      <trkpt lat="45.98527" lon="4.79484">
        <ele>244</ele>
        <time>2017-12-22T11:08:45Z</time>
      </trkpt>
      <trkpt lat="45.98526" lon="4.79473">
        <ele>244</ele>
        <time>2017-12-22T11:08:46Z</time>
      </trkpt>
      <trkpt lat="45.98525" lon="4.79463">
        <ele>244</ele>
        <time>2017-12-22T11:08:47Z</time>
      </trkpt>
      <trkpt lat="45.98525" lon="4.79454">
        <ele>244</ele>
        <time>2017-12-22T11:08:48Z</time>
      </trkpt>
      <trkpt lat="45.98526" lon="4.79445">
        <ele>244</ele>
        <time>2017-12-22T11:08:49Z</time>
      </trkpt>
      <trkpt lat="45.98526" lon="4.79437">
        <ele>244</ele>
        <time>2017-12-22T11:08:50Z</time>
      </trkpt>
      <trkpt lat="45.98525" lon="4.79429">
        <ele>244</ele>
        <time>2017-12-22T11:08:51Z</time>
      </trkpt>
      <trkpt lat="45.98524" lon="4.79421">
        <ele>244</ele>
        <time>2017-12-22T11:08:52Z</time>
      </trkpt>
      <trkpt lat="45.98523" lon="4.79414">
        <ele>244</ele>
        <time>2017-12-22T11:08:53Z</time>
      </trkpt>
      <trkpt lat="45.98523" lon="4.79406">
        <ele>244</ele>
        <time>2017-12-22T11:08:54Z</time>
      </trkpt>
      <trkpt lat="45.98523" lon="4.79398">
        <ele>244</ele>
        <time>2017-12-22T11:08:55Z</time>
      </trkpt>
      <trkpt lat="45.98522" lon="4.79388">
        <ele>244</ele>
        <time>2017-12-22T11:08:56Z</time>
      </trkpt>
      <trkpt lat="45.9852" lon="4.79382">
        <ele>244</ele>
        <time>2017-12-22T11:08:57Z</time>
      </trkpt>
      <trkpt lat="45.98519" lon="4.79374">
        <ele>243</ele>
        <time>2017-12-22T11:08:58Z</time>
      </trkpt>
      <trkpt lat="45.98517" lon="4.79365">
        <ele>243</ele>
        <time>2017-12-22T11:08:59Z</time>
      </trkpt>
      <trkpt lat="45.98515" lon="4.79356">
        <ele>243</ele>
        <time>2017-12-22T11:09:00Z</time>
      </trkpt>
      <trkpt lat="45.98513" lon="4.79346">
        <ele>243</ele>
        <time>2017-12-22T11:09:01Z</time>
      </trkpt>
      <trkpt lat="45.98512" lon="4.79336">
        <ele>243</ele>
        <time>2017-12-22T11:09:02Z</time>
      </trkpt>
      <trkpt lat="45.98511" lon="4.79326">
        <ele>243</ele>
        <time>2017-12-22T11:09:03Z</time>
      </trkpt>
      <trkpt lat="45.98509" lon="4.79318">
        <ele>243</ele>
        <time>2017-12-22T11:09:04Z</time>
      </trkpt>
      <trkpt lat="45.98507" lon="4.79311">
        <ele>243</ele>
        <time>2017-12-22T11:09:05Z</time>
      </trkpt>
      <trkpt lat="45.98504" lon="4.79303">
        <ele>243</ele>
        <time>2017-12-22T11:09:06Z</time>
      </trkpt>
      <trkpt lat="45.98502" lon="4.79296">
        <ele>243</ele>
        <time>2017-12-22T11:09:07Z</time>
      </trkpt>
      <trkpt lat="45.98499" lon="4.79289">
        <ele>243</ele>
        <time>2017-12-22T11:09:08Z</time>
      </trkpt>
      <trkpt lat="45.98496" lon="4.79282">
        <ele>243</ele>
        <time>2017-12-22T11:09:09Z</time>
      </trkpt>
      <trkpt lat="45.98493" lon="4.79276">
        <ele>243</ele>
        <time>2017-12-22T11:09:10Z</time>
      </trkpt>
      <trkpt lat="45.98489" lon="4.7927">
        <ele>243</ele>
        <time>2017-12-22T11:09:11Z</time>
      </trkpt>
      <trkpt lat="45.98486" lon="4.79263">
        <ele>243</ele>
        <time>2017-12-22T11:09:12Z</time>
      </trkpt>
      <trkpt lat="45.98482" lon="4.79258">
        <ele>243</ele>
        <time>2017-12-22T11:09:13Z</time>
      </trkpt>
      <trkpt lat="45.98478" lon="4.79251">
        <ele>243</ele>
        <time>2017-12-22T11:09:14Z</time>
      </trkpt>
      <trkpt lat="45.98475" lon="4.79245">
        <ele>243</ele>
        <time>2017-12-22T11:09:15Z</time>
      </trkpt>
      <trkpt lat="45.98471" lon="4.79238">
        <ele>243</ele>
        <time>2017-12-22T11:09:16Z</time>
      </trkpt>
      <trkpt lat="45.98465" lon="4.79231">
        <ele>243</ele>
        <time>2017-12-22T11:09:17Z</time>
      </trkpt>
      <trkpt lat="45.98462" lon="4.79224">
        <ele>243</ele>
        <time>2017-12-22T11:09:18Z</time>
      </trkpt>
      <trkpt lat="45.98458" lon="4.79217">
        <ele>243</ele>
        <time>2017-12-22T11:09:19Z</time>
      </trkpt>
      <trkpt lat="45.98454" lon="4.7921">
        <ele>242</ele>
        <time>2017-12-22T11:09:20Z</time>
      </trkpt>
      <trkpt lat="45.98449" lon="4.79203">
        <ele>242</ele>
        <time>2017-12-22T11:09:21Z</time>
      </trkpt>
      <trkpt lat="45.98445" lon="4.79195">
        <ele>242</ele>
        <time>2017-12-22T11:09:22Z</time>
      </trkpt>
      <trkpt lat="45.98441" lon="4.79187">
        <ele>242</ele>
        <time>2017-12-22T11:09:23Z</time>
      </trkpt>
      <trkpt lat="45.98436" lon="4.7918">
        <ele>242</ele>
        <time>2017-12-22T11:09:24Z</time>
      </trkpt>
      <trkpt lat="45.98433" lon="4.79173">
        <ele>242</ele>
        <time>2017-12-22T11:09:25Z</time>
      </trkpt>
      <trkpt lat="45.98428" lon="4.79166">
        <ele>242</ele>
        <time>2017-12-22T11:09:26Z</time>
      </trkpt>
      <trkpt lat="45.98425" lon="4.79159">
        <ele>242</ele>
        <time>2017-12-22T11:09:27Z</time>
      </trkpt>
      <trkpt lat="45.98422" lon="4.79152">
        <ele>242</ele>
        <time>2017-12-22T11:09:28Z</time>
      </trkpt>
      <trkpt lat="45.98418" lon="4.79146">
        <ele>242</ele>
        <time>2017-12-22T11:09:29Z</time>
      </trkpt>
      <trkpt lat="45.98415" lon="4.79139">
        <ele>242</ele>
        <time>2017-12-22T11:09:30Z</time>
      </trkpt>
      <trkpt lat="45.98412" lon="4.79131">
        <ele>242</ele>
        <time>2017-12-22T11:09:31Z</time>
      </trkpt>
      <trkpt lat="45.98408" lon="4.79125">
        <ele>242</ele>
        <time>2017-12-22T11:09:32Z</time>
      </trkpt>
      <trkpt lat="45.98405" lon="4.79119">
        <ele>242</ele>
        <time>2017-12-22T11:09:33Z</time>
      </trkpt>
      <trkpt lat="45.98401" lon="4.79111">
        <ele>242</ele>
        <time>2017-12-22T11:09:34Z</time>
      </trkpt>
      <trkpt lat="45.98399" lon="4.79104">
        <ele>242</ele>
        <time>2017-12-22T11:09:35Z</time>
      </trkpt>
      <trkpt lat="45.98396" lon="4.79098">
        <ele>242</ele>
        <time>2017-12-22T11:09:36Z</time>
      </trkpt>
      <trkpt lat="45.98391" lon="4.79091">
        <ele>242</ele>
        <time>2017-12-22T11:09:37Z</time>
      </trkpt>
      <trkpt lat="45.98386" lon="4.79084">
        <ele>242</ele>
        <time>2017-12-22T11:09:38Z</time>
      </trkpt>
      <trkpt lat="45.98383" lon="4.79076">
        <ele>242</ele>
        <time>2017-12-22T11:09:39Z</time>
      </trkpt>
      <trkpt lat="45.98379" lon="4.7907">
        <ele>242</ele>
        <time>2017-12-22T11:09:40Z</time>
      </trkpt>
      <trkpt lat="45.98373" lon="4.79062">
        <ele>242</ele>
        <time>2017-12-22T11:09:41Z</time>
      </trkpt>
      <trkpt lat="45.9837" lon="4.79056">
        <ele>242</ele>
        <time>2017-12-22T11:09:42Z</time>
      </trkpt>
      <trkpt lat="45.98366" lon="4.7905">
        <ele>242</ele>
        <time>2017-12-22T11:09:43Z</time>
      </trkpt>
      <trkpt lat="45.98362" lon="4.79043">
        <ele>242</ele>
        <time>2017-12-22T11:09:44Z</time>
      </trkpt>
      <trkpt lat="45.98358" lon="4.79036">
        <ele>242</ele>
        <time>2017-12-22T11:09:45Z</time>
      </trkpt>
      <trkpt lat="45.98353" lon="4.79031">
        <ele>242</ele>
        <time>2017-12-22T11:09:46Z</time>
      </trkpt>
      <trkpt lat="45.98349" lon="4.79025">
        <ele>242</ele>
        <time>2017-12-22T11:09:47Z</time>
      </trkpt>
      <trkpt lat="45.98344" lon="4.7902">
        <ele>242</ele>
        <time>2017-12-22T11:09:48Z</time>
      </trkpt>
      <trkpt lat="45.98339" lon="4.79014">
        <ele>242</ele>
        <time>2017-12-22T11:09:49Z</time>
      </trkpt>
      <trkpt lat="45.98335" lon="4.79009">
        <ele>242</ele>
        <time>2017-12-22T11:09:50Z</time>
      </trkpt>
      <trkpt lat="45.9833" lon="4.79006">
        <ele>242</ele>
        <time>2017-12-22T11:09:51Z</time>
      </trkpt>
      <trkpt lat="45.98325" lon="4.79002">
        <ele>242</ele>
        <time>2017-12-22T11:09:52Z</time>
      </trkpt>
      <trkpt lat="45.9832" lon="4.79">
        <ele>242</ele>
        <time>2017-12-22T11:09:53Z</time>
      </trkpt>
      <trkpt lat="45.98315" lon="4.78996">
        <ele>242</ele>
        <time>2017-12-22T11:09:54Z</time>
      </trkpt>
      <trkpt lat="45.9831" lon="4.78993">
        <ele>241</ele>
        <time>2017-12-22T11:09:55Z</time>
      </trkpt>
      <trkpt lat="45.98305" lon="4.78989">
        <ele>241</ele>
        <time>2017-12-22T11:09:56Z</time>
      </trkpt>
      <trkpt lat="45.98299" lon="4.78986">
        <ele>241</ele>
        <time>2017-12-22T11:09:57Z</time>
      </trkpt>
      <trkpt lat="45.98293" lon="4.78983">
        <ele>241</ele>
        <time>2017-12-22T11:09:58Z</time>
      </trkpt>
      <trkpt lat="45.98287" lon="4.78979">
        <ele>241</ele>
        <time>2017-12-22T11:09:59Z</time>
      </trkpt>
      <trkpt lat="45.98281" lon="4.78975">
        <ele>241</ele>
        <time>2017-12-22T11:10:00Z</time>
      </trkpt>
      <trkpt lat="45.98275" lon="4.78972">
        <ele>241</ele>
        <time>2017-12-22T11:10:01Z</time>
      </trkpt>
      <trkpt lat="45.9827" lon="4.78968">
        <ele>241</ele>
        <time>2017-12-22T11:10:02Z</time>
      </trkpt>
      <trkpt lat="45.98264" lon="4.78964">
        <ele>241</ele>
        <time>2017-12-22T11:10:03Z</time>
      </trkpt>
      <trkpt lat="45.98259" lon="4.7896">
        <ele>241</ele>
        <time>2017-12-22T11:10:04Z</time>
      </trkpt>
      <trkpt lat="45.98253" lon="4.78957">
        <ele>241</ele>
        <time>2017-12-22T11:10:05Z</time>
      </trkpt>
      <trkpt lat="45.98247" lon="4.78954">
        <ele>241</ele>
        <time>2017-12-22T11:10:06Z</time>
      </trkpt>
      <trkpt lat="45.98241" lon="4.78951">
        <ele>241</ele>
        <time>2017-12-22T11:10:07Z</time>
      </trkpt>
      <trkpt lat="45.98235" lon="4.78949">
        <ele>241</ele>
        <time>2017-12-22T11:10:08Z</time>
      </trkpt>
      <trkpt lat="45.98229" lon="4.78946">
        <ele>241</ele>
        <time>2017-12-22T11:10:09Z</time>
      </trkpt>
      <trkpt lat="45.98224" lon="4.78943">
        <ele>241</ele>
        <time>2017-12-22T11:10:10Z</time>
      </trkpt>
      <trkpt lat="45.98218" lon="4.78941">
        <ele>241</ele>
        <time>2017-12-22T11:10:11Z</time>
      </trkpt>
      <trkpt lat="45.98213" lon="4.78938">
        <ele>241</ele>
        <time>2017-12-22T11:10:12Z</time>
      </trkpt>
      <trkpt lat="45.98209" lon="4.78935">
        <ele>241</ele>
        <time>2017-12-22T11:10:13Z</time>
      </trkpt>
      <trkpt lat="45.98203" lon="4.78933">
        <ele>241</ele>
        <time>2017-12-22T11:10:14Z</time>
      </trkpt>
      <trkpt lat="45.98198" lon="4.7893">
        <ele>241</ele>
        <time>2017-12-22T11:10:15Z</time>
      </trkpt>
      <trkpt lat="45.98192" lon="4.78927">
        <ele>241</ele>
        <time>2017-12-22T11:10:16Z</time>
      </trkpt>
      <trkpt lat="45.98187" lon="4.78924">
        <ele>241</ele>
        <time>2017-12-22T11:10:17Z</time>
      </trkpt>
      <trkpt lat="45.98181" lon="4.78922">
        <ele>240</ele>
        <time>2017-12-22T11:10:18Z</time>
      </trkpt>
      <trkpt lat="45.98176" lon="4.78919">
        <ele>240</ele>
        <time>2017-12-22T11:10:19Z</time>
      </trkpt>
      <trkpt lat="45.98172" lon="4.78916">
        <ele>240</ele>
        <time>2017-12-22T11:10:20Z</time>
      </trkpt>
      <trkpt lat="45.98165" lon="4.78913">
        <ele>240</ele>
        <time>2017-12-22T11:10:21Z</time>
      </trkpt>
      <trkpt lat="45.98159" lon="4.7891">
        <ele>240</ele>
        <time>2017-12-22T11:10:22Z</time>
      </trkpt>
      <trkpt lat="45.98151" lon="4.78909">
        <ele>240</ele>
        <time>2017-12-22T11:10:23Z</time>
      </trkpt>
      <trkpt lat="45.98142" lon="4.78908">
        <ele>240</ele>
        <time>2017-12-22T11:10:24Z</time>
      </trkpt>
      <trkpt lat="45.98136" lon="4.78903">
        <ele>240</ele>
        <time>2017-12-22T11:10:25Z</time>
      </trkpt>
      <trkpt lat="45.98132" lon="4.78899">
        <ele>240</ele>
        <time>2017-12-22T11:10:26Z</time>
      </trkpt>
      <trkpt lat="45.98126" lon="4.78895">
        <ele>240</ele>
        <time>2017-12-22T11:10:27Z</time>
      </trkpt>
      <trkpt lat="45.98121" lon="4.78889">
        <ele>240</ele>
        <time>2017-12-22T11:10:28Z</time>
      </trkpt>
      <trkpt lat="45.98116" lon="4.78886">
        <ele>240</ele>
        <time>2017-12-22T11:10:29Z</time>
      </trkpt>
      <trkpt lat="45.9811" lon="4.78882">
        <ele>240</ele>
        <time>2017-12-22T11:10:30Z</time>
      </trkpt>
      <trkpt lat="45.98105" lon="4.78879">
        <ele>240</ele>
        <time>2017-12-22T11:10:31Z</time>
      </trkpt>
      <trkpt lat="45.98101" lon="4.78876">
        <ele>240</ele>
        <time>2017-12-22T11:10:32Z</time>
      </trkpt>
      <trkpt lat="45.98097" lon="4.78872">
        <ele>239</ele>
        <time>2017-12-22T11:10:33Z</time>
      </trkpt>
      <trkpt lat="45.98093" lon="4.78867">
        <ele>239</ele>
        <time>2017-12-22T11:10:34Z</time>
      </trkpt>
      <trkpt lat="45.98088" lon="4.78863">
        <ele>239</ele>
        <time>2017-12-22T11:10:35Z</time>
      </trkpt>
      <trkpt lat="45.98083" lon="4.78858">
        <ele>239</ele>
        <time>2017-12-22T11:10:36Z</time>
      </trkpt>
      <trkpt lat="45.98077" lon="4.78855">
        <ele>239</ele>
        <time>2017-12-22T11:10:37Z</time>
      </trkpt>
      <trkpt lat="45.98067" lon="4.7885">
        <ele>239</ele>
        <time>2017-12-22T11:10:38Z</time>
      </trkpt>
      <trkpt lat="45.98062" lon="4.78846">
        <ele>239</ele>
        <time>2017-12-22T11:10:39Z</time>
      </trkpt>
      <trkpt lat="45.98056" lon="4.78842">
        <ele>238</ele>
        <time>2017-12-22T11:10:40Z</time>
      </trkpt>
      <trkpt lat="45.98051" lon="4.78838">
        <ele>238</ele>
        <time>2017-12-22T11:10:41Z</time>
      </trkpt>
      <trkpt lat="45.98045" lon="4.78833">
        <ele>238</ele>
        <time>2017-12-22T11:10:42Z</time>
      </trkpt>
      <trkpt lat="45.98037" lon="4.7883">
        <ele>238</ele>
        <time>2017-12-22T11:10:43Z</time>
      </trkpt>
      <trkpt lat="45.98031" lon="4.78825">
        <ele>238</ele>
        <time>2017-12-22T11:10:44Z</time>
      </trkpt>
      <trkpt lat="45.98025" lon="4.78821">
        <ele>238</ele>
        <time>2017-12-22T11:10:45Z</time>
      </trkpt>
      <trkpt lat="45.9802" lon="4.78817">
        <ele>238</ele>
        <time>2017-12-22T11:10:46Z</time>
      </trkpt>
      <trkpt lat="45.98014" lon="4.78813">
        <ele>238</ele>
        <time>2017-12-22T11:10:47Z</time>
      </trkpt>
      <trkpt lat="45.98008" lon="4.78809">
        <ele>238</ele>
        <time>2017-12-22T11:10:48Z</time>
      </trkpt>
      <trkpt lat="45.98003" lon="4.78806">
        <ele>238</ele>
        <time>2017-12-22T11:10:49Z</time>
      </trkpt>
      <trkpt lat="45.97998" lon="4.78802">
        <ele>238</ele>
        <time>2017-12-22T11:10:50Z</time>
      </trkpt>
      <trkpt lat="45.97994" lon="4.78799">
        <ele>238</ele>
        <time>2017-12-22T11:10:51Z</time>
      </trkpt>
      <trkpt lat="45.97989" lon="4.78795">
        <ele>238</ele>
        <time>2017-12-22T11:10:52Z</time>
      </trkpt>
      <trkpt lat="45.97985" lon="4.78791">
        <ele>238</ele>
        <time>2017-12-22T11:10:53Z</time>
      </trkpt>
      <trkpt lat="45.9798" lon="4.78787">
        <ele>238</ele>
        <time>2017-12-22T11:10:54Z</time>
      </trkpt>
      <trkpt lat="45.97975" lon="4.78783">
        <ele>238</ele>
        <time>2017-12-22T11:10:55Z</time>
      </trkpt>
      <trkpt lat="45.97969" lon="4.7878">
        <ele>238</ele>
        <time>2017-12-22T11:10:56Z</time>
      </trkpt>
      <trkpt lat="45.97963" lon="4.78776">
        <ele>238</ele>
        <time>2017-12-22T11:10:57Z</time>
      </trkpt>
      <trkpt lat="45.97958" lon="4.78772">
        <ele>238</ele>
        <time>2017-12-22T11:10:58Z</time>
      </trkpt>
      <trkpt lat="45.97951" lon="4.78769">
        <ele>238</ele>
        <time>2017-12-22T11:10:59Z</time>
      </trkpt>
      <trkpt lat="45.97946" lon="4.78765">
        <ele>238</ele>
        <time>2017-12-22T11:11:00Z</time>
      </trkpt>
      <trkpt lat="45.9794" lon="4.78759">
        <ele>238</ele>
        <time>2017-12-22T11:11:01Z</time>
      </trkpt>
      <trkpt lat="45.97934" lon="4.78755">
        <ele>238</ele>
        <time>2017-12-22T11:11:02Z</time>
      </trkpt>
      <trkpt lat="45.97928" lon="4.78752">
        <ele>237</ele>
        <time>2017-12-22T11:11:03Z</time>
      </trkpt>
      <trkpt lat="45.97923" lon="4.78748">
        <ele>237</ele>
        <time>2017-12-22T11:11:04Z</time>
      </trkpt>
      <trkpt lat="45.97918" lon="4.78744">
        <ele>237</ele>
        <time>2017-12-22T11:11:05Z</time>
      </trkpt>
      <trkpt lat="45.97913" lon="4.78741">
        <ele>237</ele>
        <time>2017-12-22T11:11:06Z</time>
      </trkpt>
      <trkpt lat="45.97907" lon="4.78737">
        <ele>237</ele>
        <time>2017-12-22T11:11:07Z</time>
      </trkpt>
      <trkpt lat="45.979" lon="4.78734">
        <ele>237</ele>
        <time>2017-12-22T11:11:08Z</time>
      </trkpt>
      <trkpt lat="45.97894" lon="4.7873">
        <ele>236</ele>
        <time>2017-12-22T11:11:09Z</time>
      </trkpt>
      <trkpt lat="45.97889" lon="4.78726">
        <ele>236</ele>
        <time>2017-12-22T11:11:10Z</time>
      </trkpt>
      <trkpt lat="45.97884" lon="4.78722">
        <ele>236</ele>
        <time>2017-12-22T11:11:11Z</time>
      </trkpt>
      <trkpt lat="45.97876" lon="4.78721">
        <ele>236</ele>
        <time>2017-12-22T11:11:12Z</time>
      </trkpt>
      <trkpt lat="45.9787" lon="4.78716">
        <ele>236</ele>
        <time>2017-12-22T11:11:13Z</time>
      </trkpt>
      <trkpt lat="45.97865" lon="4.78712">
        <ele>236</ele>
        <time>2017-12-22T11:11:14Z</time>
      </trkpt>
      <trkpt lat="45.97859" lon="4.78708">
        <ele>236</ele>
        <time>2017-12-22T11:11:15Z</time>
      </trkpt>
      <trkpt lat="45.97853" lon="4.78704">
        <ele>236</ele>
        <time>2017-12-22T11:11:16Z</time>
      </trkpt>
      <trkpt lat="45.97847" lon="4.787">
        <ele>236</ele>
        <time>2017-12-22T11:11:17Z</time>
      </trkpt>
      <trkpt lat="45.97841" lon="4.78698">
        <ele>236</ele>
        <time>2017-12-22T11:11:18Z</time>
      </trkpt>
      <trkpt lat="45.97835" lon="4.78694">
        <ele>236</ele>
        <time>2017-12-22T11:11:19Z</time>
      </trkpt>
      <trkpt lat="45.97831" lon="4.78691">
        <ele>235</ele>
        <time>2017-12-22T11:11:20Z</time>
      </trkpt>
      <trkpt lat="45.97826" lon="4.78688">
        <ele>235</ele>
        <time>2017-12-22T11:11:21Z</time>
      </trkpt>
      <trkpt lat="45.97821" lon="4.78685">
        <ele>235</ele>
        <time>2017-12-22T11:11:22Z</time>
      </trkpt>
      <trkpt lat="45.97815" lon="4.78681">
        <ele>235</ele>
        <time>2017-12-22T11:11:23Z</time>
      </trkpt>
      <trkpt lat="45.97809" lon="4.78678">
        <ele>235</ele>
        <time>2017-12-22T11:11:24Z</time>
      </trkpt>
      <trkpt lat="45.97804" lon="4.78675">
        <ele>235</ele>
        <time>2017-12-22T11:11:25Z</time>
      </trkpt>
      <trkpt lat="45.97798" lon="4.78672">
        <ele>235</ele>
        <time>2017-12-22T11:11:26Z</time>
      </trkpt>
      <trkpt lat="45.97792" lon="4.78669">
        <ele>235</ele>
        <time>2017-12-22T11:11:27Z</time>
      </trkpt>
      <trkpt lat="45.97786" lon="4.78667">
        <ele>235</ele>
        <time>2017-12-22T11:11:28Z</time>
      </trkpt>
      <trkpt lat="45.97781" lon="4.78664">
        <ele>235</ele>
        <time>2017-12-22T11:11:29Z</time>
      </trkpt>
      <trkpt lat="45.97775" lon="4.78661">
        <ele>235</ele>
        <time>2017-12-22T11:11:30Z</time>
      </trkpt>
      <trkpt lat="45.97769" lon="4.7866">
        <ele>235</ele>
        <time>2017-12-22T11:11:31Z</time>
      </trkpt>
      <trkpt lat="45.97763" lon="4.78658">
        <ele>235</ele>
        <time>2017-12-22T11:11:32Z</time>
      </trkpt>
      <trkpt lat="45.97758" lon="4.78656">
        <ele>235</ele>
        <time>2017-12-22T11:11:33Z</time>
      </trkpt>
      <trkpt lat="45.97752" lon="4.78654">
        <ele>235</ele>
        <time>2017-12-22T11:11:34Z</time>
      </trkpt>
      <trkpt lat="45.97746" lon="4.78651">
        <ele>234</ele>
        <time>2017-12-22T11:11:35Z</time>
      </trkpt>
      <trkpt lat="45.97741" lon="4.78649">
        <ele>234</ele>
        <time>2017-12-22T11:11:36Z</time>
      </trkpt>
      <trkpt lat="45.97736" lon="4.78646">
        <ele>234</ele>
        <time>2017-12-22T11:11:37Z</time>
      </trkpt>
      <trkpt lat="45.97729" lon="4.78645">
        <ele>234</ele>
        <time>2017-12-22T11:11:38Z</time>
      </trkpt>
      <trkpt lat="45.97724" lon="4.78641">
        <ele>234</ele>
        <time>2017-12-22T11:11:39Z</time>
      </trkpt>
      <trkpt lat="45.97718" lon="4.78639">
        <ele>234</ele>
        <time>2017-12-22T11:11:40Z</time>
      </trkpt>
      <trkpt lat="45.97712" lon="4.78636">
        <ele>234</ele>
        <time>2017-12-22T11:11:41Z</time>
      </trkpt>
      <trkpt lat="45.97707" lon="4.78633">
        <ele>234</ele>
        <time>2017-12-22T11:11:42Z</time>
      </trkpt>
      <trkpt lat="45.97701" lon="4.7863">
        <ele>234</ele>
        <time>2017-12-22T11:11:43Z</time>
      </trkpt>
      <trkpt lat="45.97696" lon="4.78628">
        <ele>234</ele>
        <time>2017-12-22T11:11:44Z</time>
      </trkpt>
      <trkpt lat="45.9769" lon="4.78625">
        <ele>234</ele>
        <time>2017-12-22T11:11:45Z</time>
      </trkpt>
      <trkpt lat="45.97683" lon="4.78624">
        <ele>234</ele>
        <time>2017-12-22T11:11:46Z</time>
      </trkpt>
      <trkpt lat="45.97676" lon="4.7862">
        <ele>234</ele>
        <time>2017-12-22T11:11:47Z</time>
      </trkpt>
      <trkpt lat="45.97671" lon="4.78617">
        <ele>234</ele>
        <time>2017-12-22T11:11:48Z</time>
      </trkpt>
      <trkpt lat="45.97665" lon="4.78615">
        <ele>233</ele>
        <time>2017-12-22T11:11:49Z</time>
      </trkpt>
      <trkpt lat="45.97659" lon="4.78613">
        <ele>233</ele>
        <time>2017-12-22T11:11:50Z</time>
      </trkpt>
      <trkpt lat="45.97654" lon="4.78611">
        <ele>233</ele>
        <time>2017-12-22T11:11:51Z</time>
      </trkpt>
      <trkpt lat="45.9765" lon="4.78609">
        <ele>233</ele>
        <time>2017-12-22T11:11:52Z</time>
      </trkpt>
      <trkpt lat="45.97645" lon="4.78605">
        <ele>233</ele>
        <time>2017-12-22T11:11:53Z</time>
      </trkpt>
      <trkpt lat="45.97641" lon="4.78602">
        <ele>233</ele>
        <time>2017-12-22T11:11:54Z</time>
      </trkpt>
      <trkpt lat="45.97635" lon="4.78599">
        <ele>233</ele>
        <time>2017-12-22T11:11:55Z</time>
      </trkpt>
      <trkpt lat="45.9763" lon="4.78597">
        <ele>233</ele>
        <time>2017-12-22T11:11:56Z</time>
      </trkpt>
      <trkpt lat="45.97625" lon="4.78595">
        <ele>233</ele>
        <time>2017-12-22T11:11:57Z</time>
      </trkpt>
      <trkpt lat="45.97619" lon="4.78593">
        <ele>233</ele>
        <time>2017-12-22T11:11:58Z</time>
      </trkpt>
      <trkpt lat="45.97614" lon="4.78591">
        <ele>233</ele>
        <time>2017-12-22T11:11:59Z</time>
      </trkpt>
      <trkpt lat="45.97609" lon="4.78589">
        <ele>233</ele>
        <time>2017-12-22T11:12:00Z</time>
      </trkpt>
      <trkpt lat="45.97602" lon="4.78588">
        <ele>233</ele>
        <time>2017-12-22T11:12:01Z</time>
      </trkpt>
      <trkpt lat="45.97597" lon="4.78586">
        <ele>233</ele>
        <time>2017-12-22T11:12:02Z</time>
      </trkpt>
      <trkpt lat="45.97592" lon="4.78583">
        <ele>233</ele>
        <time>2017-12-22T11:12:03Z</time>
      </trkpt>
      <trkpt lat="45.97587" lon="4.78581">
        <ele>233</ele>
        <time>2017-12-22T11:12:04Z</time>
      </trkpt>
      <trkpt lat="45.97581" lon="4.78579">
        <ele>233</ele>
        <time>2017-12-22T11:12:05Z</time>
      </trkpt>
      <trkpt lat="45.97575" lon="4.78576">
        <ele>233</ele>
        <time>2017-12-22T11:12:06Z</time>
      </trkpt>
      <trkpt lat="45.97571" lon="4.78574">
        <ele>233</ele>
        <time>2017-12-22T11:12:07Z</time>
      </trkpt>
      <trkpt lat="45.97566" lon="4.78571">
        <ele>233</ele>
        <time>2017-12-22T11:12:08Z</time>
      </trkpt>
      <trkpt lat="45.97561" lon="4.78568">
        <ele>233</ele>
        <time>2017-12-22T11:12:09Z</time>
      </trkpt>
      <trkpt lat="45.97554" lon="4.78567">
        <ele>234</ele>
        <time>2017-12-22T11:12:10Z</time>
      </trkpt>
      <trkpt lat="45.97548" lon="4.78565">
        <ele>234</ele>
        <time>2017-12-22T11:12:11Z</time>
      </trkpt>
      <trkpt lat="45.97543" lon="4.78563">
        <ele>234</ele>
        <time>2017-12-22T11:12:12Z</time>
      </trkpt>
      <trkpt lat="45.97536" lon="4.7856">
        <ele>234</ele>
        <time>2017-12-22T11:12:13Z</time>
      </trkpt>
      <trkpt lat="45.9753" lon="4.78557">
        <ele>234</ele>
        <time>2017-12-22T11:12:14Z</time>
      </trkpt>
      <trkpt lat="45.97524" lon="4.78555">
        <ele>234</ele>
        <time>2017-12-22T11:12:15Z</time>
      </trkpt>
      <trkpt lat="45.97517" lon="4.78552">
        <ele>234</ele>
        <time>2017-12-22T11:12:16Z</time>
      </trkpt>
      <trkpt lat="45.97511" lon="4.78548">
        <ele>234</ele>
        <time>2017-12-22T11:12:17Z</time>
      </trkpt>
      <trkpt lat="45.97505" lon="4.78545">
        <ele>234</ele>
        <time>2017-12-22T11:12:18Z</time>
      </trkpt>
      <trkpt lat="45.975" lon="4.7854">
        <ele>233</ele>
        <time>2017-12-22T11:12:19Z</time>
      </trkpt>
      <trkpt lat="45.97495" lon="4.78536">
        <ele>233</ele>
        <time>2017-12-22T11:12:20Z</time>
      </trkpt>
      <trkpt lat="45.9749" lon="4.78533">
        <ele>233</ele>
        <time>2017-12-22T11:12:21Z</time>
      </trkpt>
      <trkpt lat="45.97483" lon="4.78531">
        <ele>233</ele>
        <time>2017-12-22T11:12:22Z</time>
      </trkpt>
      <trkpt lat="45.97479" lon="4.78527">
        <ele>233</ele>
        <time>2017-12-22T11:12:23Z</time>
      </trkpt>
      <trkpt lat="45.97476" lon="4.7852">
        <ele>233</ele>
        <time>2017-12-22T11:12:24Z</time>
      </trkpt>
      <trkpt lat="45.97472" lon="4.78515">
        <ele>234</ele>
        <time>2017-12-22T11:12:25Z</time>
      </trkpt>
      <trkpt lat="45.97467" lon="4.7851">
        <ele>234</ele>
        <time>2017-12-22T11:12:26Z</time>
      </trkpt>
      <trkpt lat="45.97463" lon="4.78506">
        <ele>234</ele>
        <time>2017-12-22T11:12:27Z</time>
      </trkpt>
      <trkpt lat="45.97458" lon="4.78502">
        <ele>234</ele>
        <time>2017-12-22T11:12:28Z</time>
      </trkpt>
      <trkpt lat="45.97453" lon="4.78499">
        <ele>234</ele>
        <time>2017-12-22T11:12:29Z</time>
      </trkpt>
      <trkpt lat="45.97448" lon="4.78494">
        <ele>234</ele>
        <time>2017-12-22T11:12:30Z</time>
      </trkpt>
      <trkpt lat="45.97442" lon="4.78488">
        <ele>234</ele>
        <time>2017-12-22T11:12:31Z</time>
      </trkpt>
      <trkpt lat="45.97436" lon="4.78485">
        <ele>234</ele>
        <time>2017-12-22T11:12:32Z</time>
      </trkpt>
      <trkpt lat="45.97431" lon="4.78481">
        <ele>234</ele>
        <time>2017-12-22T11:12:33Z</time>
      </trkpt>
      <trkpt lat="45.97426" lon="4.78474">
        <ele>234</ele>
        <time>2017-12-22T11:12:34Z</time>
      </trkpt>
      <trkpt lat="45.97421" lon="4.7847">
        <ele>234</ele>
        <time>2017-12-22T11:12:35Z</time>
      </trkpt>
      <trkpt lat="45.97415" lon="4.78466">
        <ele>233</ele>
        <time>2017-12-22T11:12:36Z</time>
      </trkpt>
      <trkpt lat="45.97409" lon="4.7846">
        <ele>233</ele>
        <time>2017-12-22T11:12:37Z</time>
      </trkpt>
      <trkpt lat="45.97404" lon="4.78456">
        <ele>233</ele>
        <time>2017-12-22T11:12:38Z</time>
      </trkpt>
      <trkpt lat="45.97399" lon="4.78452">
        <ele>233</ele>
        <time>2017-12-22T11:12:39Z</time>
      </trkpt>
      <trkpt lat="45.97395" lon="4.78447">
        <ele>233</ele>
        <time>2017-12-22T11:12:40Z</time>
      </trkpt>
      <trkpt lat="45.9739" lon="4.78443">
        <ele>233</ele>
        <time>2017-12-22T11:12:41Z</time>
      </trkpt>
      <trkpt lat="45.97385" lon="4.78437">
        <ele>233</ele>
        <time>2017-12-22T11:12:42Z</time>
      </trkpt>
      <trkpt lat="45.9738" lon="4.78432">
        <ele>233</ele>
        <time>2017-12-22T11:12:43Z</time>
      </trkpt>
      <trkpt lat="45.97376" lon="4.78428">
        <ele>233</ele>
        <time>2017-12-22T11:12:44Z</time>
      </trkpt>
      <trkpt lat="45.97372" lon="4.78424">
        <ele>233</ele>
        <time>2017-12-22T11:12:45Z</time>
      </trkpt>
      <trkpt lat="45.97368" lon="4.78419">
        <ele>233</ele>
        <time>2017-12-22T11:12:46Z</time>
      </trkpt>
      <trkpt lat="45.97361" lon="4.78412">
        <ele>233</ele>
        <time>2017-12-22T11:12:48Z</time>
      </trkpt>
      <trkpt lat="45.97355" lon="4.78408">
        <ele>232</ele>
        <time>2017-12-22T11:12:49Z</time>
      </trkpt>
      <trkpt lat="45.97351" lon="4.78403">
        <ele>232</ele>
        <time>2017-12-22T11:12:50Z</time>
      </trkpt>
      <trkpt lat="45.97347" lon="4.78399">
        <ele>232</ele>
        <time>2017-12-22T11:12:51Z</time>
      </trkpt>
      <trkpt lat="45.97342" lon="4.78394">
        <ele>232</ele>
        <time>2017-12-22T11:12:52Z</time>
      </trkpt>
      <trkpt lat="45.97338" lon="4.78389">
        <ele>233</ele>
        <time>2017-12-22T11:12:53Z</time>
      </trkpt>
      <trkpt lat="45.97334" lon="4.78384">
        <ele>233</ele>
        <time>2017-12-22T11:12:54Z</time>
      </trkpt>
      <trkpt lat="45.97329" lon="4.78378">
        <ele>232</ele>
        <time>2017-12-22T11:12:55Z</time>
      </trkpt>
      <trkpt lat="45.97325" lon="4.78373">
        <ele>232</ele>
        <time>2017-12-22T11:12:56Z</time>
      </trkpt>
      <trkpt lat="45.9732" lon="4.78368">
        <ele>232</ele>
        <time>2017-12-22T11:12:57Z</time>
      </trkpt>
      <trkpt lat="45.97315" lon="4.78363">
        <ele>232</ele>
        <time>2017-12-22T11:12:58Z</time>
      </trkpt>
      <trkpt lat="45.97311" lon="4.78358">
        <ele>232</ele>
        <time>2017-12-22T11:12:59Z</time>
      </trkpt>
      <trkpt lat="45.97306" lon="4.78354">
        <ele>232</ele>
        <time>2017-12-22T11:13:00Z</time>
      </trkpt>
      <trkpt lat="45.97302" lon="4.78346">
        <ele>232</ele>
        <time>2017-12-22T11:13:01Z</time>
      </trkpt>
      <trkpt lat="45.97296" lon="4.78341">
        <ele>232</ele>
        <time>2017-12-22T11:13:02Z</time>
      </trkpt>
      <trkpt lat="45.97293" lon="4.78335">
        <ele>232</ele>
        <time>2017-12-22T11:13:03Z</time>
      </trkpt>
      <trkpt lat="45.97289" lon="4.78328">
        <ele>232</ele>
        <time>2017-12-22T11:13:04Z</time>
      </trkpt>
      <trkpt lat="45.97286" lon="4.78323">
        <ele>232</ele>
        <time>2017-12-22T11:13:05Z</time>
      </trkpt>
      <trkpt lat="45.97282" lon="4.78318">
        <ele>232</ele>
        <time>2017-12-22T11:13:06Z</time>
      </trkpt>
      <trkpt lat="45.97279" lon="4.78313">
        <ele>232</ele>
        <time>2017-12-22T11:13:07Z</time>
      </trkpt>
      <trkpt lat="45.97276" lon="4.78308">
        <ele>232</ele>
        <time>2017-12-22T11:13:08Z</time>
      </trkpt>
      <trkpt lat="45.97272" lon="4.78302">
        <ele>232</ele>
        <time>2017-12-22T11:13:09Z</time>
      </trkpt>
      <trkpt lat="45.97269" lon="4.78296">
        <ele>232</ele>
        <time>2017-12-22T11:13:10Z</time>
      </trkpt>
      <trkpt lat="45.97263" lon="4.7829">
        <ele>232</ele>
        <time>2017-12-22T11:13:11Z</time>
      </trkpt>
      <trkpt lat="45.97261" lon="4.78285">
        <ele>232</ele>
        <time>2017-12-22T11:13:12Z</time>
      </trkpt>
      <trkpt lat="45.97256" lon="4.78279">
        <ele>232</ele>
        <time>2017-12-22T11:13:13Z</time>
      </trkpt>
      <trkpt lat="45.97252" lon="4.78274">
        <ele>232</ele>
        <time>2017-12-22T11:13:14Z</time>
      </trkpt>
      <trkpt lat="45.97247" lon="4.78268">
        <ele>231</ele>
        <time>2017-12-22T11:13:15Z</time>
      </trkpt>
      <trkpt lat="45.97244" lon="4.78262">
        <ele>231</ele>
        <time>2017-12-22T11:13:16Z</time>
      </trkpt>
      <trkpt lat="45.97239" lon="4.78256">
        <ele>231</ele>
        <time>2017-12-22T11:13:17Z</time>
      </trkpt>
      <trkpt lat="45.97236" lon="4.78249">
        <ele>231</ele>
        <time>2017-12-22T11:13:18Z</time>
      </trkpt>
      <trkpt lat="45.97232" lon="4.78245">
        <ele>231</ele>
        <time>2017-12-22T11:13:19Z</time>
      </trkpt>
      <trkpt lat="45.97228" lon="4.78239">
        <ele>231</ele>
        <time>2017-12-22T11:13:20Z</time>
      </trkpt>
      <trkpt lat="45.97226" lon="4.78233">
        <ele>231</ele>
        <time>2017-12-22T11:13:21Z</time>
      </trkpt>
      <trkpt lat="45.97222" lon="4.78228">
        <ele>231</ele>
        <time>2017-12-22T11:13:22Z</time>
      </trkpt>
      <trkpt lat="45.97219" lon="4.78221">
        <ele>231</ele>
        <time>2017-12-22T11:13:23Z</time>
      </trkpt>
      <trkpt lat="45.97216" lon="4.78215">
        <ele>231</ele>
        <time>2017-12-22T11:13:24Z</time>
      </trkpt>
      <trkpt lat="45.97212" lon="4.7821">
        <ele>231</ele>
        <time>2017-12-22T11:13:25Z</time>
      </trkpt>
      <trkpt lat="45.97209" lon="4.78204">
        <ele>231</ele>
        <time>2017-12-22T11:13:26Z</time>
      </trkpt>
      <trkpt lat="45.97207" lon="4.78198">
        <ele>231</ele>
        <time>2017-12-22T11:13:27Z</time>
      </trkpt>
      <trkpt lat="45.97203" lon="4.78192">
        <ele>231</ele>
        <time>2017-12-22T11:13:28Z</time>
      </trkpt>
      <trkpt lat="45.97199" lon="4.78184">
        <ele>231</ele>
        <time>2017-12-22T11:13:29Z</time>
      </trkpt>
      <trkpt lat="45.97196" lon="4.78178">
        <ele>231</ele>
        <time>2017-12-22T11:13:30Z</time>
      </trkpt>
      <trkpt lat="45.97192" lon="4.7817">
        <ele>231</ele>
        <time>2017-12-22T11:13:31Z</time>
      </trkpt>
      <trkpt lat="45.97188" lon="4.78162">
        <ele>231</ele>
        <time>2017-12-22T11:13:32Z</time>
      </trkpt>
      <trkpt lat="45.97185" lon="4.78154">
        <ele>231</ele>
        <time>2017-12-22T11:13:33Z</time>
      </trkpt>
      <trkpt lat="45.9718" lon="4.78147">
        <ele>231</ele>
        <time>2017-12-22T11:13:34Z</time>
      </trkpt>
      <trkpt lat="45.97177" lon="4.7814">
        <ele>231</ele>
        <time>2017-12-22T11:13:35Z</time>
      </trkpt>
      <trkpt lat="45.97172" lon="4.78134">
        <ele>231</ele>
        <time>2017-12-22T11:13:36Z</time>
      </trkpt>
      <trkpt lat="45.97169" lon="4.78125">
        <ele>231</ele>
        <time>2017-12-22T11:13:37Z</time>
      </trkpt>
      <trkpt lat="45.97165" lon="4.78117">
        <ele>230</ele>
        <time>2017-12-22T11:13:38Z</time>
      </trkpt>
      <trkpt lat="45.9716" lon="4.7811">
        <ele>230</ele>
        <time>2017-12-22T11:13:39Z</time>
      </trkpt>
      <trkpt lat="45.97157" lon="4.78102">
        <ele>230</ele>
        <time>2017-12-22T11:13:40Z</time>
      </trkpt>
      <trkpt lat="45.97153" lon="4.78095">
        <ele>230</ele>
        <time>2017-12-22T11:13:41Z</time>
      </trkpt>
      <trkpt lat="45.9715" lon="4.78088">
        <ele>230</ele>
        <time>2017-12-22T11:13:42Z</time>
      </trkpt>
      <trkpt lat="45.97145" lon="4.78083">
        <ele>230</ele>
        <time>2017-12-22T11:13:43Z</time>
      </trkpt>
      <trkpt lat="45.97141" lon="4.78076">
        <ele>230</ele>
        <time>2017-12-22T11:13:44Z</time>
      </trkpt>
      <trkpt lat="45.97137" lon="4.78071">
        <ele>230</ele>
        <time>2017-12-22T11:13:45Z</time>
      </trkpt>
      <trkpt lat="45.97134" lon="4.78066">
        <ele>230</ele>
        <time>2017-12-22T11:13:46Z</time>
      </trkpt>
      <trkpt lat="45.97131" lon="4.78061">
        <ele>230</ele>
        <time>2017-12-22T11:13:47Z</time>
      </trkpt>
      <trkpt lat="45.97127" lon="4.78058">
        <ele>230</ele>
        <time>2017-12-22T11:13:48Z</time>
      </trkpt>
      <trkpt lat="45.97122" lon="4.78053">
        <ele>229</ele>
        <time>2017-12-22T11:13:49Z</time>
      </trkpt>
      <trkpt lat="45.97118" lon="4.78048">
        <ele>229</ele>
        <time>2017-12-22T11:13:50Z</time>
      </trkpt>
      <trkpt lat="45.97114" lon="4.78042">
        <ele>229</ele>
        <time>2017-12-22T11:13:51Z</time>
      </trkpt>
      <trkpt lat="45.97105" lon="4.78038">
        <ele>229</ele>
        <time>2017-12-22T11:13:52Z</time>
      </trkpt>
      <trkpt lat="45.971" lon="4.78034">
        <ele>229</ele>
        <time>2017-12-22T11:13:53Z</time>
      </trkpt>
      <trkpt lat="45.97094" lon="4.78029">
        <ele>229</ele>
        <time>2017-12-22T11:13:54Z</time>
      </trkpt>
      <trkpt lat="45.97088" lon="4.78024">
        <ele>229</ele>
        <time>2017-12-22T11:13:55Z</time>
      </trkpt>
      <trkpt lat="45.97082" lon="4.78017">
        <ele>229</ele>
        <time>2017-12-22T11:13:56Z</time>
      </trkpt>
      <trkpt lat="45.97077" lon="4.78012">
        <ele>229</ele>
        <time>2017-12-22T11:13:57Z</time>
      </trkpt>
      <trkpt lat="45.97072" lon="4.78007">
        <ele>229</ele>
        <time>2017-12-22T11:13:58Z</time>
      </trkpt>
      <trkpt lat="45.97066" lon="4.78002">
        <ele>229</ele>
        <time>2017-12-22T11:13:59Z</time>
      </trkpt>
      <trkpt lat="45.97061" lon="4.77995">
        <ele>229</ele>
        <time>2017-12-22T11:14:00Z</time>
      </trkpt>
      <trkpt lat="45.97055" lon="4.7799">
        <ele>229</ele>
        <time>2017-12-22T11:14:01Z</time>
      </trkpt>
      <trkpt lat="45.97051" lon="4.77984">
        <ele>229</ele>
        <time>2017-12-22T11:14:02Z</time>
      </trkpt>
      <trkpt lat="45.97046" lon="4.77978">
        <ele>229</ele>
        <time>2017-12-22T11:14:03Z</time>
      </trkpt>
      <trkpt lat="45.97041" lon="4.77972">
        <ele>229</ele>
        <time>2017-12-22T11:14:04Z</time>
      </trkpt>
      <trkpt lat="45.97037" lon="4.77967">
        <ele>229</ele>
        <time>2017-12-22T11:14:05Z</time>
      </trkpt>
      <trkpt lat="45.97032" lon="4.77962">
        <ele>228</ele>
        <time>2017-12-22T11:14:06Z</time>
      </trkpt>
      <trkpt lat="45.97027" lon="4.77957">
        <ele>228</ele>
        <time>2017-12-22T11:14:07Z</time>
      </trkpt>
      <trkpt lat="45.97023" lon="4.77952">
        <ele>228</ele>
        <time>2017-12-22T11:14:08Z</time>
      </trkpt>
      <trkpt lat="45.97019" lon="4.77947">
        <ele>228</ele>
        <time>2017-12-22T11:14:09Z</time>
      </trkpt>
      <trkpt lat="45.97015" lon="4.77942">
        <ele>228</ele>
        <time>2017-12-22T11:14:10Z</time>
      </trkpt>
      <trkpt lat="45.97011" lon="4.77936">
        <ele>228</ele>
        <time>2017-12-22T11:14:11Z</time>
      </trkpt>
      <trkpt lat="45.97004" lon="4.7793">
        <ele>228</ele>
        <time>2017-12-22T11:14:12Z</time>
      </trkpt>
      <trkpt lat="45.97" lon="4.77924">
        <ele>227</ele>
        <time>2017-12-22T11:14:13Z</time>
      </trkpt>
      <trkpt lat="45.96995" lon="4.77917">
        <ele>227</ele>
        <time>2017-12-22T11:14:14Z</time>
      </trkpt>
      <trkpt lat="45.9699" lon="4.77912">
        <ele>227</ele>
        <time>2017-12-22T11:14:15Z</time>
      </trkpt>
      <trkpt lat="45.96984" lon="4.77907">
        <ele>227</ele>
        <time>2017-12-22T11:14:16Z</time>
      </trkpt>
      <trkpt lat="45.96978" lon="4.77901">
        <ele>228</ele>
        <time>2017-12-22T11:14:17Z</time>
      </trkpt>
      <trkpt lat="45.96974" lon="4.77894">
        <ele>228</ele>
        <time>2017-12-22T11:14:18Z</time>
      </trkpt>
      <trkpt lat="45.96968" lon="4.77888">
        <ele>228</ele>
        <time>2017-12-22T11:14:19Z</time>
      </trkpt>
      <trkpt lat="45.96964" lon="4.77881">
        <ele>228</ele>
        <time>2017-12-22T11:14:20Z</time>
      </trkpt>
      <trkpt lat="45.9696" lon="4.77874">
        <ele>228</ele>
        <time>2017-12-22T11:14:21Z</time>
      </trkpt>
      <trkpt lat="45.96953" lon="4.77868">
        <ele>228</ele>
        <time>2017-12-22T11:14:22Z</time>
      </trkpt>
      <trkpt lat="45.96948" lon="4.77862">
        <ele>228</ele>
        <time>2017-12-22T11:14:23Z</time>
      </trkpt>
      <trkpt lat="45.96943" lon="4.77856">
        <ele>228</ele>
        <time>2017-12-22T11:14:24Z</time>
      </trkpt>
      <trkpt lat="45.96939" lon="4.7785">
        <ele>228</ele>
        <time>2017-12-22T11:14:25Z</time>
      </trkpt>
      <trkpt lat="45.96934" lon="4.77844">
        <ele>228</ele>
        <time>2017-12-22T11:14:26Z</time>
      </trkpt>
      <trkpt lat="45.96929" lon="4.77839">
        <ele>228</ele>
        <time>2017-12-22T11:14:27Z</time>
      </trkpt>
      <trkpt lat="45.96924" lon="4.77834">
        <ele>228</ele>
        <time>2017-12-22T11:14:28Z</time>
      </trkpt>
      <trkpt lat="45.9692" lon="4.7783">
        <ele>228</ele>
        <time>2017-12-22T11:14:29Z</time>
      </trkpt>
      <trkpt lat="45.96915" lon="4.77825">
        <ele>228</ele>
        <time>2017-12-22T11:14:30Z</time>
      </trkpt>
      <trkpt lat="45.96911" lon="4.77821">
        <ele>228</ele>
        <time>2017-12-22T11:14:31Z</time>
      </trkpt>
      <trkpt lat="45.96905" lon="4.77818">
        <ele>228</ele>
        <time>2017-12-22T11:14:32Z</time>
      </trkpt>
      <trkpt lat="45.96902" lon="4.77813">
        <ele>228</ele>
        <time>2017-12-22T11:14:33Z</time>
      </trkpt>
      <trkpt lat="45.96897" lon="4.77809">
        <ele>228</ele>
        <time>2017-12-22T11:14:34Z</time>
      </trkpt>
      <trkpt lat="45.96892" lon="4.77806">
        <ele>228</ele>
        <time>2017-12-22T11:14:35Z</time>
      </trkpt>
      <trkpt lat="45.96888" lon="4.77801">
        <ele>228</ele>
        <time>2017-12-22T11:14:36Z</time>
      </trkpt>
      <trkpt lat="45.96883" lon="4.77796">
        <ele>228</ele>
        <time>2017-12-22T11:14:37Z</time>
      </trkpt>
      <trkpt lat="45.96879" lon="4.77791">
        <ele>228</ele>
        <time>2017-12-22T11:14:38Z</time>
      </trkpt>
      <trkpt lat="45.96875" lon="4.77786">
        <ele>228</ele>
        <time>2017-12-22T11:14:39Z</time>
      </trkpt>
      <trkpt lat="45.96867" lon="4.77781">
        <ele>228</ele>
        <time>2017-12-22T11:14:40Z</time>
      </trkpt>
      <trkpt lat="45.9686" lon="4.77775">
        <ele>228</ele>
        <time>2017-12-22T11:14:41Z</time>
      </trkpt>
      <trkpt lat="45.96854" lon="4.77769">
        <ele>228</ele>
        <time>2017-12-22T11:14:42Z</time>
      </trkpt>
      <trkpt lat="45.96849" lon="4.77764">
        <ele>228</ele>
        <time>2017-12-22T11:14:43Z</time>
      </trkpt>
      <trkpt lat="45.96843" lon="4.77757">
        <ele>228</ele>
        <time>2017-12-22T11:14:44Z</time>
      </trkpt>
      <trkpt lat="45.96838" lon="4.77752">
        <ele>228</ele>
        <time>2017-12-22T11:14:45Z</time>
      </trkpt>
      <trkpt lat="45.96833" lon="4.77746">
        <ele>228</ele>
        <time>2017-12-22T11:14:46Z</time>
      </trkpt>
      <trkpt lat="45.96828" lon="4.77741">
        <ele>228</ele>
        <time>2017-12-22T11:14:47Z</time>
      </trkpt>
      <trkpt lat="45.96822" lon="4.77735">
        <ele>228</ele>
        <time>2017-12-22T11:14:48Z</time>
      </trkpt>
      <trkpt lat="45.96818" lon="4.7773">
        <ele>228</ele>
        <time>2017-12-22T11:14:49Z</time>
      </trkpt>
      <trkpt lat="45.96813" lon="4.77725">
        <ele>228</ele>
        <time>2017-12-22T11:14:50Z</time>
      </trkpt>
      <trkpt lat="45.96809" lon="4.7772">
        <ele>228</ele>
        <time>2017-12-22T11:14:51Z</time>
      </trkpt>
      <trkpt lat="45.96805" lon="4.77714">
        <ele>228</ele>
        <time>2017-12-22T11:14:52Z</time>
      </trkpt>
      <trkpt lat="45.96802" lon="4.7771">
        <ele>228</ele>
        <time>2017-12-22T11:14:53Z</time>
      </trkpt>
      <trkpt lat="45.96797" lon="4.77706">
        <ele>228</ele>
        <time>2017-12-22T11:14:54Z</time>
      </trkpt>
      <trkpt lat="45.96793" lon="4.77701">
        <ele>228</ele>
        <time>2017-12-22T11:14:55Z</time>
      </trkpt>
      <trkpt lat="45.96789" lon="4.77696">
        <ele>227</ele>
        <time>2017-12-22T11:14:56Z</time>
      </trkpt>
      <trkpt lat="45.96784" lon="4.7769">
        <ele>227</ele>
        <time>2017-12-22T11:14:57Z</time>
      </trkpt>
      <trkpt lat="45.9678" lon="4.77685">
        <ele>227</ele>
        <time>2017-12-22T11:14:58Z</time>
      </trkpt>
      <trkpt lat="45.96776" lon="4.7768">
        <ele>227</ele>
        <time>2017-12-22T11:14:59Z</time>
      </trkpt>
      <trkpt lat="45.96772" lon="4.77674">
        <ele>227</ele>
        <time>2017-12-22T11:15:00Z</time>
      </trkpt>
      <trkpt lat="45.96767" lon="4.77669">
        <ele>227</ele>
        <time>2017-12-22T11:15:01Z</time>
      </trkpt>
      <trkpt lat="45.96762" lon="4.77664">
        <ele>227</ele>
        <time>2017-12-22T11:15:02Z</time>
      </trkpt>
      <trkpt lat="45.96758" lon="4.77658">
        <ele>227</ele>
        <time>2017-12-22T11:15:03Z</time>
      </trkpt>
      <trkpt lat="45.96753" lon="4.77653">
        <ele>227</ele>
        <time>2017-12-22T11:15:04Z</time>
      </trkpt>
      <trkpt lat="45.96748" lon="4.77647">
        <ele>227</ele>
        <time>2017-12-22T11:15:05Z</time>
      </trkpt>
      <trkpt lat="45.96744" lon="4.77641">
        <ele>227</ele>
        <time>2017-12-22T11:15:06Z</time>
      </trkpt>
      <trkpt lat="45.96739" lon="4.77633">
        <ele>227</ele>
        <time>2017-12-22T11:15:07Z</time>
      </trkpt>
      <trkpt lat="45.96736" lon="4.77628">
        <ele>226</ele>
        <time>2017-12-22T11:15:08Z</time>
      </trkpt>
      <trkpt lat="45.96732" lon="4.77623">
        <ele>226</ele>
        <time>2017-12-22T11:15:09Z</time>
      </trkpt>
      <trkpt lat="45.96729" lon="4.77616">
        <ele>226</ele>
        <time>2017-12-22T11:15:10Z</time>
      </trkpt>
      <trkpt lat="45.96724" lon="4.77611">
        <ele>226</ele>
        <time>2017-12-22T11:15:11Z</time>
      </trkpt>
      <trkpt lat="45.9672" lon="4.77607">
        <ele>226</ele>
        <time>2017-12-22T11:15:12Z</time>
      </trkpt>
      <trkpt lat="45.96716" lon="4.77603">
        <ele>226</ele>
        <time>2017-12-22T11:15:13Z</time>
      </trkpt>
      <trkpt lat="45.96712" lon="4.77599">
        <ele>226</ele>
        <time>2017-12-22T11:15:14Z</time>
      </trkpt>
      <trkpt lat="45.96708" lon="4.77595">
        <ele>226</ele>
        <time>2017-12-22T11:15:15Z</time>
      </trkpt>
      <trkpt lat="45.96704" lon="4.77591">
        <ele>226</ele>
        <time>2017-12-22T11:15:16Z</time>
      </trkpt>
      <trkpt lat="45.96699" lon="4.77587">
        <ele>226</ele>
        <time>2017-12-22T11:15:17Z</time>
      </trkpt>
      <trkpt lat="45.96696" lon="4.77582">
        <ele>225</ele>
        <time>2017-12-22T11:15:18Z</time>
      </trkpt>
      <trkpt lat="45.96691" lon="4.77578">
        <ele>225</ele>
        <time>2017-12-22T11:15:19Z</time>
      </trkpt>
      <trkpt lat="45.96686" lon="4.77574">
        <ele>225</ele>
        <time>2017-12-22T11:15:20Z</time>
      </trkpt>
      <trkpt lat="45.96682" lon="4.77568">
        <ele>225</ele>
        <time>2017-12-22T11:15:21Z</time>
      </trkpt>
      <trkpt lat="45.96677" lon="4.77563">
        <ele>225</ele>
        <time>2017-12-22T11:15:22Z</time>
      </trkpt>
      <trkpt lat="45.96672" lon="4.77559">
        <ele>225</ele>
        <time>2017-12-22T11:15:23Z</time>
      </trkpt>
      <trkpt lat="45.96667" lon="4.77556">
        <ele>225</ele>
        <time>2017-12-22T11:15:24Z</time>
      </trkpt>
      <trkpt lat="45.96662" lon="4.77553">
        <ele>224</ele>
        <time>2017-12-22T11:15:25Z</time>
      </trkpt>
      <trkpt lat="45.96657" lon="4.7755">
        <ele>224</ele>
        <time>2017-12-22T11:15:26Z</time>
      </trkpt>
      <trkpt lat="45.96649" lon="4.77546">
        <ele>224</ele>
        <time>2017-12-22T11:15:27Z</time>
      </trkpt>
      <trkpt lat="45.96644" lon="4.77543">
        <ele>224</ele>
        <time>2017-12-22T11:15:28Z</time>
      </trkpt>
      <trkpt lat="45.96638" lon="4.7754">
        <ele>224</ele>
        <time>2017-12-22T11:15:29Z</time>
      </trkpt>
      <trkpt lat="45.96633" lon="4.77536">
        <ele>224</ele>
        <time>2017-12-22T11:15:30Z</time>
      </trkpt>
      <trkpt lat="45.96628" lon="4.77533">
        <ele>224</ele>
        <time>2017-12-22T11:15:31Z</time>
      </trkpt>
      <trkpt lat="45.96623" lon="4.7753">
        <ele>224</ele>
        <time>2017-12-22T11:15:32Z</time>
      </trkpt>
      <trkpt lat="45.96617" lon="4.77527">
        <ele>224</ele>
        <time>2017-12-22T11:15:33Z</time>
      </trkpt>
      <trkpt lat="45.96612" lon="4.77522">
        <ele>224</ele>
        <time>2017-12-22T11:15:34Z</time>
      </trkpt>
      <trkpt lat="45.96608" lon="4.77518">
        <ele>224</ele>
        <time>2017-12-22T11:15:35Z</time>
      </trkpt>
      <trkpt lat="45.96603" lon="4.77516">
        <ele>224</ele>
        <time>2017-12-22T11:15:36Z</time>
      </trkpt>
      <trkpt lat="45.96595" lon="4.7751">
        <ele>224</ele>
        <time>2017-12-22T11:15:38Z</time>
      </trkpt>
      <trkpt lat="45.96591" lon="4.77508">
        <ele>224</ele>
        <time>2017-12-22T11:15:39Z</time>
      </trkpt>
      <trkpt lat="45.96586" lon="4.77505">
        <ele>224</ele>
        <time>2017-12-22T11:15:40Z</time>
      </trkpt>
      <trkpt lat="45.96581" lon="4.77502">
        <ele>224</ele>
        <time>2017-12-22T11:15:41Z</time>
      </trkpt>
      <trkpt lat="45.96575" lon="4.77499">
        <ele>224</ele>
        <time>2017-12-22T11:15:42Z</time>
      </trkpt>
      <trkpt lat="45.96569" lon="4.77495">
        <ele>224</ele>
        <time>2017-12-22T11:15:43Z</time>
      </trkpt>
      <trkpt lat="45.96564" lon="4.77491">
        <ele>224</ele>
        <time>2017-12-22T11:15:44Z</time>
      </trkpt>
      <trkpt lat="45.96558" lon="4.77487">
        <ele>224</ele>
        <time>2017-12-22T11:15:45Z</time>
      </trkpt>
      <trkpt lat="45.96552" lon="4.77483">
        <ele>223</ele>
        <time>2017-12-22T11:15:46Z</time>
      </trkpt>
      <trkpt lat="45.96546" lon="4.77479">
        <ele>223</ele>
        <time>2017-12-22T11:15:47Z</time>
      </trkpt>
      <trkpt lat="45.9654" lon="4.77474">
        <ele>223</ele>
        <time>2017-12-22T11:15:48Z</time>
      </trkpt>
      <trkpt lat="45.96535" lon="4.7747">
        <ele>223</ele>
        <time>2017-12-22T11:15:49Z</time>
      </trkpt>
      <trkpt lat="45.96528" lon="4.77465">
        <ele>223</ele>
        <time>2017-12-22T11:15:50Z</time>
      </trkpt>
      <trkpt lat="45.96522" lon="4.77461">
        <ele>223</ele>
        <time>2017-12-22T11:15:51Z</time>
      </trkpt>
      <trkpt lat="45.96516" lon="4.77457">
        <ele>223</ele>
        <time>2017-12-22T11:15:52Z</time>
      </trkpt>
      <trkpt lat="45.96509" lon="4.77454">
        <ele>223</ele>
        <time>2017-12-22T11:15:53Z</time>
      </trkpt>
      <trkpt lat="45.96503" lon="4.7745">
        <ele>223</ele>
        <time>2017-12-22T11:15:54Z</time>
      </trkpt>
      <trkpt lat="45.96496" lon="4.77445">
        <ele>222</ele>
        <time>2017-12-22T11:15:55Z</time>
      </trkpt>
      <trkpt lat="45.9649" lon="4.77441">
        <ele>222</ele>
        <time>2017-12-22T11:15:56Z</time>
      </trkpt>
      <trkpt lat="45.96484" lon="4.77437">
        <ele>222</ele>
        <time>2017-12-22T11:15:57Z</time>
      </trkpt>
      <trkpt lat="45.96479" lon="4.77434">
        <ele>222</ele>
        <time>2017-12-22T11:15:58Z</time>
      </trkpt>
      <trkpt lat="45.96473" lon="4.77429">
        <ele>221</ele>
        <time>2017-12-22T11:15:59Z</time>
      </trkpt>
      <trkpt lat="45.96466" lon="4.77426">
        <ele>221</ele>
        <time>2017-12-22T11:16:00Z</time>
      </trkpt>
      <trkpt lat="45.9646" lon="4.77422">
        <ele>221</ele>
        <time>2017-12-22T11:16:01Z</time>
      </trkpt>
      <trkpt lat="45.96454" lon="4.77418">
        <ele>221</ele>
        <time>2017-12-22T11:16:02Z</time>
      </trkpt>
      <trkpt lat="45.96448" lon="4.77414">
        <ele>222</ele>
        <time>2017-12-22T11:16:03Z</time>
      </trkpt>
      <trkpt lat="45.96443" lon="4.7741">
        <ele>222</ele>
        <time>2017-12-22T11:16:04Z</time>
      </trkpt>
      <trkpt lat="45.96437" lon="4.77408">
        <ele>222</ele>
        <time>2017-12-22T11:16:05Z</time>
      </trkpt>
      <trkpt lat="45.96431" lon="4.77404">
        <ele>222</ele>
        <time>2017-12-22T11:16:06Z</time>
      </trkpt>
      <trkpt lat="45.96425" lon="4.774">
        <ele>222</ele>
        <time>2017-12-22T11:16:07Z</time>
      </trkpt>
      <trkpt lat="45.96419" lon="4.77398">
        <ele>222</ele>
        <time>2017-12-22T11:16:08Z</time>
      </trkpt>
      <trkpt lat="45.96414" lon="4.77393">
        <ele>220</ele>
        <time>2017-12-22T11:16:09Z</time>
      </trkpt>
      <trkpt lat="45.96409" lon="4.77389">
        <ele>220</ele>
        <time>2017-12-22T11:16:10Z</time>
      </trkpt>
      <trkpt lat="45.96403" lon="4.77386">
        <ele>220</ele>
        <time>2017-12-22T11:16:11Z</time>
      </trkpt>
      <trkpt lat="45.96398" lon="4.77382">
        <ele>220</ele>
        <time>2017-12-22T11:16:12Z</time>
      </trkpt>
      <trkpt lat="45.96391" lon="4.77376">
        <ele>220</ele>
        <time>2017-12-22T11:16:13Z</time>
      </trkpt>
      <trkpt lat="45.96385" lon="4.77372">
        <ele>220</ele>
        <time>2017-12-22T11:16:14Z</time>
      </trkpt>
      <trkpt lat="45.96379" lon="4.77368">
        <ele>220</ele>
        <time>2017-12-22T11:16:15Z</time>
      </trkpt>
      <trkpt lat="45.96368" lon="4.77364">
        <ele>220</ele>
        <time>2017-12-22T11:16:16Z</time>
      </trkpt>
      <trkpt lat="45.96361" lon="4.77361">
        <ele>220</ele>
        <time>2017-12-22T11:16:17Z</time>
      </trkpt>
      <trkpt lat="45.96354" lon="4.77357">
        <ele>219</ele>
        <time>2017-12-22T11:16:18Z</time>
      </trkpt>
      <trkpt lat="45.96347" lon="4.77354">
        <ele>220</ele>
        <time>2017-12-22T11:16:19Z</time>
      </trkpt>
      <trkpt lat="45.96342" lon="4.7735">
        <ele>220</ele>
        <time>2017-12-22T11:16:20Z</time>
      </trkpt>
      <trkpt lat="45.96336" lon="4.77346">
        <ele>220</ele>
        <time>2017-12-22T11:16:21Z</time>
      </trkpt>
      <trkpt lat="45.9633" lon="4.77343">
        <ele>219</ele>
        <time>2017-12-22T11:16:22Z</time>
      </trkpt>
      <trkpt lat="45.96323" lon="4.7734">
        <ele>218</ele>
        <time>2017-12-22T11:16:23Z</time>
      </trkpt>
      <trkpt lat="45.96316" lon="4.77338">
        <ele>218</ele>
        <time>2017-12-22T11:16:24Z</time>
      </trkpt>
      <trkpt lat="45.96309" lon="4.77335">
        <ele>217</ele>
        <time>2017-12-22T11:16:25Z</time>
      </trkpt>
      <trkpt lat="45.96302" lon="4.77332">
        <ele>219</ele>
        <time>2017-12-22T11:16:26Z</time>
      </trkpt>
      <trkpt lat="45.96294" lon="4.77328">
        <ele>219</ele>
        <time>2017-12-22T11:16:27Z</time>
      </trkpt>
      <trkpt lat="45.96288" lon="4.77323">
        <ele>219</ele>
        <time>2017-12-22T11:16:28Z</time>
      </trkpt>
      <trkpt lat="45.96279" lon="4.77318">
        <ele>219</ele>
        <time>2017-12-22T11:16:29Z</time>
      </trkpt>
      <trkpt lat="45.96272" lon="4.77315">
        <ele>219</ele>
        <time>2017-12-22T11:16:30Z</time>
      </trkpt>
      <trkpt lat="45.96266" lon="4.77311">
        <ele>218</ele>
        <time>2017-12-22T11:16:31Z</time>
      </trkpt>
      <trkpt lat="45.96258" lon="4.77307">
        <ele>218</ele>
        <time>2017-12-22T11:16:32Z</time>
      </trkpt>
      <trkpt lat="45.96253" lon="4.77302">
        <ele>219</ele>
        <time>2017-12-22T11:16:33Z</time>
      </trkpt>
      <trkpt lat="45.96247" lon="4.77299">
        <ele>217</ele>
        <time>2017-12-22T11:16:34Z</time>
      </trkpt>
      <trkpt lat="45.9624" lon="4.77296">
        <ele>217</ele>
        <time>2017-12-22T11:16:35Z</time>
      </trkpt>
      <trkpt lat="45.96234" lon="4.77293">
        <ele>217</ele>
        <time>2017-12-22T11:16:36Z</time>
      </trkpt>
      <trkpt lat="45.96228" lon="4.7729">
        <ele>217</ele>
        <time>2017-12-22T11:16:37Z</time>
      </trkpt>
      <trkpt lat="45.96222" lon="4.77286">
        <ele>217</ele>
        <time>2017-12-22T11:16:38Z</time>
      </trkpt>
      <trkpt lat="45.96215" lon="4.77284">
        <ele>217</ele>
        <time>2017-12-22T11:16:39Z</time>
      </trkpt>
      <trkpt lat="45.96209" lon="4.7728">
        <ele>217</ele>
        <time>2017-12-22T11:16:40Z</time>
      </trkpt>
      <trkpt lat="45.96203" lon="4.77275">
        <ele>217</ele>
        <time>2017-12-22T11:16:41Z</time>
      </trkpt>
      <trkpt lat="45.96196" lon="4.77271">
        <ele>216</ele>
        <time>2017-12-22T11:16:42Z</time>
      </trkpt>
      <trkpt lat="45.9619" lon="4.77268">
        <ele>216</ele>
        <time>2017-12-22T11:16:43Z</time>
      </trkpt>
      <trkpt lat="45.96183" lon="4.77264">
        <ele>216</ele>
        <time>2017-12-22T11:16:44Z</time>
      </trkpt>
      <trkpt lat="45.96176" lon="4.77259">
        <ele>216</ele>
        <time>2017-12-22T11:16:45Z</time>
      </trkpt>
      <trkpt lat="45.9617" lon="4.77256">
        <ele>216</ele>
        <time>2017-12-22T11:16:46Z</time>
      </trkpt>
      <trkpt lat="45.96162" lon="4.77252">
        <ele>215</ele>
        <time>2017-12-22T11:16:47Z</time>
      </trkpt>
      <trkpt lat="45.96155" lon="4.77248">
        <ele>216</ele>
        <time>2017-12-22T11:16:48Z</time>
      </trkpt>
      <trkpt lat="45.96148" lon="4.77245">
        <ele>215</ele>
        <time>2017-12-22T11:16:49Z</time>
      </trkpt>
      <trkpt lat="45.96142" lon="4.77241">
        <ele>215</ele>
        <time>2017-12-22T11:16:50Z</time>
      </trkpt>
      <trkpt lat="45.96136" lon="4.77239">
        <ele>215</ele>
        <time>2017-12-22T11:16:51Z</time>
      </trkpt>
      <trkpt lat="45.96129" lon="4.77238">
        <ele>215</ele>
        <time>2017-12-22T11:16:52Z</time>
      </trkpt>
      <trkpt lat="45.96123" lon="4.77237">
        <ele>214</ele>
        <time>2017-12-22T11:16:53Z</time>
      </trkpt>
      <trkpt lat="45.96116" lon="4.77237">
        <ele>214</ele>
        <time>2017-12-22T11:16:54Z</time>
      </trkpt>
      <trkpt lat="45.96109" lon="4.77237">
        <ele>214</ele>
        <time>2017-12-22T11:16:55Z</time>
      </trkpt>
      <trkpt lat="45.96102" lon="4.77237">
        <ele>213</ele>
        <time>2017-12-22T11:16:56Z</time>
      </trkpt>
      <trkpt lat="45.96095" lon="4.77237">
        <ele>213</ele>
        <time>2017-12-22T11:16:57Z</time>
      </trkpt>
      <trkpt lat="45.96086" lon="4.77239">
        <ele>212</ele>
        <time>2017-12-22T11:16:58Z</time>
      </trkpt>
      <trkpt lat="45.9608" lon="4.77239">
        <ele>210</ele>
        <time>2017-12-22T11:16:59Z</time>
      </trkpt>
      <trkpt lat="45.96072" lon="4.77239">
        <ele>210</ele>
        <time>2017-12-22T11:17:00Z</time>
      </trkpt>
      <trkpt lat="45.96065" lon="4.77239">
        <ele>209</ele>
        <time>2017-12-22T11:17:01Z</time>
      </trkpt>
      <trkpt lat="45.96057" lon="4.77239">
        <ele>209</ele>
        <time>2017-12-22T11:17:02Z</time>
      </trkpt>
      <trkpt lat="45.9605" lon="4.7724">
        <ele>209</ele>
        <time>2017-12-22T11:17:03Z</time>
      </trkpt>
      <trkpt lat="45.96043" lon="4.77239">
        <ele>208</ele>
        <time>2017-12-22T11:17:04Z</time>
      </trkpt>
      <trkpt lat="45.96035" lon="4.7724">
        <ele>208</ele>
        <time>2017-12-22T11:17:05Z</time>
      </trkpt>
      <trkpt lat="45.96029" lon="4.77241">
        <ele>207</ele>
        <time>2017-12-22T11:17:06Z</time>
      </trkpt>
      <trkpt lat="45.9602" lon="4.7724">
        <ele>207</ele>
        <time>2017-12-22T11:17:07Z</time>
      </trkpt>
      <trkpt lat="45.96013" lon="4.77241">
        <ele>206</ele>
        <time>2017-12-22T11:17:08Z</time>
      </trkpt>
      <trkpt lat="45.96007" lon="4.77239">
        <ele>206</ele>
        <time>2017-12-22T11:17:09Z</time>
      </trkpt>
      <trkpt lat="45.95999" lon="4.77237">
        <ele>203</ele>
        <time>2017-12-22T11:17:10Z</time>
      </trkpt>
      <trkpt lat="45.95992" lon="4.77235">
        <ele>202</ele>
        <time>2017-12-22T11:17:11Z</time>
      </trkpt>
      <trkpt lat="45.95982" lon="4.77231">
        <ele>202</ele>
        <time>2017-12-22T11:17:12Z</time>
      </trkpt>
      <trkpt lat="45.95975" lon="4.77225">
        <ele>202</ele>
        <time>2017-12-22T11:17:13Z</time>
      </trkpt>
      <trkpt lat="45.95968" lon="4.77218">
        <ele>202</ele>
        <time>2017-12-22T11:17:14Z</time>
      </trkpt>
      <trkpt lat="45.95962" lon="4.77211">
        <ele>201</ele>
        <time>2017-12-22T11:17:15Z</time>
      </trkpt>
      <trkpt lat="45.95956" lon="4.77202">
        <ele>201</ele>
        <time>2017-12-22T11:17:16Z</time>
      </trkpt>
      <trkpt lat="45.95952" lon="4.77193">
        <ele>201</ele>
        <time>2017-12-22T11:17:17Z</time>
      </trkpt>
      <trkpt lat="45.95948" lon="4.77182">
        <ele>201</ele>
        <time>2017-12-22T11:17:18Z</time>
      </trkpt>
      <trkpt lat="45.95946" lon="4.77171">
        <ele>200</ele>
        <time>2017-12-22T11:17:19Z</time>
      </trkpt>
      <trkpt lat="45.95945" lon="4.77159">
        <ele>201</ele>
        <time>2017-12-22T11:17:20Z</time>
      </trkpt>
      <trkpt lat="45.95943" lon="4.77148">
        <ele>201</ele>
        <time>2017-12-22T11:17:21Z</time>
      </trkpt>
      <trkpt lat="45.95944" lon="4.77136">
        <ele>201</ele>
        <time>2017-12-22T11:17:22Z</time>
      </trkpt>
      <trkpt lat="45.95943" lon="4.77126">
        <ele>201</ele>
        <time>2017-12-22T11:17:23Z</time>
      </trkpt>
      <trkpt lat="45.95944" lon="4.77114">
        <ele>201</ele>
        <time>2017-12-22T11:17:24Z</time>
      </trkpt>
      <trkpt lat="45.95945" lon="4.77103">
        <ele>201</ele>
        <time>2017-12-22T11:17:25Z</time>
      </trkpt>
      <trkpt lat="45.95946" lon="4.77092">
        <ele>201</ele>
        <time>2017-12-22T11:17:26Z</time>
      </trkpt>
      <trkpt lat="45.95949" lon="4.77082">
        <ele>200</ele>
        <time>2017-12-22T11:17:27Z</time>
      </trkpt>
      <trkpt lat="45.95951" lon="4.77072">
        <ele>200</ele>
        <time>2017-12-22T11:17:28Z</time>
      </trkpt>
      <trkpt lat="45.95954" lon="4.77065">
        <ele>200</ele>
        <time>2017-12-22T11:17:29Z</time>
      </trkpt>
      <trkpt lat="45.95957" lon="4.77055">
        <ele>200</ele>
        <time>2017-12-22T11:17:30Z</time>
      </trkpt>
      <trkpt lat="45.9596" lon="4.77046">
        <ele>200</ele>
        <time>2017-12-22T11:17:31Z</time>
      </trkpt>
      <trkpt lat="45.95964" lon="4.77036">
        <ele>200</ele>
        <time>2017-12-22T11:17:32Z</time>
      </trkpt>
      <trkpt lat="45.95967" lon="4.77026">
        <ele>200</ele>
        <time>2017-12-22T11:17:33Z</time>
      </trkpt>
      <trkpt lat="45.95971" lon="4.77016">
        <ele>200</ele>
        <time>2017-12-22T11:17:34Z</time>
      </trkpt>
      <trkpt lat="45.95974" lon="4.77007">
        <ele>200</ele>
        <time>2017-12-22T11:17:35Z</time>
      </trkpt>
      <trkpt lat="45.95977" lon="4.76998">
        <ele>198</ele>
        <time>2017-12-22T11:17:36Z</time>
      </trkpt>
      <trkpt lat="45.95979" lon="4.7699">
        <ele>198</ele>
        <time>2017-12-22T11:17:37Z</time>
      </trkpt>
      <trkpt lat="45.95981" lon="4.76979">
        <ele>197</ele>
        <time>2017-12-22T11:17:38Z</time>
      </trkpt>
      <trkpt lat="45.95982" lon="4.76967">
        <ele>197</ele>
        <time>2017-12-22T11:17:39Z</time>
      </trkpt>
      <trkpt lat="45.95979" lon="4.76955">
        <ele>196</ele>
        <time>2017-12-22T11:17:40Z</time>
      </trkpt>
      <trkpt lat="45.95975" lon="4.76942">
        <ele>196</ele>
        <time>2017-12-22T11:17:41Z</time>
      </trkpt>
      <trkpt lat="45.95969" lon="4.76932">
        <ele>195</ele>
        <time>2017-12-22T11:17:42Z</time>
      </trkpt>
      <trkpt lat="45.95964" lon="4.76924">
        <ele>195</ele>
        <time>2017-12-22T11:17:43Z</time>
      </trkpt>
      <trkpt lat="45.95957" lon="4.76916">
        <ele>193</ele>
        <time>2017-12-22T11:17:44Z</time>
      </trkpt>
      <trkpt lat="45.95951" lon="4.76909">
        <ele>193</ele>
        <time>2017-12-22T11:17:45Z</time>
      </trkpt>
      <trkpt lat="45.95944" lon="4.76902">
        <ele>192</ele>
        <time>2017-12-22T11:17:46Z</time>
      </trkpt>
      <trkpt lat="45.95937" lon="4.76893">
        <ele>192</ele>
        <time>2017-12-22T11:17:47Z</time>
      </trkpt>
      <trkpt lat="45.95929" lon="4.76886">
        <ele>192</ele>
        <time>2017-12-22T11:17:48Z</time>
      </trkpt>
      <trkpt lat="45.95923" lon="4.76879">
        <ele>192</ele>
        <time>2017-12-22T11:17:49Z</time>
      </trkpt>
      <trkpt lat="45.95916" lon="4.76871">
        <ele>191</ele>
        <time>2017-12-22T11:17:50Z</time>
      </trkpt>
      <trkpt lat="45.95909" lon="4.76864">
        <ele>191</ele>
        <time>2017-12-22T11:17:51Z</time>
      </trkpt>
      <trkpt lat="45.95902" lon="4.76856">
        <ele>191</ele>
        <time>2017-12-22T11:17:52Z</time>
      </trkpt>
      <trkpt lat="45.95897" lon="4.76849">
        <ele>191</ele>
        <time>2017-12-22T11:17:53Z</time>
      </trkpt>
      <trkpt lat="45.95891" lon="4.76842">
        <ele>191</ele>
        <time>2017-12-22T11:17:54Z</time>
      </trkpt>
      <trkpt lat="45.95883" lon="4.76834">
        <ele>191</ele>
        <time>2017-12-22T11:17:55Z</time>
      </trkpt>
      <trkpt lat="45.95877" lon="4.76827">
        <ele>191</ele>
        <time>2017-12-22T11:17:56Z</time>
      </trkpt>
      <trkpt lat="45.95871" lon="4.76821">
        <ele>191</ele>
        <time>2017-12-22T11:17:57Z</time>
      </trkpt>
      <trkpt lat="45.95865" lon="4.76815">
        <ele>191</ele>
        <time>2017-12-22T11:17:58Z</time>
      </trkpt>
      <trkpt lat="45.95859" lon="4.76808">
        <ele>191</ele>
        <time>2017-12-22T11:17:59Z</time>
      </trkpt>
      <trkpt lat="45.95854" lon="4.76802">
        <ele>191</ele>
        <time>2017-12-22T11:18:00Z</time>
      </trkpt>
      <trkpt lat="45.95848" lon="4.76796">
        <ele>191</ele>
        <time>2017-12-22T11:18:01Z</time>
      </trkpt>
      <trkpt lat="45.95843" lon="4.76789">
        <ele>191</ele>
        <time>2017-12-22T11:18:02Z</time>
      </trkpt>
      <trkpt lat="45.95838" lon="4.76782">
        <ele>191</ele>
        <time>2017-12-22T11:18:03Z</time>
      </trkpt>
      <trkpt lat="45.95834" lon="4.76775">
        <ele>191</ele>
        <time>2017-12-22T11:18:04Z</time>
      </trkpt>
      <trkpt lat="45.95831" lon="4.76766">
        <ele>190</ele>
        <time>2017-12-22T11:18:05Z</time>
      </trkpt>
      <trkpt lat="45.95828" lon="4.76756">
        <ele>191</ele>
        <time>2017-12-22T11:18:06Z</time>
      </trkpt>
      <trkpt lat="45.95827" lon="4.76746">
        <ele>190</ele>
        <time>2017-12-22T11:18:07Z</time>
      </trkpt>
      <trkpt lat="45.95825" lon="4.76737">
        <ele>190</ele>
        <time>2017-12-22T11:18:08Z</time>
      </trkpt>
      <trkpt lat="45.95824" lon="4.76727">
        <ele>190</ele>
        <time>2017-12-22T11:18:09Z</time>
      </trkpt>
      <trkpt lat="45.95822" lon="4.76718">
        <ele>189</ele>
        <time>2017-12-22T11:18:10Z</time>
      </trkpt>
      <trkpt lat="45.95819" lon="4.76708">
        <ele>189</ele>
        <time>2017-12-22T11:18:11Z</time>
      </trkpt>
      <trkpt lat="45.95818" lon="4.76699">
        <ele>189</ele>
        <time>2017-12-22T11:18:12Z</time>
      </trkpt>
      <trkpt lat="45.95817" lon="4.76689">
        <ele>189</ele>
        <time>2017-12-22T11:18:13Z</time>
      </trkpt>
      <trkpt lat="45.95816" lon="4.76681">
        <ele>189</ele>
        <time>2017-12-22T11:18:14Z</time>
      </trkpt>
      <trkpt lat="45.95815" lon="4.76672">
        <ele>189</ele>
        <time>2017-12-22T11:18:15Z</time>
      </trkpt>
      <trkpt lat="45.95813" lon="4.76665">
        <ele>188</ele>
        <time>2017-12-22T11:18:16Z</time>
      </trkpt>
      <trkpt lat="45.95812" lon="4.76656">
        <ele>188</ele>
        <time>2017-12-22T11:18:17Z</time>
      </trkpt>
      <trkpt lat="45.95811" lon="4.76649">
        <ele>188</ele>
        <time>2017-12-22T11:18:18Z</time>
      </trkpt>
      <trkpt lat="45.95811" lon="4.76641">
        <ele>188</ele>
        <time>2017-12-22T11:18:19Z</time>
      </trkpt>
      <trkpt lat="45.9581" lon="4.76633">
        <ele>188</ele>
        <time>2017-12-22T11:18:20Z</time>
      </trkpt>
      <trkpt lat="45.9581" lon="4.76625">
        <ele>188</ele>
        <time>2017-12-22T11:18:21Z</time>
      </trkpt>
      <trkpt lat="45.95809" lon="4.76617">
        <ele>188</ele>
        <time>2017-12-22T11:18:22Z</time>
      </trkpt>
      <trkpt lat="45.95809" lon="4.76607">
        <ele>188</ele>
        <time>2017-12-22T11:18:23Z</time>
      </trkpt>
      <trkpt lat="45.95808" lon="4.76598">
        <ele>188</ele>
        <time>2017-12-22T11:18:24Z</time>
      </trkpt>
      <trkpt lat="45.95805" lon="4.7659">
        <ele>188</ele>
        <time>2017-12-22T11:18:25Z</time>
      </trkpt>
      <trkpt lat="45.95803" lon="4.76582">
        <ele>187</ele>
        <time>2017-12-22T11:18:26Z</time>
      </trkpt>
      <trkpt lat="45.95803" lon="4.76574">
        <ele>187</ele>
        <time>2017-12-22T11:18:27Z</time>
      </trkpt>
      <trkpt lat="45.958" lon="4.76565">
        <ele>187</ele>
        <time>2017-12-22T11:18:28Z</time>
      </trkpt>
      <trkpt lat="45.958" lon="4.76557">
        <ele>187</ele>
        <time>2017-12-22T11:18:29Z</time>
      </trkpt>
      <trkpt lat="45.95799" lon="4.7655">
        <ele>187</ele>
        <time>2017-12-22T11:18:30Z</time>
      </trkpt>
      <trkpt lat="45.95798" lon="4.76543">
        <ele>187</ele>
        <time>2017-12-22T11:18:31Z</time>
      </trkpt>
      <trkpt lat="45.95797" lon="4.76535">
        <ele>187</ele>
        <time>2017-12-22T11:18:32Z</time>
      </trkpt>
      <trkpt lat="45.95796" lon="4.76528">
        <ele>187</ele>
        <time>2017-12-22T11:18:33Z</time>
      </trkpt>
      <trkpt lat="45.95795" lon="4.7652">
        <ele>187</ele>
        <time>2017-12-22T11:18:34Z</time>
      </trkpt>
      <trkpt lat="45.95793" lon="4.76512">
        <ele>187</ele>
        <time>2017-12-22T11:18:35Z</time>
      </trkpt>
      <trkpt lat="45.95791" lon="4.76503">
        <ele>187</ele>
        <time>2017-12-22T11:18:36Z</time>
      </trkpt>
      <trkpt lat="45.95791" lon="4.76495">
        <ele>186</ele>
        <time>2017-12-22T11:18:37Z</time>
      </trkpt>
      <trkpt lat="45.9579" lon="4.76486">
        <ele>186</ele>
        <time>2017-12-22T11:18:38Z</time>
      </trkpt>
      <trkpt lat="45.95789" lon="4.76477">
        <ele>186</ele>
        <time>2017-12-22T11:18:39Z</time>
      </trkpt>
      <trkpt lat="45.95787" lon="4.7647">
        <ele>186</ele>
        <time>2017-12-22T11:18:40Z</time>
      </trkpt>
      <trkpt lat="45.95785" lon="4.76461">
        <ele>186</ele>
        <time>2017-12-22T11:18:41Z</time>
      </trkpt>
      <trkpt lat="45.95784" lon="4.76453">
        <ele>186</ele>
        <time>2017-12-22T11:18:42Z</time>
      </trkpt>
      <trkpt lat="45.95783" lon="4.76446">
        <ele>186</ele>
        <time>2017-12-22T11:18:43Z</time>
      </trkpt>
      <trkpt lat="45.95782" lon="4.76439">
        <ele>186</ele>
        <time>2017-12-22T11:18:44Z</time>
      </trkpt>
      <trkpt lat="45.9578" lon="4.76431">
        <ele>186</ele>
        <time>2017-12-22T11:18:45Z</time>
      </trkpt>
      <trkpt lat="45.95779" lon="4.76422">
        <ele>186</ele>
        <time>2017-12-22T11:18:46Z</time>
      </trkpt>
      <trkpt lat="45.95778" lon="4.76415">
        <ele>186</ele>
        <time>2017-12-22T11:18:47Z</time>
      </trkpt>
      <trkpt lat="45.95778" lon="4.76407">
        <ele>186</ele>
        <time>2017-12-22T11:18:48Z</time>
      </trkpt>
      <trkpt lat="45.95777" lon="4.76399">
        <ele>186</ele>
        <time>2017-12-22T11:18:49Z</time>
      </trkpt>
      <trkpt lat="45.95776" lon="4.7639">
        <ele>186</ele>
        <time>2017-12-22T11:18:50Z</time>
      </trkpt>
      <trkpt lat="45.95777" lon="4.76382">
        <ele>186</ele>
        <time>2017-12-22T11:18:51Z</time>
      </trkpt>
      <trkpt lat="45.95776" lon="4.76374">
        <ele>186</ele>
        <time>2017-12-22T11:18:52Z</time>
      </trkpt>
      <trkpt lat="45.95775" lon="4.76365">
        <ele>186</ele>
        <time>2017-12-22T11:18:53Z</time>
      </trkpt>
      <trkpt lat="45.95775" lon="4.76357">
        <ele>186</ele>
        <time>2017-12-22T11:18:54Z</time>
      </trkpt>
      <trkpt lat="45.95774" lon="4.76349">
        <ele>186</ele>
        <time>2017-12-22T11:18:55Z</time>
      </trkpt>
      <trkpt lat="45.95773" lon="4.76341">
        <ele>186</ele>
        <time>2017-12-22T11:18:56Z</time>
      </trkpt>
      <trkpt lat="45.95772" lon="4.76333">
        <ele>185</ele>
        <time>2017-12-22T11:18:57Z</time>
      </trkpt>
      <trkpt lat="45.95772" lon="4.76324">
        <ele>185</ele>
        <time>2017-12-22T11:18:58Z</time>
      </trkpt>
      <trkpt lat="45.95771" lon="4.76314">
        <ele>185</ele>
        <time>2017-12-22T11:18:59Z</time>
      </trkpt>
      <trkpt lat="45.9577" lon="4.76306">
        <ele>186</ele>
        <time>2017-12-22T11:19:00Z</time>
      </trkpt>
      <trkpt lat="45.9577" lon="4.76296">
        <ele>186</ele>
        <time>2017-12-22T11:19:01Z</time>
      </trkpt>
      <trkpt lat="45.95769" lon="4.76287">
        <ele>186</ele>
        <time>2017-12-22T11:19:02Z</time>
      </trkpt>
      <trkpt lat="45.9577" lon="4.76279">
        <ele>186</ele>
        <time>2017-12-22T11:19:03Z</time>
      </trkpt>
      <trkpt lat="45.9577" lon="4.76272">
        <ele>186</ele>
        <time>2017-12-22T11:19:04Z</time>
      </trkpt>
      <trkpt lat="45.9577" lon="4.76265">
        <ele>186</ele>
        <time>2017-12-22T11:19:05Z</time>
      </trkpt>
      <trkpt lat="45.9577" lon="4.76256">
        <ele>185</ele>
        <time>2017-12-22T11:19:06Z</time>
      </trkpt>
      <trkpt lat="45.9577" lon="4.76248">
        <ele>186</ele>
        <time>2017-12-22T11:19:07Z</time>
      </trkpt>
      <trkpt lat="45.95769" lon="4.7624">
        <ele>186</ele>
        <time>2017-12-22T11:19:08Z</time>
      </trkpt>
      <trkpt lat="45.95769" lon="4.76232">
        <ele>186</ele>
        <time>2017-12-22T11:19:09Z</time>
      </trkpt>
      <trkpt lat="45.95768" lon="4.76224">
        <ele>186</ele>
        <time>2017-12-22T11:19:10Z</time>
      </trkpt>
      <trkpt lat="45.95767" lon="4.76216">
        <ele>186</ele>
        <time>2017-12-22T11:19:11Z</time>
      </trkpt>
      <trkpt lat="45.95764" lon="4.76206">
        <ele>186</ele>
        <time>2017-12-22T11:19:12Z</time>
      </trkpt>
      <trkpt lat="45.95763" lon="4.76196">
        <ele>186</ele>
        <time>2017-12-22T11:19:13Z</time>
      </trkpt>
      <trkpt lat="45.95763" lon="4.76188">
        <ele>186</ele>
        <time>2017-12-22T11:19:14Z</time>
      </trkpt>
      <trkpt lat="45.95765" lon="4.76179">
        <ele>186</ele>
        <time>2017-12-22T11:19:15Z</time>
      </trkpt>
      <trkpt lat="45.95764" lon="4.7617">
        <ele>185</ele>
        <time>2017-12-22T11:19:16Z</time>
      </trkpt>
      <trkpt lat="45.95765" lon="4.7616">
        <ele>186</ele>
        <time>2017-12-22T11:19:17Z</time>
      </trkpt>
      <trkpt lat="45.95766" lon="4.76152">
        <ele>186</ele>
        <time>2017-12-22T11:19:18Z</time>
      </trkpt>
      <trkpt lat="45.95765" lon="4.76144">
        <ele>186</ele>
        <time>2017-12-22T11:19:19Z</time>
      </trkpt>
      <trkpt lat="45.95765" lon="4.76137">
        <ele>186</ele>
        <time>2017-12-22T11:19:20Z</time>
      </trkpt>
      <trkpt lat="45.95765" lon="4.7613">
        <ele>186</ele>
        <time>2017-12-22T11:19:21Z</time>
      </trkpt>
      <trkpt lat="45.95762" lon="4.76122">
        <ele>186</ele>
        <time>2017-12-22T11:19:22Z</time>
      </trkpt>
      <trkpt lat="45.95762" lon="4.76114">
        <ele>186</ele>
        <time>2017-12-22T11:19:23Z</time>
      </trkpt>
      <trkpt lat="45.95761" lon="4.76107">
        <ele>186</ele>
        <time>2017-12-22T11:19:24Z</time>
      </trkpt>
      <trkpt lat="45.95758" lon="4.76099">
        <ele>186</ele>
        <time>2017-12-22T11:19:25Z</time>
      </trkpt>
      <trkpt lat="45.95756" lon="4.76091">
        <ele>186</ele>
        <time>2017-12-22T11:19:26Z</time>
      </trkpt>
      <trkpt lat="45.95754" lon="4.76083">
        <ele>185</ele>
        <time>2017-12-22T11:19:27Z</time>
      </trkpt>
      <trkpt lat="45.95753" lon="4.76076">
        <ele>186</ele>
        <time>2017-12-22T11:19:28Z</time>
      </trkpt>
      <trkpt lat="45.95749" lon="4.76068">
        <ele>185</ele>
        <time>2017-12-22T11:19:29Z</time>
      </trkpt>
      <trkpt lat="45.95746" lon="4.7606">
        <ele>185</ele>
        <time>2017-12-22T11:19:30Z</time>
      </trkpt>
      <trkpt lat="45.95743" lon="4.76053">
        <ele>184</ele>
        <time>2017-12-22T11:19:31Z</time>
      </trkpt>
      <trkpt lat="45.9574" lon="4.76046">
        <ele>184</ele>
        <time>2017-12-22T11:19:32Z</time>
      </trkpt>
      <trkpt lat="45.95737" lon="4.7604">
        <ele>184</ele>
        <time>2017-12-22T11:19:33Z</time>
      </trkpt>
      <trkpt lat="45.95733" lon="4.76033">
        <ele>184</ele>
        <time>2017-12-22T11:19:34Z</time>
      </trkpt>
      <trkpt lat="45.9573" lon="4.76025">
        <ele>185</ele>
        <time>2017-12-22T11:19:35Z</time>
      </trkpt>
      <trkpt lat="45.95728" lon="4.76019">
        <ele>185</ele>
        <time>2017-12-22T11:19:36Z</time>
      </trkpt>
      <trkpt lat="45.95726" lon="4.76012">
        <ele>185</ele>
        <time>2017-12-22T11:19:37Z</time>
      </trkpt>
      <trkpt lat="45.95722" lon="4.76006">
        <ele>185</ele>
        <time>2017-12-22T11:19:38Z</time>
      </trkpt>
      <trkpt lat="45.95719" lon="4.76">
        <ele>185</ele>
        <time>2017-12-22T11:19:39Z</time>
      </trkpt>
      <trkpt lat="45.95716" lon="4.75993">
        <ele>185</ele>
        <time>2017-12-22T11:19:40Z</time>
      </trkpt>
      <trkpt lat="45.95712" lon="4.75985">
        <ele>185</ele>
        <time>2017-12-22T11:19:41Z</time>
      </trkpt>
      <trkpt lat="45.95709" lon="4.75979">
        <ele>185</ele>
        <time>2017-12-22T11:19:42Z</time>
      </trkpt>
      <trkpt lat="45.95706" lon="4.75972">
        <ele>185</ele>
        <time>2017-12-22T11:19:43Z</time>
      </trkpt>
      <trkpt lat="45.95703" lon="4.75966">
        <ele>185</ele>
        <time>2017-12-22T11:19:44Z</time>
      </trkpt>
      <trkpt lat="45.957" lon="4.75959">
        <ele>185</ele>
        <time>2017-12-22T11:19:45Z</time>
      </trkpt>
      <trkpt lat="45.95696" lon="4.75952">
        <ele>185</ele>
        <time>2017-12-22T11:19:46Z</time>
      </trkpt>
      <trkpt lat="45.95693" lon="4.75945">
        <ele>185</ele>
        <time>2017-12-22T11:19:47Z</time>
      </trkpt>
      <trkpt lat="45.95688" lon="4.75936">
        <ele>185</ele>
        <time>2017-12-22T11:19:48Z</time>
      </trkpt>
      <trkpt lat="45.95684" lon="4.75928">
        <ele>185</ele>
        <time>2017-12-22T11:19:49Z</time>
      </trkpt>
      <trkpt lat="45.95681" lon="4.75921">
        <ele>185</ele>
        <time>2017-12-22T11:19:50Z</time>
      </trkpt>
      <trkpt lat="45.95678" lon="4.75914">
        <ele>185</ele>
        <time>2017-12-22T11:19:51Z</time>
      </trkpt>
      <trkpt lat="45.95676" lon="4.75905">
        <ele>185</ele>
        <time>2017-12-22T11:19:52Z</time>
      </trkpt>
      <trkpt lat="45.95674" lon="4.75896">
        <ele>186</ele>
        <time>2017-12-22T11:19:53Z</time>
      </trkpt>
      <trkpt lat="45.95674" lon="4.7589">
        <ele>186</ele>
        <time>2017-12-22T11:19:54Z</time>
      </trkpt>
      <trkpt lat="45.95672" lon="4.75882">
        <ele>186</ele>
        <time>2017-12-22T11:19:55Z</time>
      </trkpt>
      <trkpt lat="45.95669" lon="4.75875">
        <ele>186</ele>
        <time>2017-12-22T11:19:56Z</time>
      </trkpt>
      <trkpt lat="45.95667" lon="4.75869">
        <ele>184</ele>
        <time>2017-12-22T11:19:57Z</time>
      </trkpt>
      <trkpt lat="45.95663" lon="4.75862">
        <ele>184</ele>
        <time>2017-12-22T11:19:58Z</time>
      </trkpt>
      <trkpt lat="45.95661" lon="4.75853">
        <ele>185</ele>
        <time>2017-12-22T11:19:59Z</time>
      </trkpt>
      <trkpt lat="45.95659" lon="4.75846">
        <ele>185</ele>
        <time>2017-12-22T11:20:00Z</time>
      </trkpt>
      <trkpt lat="45.95658" lon="4.75838">
        <ele>185</ele>
        <time>2017-12-22T11:20:01Z</time>
      </trkpt>
      <trkpt lat="45.95654" lon="4.7583">
        <ele>186</ele>
        <time>2017-12-22T11:20:02Z</time>
      </trkpt>
      <trkpt lat="45.95653" lon="4.75822">
        <ele>185</ele>
        <time>2017-12-22T11:20:03Z</time>
      </trkpt>
      <trkpt lat="45.95652" lon="4.75813">
        <ele>185</ele>
        <time>2017-12-22T11:20:04Z</time>
      </trkpt>
      <trkpt lat="45.9565" lon="4.75805">
        <ele>185</ele>
        <time>2017-12-22T11:20:05Z</time>
      </trkpt>
      <trkpt lat="45.95648" lon="4.75797">
        <ele>185</ele>
        <time>2017-12-22T11:20:06Z</time>
      </trkpt>
      <trkpt lat="45.95648" lon="4.7579">
        <ele>186</ele>
        <time>2017-12-22T11:20:07Z</time>
      </trkpt>
      <trkpt lat="45.95646" lon="4.75782">
        <ele>186</ele>
        <time>2017-12-22T11:20:08Z</time>
      </trkpt>
      <trkpt lat="45.95644" lon="4.75773">
        <ele>186</ele>
        <time>2017-12-22T11:20:09Z</time>
      </trkpt>
      <trkpt lat="45.95644" lon="4.75767">
        <ele>186</ele>
        <time>2017-12-22T11:20:10Z</time>
      </trkpt>
      <trkpt lat="45.95643" lon="4.75759">
        <ele>186</ele>
        <time>2017-12-22T11:20:11Z</time>
      </trkpt>
      <trkpt lat="45.95643" lon="4.7575">
        <ele>186</ele>
        <time>2017-12-22T11:20:12Z</time>
      </trkpt>
      <trkpt lat="45.95642" lon="4.75743">
        <ele>187</ele>
        <time>2017-12-22T11:20:13Z</time>
      </trkpt>
      <trkpt lat="45.95641" lon="4.75736">
        <ele>187</ele>
        <time>2017-12-22T11:20:14Z</time>
      </trkpt>
      <trkpt lat="45.95639" lon="4.75727">
        <ele>187</ele>
        <time>2017-12-22T11:20:15Z</time>
      </trkpt>
      <trkpt lat="45.95639" lon="4.75719">
        <ele>187</ele>
        <time>2017-12-22T11:20:16Z</time>
      </trkpt>
      <trkpt lat="45.95638" lon="4.75711">
        <ele>187</ele>
        <time>2017-12-22T11:20:17Z</time>
      </trkpt>
      <trkpt lat="45.95637" lon="4.75703">
        <ele>187</ele>
        <time>2017-12-22T11:20:18Z</time>
      </trkpt>
      <trkpt lat="45.95636" lon="4.75694">
        <ele>187</ele>
        <time>2017-12-22T11:20:19Z</time>
      </trkpt>
      <trkpt lat="45.95635" lon="4.75687">
        <ele>188</ele>
        <time>2017-12-22T11:20:20Z</time>
      </trkpt>
      <trkpt lat="45.95633" lon="4.75679">
        <ele>188</ele>
        <time>2017-12-22T11:20:21Z</time>
      </trkpt>
      <trkpt lat="45.95632" lon="4.75672">
        <ele>188</ele>
        <time>2017-12-22T11:20:22Z</time>
      </trkpt>
      <trkpt lat="45.9563" lon="4.75665">
        <ele>188</ele>
        <time>2017-12-22T11:20:23Z</time>
      </trkpt>
      <trkpt lat="45.95628" lon="4.75658">
        <ele>188</ele>
        <time>2017-12-22T11:20:24Z</time>
      </trkpt>
      <trkpt lat="45.95625" lon="4.7565">
        <ele>188</ele>
        <time>2017-12-22T11:20:25Z</time>
      </trkpt>
      <trkpt lat="45.95624" lon="4.75641">
        <ele>188</ele>
        <time>2017-12-22T11:20:26Z</time>
      </trkpt>
      <trkpt lat="45.95622" lon="4.75633">
        <ele>188</ele>
        <time>2017-12-22T11:20:27Z</time>
      </trkpt>
      <trkpt lat="45.9562" lon="4.75625">
        <ele>188</ele>
        <time>2017-12-22T11:20:28Z</time>
      </trkpt>
      <trkpt lat="45.95617" lon="4.75616">
        <ele>188</ele>
        <time>2017-12-22T11:20:29Z</time>
      </trkpt>
      <trkpt lat="45.95614" lon="4.75609">
        <ele>188</ele>
        <time>2017-12-22T11:20:30Z</time>
      </trkpt>
      <trkpt lat="45.95612" lon="4.75602">
        <ele>188</ele>
        <time>2017-12-22T11:20:31Z</time>
      </trkpt>
      <trkpt lat="45.95609" lon="4.75595">
        <ele>187</ele>
        <time>2017-12-22T11:20:32Z</time>
      </trkpt>
      <trkpt lat="45.95606" lon="4.75588">
        <ele>187</ele>
        <time>2017-12-22T11:20:33Z</time>
      </trkpt>
      <trkpt lat="45.95603" lon="4.75581">
        <ele>188</ele>
        <time>2017-12-22T11:20:34Z</time>
      </trkpt>
      <trkpt lat="45.956" lon="4.75575">
        <ele>188</ele>
        <time>2017-12-22T11:20:35Z</time>
      </trkpt>
      <trkpt lat="45.95596" lon="4.75567">
        <ele>188</ele>
        <time>2017-12-22T11:20:36Z</time>
      </trkpt>
      <trkpt lat="45.95592" lon="4.75561">
        <ele>188</ele>
        <time>2017-12-22T11:20:37Z</time>
      </trkpt>
      <trkpt lat="45.95588" lon="4.75554">
        <ele>188</ele>
        <time>2017-12-22T11:20:38Z</time>
      </trkpt>
      <trkpt lat="45.95584" lon="4.7555">
        <ele>188</ele>
        <time>2017-12-22T11:20:39Z</time>
      </trkpt>
      <trkpt lat="45.95578" lon="4.75543">
        <ele>186</ele>
        <time>2017-12-22T11:20:40Z</time>
      </trkpt>
      <trkpt lat="45.95574" lon="4.75537">
        <ele>186</ele>
        <time>2017-12-22T11:20:41Z</time>
      </trkpt>
      <trkpt lat="45.95568" lon="4.75533">
        <ele>186</ele>
        <time>2017-12-22T11:20:42Z</time>
      </trkpt>
      <trkpt lat="45.95563" lon="4.75528">
        <ele>186</ele>
        <time>2017-12-22T11:20:43Z</time>
      </trkpt>
      <trkpt lat="45.95558" lon="4.75523">
        <ele>186</ele>
        <time>2017-12-22T11:20:44Z</time>
      </trkpt>
      <trkpt lat="45.95554" lon="4.75516">
        <ele>186</ele>
        <time>2017-12-22T11:20:45Z</time>
      </trkpt>
      <trkpt lat="45.95549" lon="4.75511">
        <ele>186</ele>
        <time>2017-12-22T11:20:46Z</time>
      </trkpt>
      <trkpt lat="45.95545" lon="4.75505">
        <ele>186</ele>
        <time>2017-12-22T11:20:47Z</time>
      </trkpt>
      <trkpt lat="45.95542" lon="4.75499">
        <ele>187</ele>
        <time>2017-12-22T11:20:48Z</time>
      </trkpt>
      <trkpt lat="45.95541" lon="4.75492">
        <ele>187</ele>
        <time>2017-12-22T11:20:49Z</time>
      </trkpt>
      <trkpt lat="45.9554" lon="4.75484">
        <ele>187</ele>
        <time>2017-12-22T11:20:50Z</time>
      </trkpt>
      <trkpt lat="45.95541" lon="4.75477">
        <ele>187</ele>
        <time>2017-12-22T11:20:51Z</time>
      </trkpt>
      <trkpt lat="45.9554" lon="4.75471">
        <ele>187</ele>
        <time>2017-12-22T11:20:52Z</time>
      </trkpt>
      <trkpt lat="45.95538" lon="4.75464">
        <ele>187</ele>
        <time>2017-12-22T11:20:53Z</time>
      </trkpt>
      <trkpt lat="45.95535" lon="4.75456">
        <ele>187</ele>
        <time>2017-12-22T11:20:54Z</time>
      </trkpt>
      <trkpt lat="45.95531" lon="4.75449">
        <ele>187</ele>
        <time>2017-12-22T11:20:55Z</time>
      </trkpt>
      <trkpt lat="45.95526" lon="4.75443">
        <ele>187</ele>
        <time>2017-12-22T11:20:56Z</time>
      </trkpt>
      <trkpt lat="45.95521" lon="4.75437">
        <ele>187</ele>
        <time>2017-12-22T11:20:57Z</time>
      </trkpt>
      <trkpt lat="45.95518" lon="4.75429">
        <ele>187</ele>
        <time>2017-12-22T11:20:58Z</time>
      </trkpt>
      <trkpt lat="45.95514" lon="4.75421">
        <ele>186</ele>
        <time>2017-12-22T11:20:59Z</time>
      </trkpt>
      <trkpt lat="45.95512" lon="4.75413">
        <ele>187</ele>
        <time>2017-12-22T11:21:00Z</time>
      </trkpt>
      <trkpt lat="45.9551" lon="4.75404">
        <ele>187</ele>
        <time>2017-12-22T11:21:01Z</time>
      </trkpt>
      <trkpt lat="45.95508" lon="4.75396">
        <ele>188</ele>
        <time>2017-12-22T11:21:02Z</time>
      </trkpt>
      <trkpt lat="45.95502" lon="4.7539">
        <ele>188</ele>
        <time>2017-12-22T11:21:03Z</time>
      </trkpt>
      <trkpt lat="45.955" lon="4.75382">
        <ele>185</ele>
        <time>2017-12-22T11:21:04Z</time>
      </trkpt>
      <trkpt lat="45.95496" lon="4.75375">
        <ele>185</ele>
        <time>2017-12-22T11:21:05Z</time>
      </trkpt>
      <trkpt lat="45.95493" lon="4.75369">
        <ele>186</ele>
        <time>2017-12-22T11:21:06Z</time>
      </trkpt>
      <trkpt lat="45.9549" lon="4.75362">
        <ele>186</ele>
        <time>2017-12-22T11:21:07Z</time>
      </trkpt>
      <trkpt lat="45.95487" lon="4.75357">
        <ele>186</ele>
        <time>2017-12-22T11:21:08Z</time>
      </trkpt>
      <trkpt lat="45.95484" lon="4.7535">
        <ele>186</ele>
        <time>2017-12-22T11:21:09Z</time>
      </trkpt>
      <trkpt lat="45.95481" lon="4.75342">
        <ele>186</ele>
        <time>2017-12-22T11:21:10Z</time>
      </trkpt>
      <trkpt lat="45.95478" lon="4.75336">
        <ele>186</ele>
        <time>2017-12-22T11:21:11Z</time>
      </trkpt>
      <trkpt lat="45.95475" lon="4.7533">
        <ele>188</ele>
        <time>2017-12-22T11:21:12Z</time>
      </trkpt>
      <trkpt lat="45.95472" lon="4.75323">
        <ele>188</ele>
        <time>2017-12-22T11:21:13Z</time>
      </trkpt>
      <trkpt lat="45.95468" lon="4.75318">
        <ele>188</ele>
        <time>2017-12-22T11:21:14Z</time>
      </trkpt>
      <trkpt lat="45.95464" lon="4.75312">
        <ele>188</ele>
        <time>2017-12-22T11:21:15Z</time>
      </trkpt>
      <trkpt lat="45.95461" lon="4.75305">
        <ele>188</ele>
        <time>2017-12-22T11:21:16Z</time>
      </trkpt>
      <trkpt lat="45.95458" lon="4.75298">
        <ele>188</ele>
        <time>2017-12-22T11:21:17Z</time>
      </trkpt>
      <trkpt lat="45.95454" lon="4.75291">
        <ele>188</ele>
        <time>2017-12-22T11:21:18Z</time>
      </trkpt>
      <trkpt lat="45.95451" lon="4.75285">
        <ele>188</ele>
        <time>2017-12-22T11:21:19Z</time>
      </trkpt>
      <trkpt lat="45.95448" lon="4.75278">
        <ele>189</ele>
        <time>2017-12-22T11:21:20Z</time>
      </trkpt>
      <trkpt lat="45.95445" lon="4.75273">
        <ele>189</ele>
        <time>2017-12-22T11:21:21Z</time>
      </trkpt>
      <trkpt lat="45.95441" lon="4.75266">
        <ele>189</ele>
        <time>2017-12-22T11:21:22Z</time>
      </trkpt>
      <trkpt lat="45.95438" lon="4.7526">
        <ele>189</ele>
        <time>2017-12-22T11:21:23Z</time>
      </trkpt>
      <trkpt lat="45.95435" lon="4.75254">
        <ele>189</ele>
        <time>2017-12-22T11:21:24Z</time>
      </trkpt>
      <trkpt lat="45.95431" lon="4.75247">
        <ele>190</ele>
        <time>2017-12-22T11:21:25Z</time>
      </trkpt>
      <trkpt lat="45.95428" lon="4.75241">
        <ele>190</ele>
        <time>2017-12-22T11:21:26Z</time>
      </trkpt>
      <trkpt lat="45.95424" lon="4.75235">
        <ele>190</ele>
        <time>2017-12-22T11:21:27Z</time>
      </trkpt>
      <trkpt lat="45.95422" lon="4.75228">
        <ele>191</ele>
        <time>2017-12-22T11:21:28Z</time>
      </trkpt>
      <trkpt lat="45.95419" lon="4.75222">
        <ele>191</ele>
        <time>2017-12-22T11:21:29Z</time>
      </trkpt>
      <trkpt lat="45.95415" lon="4.75216">
        <ele>189</ele>
        <time>2017-12-22T11:21:30Z</time>
      </trkpt>
      <trkpt lat="45.95412" lon="4.7521">
        <ele>189</ele>
        <time>2017-12-22T11:21:31Z</time>
      </trkpt>
      <trkpt lat="45.95409" lon="4.75204">
        <ele>189</ele>
        <time>2017-12-22T11:21:32Z</time>
      </trkpt>
      <trkpt lat="45.95404" lon="4.75198">
        <ele>189</ele>
        <time>2017-12-22T11:21:33Z</time>
      </trkpt>
      <trkpt lat="45.95401" lon="4.75192">
        <ele>189</ele>
        <time>2017-12-22T11:21:34Z</time>
      </trkpt>
      <trkpt lat="45.95397" lon="4.75186">
        <ele>189</ele>
        <time>2017-12-22T11:21:35Z</time>
      </trkpt>
      <trkpt lat="45.95393" lon="4.7518">
        <ele>189</ele>
        <time>2017-12-22T11:21:36Z</time>
      </trkpt>
      <trkpt lat="45.95387" lon="4.75173">
        <ele>189</ele>
        <time>2017-12-22T11:21:37Z</time>
      </trkpt>
      <trkpt lat="45.95383" lon="4.75166">
        <ele>191</ele>
        <time>2017-12-22T11:21:38Z</time>
      </trkpt>
      <trkpt lat="45.9538" lon="4.7516">
        <ele>191</ele>
        <time>2017-12-22T11:21:39Z</time>
      </trkpt>
      <trkpt lat="45.95376" lon="4.75155">
        <ele>191</ele>
        <time>2017-12-22T11:21:40Z</time>
      </trkpt>
      <trkpt lat="45.95371" lon="4.7515">
        <ele>191</ele>
        <time>2017-12-22T11:21:41Z</time>
      </trkpt>
      <trkpt lat="45.95366" lon="4.7514">
        <ele>191</ele>
        <time>2017-12-22T11:21:43Z</time>
      </trkpt>
      <trkpt lat="45.95363" lon="4.75133">
        <ele>191</ele>
        <time>2017-12-22T11:21:44Z</time>
      </trkpt>
      <trkpt lat="45.95361" lon="4.75126">
        <ele>191</ele>
        <time>2017-12-22T11:21:45Z</time>
      </trkpt>
      <trkpt lat="45.95358" lon="4.7512">
        <ele>191</ele>
        <time>2017-12-22T11:21:46Z</time>
      </trkpt>
      <trkpt lat="45.95353" lon="4.75115">
        <ele>192</ele>
        <time>2017-12-22T11:21:47Z</time>
      </trkpt>
      <trkpt lat="45.95349" lon="4.7511">
        <ele>192</ele>
        <time>2017-12-22T11:21:48Z</time>
      </trkpt>
      <trkpt lat="45.95346" lon="4.75105">
        <ele>192</ele>
        <time>2017-12-22T11:21:49Z</time>
      </trkpt>
      <trkpt lat="45.95343" lon="4.75099">
        <ele>192</ele>
        <time>2017-12-22T11:21:50Z</time>
      </trkpt>
      <trkpt lat="45.9534" lon="4.75091">
        <ele>192</ele>
        <time>2017-12-22T11:21:51Z</time>
      </trkpt>
      <trkpt lat="45.95336" lon="4.75086">
        <ele>193</ele>
        <time>2017-12-22T11:21:52Z</time>
      </trkpt>
      <trkpt lat="45.95332" lon="4.7508">
        <ele>193</ele>
        <time>2017-12-22T11:21:53Z</time>
      </trkpt>
      <trkpt lat="45.95328" lon="4.75075">
        <ele>192</ele>
        <time>2017-12-22T11:21:54Z</time>
      </trkpt>
      <trkpt lat="45.95325" lon="4.75069">
        <ele>192</ele>
        <time>2017-12-22T11:21:55Z</time>
      </trkpt>
      <trkpt lat="45.95321" lon="4.75063">
        <ele>192</ele>
        <time>2017-12-22T11:21:56Z</time>
      </trkpt>
      <trkpt lat="45.95318" lon="4.75057">
        <ele>192</ele>
        <time>2017-12-22T11:21:57Z</time>
      </trkpt>
      <trkpt lat="45.95314" lon="4.75051">
        <ele>192</ele>
        <time>2017-12-22T11:21:58Z</time>
      </trkpt>
      <trkpt lat="45.95311" lon="4.75045">
        <ele>192</ele>
        <time>2017-12-22T11:21:59Z</time>
      </trkpt>
      <trkpt lat="45.95307" lon="4.75041">
        <ele>192</ele>
        <time>2017-12-22T11:22:00Z</time>
      </trkpt>
      <trkpt lat="45.95303" lon="4.75036">
        <ele>192</ele>
        <time>2017-12-22T11:22:01Z</time>
      </trkpt>
      <trkpt lat="45.953" lon="4.7503">
        <ele>192</ele>
        <time>2017-12-22T11:22:02Z</time>
      </trkpt>
      <trkpt lat="45.95295" lon="4.75021">
        <ele>191</ele>
        <time>2017-12-22T11:22:04Z</time>
      </trkpt>
      <trkpt lat="45.95292" lon="4.75016">
        <ele>191</ele>
        <time>2017-12-22T11:22:05Z</time>
      </trkpt>
      <trkpt lat="45.95289" lon="4.75011">
        <ele>191</ele>
        <time>2017-12-22T11:22:06Z</time>
      </trkpt>
      <trkpt lat="45.95285" lon="4.75007">
        <ele>191</ele>
        <time>2017-12-22T11:22:07Z</time>
      </trkpt>
      <trkpt lat="45.95282" lon="4.75002">
        <ele>191</ele>
        <time>2017-12-22T11:22:08Z</time>
      </trkpt>
      <trkpt lat="45.95279" lon="4.74997">
        <ele>192</ele>
        <time>2017-12-22T11:22:09Z</time>
      </trkpt>
      <trkpt lat="45.95275" lon="4.7499">
        <ele>192</ele>
        <time>2017-12-22T11:22:10Z</time>
      </trkpt>
      <trkpt lat="45.95271" lon="4.74985">
        <ele>192</ele>
        <time>2017-12-22T11:22:11Z</time>
      </trkpt>
      <trkpt lat="45.95267" lon="4.74979">
        <ele>192</ele>
        <time>2017-12-22T11:22:12Z</time>
      </trkpt>
      <trkpt lat="45.95264" lon="4.74974">
        <ele>192</ele>
        <time>2017-12-22T11:22:13Z</time>
      </trkpt>
      <trkpt lat="45.9526" lon="4.74969">
        <ele>192</ele>
        <time>2017-12-22T11:22:14Z</time>
      </trkpt>
      <trkpt lat="45.95256" lon="4.74962">
        <ele>192</ele>
        <time>2017-12-22T11:22:15Z</time>
      </trkpt>
      <trkpt lat="45.95253" lon="4.74957">
        <ele>192</ele>
        <time>2017-12-22T11:22:16Z</time>
      </trkpt>
      <trkpt lat="45.95248" lon="4.74951">
        <ele>192</ele>
        <time>2017-12-22T11:22:17Z</time>
      </trkpt>
      <trkpt lat="45.95245" lon="4.74946">
        <ele>192</ele>
        <time>2017-12-22T11:22:18Z</time>
      </trkpt>
      <trkpt lat="45.95241" lon="4.7494">
        <ele>192</ele>
        <time>2017-12-22T11:22:19Z</time>
      </trkpt>
      <trkpt lat="45.95236" lon="4.74934">
        <ele>192</ele>
        <time>2017-12-22T11:22:20Z</time>
      </trkpt>
      <trkpt lat="45.95232" lon="4.74928">
        <ele>192</ele>
        <time>2017-12-22T11:22:21Z</time>
      </trkpt>
      <trkpt lat="45.95229" lon="4.74922">
        <ele>192</ele>
        <time>2017-12-22T11:22:22Z</time>
      </trkpt>
      <trkpt lat="45.95225" lon="4.74916">
        <ele>193</ele>
        <time>2017-12-22T11:22:23Z</time>
      </trkpt>
      <trkpt lat="45.95221" lon="4.7491">
        <ele>193</ele>
        <time>2017-12-22T11:22:24Z</time>
      </trkpt>
      <trkpt lat="45.95218" lon="4.74904">
        <ele>193</ele>
        <time>2017-12-22T11:22:25Z</time>
      </trkpt>
      <trkpt lat="45.95214" lon="4.74897">
        <ele>193</ele>
        <time>2017-12-22T11:22:26Z</time>
      </trkpt>
      <trkpt lat="45.9521" lon="4.74891">
        <ele>193</ele>
        <time>2017-12-22T11:22:27Z</time>
      </trkpt>
      <trkpt lat="45.95207" lon="4.74886">
        <ele>194</ele>
        <time>2017-12-22T11:22:28Z</time>
      </trkpt>
      <trkpt lat="45.95204" lon="4.7488">
        <ele>194</ele>
        <time>2017-12-22T11:22:29Z</time>
      </trkpt>
      <trkpt lat="45.952" lon="4.74874">
        <ele>194</ele>
        <time>2017-12-22T11:22:30Z</time>
      </trkpt>
      <trkpt lat="45.95197" lon="4.7487">
        <ele>194</ele>
        <time>2017-12-22T11:22:31Z</time>
      </trkpt>
      <trkpt lat="45.95192" lon="4.74863">
        <ele>194</ele>
        <time>2017-12-22T11:22:32Z</time>
      </trkpt>
      <trkpt lat="45.95189" lon="4.74857">
        <ele>194</ele>
        <time>2017-12-22T11:22:33Z</time>
      </trkpt>
      <trkpt lat="45.95185" lon="4.74852">
        <ele>194</ele>
        <time>2017-12-22T11:22:34Z</time>
      </trkpt>
      <trkpt lat="45.9518" lon="4.74845">
        <ele>194</ele>
        <time>2017-12-22T11:22:35Z</time>
      </trkpt>
      <trkpt lat="45.95176" lon="4.74839">
        <ele>194</ele>
        <time>2017-12-22T11:22:36Z</time>
      </trkpt>
      <trkpt lat="45.95173" lon="4.74833">
        <ele>194</ele>
        <time>2017-12-22T11:22:37Z</time>
      </trkpt>
      <trkpt lat="45.9517" lon="4.74826">
        <ele>194</ele>
        <time>2017-12-22T11:22:38Z</time>
      </trkpt>
      <trkpt lat="45.95166" lon="4.7482">
        <ele>194</ele>
        <time>2017-12-22T11:22:39Z</time>
      </trkpt>
      <trkpt lat="45.95162" lon="4.74814">
        <ele>194</ele>
        <time>2017-12-22T11:22:40Z</time>
      </trkpt>
      <trkpt lat="45.95158" lon="4.74806">
        <ele>194</ele>
        <time>2017-12-22T11:22:41Z</time>
      </trkpt>
      <trkpt lat="45.95154" lon="4.74801">
        <ele>194</ele>
        <time>2017-12-22T11:22:42Z</time>
      </trkpt>
      <trkpt lat="45.95151" lon="4.74794">
        <ele>194</ele>
        <time>2017-12-22T11:22:43Z</time>
      </trkpt>
      <trkpt lat="45.95147" lon="4.74788">
        <ele>194</ele>
        <time>2017-12-22T11:22:44Z</time>
      </trkpt>
      <trkpt lat="45.95143" lon="4.7478">
        <ele>194</ele>
        <time>2017-12-22T11:22:45Z</time>
      </trkpt>
      <trkpt lat="45.9514" lon="4.74774">
        <ele>194</ele>
        <time>2017-12-22T11:22:46Z</time>
      </trkpt>
      <trkpt lat="45.95136" lon="4.74767">
        <ele>194</ele>
        <time>2017-12-22T11:22:47Z</time>
      </trkpt>
      <trkpt lat="45.95132" lon="4.74761">
        <ele>194</ele>
        <time>2017-12-22T11:22:48Z</time>
      </trkpt>
      <trkpt lat="45.95128" lon="4.74755">
        <ele>194</ele>
        <time>2017-12-22T11:22:49Z</time>
      </trkpt>
      <trkpt lat="45.95124" lon="4.74748">
        <ele>194</ele>
        <time>2017-12-22T11:22:50Z</time>
      </trkpt>
      <trkpt lat="45.95119" lon="4.74742">
        <ele>194</ele>
        <time>2017-12-22T11:22:51Z</time>
      </trkpt>
      <trkpt lat="45.95116" lon="4.74735">
        <ele>194</ele>
        <time>2017-12-22T11:22:52Z</time>
      </trkpt>
      <trkpt lat="45.95113" lon="4.74729">
        <ele>194</ele>
        <time>2017-12-22T11:22:53Z</time>
      </trkpt>
      <trkpt lat="45.95111" lon="4.74722">
        <ele>194</ele>
        <time>2017-12-22T11:22:54Z</time>
      </trkpt>
      <trkpt lat="45.95107" lon="4.74715">
        <ele>194</ele>
        <time>2017-12-22T11:22:55Z</time>
      </trkpt>
      <trkpt lat="45.95103" lon="4.74708">
        <ele>194</ele>
        <time>2017-12-22T11:22:56Z</time>
      </trkpt>
      <trkpt lat="45.951" lon="4.74703">
        <ele>194</ele>
        <time>2017-12-22T11:22:57Z</time>
      </trkpt>
      <trkpt lat="45.95095" lon="4.74696">
        <ele>194</ele>
        <time>2017-12-22T11:22:58Z</time>
      </trkpt>
      <trkpt lat="45.95092" lon="4.74689">
        <ele>195</ele>
        <time>2017-12-22T11:22:59Z</time>
      </trkpt>
      <trkpt lat="45.95087" lon="4.74683">
        <ele>195</ele>
        <time>2017-12-22T11:23:00Z</time>
      </trkpt>
      <trkpt lat="45.95082" lon="4.74679">
        <ele>194</ele>
        <time>2017-12-22T11:23:01Z</time>
      </trkpt>
      <trkpt lat="45.95077" lon="4.74673">
        <ele>195</ele>
        <time>2017-12-22T11:23:02Z</time>
      </trkpt>
      <trkpt lat="45.95073" lon="4.74664">
        <ele>195</ele>
        <time>2017-12-22T11:23:03Z</time>
      </trkpt>
      <trkpt lat="45.9507" lon="4.74658">
        <ele>195</ele>
        <time>2017-12-22T11:23:04Z</time>
      </trkpt>
      <trkpt lat="45.95066" lon="4.74652">
        <ele>195</ele>
        <time>2017-12-22T11:23:05Z</time>
      </trkpt>
      <trkpt lat="45.95063" lon="4.74645">
        <ele>195</ele>
        <time>2017-12-22T11:23:06Z</time>
      </trkpt>
      <trkpt lat="45.95059" lon="4.74639">
        <ele>194</ele>
        <time>2017-12-22T11:23:07Z</time>
      </trkpt>
      <trkpt lat="45.95055" lon="4.74633">
        <ele>194</ele>
        <time>2017-12-22T11:23:08Z</time>
      </trkpt>
      <trkpt lat="45.95051" lon="4.74627">
        <ele>194</ele>
        <time>2017-12-22T11:23:09Z</time>
      </trkpt>
      <trkpt lat="45.95048" lon="4.74621">
        <ele>194</ele>
        <time>2017-12-22T11:23:10Z</time>
      </trkpt>
      <trkpt lat="45.95044" lon="4.74614">
        <ele>194</ele>
        <time>2017-12-22T11:23:11Z</time>
      </trkpt>
      <trkpt lat="45.9504" lon="4.74608">
        <ele>194</ele>
        <time>2017-12-22T11:23:12Z</time>
      </trkpt>
      <trkpt lat="45.95036" lon="4.74601">
        <ele>194</ele>
        <time>2017-12-22T11:23:13Z</time>
      </trkpt>
      <trkpt lat="45.95033" lon="4.74594">
        <ele>194</ele>
        <time>2017-12-22T11:23:14Z</time>
      </trkpt>
      <trkpt lat="45.95029" lon="4.74587">
        <ele>194</ele>
        <time>2017-12-22T11:23:15Z</time>
      </trkpt>
      <trkpt lat="45.95025" lon="4.74581">
        <ele>194</ele>
        <time>2017-12-22T11:23:16Z</time>
      </trkpt>
      <trkpt lat="45.9502" lon="4.74573">
        <ele>194</ele>
        <time>2017-12-22T11:23:17Z</time>
      </trkpt>
      <trkpt lat="45.95017" lon="4.74565">
        <ele>194</ele>
        <time>2017-12-22T11:23:18Z</time>
      </trkpt>
      <trkpt lat="45.95013" lon="4.74558">
        <ele>194</ele>
        <time>2017-12-22T11:23:19Z</time>
      </trkpt>
      <trkpt lat="45.9501" lon="4.74549">
        <ele>194</ele>
        <time>2017-12-22T11:23:20Z</time>
      </trkpt>
      <trkpt lat="45.95007" lon="4.74542">
        <ele>194</ele>
        <time>2017-12-22T11:23:21Z</time>
      </trkpt>
      <trkpt lat="45.95002" lon="4.74535">
        <ele>194</ele>
        <time>2017-12-22T11:23:22Z</time>
      </trkpt>
      <trkpt lat="45.94999" lon="4.74527">
        <ele>193</ele>
        <time>2017-12-22T11:23:23Z</time>
      </trkpt>
      <trkpt lat="45.94995" lon="4.7452">
        <ele>193</ele>
        <time>2017-12-22T11:23:24Z</time>
      </trkpt>
      <trkpt lat="45.94991" lon="4.74513">
        <ele>193</ele>
        <time>2017-12-22T11:23:25Z</time>
      </trkpt>
      <trkpt lat="45.94988" lon="4.74506">
        <ele>193</ele>
        <time>2017-12-22T11:23:26Z</time>
      </trkpt>
      <trkpt lat="45.94984" lon="4.745">
        <ele>193</ele>
        <time>2017-12-22T11:23:27Z</time>
      </trkpt>
      <trkpt lat="45.9498" lon="4.74495">
        <ele>193</ele>
        <time>2017-12-22T11:23:28Z</time>
      </trkpt>
      <trkpt lat="45.94977" lon="4.74488">
        <ele>193</ele>
        <time>2017-12-22T11:23:29Z</time>
      </trkpt>
      <trkpt lat="45.94974" lon="4.74481">
        <ele>193</ele>
        <time>2017-12-22T11:23:30Z</time>
      </trkpt>
      <trkpt lat="45.9497" lon="4.74474">
        <ele>193</ele>
        <time>2017-12-22T11:23:31Z</time>
      </trkpt>
      <trkpt lat="45.94966" lon="4.74466">
        <ele>193</ele>
        <time>2017-12-22T11:23:32Z</time>
      </trkpt>
      <trkpt lat="45.94963" lon="4.74457">
        <ele>192</ele>
        <time>2017-12-22T11:23:33Z</time>
      </trkpt>
      <trkpt lat="45.94959" lon="4.7445">
        <ele>192</ele>
        <time>2017-12-22T11:23:34Z</time>
      </trkpt>
      <trkpt lat="45.94955" lon="4.74442">
        <ele>192</ele>
        <time>2017-12-22T11:23:35Z</time>
      </trkpt>
      <trkpt lat="45.9495" lon="4.74435">
        <ele>192</ele>
        <time>2017-12-22T11:23:36Z</time>
      </trkpt>
      <trkpt lat="45.94945" lon="4.74426">
        <ele>192</ele>
        <time>2017-12-22T11:23:37Z</time>
      </trkpt>
      <trkpt lat="45.94941" lon="4.74417">
        <ele>192</ele>
        <time>2017-12-22T11:23:38Z</time>
      </trkpt>
      <trkpt lat="45.94936" lon="4.74408">
        <ele>192</ele>
        <time>2017-12-22T11:23:39Z</time>
      </trkpt>
      <trkpt lat="45.94931" lon="4.74398">
        <ele>192</ele>
        <time>2017-12-22T11:23:40Z</time>
      </trkpt>
      <trkpt lat="45.94926" lon="4.74388">
        <ele>192</ele>
        <time>2017-12-22T11:23:41Z</time>
      </trkpt>
      <trkpt lat="45.94921" lon="4.74378">
        <ele>192</ele>
        <time>2017-12-22T11:23:42Z</time>
      </trkpt>
      <trkpt lat="45.94917" lon="4.7437">
        <ele>192</ele>
        <time>2017-12-22T11:23:43Z</time>
      </trkpt>
      <trkpt lat="45.94913" lon="4.74362">
        <ele>191</ele>
        <time>2017-12-22T11:23:44Z</time>
      </trkpt>
      <trkpt lat="45.94909" lon="4.74354">
        <ele>191</ele>
        <time>2017-12-22T11:23:45Z</time>
      </trkpt>
      <trkpt lat="45.94905" lon="4.74345">
        <ele>191</ele>
        <time>2017-12-22T11:23:46Z</time>
      </trkpt>
      <trkpt lat="45.949" lon="4.74338">
        <ele>191</ele>
        <time>2017-12-22T11:23:47Z</time>
      </trkpt>
      <trkpt lat="45.94897" lon="4.7433">
        <ele>191</ele>
        <time>2017-12-22T11:23:48Z</time>
      </trkpt>
      <trkpt lat="45.94893" lon="4.74323">
        <ele>191</ele>
        <time>2017-12-22T11:23:49Z</time>
      </trkpt>
      <trkpt lat="45.94889" lon="4.74315">
        <ele>191</ele>
        <time>2017-12-22T11:23:50Z</time>
      </trkpt>
      <trkpt lat="45.94885" lon="4.74307">
        <ele>191</ele>
        <time>2017-12-22T11:23:51Z</time>
      </trkpt>
      <trkpt lat="45.94881" lon="4.743">
        <ele>191</ele>
        <time>2017-12-22T11:23:52Z</time>
      </trkpt>
      <trkpt lat="45.94876" lon="4.7429">
        <ele>191</ele>
        <time>2017-12-22T11:23:53Z</time>
      </trkpt>
      <trkpt lat="45.94872" lon="4.74283">
        <ele>191</ele>
        <time>2017-12-22T11:23:54Z</time>
      </trkpt>
      <trkpt lat="45.94868" lon="4.74275">
        <ele>191</ele>
        <time>2017-12-22T11:23:55Z</time>
      </trkpt>
      <trkpt lat="45.94864" lon="4.74267">
        <ele>190</ele>
        <time>2017-12-22T11:23:56Z</time>
      </trkpt>
      <trkpt lat="45.9486" lon="4.74259">
        <ele>190</ele>
        <time>2017-12-22T11:23:57Z</time>
      </trkpt>
      <trkpt lat="45.94855" lon="4.74252">
        <ele>190</ele>
        <time>2017-12-22T11:23:58Z</time>
      </trkpt>
      <trkpt lat="45.94852" lon="4.74244">
        <ele>190</ele>
        <time>2017-12-22T11:23:59Z</time>
      </trkpt>
      <trkpt lat="45.94849" lon="4.74237">
        <ele>190</ele>
        <time>2017-12-22T11:24:00Z</time>
      </trkpt>
      <trkpt lat="45.94844" lon="4.74229">
        <ele>190</ele>
        <time>2017-12-22T11:24:01Z</time>
      </trkpt>
      <trkpt lat="45.9484" lon="4.74221">
        <ele>190</ele>
        <time>2017-12-22T11:24:02Z</time>
      </trkpt>
      <trkpt lat="45.94837" lon="4.74215">
        <ele>190</ele>
        <time>2017-12-22T11:24:03Z</time>
      </trkpt>
      <trkpt lat="45.94834" lon="4.74209">
        <ele>190</ele>
        <time>2017-12-22T11:24:04Z</time>
      </trkpt>
      <trkpt lat="45.9483" lon="4.74204">
        <ele>189</ele>
        <time>2017-12-22T11:24:05Z</time>
      </trkpt>
      <trkpt lat="45.94827" lon="4.74198">
        <ele>189</ele>
        <time>2017-12-22T11:24:06Z</time>
      </trkpt>
      <trkpt lat="45.94823" lon="4.74192">
        <ele>189</ele>
        <time>2017-12-22T11:24:07Z</time>
      </trkpt>
      <trkpt lat="45.94819" lon="4.74185">
        <ele>189</ele>
        <time>2017-12-22T11:24:08Z</time>
      </trkpt>
      <trkpt lat="45.94816" lon="4.74179">
        <ele>189</ele>
        <time>2017-12-22T11:24:09Z</time>
      </trkpt>
      <trkpt lat="45.94813" lon="4.74172">
        <ele>189</ele>
        <time>2017-12-22T11:24:10Z</time>
      </trkpt>
      <trkpt lat="45.94809" lon="4.74165">
        <ele>189</ele>
        <time>2017-12-22T11:24:11Z</time>
      </trkpt>
      <trkpt lat="45.94805" lon="4.74158">
        <ele>189</ele>
        <time>2017-12-22T11:24:12Z</time>
      </trkpt>
      <trkpt lat="45.94801" lon="4.74151">
        <ele>189</ele>
        <time>2017-12-22T11:24:13Z</time>
      </trkpt>
      <trkpt lat="45.94797" lon="4.74144">
        <ele>189</ele>
        <time>2017-12-22T11:24:14Z</time>
      </trkpt>
      <trkpt lat="45.94793" lon="4.74138">
        <ele>189</ele>
        <time>2017-12-22T11:24:15Z</time>
      </trkpt>
      <trkpt lat="45.94789" lon="4.7413">
        <ele>189</ele>
        <time>2017-12-22T11:24:16Z</time>
      </trkpt>
      <trkpt lat="45.94786" lon="4.74124">
        <ele>189</ele>
        <time>2017-12-22T11:24:17Z</time>
      </trkpt>
      <trkpt lat="45.94781" lon="4.74117">
        <ele>189</ele>
        <time>2017-12-22T11:24:18Z</time>
      </trkpt>
      <trkpt lat="45.94777" lon="4.7411">
        <ele>189</ele>
        <time>2017-12-22T11:24:19Z</time>
      </trkpt>
      <trkpt lat="45.94772" lon="4.74104">
        <ele>189</ele>
        <time>2017-12-22T11:24:20Z</time>
      </trkpt>
      <trkpt lat="45.94767" lon="4.74098">
        <ele>189</ele>
        <time>2017-12-22T11:24:21Z</time>
      </trkpt>
      <trkpt lat="45.94762" lon="4.74092">
        <ele>189</ele>
        <time>2017-12-22T11:24:22Z</time>
      </trkpt>
      <trkpt lat="45.94758" lon="4.74087">
        <ele>189</ele>
        <time>2017-12-22T11:24:23Z</time>
      </trkpt>
      <trkpt lat="45.94751" lon="4.74081">
        <ele>189</ele>
        <time>2017-12-22T11:24:24Z</time>
      </trkpt>
      <trkpt lat="45.94748" lon="4.74075">
        <ele>188</ele>
        <time>2017-12-22T11:24:25Z</time>
      </trkpt>
      <trkpt lat="45.94744" lon="4.74068">
        <ele>188</ele>
        <time>2017-12-22T11:24:26Z</time>
      </trkpt>
      <trkpt lat="45.9474" lon="4.74062">
        <ele>188</ele>
        <time>2017-12-22T11:24:27Z</time>
      </trkpt>
      <trkpt lat="45.94735" lon="4.74056">
        <ele>188</ele>
        <time>2017-12-22T11:24:28Z</time>
      </trkpt>
      <trkpt lat="45.94732" lon="4.7405">
        <ele>188</ele>
        <time>2017-12-22T11:24:29Z</time>
      </trkpt>
      <trkpt lat="45.94726" lon="4.74044">
        <ele>188</ele>
        <time>2017-12-22T11:24:30Z</time>
      </trkpt>
      <trkpt lat="45.94722" lon="4.74038">
        <ele>187</ele>
        <time>2017-12-22T11:24:31Z</time>
      </trkpt>
      <trkpt lat="45.94718" lon="4.74033">
        <ele>187</ele>
        <time>2017-12-22T11:24:32Z</time>
      </trkpt>
      <trkpt lat="45.94714" lon="4.74028">
        <ele>187</ele>
        <time>2017-12-22T11:24:33Z</time>
      </trkpt>
      <trkpt lat="45.9471" lon="4.74021">
        <ele>187</ele>
        <time>2017-12-22T11:24:34Z</time>
      </trkpt>
      <trkpt lat="45.94708" lon="4.74017">
        <ele>187</ele>
        <time>2017-12-22T11:24:35Z</time>
      </trkpt>
      <trkpt lat="45.94705" lon="4.74012">
        <ele>187</ele>
        <time>2017-12-22T11:24:36Z</time>
      </trkpt>
      <trkpt lat="45.94701" lon="4.74007">
        <ele>187</ele>
        <time>2017-12-22T11:24:37Z</time>
      </trkpt>
      <trkpt lat="45.94697" lon="4.74002">
        <ele>187</ele>
        <time>2017-12-22T11:24:38Z</time>
      </trkpt>
      <trkpt lat="45.94693" lon="4.73997">
        <ele>187</ele>
        <time>2017-12-22T11:24:39Z</time>
      </trkpt>
      <trkpt lat="45.94689" lon="4.73992">
        <ele>187</ele>
        <time>2017-12-22T11:24:40Z</time>
      </trkpt>
      <trkpt lat="45.94686" lon="4.73987">
        <ele>187</ele>
        <time>2017-12-22T11:24:41Z</time>
      </trkpt>
      <trkpt lat="45.94681" lon="4.73982">
        <ele>187</ele>
        <time>2017-12-22T11:24:42Z</time>
      </trkpt>
      <trkpt lat="45.94677" lon="4.73976">
        <ele>187</ele>
        <time>2017-12-22T11:24:43Z</time>
      </trkpt>
      <trkpt lat="45.94673" lon="4.7397">
        <ele>187</ele>
        <time>2017-12-22T11:24:44Z</time>
      </trkpt>
      <trkpt lat="45.94668" lon="4.73964">
        <ele>187</ele>
        <time>2017-12-22T11:24:45Z</time>
      </trkpt>
      <trkpt lat="45.94664" lon="4.73956">
        <ele>187</ele>
        <time>2017-12-22T11:24:46Z</time>
      </trkpt>
      <trkpt lat="45.9466" lon="4.73949">
        <ele>187</ele>
        <time>2017-12-22T11:24:47Z</time>
      </trkpt>
      <trkpt lat="45.94655" lon="4.73943">
        <ele>187</ele>
        <time>2017-12-22T11:24:48Z</time>
      </trkpt>
      <trkpt lat="45.94651" lon="4.73937">
        <ele>187</ele>
        <time>2017-12-22T11:24:49Z</time>
      </trkpt>
      <trkpt lat="45.94646" lon="4.73932">
        <ele>187</ele>
        <time>2017-12-22T11:24:50Z</time>
      </trkpt>
      <trkpt lat="45.94642" lon="4.73927">
        <ele>187</ele>
        <time>2017-12-22T11:24:51Z</time>
      </trkpt>
      <trkpt lat="45.94639" lon="4.73922">
        <ele>187</ele>
        <time>2017-12-22T11:24:52Z</time>
      </trkpt>
      <trkpt lat="45.94635" lon="4.73918">
        <ele>187</ele>
        <time>2017-12-22T11:24:53Z</time>
      </trkpt>
      <trkpt lat="45.94631" lon="4.73913">
        <ele>187</ele>
        <time>2017-12-22T11:24:54Z</time>
      </trkpt>
      <trkpt lat="45.94626" lon="4.73908">
        <ele>187</ele>
        <time>2017-12-22T11:24:55Z</time>
      </trkpt>
      <trkpt lat="45.94622" lon="4.73902">
        <ele>187</ele>
        <time>2017-12-22T11:24:56Z</time>
      </trkpt>
      <trkpt lat="45.94617" lon="4.73897">
        <ele>187</ele>
        <time>2017-12-22T11:24:57Z</time>
      </trkpt>
      <trkpt lat="45.94612" lon="4.73892">
        <ele>187</ele>
        <time>2017-12-22T11:24:58Z</time>
      </trkpt>
      <trkpt lat="45.94608" lon="4.73886">
        <ele>187</ele>
        <time>2017-12-22T11:24:59Z</time>
      </trkpt>
      <trkpt lat="45.94603" lon="4.73881">
        <ele>187</ele>
        <time>2017-12-22T11:25:00Z</time>
      </trkpt>
      <trkpt lat="45.94597" lon="4.73874">
        <ele>187</ele>
        <time>2017-12-22T11:25:01Z</time>
      </trkpt>
      <trkpt lat="45.94591" lon="4.73869">
        <ele>187</ele>
        <time>2017-12-22T11:25:02Z</time>
      </trkpt>
      <trkpt lat="45.94587" lon="4.73864">
        <ele>187</ele>
        <time>2017-12-22T11:25:03Z</time>
      </trkpt>
      <trkpt lat="45.94582" lon="4.73859">
        <ele>186</ele>
        <time>2017-12-22T11:25:04Z</time>
      </trkpt>
      <trkpt lat="45.94577" lon="4.73854">
        <ele>186</ele>
        <time>2017-12-22T11:25:05Z</time>
      </trkpt>
      <trkpt lat="45.94572" lon="4.73848">
        <ele>186</ele>
        <time>2017-12-22T11:25:06Z</time>
      </trkpt>
      <trkpt lat="45.94567" lon="4.73843">
        <ele>186</ele>
        <time>2017-12-22T11:25:07Z</time>
      </trkpt>
      <trkpt lat="45.94562" lon="4.73837">
        <ele>186</ele>
        <time>2017-12-22T11:25:08Z</time>
      </trkpt>
      <trkpt lat="45.94557" lon="4.73832">
        <ele>186</ele>
        <time>2017-12-22T11:25:09Z</time>
      </trkpt>
      <trkpt lat="45.94552" lon="4.73827">
        <ele>186</ele>
        <time>2017-12-22T11:25:10Z</time>
      </trkpt>
      <trkpt lat="45.94547" lon="4.73823">
        <ele>186</ele>
        <time>2017-12-22T11:25:11Z</time>
      </trkpt>
      <trkpt lat="45.94543" lon="4.73818">
        <ele>186</ele>
        <time>2017-12-22T11:25:12Z</time>
      </trkpt>
      <trkpt lat="45.94539" lon="4.73813">
        <ele>186</ele>
        <time>2017-12-22T11:25:13Z</time>
      </trkpt>
      <trkpt lat="45.94534" lon="4.73809">
        <ele>186</ele>
        <time>2017-12-22T11:25:14Z</time>
      </trkpt>
      <trkpt lat="45.94529" lon="4.73805">
        <ele>186</ele>
        <time>2017-12-22T11:25:15Z</time>
      </trkpt>
      <trkpt lat="45.94525" lon="4.738">
        <ele>186</ele>
        <time>2017-12-22T11:25:16Z</time>
      </trkpt>
      <trkpt lat="45.94521" lon="4.73796">
        <ele>186</ele>
        <time>2017-12-22T11:25:17Z</time>
      </trkpt>
      <trkpt lat="45.94517" lon="4.73791">
        <ele>186</ele>
        <time>2017-12-22T11:25:18Z</time>
      </trkpt>
      <trkpt lat="45.94514" lon="4.73786">
        <ele>186</ele>
        <time>2017-12-22T11:25:19Z</time>
      </trkpt>
      <trkpt lat="45.94511" lon="4.73781">
        <ele>186</ele>
        <time>2017-12-22T11:25:20Z</time>
      </trkpt>
      <trkpt lat="45.94506" lon="4.73777">
        <ele>186</ele>
        <time>2017-12-22T11:25:21Z</time>
      </trkpt>
      <trkpt lat="45.94501" lon="4.73773">
        <ele>186</ele>
        <time>2017-12-22T11:25:22Z</time>
      </trkpt>
      <trkpt lat="45.94496" lon="4.73768">
        <ele>186</ele>
        <time>2017-12-22T11:25:23Z</time>
      </trkpt>
      <trkpt lat="45.94492" lon="4.73763">
        <ele>186</ele>
        <time>2017-12-22T11:25:24Z</time>
      </trkpt>
      <trkpt lat="45.94489" lon="4.73757">
        <ele>186</ele>
        <time>2017-12-22T11:25:25Z</time>
      </trkpt>
      <trkpt lat="45.94486" lon="4.73751">
        <ele>186</ele>
        <time>2017-12-22T11:25:26Z</time>
      </trkpt>
      <trkpt lat="45.94485" lon="4.73744">
        <ele>186</ele>
        <time>2017-12-22T11:25:27Z</time>
      </trkpt>
      <trkpt lat="45.94486" lon="4.73738">
        <ele>186</ele>
        <time>2017-12-22T11:25:28Z</time>
      </trkpt>
      <trkpt lat="45.94487" lon="4.7373">
        <ele>186</ele>
        <time>2017-12-22T11:25:29Z</time>
      </trkpt>
      <trkpt lat="45.94487" lon="4.73722">
        <ele>186</ele>
        <time>2017-12-22T11:25:30Z</time>
      </trkpt>
      <trkpt lat="45.94489" lon="4.73713">
        <ele>186</ele>
        <time>2017-12-22T11:25:31Z</time>
      </trkpt>
      <trkpt lat="45.94491" lon="4.73705">
        <ele>186</ele>
        <time>2017-12-22T11:25:32Z</time>
      </trkpt>
      <trkpt lat="45.94492" lon="4.73695">
        <ele>186</ele>
        <time>2017-12-22T11:25:33Z</time>
      </trkpt>
      <trkpt lat="45.94493" lon="4.73686">
        <ele>186</ele>
        <time>2017-12-22T11:25:34Z</time>
      </trkpt>
      <trkpt lat="45.94494" lon="4.73676">
        <ele>185</ele>
        <time>2017-12-22T11:25:35Z</time>
      </trkpt>
      <trkpt lat="45.94496" lon="4.73668">
        <ele>185</ele>
        <time>2017-12-22T11:25:36Z</time>
      </trkpt>
      <trkpt lat="45.94497" lon="4.73659">
        <ele>185</ele>
        <time>2017-12-22T11:25:37Z</time>
      </trkpt>
      <trkpt lat="45.94498" lon="4.7365">
        <ele>185</ele>
        <time>2017-12-22T11:25:38Z</time>
      </trkpt>
      <trkpt lat="45.945" lon="4.73642">
        <ele>186</ele>
        <time>2017-12-22T11:25:39Z</time>
      </trkpt>
      <trkpt lat="45.94501" lon="4.73633">
        <ele>184</ele>
        <time>2017-12-22T11:25:40Z</time>
      </trkpt>
      <trkpt lat="45.94502" lon="4.73625">
        <ele>184</ele>
        <time>2017-12-22T11:25:41Z</time>
      </trkpt>
      <trkpt lat="45.94503" lon="4.73616">
        <ele>184</ele>
        <time>2017-12-22T11:25:42Z</time>
      </trkpt>
      <trkpt lat="45.94504" lon="4.73608">
        <ele>184</ele>
        <time>2017-12-22T11:25:43Z</time>
      </trkpt>
      <trkpt lat="45.94504" lon="4.736">
        <ele>184</ele>
        <time>2017-12-22T11:25:44Z</time>
      </trkpt>
      <trkpt lat="45.94506" lon="4.73592">
        <ele>184</ele>
        <time>2017-12-22T11:25:45Z</time>
      </trkpt>
      <trkpt lat="45.94506" lon="4.73585">
        <ele>185</ele>
        <time>2017-12-22T11:25:46Z</time>
      </trkpt>
      <trkpt lat="45.94507" lon="4.73575">
        <ele>184</ele>
        <time>2017-12-22T11:25:47Z</time>
      </trkpt>
      <trkpt lat="45.94507" lon="4.73565">
        <ele>184</ele>
        <time>2017-12-22T11:25:48Z</time>
      </trkpt>
      <trkpt lat="45.94508" lon="4.73555">
        <ele>183</ele>
        <time>2017-12-22T11:25:49Z</time>
      </trkpt>
      <trkpt lat="45.94509" lon="4.73544">
        <ele>183</ele>
        <time>2017-12-22T11:25:50Z</time>
      </trkpt>
      <trkpt lat="45.94509" lon="4.73534">
        <ele>183</ele>
        <time>2017-12-22T11:25:51Z</time>
      </trkpt>
      <trkpt lat="45.94509" lon="4.73524">
        <ele>183</ele>
        <time>2017-12-22T11:25:52Z</time>
      </trkpt>
      <trkpt lat="45.94508" lon="4.73512">
        <ele>183</ele>
        <time>2017-12-22T11:25:53Z</time>
      </trkpt>
      <trkpt lat="45.94508" lon="4.73502">
        <ele>183</ele>
        <time>2017-12-22T11:25:54Z</time>
      </trkpt>
      <trkpt lat="45.94509" lon="4.73492">
        <ele>182</ele>
        <time>2017-12-22T11:25:55Z</time>
      </trkpt>
      <trkpt lat="45.94509" lon="4.73481">
        <ele>182</ele>
        <time>2017-12-22T11:25:56Z</time>
      </trkpt>
      <trkpt lat="45.94509" lon="4.73471">
        <ele>182</ele>
        <time>2017-12-22T11:25:57Z</time>
      </trkpt>
      <trkpt lat="45.94508" lon="4.73461">
        <ele>181</ele>
        <time>2017-12-22T11:25:58Z</time>
      </trkpt>
      <trkpt lat="45.94508" lon="4.73451">
        <ele>181</ele>
        <time>2017-12-22T11:25:59Z</time>
      </trkpt>
      <trkpt lat="45.94507" lon="4.7344">
        <ele>181</ele>
        <time>2017-12-22T11:26:00Z</time>
      </trkpt>
      <trkpt lat="45.94506" lon="4.73428">
        <ele>180</ele>
        <time>2017-12-22T11:26:01Z</time>
      </trkpt>
      <trkpt lat="45.94505" lon="4.73418">
        <ele>180</ele>
        <time>2017-12-22T11:26:02Z</time>
      </trkpt>
      <trkpt lat="45.94506" lon="4.73407">
        <ele>179</ele>
        <time>2017-12-22T11:26:03Z</time>
      </trkpt>
      <trkpt lat="45.94505" lon="4.73396">
        <ele>179</ele>
        <time>2017-12-22T11:26:04Z</time>
      </trkpt>
      <trkpt lat="45.94504" lon="4.73386">
        <ele>179</ele>
        <time>2017-12-22T11:26:05Z</time>
      </trkpt>
      <trkpt lat="45.94503" lon="4.73375">
        <ele>178</ele>
        <time>2017-12-22T11:26:06Z</time>
      </trkpt>
      <trkpt lat="45.94503" lon="4.73365">
        <ele>178</ele>
        <time>2017-12-22T11:26:07Z</time>
      </trkpt>
      <trkpt lat="45.94502" lon="4.73354">
        <ele>178</ele>
        <time>2017-12-22T11:26:08Z</time>
      </trkpt>
      <trkpt lat="45.94501" lon="4.73343">
        <ele>177</ele>
        <time>2017-12-22T11:26:09Z</time>
      </trkpt>
      <trkpt lat="45.945" lon="4.73333">
        <ele>177</ele>
        <time>2017-12-22T11:26:10Z</time>
      </trkpt>
      <trkpt lat="45.94498" lon="4.73322">
        <ele>177</ele>
        <time>2017-12-22T11:26:11Z</time>
      </trkpt>
      <trkpt lat="45.94496" lon="4.73311">
        <ele>177</ele>
        <time>2017-12-22T11:26:12Z</time>
      </trkpt>
      <trkpt lat="45.94495" lon="4.73301">
        <ele>177</ele>
        <time>2017-12-22T11:26:13Z</time>
      </trkpt>
      <trkpt lat="45.94494" lon="4.7329">
        <ele>177</ele>
        <time>2017-12-22T11:26:14Z</time>
      </trkpt>
      <trkpt lat="45.94492" lon="4.73279">
        <ele>177</ele>
        <time>2017-12-22T11:26:15Z</time>
      </trkpt>
      <trkpt lat="45.9449" lon="4.73268">
        <ele>177</ele>
        <time>2017-12-22T11:26:16Z</time>
      </trkpt>
      <trkpt lat="45.94488" lon="4.73258">
        <ele>176</ele>
        <time>2017-12-22T11:26:17Z</time>
      </trkpt>
      <trkpt lat="45.94487" lon="4.73248">
        <ele>175</ele>
        <time>2017-12-22T11:26:18Z</time>
      </trkpt>
      <trkpt lat="45.94484" lon="4.73238">
        <ele>175</ele>
        <time>2017-12-22T11:26:19Z</time>
      </trkpt>
      <trkpt lat="45.94483" lon="4.73228">
        <ele>175</ele>
        <time>2017-12-22T11:26:20Z</time>
      </trkpt>
      <trkpt lat="45.94481" lon="4.73217">
        <ele>175</ele>
        <time>2017-12-22T11:26:21Z</time>
      </trkpt>
      <trkpt lat="45.94481" lon="4.73206">
        <ele>175</ele>
        <time>2017-12-22T11:26:22Z</time>
      </trkpt>
      <trkpt lat="45.9448" lon="4.73194">
        <ele>174</ele>
        <time>2017-12-22T11:26:23Z</time>
      </trkpt>
      <trkpt lat="45.94478" lon="4.73183">
        <ele>174</ele>
        <time>2017-12-22T11:26:24Z</time>
      </trkpt>
      <trkpt lat="45.94477" lon="4.73172">
        <ele>174</ele>
        <time>2017-12-22T11:26:25Z</time>
      </trkpt>
      <trkpt lat="45.94475" lon="4.73163">
        <ele>173</ele>
        <time>2017-12-22T11:26:26Z</time>
      </trkpt>
      <trkpt lat="45.94473" lon="4.73153">
        <ele>172</ele>
        <time>2017-12-22T11:26:27Z</time>
      </trkpt>
      <trkpt lat="45.94471" lon="4.73143">
        <ele>172</ele>
        <time>2017-12-22T11:26:28Z</time>
      </trkpt>
      <trkpt lat="45.9447" lon="4.73133">
        <ele>172</ele>
        <time>2017-12-22T11:26:29Z</time>
      </trkpt>
      <trkpt lat="45.94469" lon="4.73125">
        <ele>172</ele>
        <time>2017-12-22T11:26:30Z</time>
      </trkpt>
      <trkpt lat="45.94468" lon="4.73117">
        <ele>172</ele>
        <time>2017-12-22T11:26:31Z</time>
      </trkpt>
      <trkpt lat="45.94469" lon="4.73108">
        <ele>172</ele>
        <time>2017-12-22T11:26:32Z</time>
      </trkpt>
      <trkpt lat="45.94468" lon="4.73099">
        <ele>172</ele>
        <time>2017-12-22T11:26:33Z</time>
      </trkpt>
      <trkpt lat="45.94467" lon="4.73091">
        <ele>172</ele>
        <time>2017-12-22T11:26:34Z</time>
      </trkpt>
      <trkpt lat="45.94466" lon="4.73083">
        <ele>170</ele>
        <time>2017-12-22T11:26:35Z</time>
      </trkpt>
      <trkpt lat="45.94465" lon="4.73075">
        <ele>170</ele>
        <time>2017-12-22T11:26:36Z</time>
      </trkpt>
      <trkpt lat="45.94463" lon="4.73067">
        <ele>170</ele>
        <time>2017-12-22T11:26:37Z</time>
      </trkpt>
      <trkpt lat="45.94464" lon="4.73059">
        <ele>170</ele>
        <time>2017-12-22T11:26:38Z</time>
      </trkpt>
      <trkpt lat="45.94463" lon="4.7305">
        <ele>170</ele>
        <time>2017-12-22T11:26:39Z</time>
      </trkpt>
      <trkpt lat="45.94462" lon="4.73043">
        <ele>170</ele>
        <time>2017-12-22T11:26:40Z</time>
      </trkpt>
      <trkpt lat="45.94461" lon="4.73035">
        <ele>169</ele>
        <time>2017-12-22T11:26:41Z</time>
      </trkpt>
      <trkpt lat="45.94459" lon="4.73023">
        <ele>169</ele>
        <time>2017-12-22T11:26:43Z</time>
      </trkpt>
      <trkpt lat="45.94458" lon="4.73016">
        <ele>169</ele>
        <time>2017-12-22T11:26:44Z</time>
      </trkpt>
      <trkpt lat="45.94458" lon="4.7301">
        <ele>169</ele>
        <time>2017-12-22T11:26:45Z</time>
      </trkpt>
      <trkpt lat="45.94456" lon="4.73002">
        <ele>169</ele>
        <time>2017-12-22T11:26:46Z</time>
      </trkpt>
      <trkpt lat="45.94455" lon="4.72995">
        <ele>168</ele>
        <time>2017-12-22T11:26:47Z</time>
      </trkpt>
      <trkpt lat="45.94454" lon="4.72989">
        <ele>167</ele>
        <time>2017-12-22T11:26:48Z</time>
      </trkpt>
      <trkpt lat="45.94453" lon="4.72983">
        <ele>167</ele>
        <time>2017-12-22T11:26:49Z</time>
      </trkpt>
      <trkpt lat="45.94451" lon="4.72976">
        <ele>167</ele>
        <time>2017-12-22T11:26:50Z</time>
      </trkpt>
      <trkpt lat="45.9445" lon="4.7297">
        <ele>167</ele>
        <time>2017-12-22T11:26:51Z</time>
      </trkpt>
      <trkpt lat="45.94449" lon="4.72963">
        <ele>167</ele>
        <time>2017-12-22T11:26:52Z</time>
      </trkpt>
      <trkpt lat="45.94448" lon="4.72955">
        <ele>167</ele>
        <time>2017-12-22T11:26:53Z</time>
      </trkpt>
      <trkpt lat="45.94447" lon="4.72949">
        <ele>167</ele>
        <time>2017-12-22T11:26:54Z</time>
      </trkpt>
      <trkpt lat="45.94446" lon="4.72936">
        <ele>167</ele>
        <time>2017-12-22T11:26:56Z</time>
      </trkpt>
      <trkpt lat="45.94444" lon="4.7293">
        <ele>167</ele>
        <time>2017-12-22T11:26:57Z</time>
      </trkpt>
      <trkpt lat="45.94442" lon="4.72918">
        <ele>167</ele>
        <time>2017-12-22T11:26:59Z</time>
      </trkpt>
      <trkpt lat="45.94442" lon="4.72913">
        <ele>166</ele>
        <time>2017-12-22T11:27:00Z</time>
      </trkpt>
      <trkpt lat="45.9444" lon="4.72902">
        <ele>166</ele>
        <time>2017-12-22T11:27:02Z</time>
      </trkpt>
      <trkpt lat="45.9444" lon="4.72897">
        <ele>166</ele>
        <time>2017-12-22T11:27:03Z</time>
      </trkpt>
      <trkpt lat="45.94439" lon="4.72891">
        <ele>166</ele>
        <time>2017-12-22T11:27:04Z</time>
      </trkpt>
      <trkpt lat="45.94439" lon="4.72884">
        <ele>166</ele>
        <time>2017-12-22T11:27:05Z</time>
      </trkpt>
      <trkpt lat="45.94438" lon="4.72878">
        <ele>166</ele>
        <time>2017-12-22T11:27:06Z</time>
      </trkpt>
      <trkpt lat="45.94436" lon="4.72871">
        <ele>166</ele>
        <time>2017-12-22T11:27:07Z</time>
      </trkpt>
      <trkpt lat="45.94435" lon="4.72864">
        <ele>166</ele>
        <time>2017-12-22T11:27:08Z</time>
      </trkpt>
      <trkpt lat="45.94434" lon="4.72858">
        <ele>166</ele>
        <time>2017-12-22T11:27:09Z</time>
      </trkpt>
      <trkpt lat="45.94433" lon="4.7285">
        <ele>166</ele>
        <time>2017-12-22T11:27:10Z</time>
      </trkpt>
      <trkpt lat="45.94432" lon="4.72842">
        <ele>166</ele>
        <time>2017-12-22T11:27:11Z</time>
      </trkpt>
      <trkpt lat="45.94431" lon="4.72834">
        <ele>166</ele>
        <time>2017-12-22T11:27:12Z</time>
      </trkpt>
      <trkpt lat="45.9443" lon="4.72826">
        <ele>167</ele>
        <time>2017-12-22T11:27:13Z</time>
      </trkpt>
      <trkpt lat="45.9443" lon="4.72818">
        <ele>167</ele>
        <time>2017-12-22T11:27:14Z</time>
      </trkpt>
      <trkpt lat="45.94429" lon="4.72808">
        <ele>167</ele>
        <time>2017-12-22T11:27:15Z</time>
      </trkpt>
      <trkpt lat="45.94428" lon="4.728">
        <ele>167</ele>
        <time>2017-12-22T11:27:16Z</time>
      </trkpt>
      <trkpt lat="45.94428" lon="4.72791">
        <ele>168</ele>
        <time>2017-12-22T11:27:17Z</time>
      </trkpt>
      <trkpt lat="45.94427" lon="4.72782">
        <ele>168</ele>
        <time>2017-12-22T11:27:18Z</time>
      </trkpt>
      <trkpt lat="45.94424" lon="4.72772">
        <ele>169</ele>
        <time>2017-12-22T11:27:19Z</time>
      </trkpt>
      <trkpt lat="45.94423" lon="4.72762">
        <ele>169</ele>
        <time>2017-12-22T11:27:20Z</time>
      </trkpt>
      <trkpt lat="45.94422" lon="4.72752">
        <ele>170</ele>
        <time>2017-12-22T11:27:21Z</time>
      </trkpt>
      <trkpt lat="45.94422" lon="4.72741">
        <ele>171</ele>
        <time>2017-12-22T11:27:22Z</time>
      </trkpt>
      <trkpt lat="45.94421" lon="4.72733">
        <ele>171</ele>
        <time>2017-12-22T11:27:23Z</time>
      </trkpt>
      <trkpt lat="45.9442" lon="4.72723">
        <ele>171</ele>
        <time>2017-12-22T11:27:24Z</time>
      </trkpt>
      <trkpt lat="45.94419" lon="4.72715">
        <ele>172</ele>
        <time>2017-12-22T11:27:25Z</time>
      </trkpt>
      <trkpt lat="45.94417" lon="4.72705">
        <ele>172</ele>
        <time>2017-12-22T11:27:26Z</time>
      </trkpt>
      <trkpt lat="45.94417" lon="4.72697">
        <ele>173</ele>
        <time>2017-12-22T11:27:27Z</time>
      </trkpt>
      <trkpt lat="45.94415" lon="4.72688">
        <ele>173</ele>
        <time>2017-12-22T11:27:28Z</time>
      </trkpt>
      <trkpt lat="45.94414" lon="4.72679">
        <ele>173</ele>
        <time>2017-12-22T11:27:29Z</time>
      </trkpt>
      <trkpt lat="45.94413" lon="4.72671">
        <ele>174</ele>
        <time>2017-12-22T11:27:30Z</time>
      </trkpt>
      <trkpt lat="45.94412" lon="4.72663">
        <ele>174</ele>
        <time>2017-12-22T11:27:31Z</time>
      </trkpt>
      <trkpt lat="45.94412" lon="4.72653">
        <ele>174</ele>
        <time>2017-12-22T11:27:32Z</time>
      </trkpt>
      <trkpt lat="45.94412" lon="4.72643">
        <ele>174</ele>
        <time>2017-12-22T11:27:33Z</time>
      </trkpt>
      <trkpt lat="45.94411" lon="4.72635">
        <ele>174</ele>
        <time>2017-12-22T11:27:34Z</time>
      </trkpt>
      <trkpt lat="45.94411" lon="4.72627">
        <ele>174</ele>
        <time>2017-12-22T11:27:35Z</time>
      </trkpt>
      <trkpt lat="45.9441" lon="4.72621">
        <ele>173</ele>
        <time>2017-12-22T11:27:36Z</time>
      </trkpt>
      <trkpt lat="45.94409" lon="4.72613">
        <ele>173</ele>
        <time>2017-12-22T11:27:37Z</time>
      </trkpt>
      <trkpt lat="45.94409" lon="4.72605">
        <ele>173</ele>
        <time>2017-12-22T11:27:38Z</time>
      </trkpt>
      <trkpt lat="45.94407" lon="4.72598">
        <ele>173</ele>
        <time>2017-12-22T11:27:39Z</time>
      </trkpt>
      <trkpt lat="45.94405" lon="4.72591">
        <ele>173</ele>
        <time>2017-12-22T11:27:40Z</time>
      </trkpt>
      <trkpt lat="45.94405" lon="4.72583">
        <ele>173</ele>
        <time>2017-12-22T11:27:41Z</time>
      </trkpt>
      <trkpt lat="45.94404" lon="4.72574">
        <ele>173</ele>
        <time>2017-12-22T11:27:42Z</time>
      </trkpt>
      <trkpt lat="45.94404" lon="4.72566">
        <ele>173</ele>
        <time>2017-12-22T11:27:43Z</time>
      </trkpt>
      <trkpt lat="45.94401" lon="4.72557">
        <ele>173</ele>
        <time>2017-12-22T11:27:44Z</time>
      </trkpt>
      <trkpt lat="45.94399" lon="4.72548">
        <ele>173</ele>
        <time>2017-12-22T11:27:45Z</time>
      </trkpt>
      <trkpt lat="45.94397" lon="4.72539">
        <ele>174</ele>
        <time>2017-12-22T11:27:46Z</time>
      </trkpt>
      <trkpt lat="45.94395" lon="4.7253">
        <ele>174</ele>
        <time>2017-12-22T11:27:47Z</time>
      </trkpt>
      <trkpt lat="45.94392" lon="4.72521">
        <ele>174</ele>
        <time>2017-12-22T11:27:48Z</time>
      </trkpt>
      <trkpt lat="45.94389" lon="4.72512">
        <ele>174</ele>
        <time>2017-12-22T11:27:49Z</time>
      </trkpt>
      <trkpt lat="45.94386" lon="4.72502">
        <ele>174</ele>
        <time>2017-12-22T11:27:50Z</time>
      </trkpt>
      <trkpt lat="45.94383" lon="4.72493">
        <ele>173</ele>
        <time>2017-12-22T11:27:51Z</time>
      </trkpt>
      <trkpt lat="45.9438" lon="4.72484">
        <ele>173</ele>
        <time>2017-12-22T11:27:52Z</time>
      </trkpt>
      <trkpt lat="45.94376" lon="4.72476">
        <ele>173</ele>
        <time>2017-12-22T11:27:53Z</time>
      </trkpt>
      <trkpt lat="45.94373" lon="4.72469">
        <ele>173</ele>
        <time>2017-12-22T11:27:54Z</time>
      </trkpt>
      <trkpt lat="45.9437" lon="4.72462">
        <ele>173</ele>
        <time>2017-12-22T11:27:55Z</time>
      </trkpt>
      <trkpt lat="45.94366" lon="4.72455">
        <ele>173</ele>
        <time>2017-12-22T11:27:56Z</time>
      </trkpt>
      <trkpt lat="45.94363" lon="4.72447">
        <ele>173</ele>
        <time>2017-12-22T11:27:57Z</time>
      </trkpt>
      <trkpt lat="45.94361" lon="4.72441">
        <ele>173</ele>
        <time>2017-12-22T11:27:58Z</time>
      </trkpt>
      <trkpt lat="45.94359" lon="4.72434">
        <ele>173</ele>
        <time>2017-12-22T11:27:59Z</time>
      </trkpt>
      <trkpt lat="45.94356" lon="4.72428">
        <ele>173</ele>
        <time>2017-12-22T11:28:00Z</time>
      </trkpt>
      <trkpt lat="45.94353" lon="4.72422">
        <ele>173</ele>
        <time>2017-12-22T11:28:01Z</time>
      </trkpt>
      <trkpt lat="45.94349" lon="4.72416">
        <ele>173</ele>
        <time>2017-12-22T11:28:02Z</time>
      </trkpt>
      <trkpt lat="45.94346" lon="4.7241">
        <ele>173</ele>
        <time>2017-12-22T11:28:03Z</time>
      </trkpt>
      <trkpt lat="45.94343" lon="4.72404">
        <ele>173</ele>
        <time>2017-12-22T11:28:04Z</time>
      </trkpt>
      <trkpt lat="45.9434" lon="4.72397">
        <ele>172</ele>
        <time>2017-12-22T11:28:05Z</time>
      </trkpt>
      <trkpt lat="45.94336" lon="4.7239">
        <ele>172</ele>
        <time>2017-12-22T11:28:06Z</time>
      </trkpt>
      <trkpt lat="45.94333" lon="4.72383">
        <ele>172</ele>
        <time>2017-12-22T11:28:07Z</time>
      </trkpt>
      <trkpt lat="45.94329" lon="4.72375">
        <ele>172</ele>
        <time>2017-12-22T11:28:08Z</time>
      </trkpt>
      <trkpt lat="45.94326" lon="4.72367">
        <ele>172</ele>
        <time>2017-12-22T11:28:09Z</time>
      </trkpt>
      <trkpt lat="45.94323" lon="4.7236">
        <ele>172</ele>
        <time>2017-12-22T11:28:10Z</time>
      </trkpt>
      <trkpt lat="45.94319" lon="4.72352">
        <ele>172</ele>
        <time>2017-12-22T11:28:11Z</time>
      </trkpt>
      <trkpt lat="45.94316" lon="4.72345">
        <ele>172</ele>
        <time>2017-12-22T11:28:12Z</time>
      </trkpt>
      <trkpt lat="45.94312" lon="4.72339">
        <ele>172</ele>
        <time>2017-12-22T11:28:13Z</time>
      </trkpt>
      <trkpt lat="45.94309" lon="4.72331">
        <ele>172</ele>
        <time>2017-12-22T11:28:14Z</time>
      </trkpt>
      <trkpt lat="45.94306" lon="4.72325">
        <ele>171</ele>
        <time>2017-12-22T11:28:15Z</time>
      </trkpt>
      <trkpt lat="45.94303" lon="4.72318">
        <ele>171</ele>
        <time>2017-12-22T11:28:16Z</time>
      </trkpt>
      <trkpt lat="45.943" lon="4.7231">
        <ele>171</ele>
        <time>2017-12-22T11:28:17Z</time>
      </trkpt>
      <trkpt lat="45.94297" lon="4.72303">
        <ele>171</ele>
        <time>2017-12-22T11:28:18Z</time>
      </trkpt>
      <trkpt lat="45.94295" lon="4.72296">
        <ele>171</ele>
        <time>2017-12-22T11:28:19Z</time>
      </trkpt>
      <trkpt lat="45.94291" lon="4.72288">
        <ele>171</ele>
        <time>2017-12-22T11:28:20Z</time>
      </trkpt>
      <trkpt lat="45.94288" lon="4.72282">
        <ele>171</ele>
        <time>2017-12-22T11:28:21Z</time>
      </trkpt>
      <trkpt lat="45.94283" lon="4.72273">
        <ele>171</ele>
        <time>2017-12-22T11:28:23Z</time>
      </trkpt>
      <trkpt lat="45.94279" lon="4.72269">
        <ele>171</ele>
        <time>2017-12-22T11:28:24Z</time>
      </trkpt>
      <trkpt lat="45.94274" lon="4.72269">
        <ele>171</ele>
        <time>2017-12-22T11:28:25Z</time>
      </trkpt>
      <trkpt lat="45.94269" lon="4.72269">
        <ele>171</ele>
        <time>2017-12-22T11:28:26Z</time>
      </trkpt>
      <trkpt lat="45.94264" lon="4.72271">
        <ele>171</ele>
        <time>2017-12-22T11:28:27Z</time>
      </trkpt>
      <trkpt lat="45.94258" lon="4.72273">
        <ele>171</ele>
        <time>2017-12-22T11:28:28Z</time>
      </trkpt>
      <trkpt lat="45.94252" lon="4.72275">
        <ele>171</ele>
        <time>2017-12-22T11:28:29Z</time>
      </trkpt>
      <trkpt lat="45.94246" lon="4.72279">
        <ele>171</ele>
        <time>2017-12-22T11:28:30Z</time>
      </trkpt>
      <trkpt lat="45.94239" lon="4.72281">
        <ele>171</ele>
        <time>2017-12-22T11:28:31Z</time>
      </trkpt>
      <trkpt lat="45.94233" lon="4.72283">
        <ele>171</ele>
        <time>2017-12-22T11:28:32Z</time>
      </trkpt>
      <trkpt lat="45.94228" lon="4.72285">
        <ele>171</ele>
        <time>2017-12-22T11:28:33Z</time>
      </trkpt>
      <trkpt lat="45.94222" lon="4.72286">
        <ele>171</ele>
        <time>2017-12-22T11:28:34Z</time>
      </trkpt>
      <trkpt lat="45.94214" lon="4.72286">
        <ele>171</ele>
        <time>2017-12-22T11:28:35Z</time>
      </trkpt>
      <trkpt lat="45.94208" lon="4.72286">
        <ele>171</ele>
        <time>2017-12-22T11:28:36Z</time>
      </trkpt>
      <trkpt lat="45.94202" lon="4.72286">
        <ele>171</ele>
        <time>2017-12-22T11:28:37Z</time>
      </trkpt>
      <trkpt lat="45.94197" lon="4.72286">
        <ele>171</ele>
        <time>2017-12-22T11:28:38Z</time>
      </trkpt>
      <trkpt lat="45.94191" lon="4.72286">
        <ele>171</ele>
        <time>2017-12-22T11:28:39Z</time>
      </trkpt>
      <trkpt lat="45.94184" lon="4.72285">
        <ele>171</ele>
        <time>2017-12-22T11:28:40Z</time>
      </trkpt>
      <trkpt lat="45.94178" lon="4.72284">
        <ele>171</ele>
        <time>2017-12-22T11:28:41Z</time>
      </trkpt>
      <trkpt lat="45.94173" lon="4.72283">
        <ele>171</ele>
        <time>2017-12-22T11:28:42Z</time>
      </trkpt>
      <trkpt lat="45.94168" lon="4.72282">
        <ele>171</ele>
        <time>2017-12-22T11:28:43Z</time>
      </trkpt>
      <trkpt lat="45.94162" lon="4.72281">
        <ele>171</ele>
        <time>2017-12-22T11:28:44Z</time>
      </trkpt>
      <trkpt lat="45.94156" lon="4.7228">
        <ele>171</ele>
        <time>2017-12-22T11:28:45Z</time>
      </trkpt>
      <trkpt lat="45.9415" lon="4.72278">
        <ele>171</ele>
        <time>2017-12-22T11:28:46Z</time>
      </trkpt>
      <trkpt lat="45.94145" lon="4.72276">
        <ele>171</ele>
        <time>2017-12-22T11:28:47Z</time>
      </trkpt>
      <trkpt lat="45.94139" lon="4.72275">
        <ele>171</ele>
        <time>2017-12-22T11:28:48Z</time>
      </trkpt>
      <trkpt lat="45.94134" lon="4.72271">
        <ele>171</ele>
        <time>2017-12-22T11:28:49Z</time>
      </trkpt>
      <trkpt lat="45.94129" lon="4.72269">
        <ele>171</ele>
        <time>2017-12-22T11:28:50Z</time>
      </trkpt>
      <trkpt lat="45.94123" lon="4.72266">
        <ele>171</ele>
        <time>2017-12-22T11:28:51Z</time>
      </trkpt>
      <trkpt lat="45.94116" lon="4.72265">
        <ele>171</ele>
        <time>2017-12-22T11:28:52Z</time>
      </trkpt>
      <trkpt lat="45.9411" lon="4.72263">
        <ele>171</ele>
        <time>2017-12-22T11:28:53Z</time>
      </trkpt>
      <trkpt lat="45.94105" lon="4.72262">
        <ele>171</ele>
        <time>2017-12-22T11:28:54Z</time>
      </trkpt>
      <trkpt lat="45.94096" lon="4.72262">
        <ele>171</ele>
        <time>2017-12-22T11:28:56Z</time>
      </trkpt>
      <trkpt lat="45.94091" lon="4.72263">
        <ele>171</ele>
        <time>2017-12-22T11:28:57Z</time>
      </trkpt>
      <trkpt lat="45.94085" lon="4.72264">
        <ele>171</ele>
        <time>2017-12-22T11:28:58Z</time>
      </trkpt>
      <trkpt lat="45.9408" lon="4.72268">
        <ele>171</ele>
        <time>2017-12-22T11:28:59Z</time>
      </trkpt>
      <trkpt lat="45.94075" lon="4.72271">
        <ele>171</ele>
        <time>2017-12-22T11:29:00Z</time>
      </trkpt>
      <trkpt lat="45.94068" lon="4.72275">
        <ele>171</ele>
        <time>2017-12-22T11:29:01Z</time>
      </trkpt>
      <trkpt lat="45.94064" lon="4.72279">
        <ele>171</ele>
        <time>2017-12-22T11:29:02Z</time>
      </trkpt>
      <trkpt lat="45.9406" lon="4.72285">
        <ele>171</ele>
        <time>2017-12-22T11:29:03Z</time>
      </trkpt>
      <trkpt lat="45.94055" lon="4.7229">
        <ele>171</ele>
        <time>2017-12-22T11:29:04Z</time>
      </trkpt>
      <trkpt lat="45.94051" lon="4.72296">
        <ele>171</ele>
        <time>2017-12-22T11:29:05Z</time>
      </trkpt>
      <trkpt lat="45.94046" lon="4.72302">
        <ele>171</ele>
        <time>2017-12-22T11:29:06Z</time>
      </trkpt>
      <trkpt lat="45.94041" lon="4.72307">
        <ele>171</ele>
        <time>2017-12-22T11:29:07Z</time>
      </trkpt>
      <trkpt lat="45.94036" lon="4.72312">
        <ele>171</ele>
        <time>2017-12-22T11:29:08Z</time>
      </trkpt>
      <trkpt lat="45.94031" lon="4.72318">
        <ele>171</ele>
        <time>2017-12-22T11:29:09Z</time>
      </trkpt>
      <trkpt lat="45.94026" lon="4.72323">
        <ele>171</ele>
        <time>2017-12-22T11:29:10Z</time>
      </trkpt>
      <trkpt lat="45.9402" lon="4.72329">
        <ele>171</ele>
        <time>2017-12-22T11:29:11Z</time>
      </trkpt>
      <trkpt lat="45.94016" lon="4.72335">
        <ele>171</ele>
        <time>2017-12-22T11:29:12Z</time>
      </trkpt>
      <trkpt lat="45.94011" lon="4.72341">
        <ele>171</ele>
        <time>2017-12-22T11:29:13Z</time>
      </trkpt>
      <trkpt lat="45.94006" lon="4.72347">
        <ele>171</ele>
        <time>2017-12-22T11:29:14Z</time>
      </trkpt>
      <trkpt lat="45.94002" lon="4.72351">
        <ele>171</ele>
        <time>2017-12-22T11:29:15Z</time>
      </trkpt>
      <trkpt lat="45.93998" lon="4.72356">
        <ele>171</ele>
        <time>2017-12-22T11:29:16Z</time>
      </trkpt>
      <trkpt lat="45.93994" lon="4.72361">
        <ele>171</ele>
        <time>2017-12-22T11:29:17Z</time>
      </trkpt>
      <trkpt lat="45.9399" lon="4.72366">
        <ele>171</ele>
        <time>2017-12-22T11:29:18Z</time>
      </trkpt>
      <trkpt lat="45.93986" lon="4.72371">
        <ele>171</ele>
        <time>2017-12-22T11:29:19Z</time>
      </trkpt>
      <trkpt lat="45.93981" lon="4.72378">
        <ele>171</ele>
        <time>2017-12-22T11:29:20Z</time>
      </trkpt>
      <trkpt lat="45.93977" lon="4.72383">
        <ele>171</ele>
        <time>2017-12-22T11:29:21Z</time>
      </trkpt>
      <trkpt lat="45.93973" lon="4.72388">
        <ele>171</ele>
        <time>2017-12-22T11:29:22Z</time>
      </trkpt>
      <trkpt lat="45.93968" lon="4.72393">
        <ele>171</ele>
        <time>2017-12-22T11:29:23Z</time>
      </trkpt>
      <trkpt lat="45.93964" lon="4.72398">
        <ele>171</ele>
        <time>2017-12-22T11:29:24Z</time>
      </trkpt>
      <trkpt lat="45.9396" lon="4.72403">
        <ele>171</ele>
        <time>2017-12-22T11:29:25Z</time>
      </trkpt>
      <trkpt lat="45.93956" lon="4.72408">
        <ele>171</ele>
        <time>2017-12-22T11:29:26Z</time>
      </trkpt>
      <trkpt lat="45.93952" lon="4.72414">
        <ele>171</ele>
        <time>2017-12-22T11:29:27Z</time>
      </trkpt>
      <trkpt lat="45.93948" lon="4.7242">
        <ele>171</ele>
        <time>2017-12-22T11:29:28Z</time>
      </trkpt>
      <trkpt lat="45.93944" lon="4.72425">
        <ele>171</ele>
        <time>2017-12-22T11:29:29Z</time>
      </trkpt>
      <trkpt lat="45.9394" lon="4.72432">
        <ele>171</ele>
        <time>2017-12-22T11:29:30Z</time>
      </trkpt>
      <trkpt lat="45.93936" lon="4.72436">
        <ele>171</ele>
        <time>2017-12-22T11:29:31Z</time>
      </trkpt>
      <trkpt lat="45.93931" lon="4.72442">
        <ele>171</ele>
        <time>2017-12-22T11:29:32Z</time>
      </trkpt>
      <trkpt lat="45.93928" lon="4.72446">
        <ele>171</ele>
        <time>2017-12-22T11:29:33Z</time>
      </trkpt>
      <trkpt lat="45.93924" lon="4.72451">
        <ele>171</ele>
        <time>2017-12-22T11:29:34Z</time>
      </trkpt>
      <trkpt lat="45.93919" lon="4.72456">
        <ele>171</ele>
        <time>2017-12-22T11:29:35Z</time>
      </trkpt>
      <trkpt lat="45.93915" lon="4.72461">
        <ele>172</ele>
        <time>2017-12-22T11:29:36Z</time>
      </trkpt>
      <trkpt lat="45.93911" lon="4.72466">
        <ele>172</ele>
        <time>2017-12-22T11:29:37Z</time>
      </trkpt>
      <trkpt lat="45.93907" lon="4.72472">
        <ele>172</ele>
        <time>2017-12-22T11:29:38Z</time>
      </trkpt>
      <trkpt lat="45.93902" lon="4.72477">
        <ele>172</ele>
        <time>2017-12-22T11:29:39Z</time>
      </trkpt>
      <trkpt lat="45.93898" lon="4.72481">
        <ele>172</ele>
        <time>2017-12-22T11:29:40Z</time>
      </trkpt>
      <trkpt lat="45.93894" lon="4.72486">
        <ele>172</ele>
        <time>2017-12-22T11:29:41Z</time>
      </trkpt>
      <trkpt lat="45.93891" lon="4.72492">
        <ele>172</ele>
        <time>2017-12-22T11:29:42Z</time>
      </trkpt>
      <trkpt lat="45.93886" lon="4.72496">
        <ele>172</ele>
        <time>2017-12-22T11:29:43Z</time>
      </trkpt>
      <trkpt lat="45.93882" lon="4.72499">
        <ele>172</ele>
        <time>2017-12-22T11:29:44Z</time>
      </trkpt>
      <trkpt lat="45.93878" lon="4.72503">
        <ele>173</ele>
        <time>2017-12-22T11:29:45Z</time>
      </trkpt>
      <trkpt lat="45.9387" lon="4.72508">
        <ele>173</ele>
        <time>2017-12-22T11:29:47Z</time>
      </trkpt>
      <trkpt lat="45.93865" lon="4.72508">
        <ele>173</ele>
        <time>2017-12-22T11:29:48Z</time>
      </trkpt>
      <trkpt lat="45.93861" lon="4.72505">
        <ele>173</ele>
        <time>2017-12-22T11:29:49Z</time>
      </trkpt>
      <trkpt lat="45.93857" lon="4.72501">
        <ele>173</ele>
        <time>2017-12-22T11:29:50Z</time>
      </trkpt>
      <trkpt lat="45.93852" lon="4.72503">
        <ele>173</ele>
        <time>2017-12-22T11:29:52Z</time>
      </trkpt>
      <trkpt lat="45.93848" lon="4.725">
        <ele>174</ele>
        <time>2017-12-22T11:29:53Z</time>
      </trkpt>
      <trkpt lat="45.93842" lon="4.725">
        <ele>174</ele>
        <time>2017-12-22T11:29:56Z</time>
      </trkpt>
      <trkpt lat="45.93836" lon="4.72489">
        <ele>173</ele>
        <time>2017-12-22T11:29:57Z</time>
      </trkpt>
      <trkpt lat="45.93826" lon="4.72473">
        <ele>172</ele>
        <time>2017-12-22T11:29:58Z</time>
      </trkpt>
      <trkpt lat="45.9382" lon="4.72464">
        <ele>172</ele>
        <time>2017-12-22T11:30:00Z</time>
      </trkpt>
      <trkpt lat="45.93815" lon="4.72462">
        <ele>172</ele>
        <time>2017-12-22T11:30:01Z</time>
      </trkpt>
      <trkpt lat="45.93809" lon="4.72457">
        <ele>172</ele>
        <time>2017-12-22T11:30:03Z</time>
      </trkpt>
      <trkpt lat="45.93807" lon="4.72452">
        <ele>172</ele>
        <time>2017-12-22T11:30:04Z</time>
      </trkpt>
      <trkpt lat="45.93803" lon="4.72448">
        <ele>172</ele>
        <time>2017-12-22T11:30:05Z</time>
      </trkpt>
      <trkpt lat="45.93798" lon="4.72443">
        <ele>172</ele>
        <time>2017-12-22T11:30:06Z</time>
      </trkpt>
      <trkpt lat="45.93794" lon="4.72438">
        <ele>172</ele>
        <time>2017-12-22T11:30:07Z</time>
      </trkpt>
      <trkpt lat="45.9379" lon="4.72433">
        <ele>172</ele>
        <time>2017-12-22T11:30:08Z</time>
      </trkpt>
      <trkpt lat="45.93785" lon="4.72429">
        <ele>172</ele>
        <time>2017-12-22T11:30:09Z</time>
      </trkpt>
      <trkpt lat="45.93778" lon="4.72425">
        <ele>172</ele>
        <time>2017-12-22T11:30:10Z</time>
      </trkpt>
      <trkpt lat="45.93774" lon="4.72421">
        <ele>171</ele>
        <time>2017-12-22T11:30:11Z</time>
      </trkpt>
      <trkpt lat="45.9377" lon="4.72417">
        <ele>171</ele>
        <time>2017-12-22T11:30:12Z</time>
      </trkpt>
      <trkpt lat="45.93765" lon="4.72413">
        <ele>171</ele>
        <time>2017-12-22T11:30:13Z</time>
      </trkpt>
      <trkpt lat="45.93762" lon="4.72408">
        <ele>171</ele>
        <time>2017-12-22T11:30:14Z</time>
      </trkpt>
      <trkpt lat="45.93757" lon="4.72404">
        <ele>171</ele>
        <time>2017-12-22T11:30:15Z</time>
      </trkpt>
      <trkpt lat="45.93753" lon="4.72399">
        <ele>171</ele>
        <time>2017-12-22T11:30:16Z</time>
      </trkpt>
      <trkpt lat="45.93749" lon="4.72396">
        <ele>171</ele>
        <time>2017-12-22T11:30:17Z</time>
      </trkpt>
      <trkpt lat="45.93744" lon="4.72392">
        <ele>171</ele>
        <time>2017-12-22T11:30:18Z</time>
      </trkpt>
      <trkpt lat="45.93739" lon="4.72388">
        <ele>171</ele>
        <time>2017-12-22T11:30:19Z</time>
      </trkpt>
      <trkpt lat="45.93735" lon="4.72383">
        <ele>171</ele>
        <time>2017-12-22T11:30:20Z</time>
      </trkpt>
      <trkpt lat="45.9373" lon="4.7238">
        <ele>171</ele>
        <time>2017-12-22T11:30:21Z</time>
      </trkpt>
      <trkpt lat="45.93726" lon="4.72374">
        <ele>172</ele>
        <time>2017-12-22T11:30:22Z</time>
      </trkpt>
      <trkpt lat="45.93721" lon="4.7237">
        <ele>172</ele>
        <time>2017-12-22T11:30:23Z</time>
      </trkpt>
      <trkpt lat="45.93716" lon="4.72366">
        <ele>172</ele>
        <time>2017-12-22T11:30:24Z</time>
      </trkpt>
      <trkpt lat="45.93711" lon="4.72361">
        <ele>172</ele>
        <time>2017-12-22T11:30:25Z</time>
      </trkpt>
      <trkpt lat="45.93705" lon="4.72357">
        <ele>171</ele>
        <time>2017-12-22T11:30:26Z</time>
      </trkpt>
      <trkpt lat="45.937" lon="4.72353">
        <ele>171</ele>
        <time>2017-12-22T11:30:27Z</time>
      </trkpt>
      <trkpt lat="45.93696" lon="4.7235">
        <ele>171</ele>
        <time>2017-12-22T11:30:28Z</time>
      </trkpt>
      <trkpt lat="45.93692" lon="4.72348">
        <ele>171</ele>
        <time>2017-12-22T11:30:29Z</time>
      </trkpt>
      <trkpt lat="45.93689" lon="4.72341">
        <ele>171</ele>
        <time>2017-12-22T11:30:30Z</time>
      </trkpt>
      <trkpt lat="45.93685" lon="4.72335">
        <ele>171</ele>
        <time>2017-12-22T11:30:31Z</time>
      </trkpt>
      <trkpt lat="45.93682" lon="4.72331">
        <ele>171</ele>
        <time>2017-12-22T11:30:32Z</time>
      </trkpt>
      <trkpt lat="45.93675" lon="4.72323">
        <ele>171</ele>
        <time>2017-12-22T11:30:34Z</time>
      </trkpt>
      <trkpt lat="45.93671" lon="4.72319">
        <ele>171</ele>
        <time>2017-12-22T11:30:35Z</time>
      </trkpt>
      <trkpt lat="45.93666" lon="4.72317">
        <ele>172</ele>
        <time>2017-12-22T11:30:36Z</time>
      </trkpt>
      <trkpt lat="45.93662" lon="4.72314">
        <ele>172</ele>
        <time>2017-12-22T11:30:37Z</time>
      </trkpt>
      <trkpt lat="45.93655" lon="4.72306">
        <ele>172</ele>
        <time>2017-12-22T11:30:39Z</time>
      </trkpt>
      <trkpt lat="45.93651" lon="4.72302">
        <ele>172</ele>
        <time>2017-12-22T11:30:40Z</time>
      </trkpt>
      <trkpt lat="45.93644" lon="4.72293">
        <ele>172</ele>
        <time>2017-12-22T11:30:42Z</time>
      </trkpt>
      <trkpt lat="45.93642" lon="4.72289">
        <ele>172</ele>
        <time>2017-12-22T11:30:43Z</time>
      </trkpt>
      <trkpt lat="45.93635" lon="4.72281">
        <ele>172</ele>
        <time>2017-12-22T11:30:45Z</time>
      </trkpt>
      <trkpt lat="45.93632" lon="4.72276">
        <ele>172</ele>
        <time>2017-12-22T11:30:46Z</time>
      </trkpt>
      <trkpt lat="45.93627" lon="4.72273">
        <ele>172</ele>
        <time>2017-12-22T11:30:47Z</time>
      </trkpt>
      <trkpt lat="45.93623" lon="4.72268">
        <ele>172</ele>
        <time>2017-12-22T11:30:48Z</time>
      </trkpt>
      <trkpt lat="45.93619" lon="4.72265">
        <ele>172</ele>
        <time>2017-12-22T11:30:49Z</time>
      </trkpt>
      <trkpt lat="45.93615" lon="4.7226">
        <ele>172</ele>
        <time>2017-12-22T11:30:50Z</time>
      </trkpt>
      <trkpt lat="45.9361" lon="4.72257">
        <ele>172</ele>
        <time>2017-12-22T11:30:51Z</time>
      </trkpt>
      <trkpt lat="45.93607" lon="4.72253">
        <ele>173</ele>
        <time>2017-12-22T11:30:52Z</time>
      </trkpt>
      <trkpt lat="45.936" lon="4.72245">
        <ele>173</ele>
        <time>2017-12-22T11:30:54Z</time>
      </trkpt>
      <trkpt lat="45.93596" lon="4.72242">
        <ele>173</ele>
        <time>2017-12-22T11:30:55Z</time>
      </trkpt>
      <trkpt lat="45.93592" lon="4.7224">
        <ele>173</ele>
        <time>2017-12-22T11:30:56Z</time>
      </trkpt>
      <trkpt lat="45.93587" lon="4.72235">
        <ele>173</ele>
        <time>2017-12-22T11:30:57Z</time>
      </trkpt>
      <trkpt lat="45.9358" lon="4.72227">
        <ele>173</ele>
        <time>2017-12-22T11:31:02Z</time>
      </trkpt>
      <trkpt lat="45.93577" lon="4.72225">
        <ele>173</ele>
        <time>2017-12-22T11:31:03Z</time>
      </trkpt>
      <trkpt lat="45.93569" lon="4.7222">
        <ele>173</ele>
        <time>2017-12-22T11:31:43Z</time>
      </trkpt>
      <trkpt lat="45.93569" lon="4.72219">
        <ele>173</ele>
        <time>2017-12-22T11:31:44Z</time>
      </trkpt>
      <trkpt lat="45.93561" lon="4.72217">
        <ele>173</ele>
        <time>2017-12-22T11:31:48Z</time>
      </trkpt>
      <trkpt lat="45.93558" lon="4.72219">
        <ele>173</ele>
        <time>2017-12-22T11:31:49Z</time>
      </trkpt>
      <trkpt lat="45.93554" lon="4.72226">
        <ele>173</ele>
        <time>2017-12-22T11:31:51Z</time>
      </trkpt>
      <trkpt lat="45.93552" lon="4.72229">
        <ele>173</ele>
        <time>2017-12-22T11:31:52Z</time>
      </trkpt>
      <trkpt lat="45.93548" lon="4.72239">
        <ele>172</ele>
        <time>2017-12-22T11:31:55Z</time>
      </trkpt>
      <trkpt lat="45.93546" lon="4.72241">
        <ele>172</ele>
        <time>2017-12-22T11:31:56Z</time>
      </trkpt>
      <trkpt lat="45.93542" lon="4.72249">
        <ele>172</ele>
        <time>2017-12-22T11:31:59Z</time>
      </trkpt>
      <trkpt lat="45.93539" lon="4.72252">
        <ele>172</ele>
        <time>2017-12-22T11:32:00Z</time>
      </trkpt>
      <trkpt lat="45.93536" lon="4.7226">
        <ele>172</ele>
        <time>2017-12-22T11:32:02Z</time>
      </trkpt>
      <trkpt lat="45.93535" lon="4.72263">
        <ele>172</ele>
        <time>2017-12-22T11:32:03Z</time>
      </trkpt>
      <trkpt lat="45.9353" lon="4.72273">
        <ele>172</ele>
        <time>2017-12-22T11:32:05Z</time>
      </trkpt>
      <trkpt lat="45.93527" lon="4.72277">
        <ele>172</ele>
        <time>2017-12-22T11:32:06Z</time>
      </trkpt>
      <trkpt lat="45.93524" lon="4.72284">
        <ele>172</ele>
        <time>2017-12-22T11:32:07Z</time>
      </trkpt>
      <trkpt lat="45.93521" lon="4.7229">
        <ele>172</ele>
        <time>2017-12-22T11:32:08Z</time>
      </trkpt>
      <trkpt lat="45.93517" lon="4.72295">
        <ele>172</ele>
        <time>2017-12-22T11:32:09Z</time>
      </trkpt>
      <trkpt lat="45.93513" lon="4.72302">
        <ele>172</ele>
        <time>2017-12-22T11:32:10Z</time>
      </trkpt>
      <trkpt lat="45.93509" lon="4.72309">
        <ele>173</ele>
        <time>2017-12-22T11:32:11Z</time>
      </trkpt>
      <trkpt lat="45.93503" lon="4.72316">
        <ele>173</ele>
        <time>2017-12-22T11:32:12Z</time>
      </trkpt>
      <trkpt lat="45.93499" lon="4.72322">
        <ele>173</ele>
        <time>2017-12-22T11:32:13Z</time>
      </trkpt>
      <trkpt lat="45.93494" lon="4.72327">
        <ele>173</ele>
        <time>2017-12-22T11:32:14Z</time>
      </trkpt>
      <trkpt lat="45.9349" lon="4.72334">
        <ele>173</ele>
        <time>2017-12-22T11:32:15Z</time>
      </trkpt>
      <trkpt lat="45.93486" lon="4.72339">
        <ele>173</ele>
        <time>2017-12-22T11:32:16Z</time>
      </trkpt>
      <trkpt lat="45.9348" lon="4.72347">
        <ele>173</ele>
        <time>2017-12-22T11:32:17Z</time>
      </trkpt>
      <trkpt lat="45.93476" lon="4.72353">
        <ele>173</ele>
        <time>2017-12-22T11:32:18Z</time>
      </trkpt>
      <trkpt lat="45.93469" lon="4.7236">
        <ele>173</ele>
        <time>2017-12-22T11:32:19Z</time>
      </trkpt>
      <trkpt lat="45.93465" lon="4.72366">
        <ele>173</ele>
        <time>2017-12-22T11:32:20Z</time>
      </trkpt>
      <trkpt lat="45.93461" lon="4.72371">
        <ele>173</ele>
        <time>2017-12-22T11:32:21Z</time>
      </trkpt>
      <trkpt lat="45.93456" lon="4.72377">
        <ele>173</ele>
        <time>2017-12-22T11:32:22Z</time>
      </trkpt>
      <trkpt lat="45.9345" lon="4.72381">
        <ele>173</ele>
        <time>2017-12-22T11:32:23Z</time>
      </trkpt>
      <trkpt lat="45.93445" lon="4.72385">
        <ele>173</ele>
        <time>2017-12-22T11:32:24Z</time>
      </trkpt>
      <trkpt lat="45.9344" lon="4.72389">
        <ele>173</ele>
        <time>2017-12-22T11:32:25Z</time>
      </trkpt>
      <trkpt lat="45.93435" lon="4.72392">
        <ele>173</ele>
        <time>2017-12-22T11:32:26Z</time>
      </trkpt>
      <trkpt lat="45.93432" lon="4.72399">
        <ele>174</ele>
        <time>2017-12-22T11:32:28Z</time>
      </trkpt>
      <trkpt lat="45.93425" lon="4.72398">
        <ele>174</ele>
        <time>2017-12-22T11:32:29Z</time>
      </trkpt>
      <trkpt lat="45.93418" lon="4.72401">
        <ele>174</ele>
        <time>2017-12-22T11:32:31Z</time>
      </trkpt>
      <trkpt lat="45.93414" lon="4.72402">
        <ele>174</ele>
        <time>2017-12-22T11:32:32Z</time>
      </trkpt>
      <trkpt lat="45.93405" lon="4.72402">
        <ele>174</ele>
        <time>2017-12-22T11:32:35Z</time>
      </trkpt>
      <trkpt lat="45.93401" lon="4.72401">
        <ele>174</ele>
        <time>2017-12-22T11:32:36Z</time>
      </trkpt>
      <trkpt lat="45.93396" lon="4.72403">
        <ele>174</ele>
        <time>2017-12-22T11:32:38Z</time>
      </trkpt>
      <trkpt lat="45.93393" lon="4.72407">
        <ele>174</ele>
        <time>2017-12-22T11:32:39Z</time>
      </trkpt>
      <trkpt lat="45.9339" lon="4.72414">
        <ele>174</ele>
        <time>2017-12-22T11:32:40Z</time>
      </trkpt>
      <trkpt lat="45.93391" lon="4.72421">
        <ele>173</ele>
        <time>2017-12-22T11:32:41Z</time>
      </trkpt>
      <trkpt lat="45.93393" lon="4.72428">
        <ele>173</ele>
        <time>2017-12-22T11:32:42Z</time>
      </trkpt>
      <trkpt lat="45.93395" lon="4.72434">
        <ele>173</ele>
        <time>2017-12-22T11:32:43Z</time>
      </trkpt>
      <trkpt lat="45.93394" lon="4.72442">
        <ele>173</ele>
        <time>2017-12-22T11:32:44Z</time>
      </trkpt>
      <trkpt lat="45.93395" lon="4.7245">
        <ele>173</ele>
        <time>2017-12-22T11:32:45Z</time>
      </trkpt>
      <trkpt lat="45.93393" lon="4.72457">
        <ele>173</ele>
        <time>2017-12-22T11:32:46Z</time>
      </trkpt>
      <trkpt lat="45.93391" lon="4.72463">
        <ele>173</ele>
        <time>2017-12-22T11:32:47Z</time>
      </trkpt>
      <trkpt lat="45.93387" lon="4.72467">
        <ele>173</ele>
        <time>2017-12-22T11:32:48Z</time>
      </trkpt>
      <trkpt lat="45.93383" lon="4.7247">
        <ele>173</ele>
        <time>2017-12-22T11:32:49Z</time>
      </trkpt>
      <trkpt lat="45.93377" lon="4.72478">
        <ele>173</ele>
        <time>2017-12-22T11:32:51Z</time>
      </trkpt>
      <trkpt lat="45.93373" lon="4.72483">
        <ele>173</ele>
        <time>2017-12-22T11:32:52Z</time>
      </trkpt>
      <trkpt lat="45.93369" lon="4.72487">
        <ele>173</ele>
        <time>2017-12-22T11:32:53Z</time>
      </trkpt>
      <trkpt lat="45.93364" lon="4.72492">
        <ele>173</ele>
        <time>2017-12-22T11:32:54Z</time>
      </trkpt>
      <trkpt lat="45.9336" lon="4.72497">
        <ele>173</ele>
        <time>2017-12-22T11:32:55Z</time>
      </trkpt>
      <trkpt lat="45.93355" lon="4.72502">
        <ele>172</ele>
        <time>2017-12-22T11:32:56Z</time>
      </trkpt>
      <trkpt lat="45.93349" lon="4.7251">
        <ele>172</ele>
        <time>2017-12-22T11:32:57Z</time>
      </trkpt>
      <trkpt lat="45.93345" lon="4.72515">
        <ele>172</ele>
        <time>2017-12-22T11:32:58Z</time>
      </trkpt>
      <trkpt lat="45.9334" lon="4.72521">
        <ele>172</ele>
        <time>2017-12-22T11:32:59Z</time>
      </trkpt>
      <trkpt lat="45.93336" lon="4.72526">
        <ele>172</ele>
        <time>2017-12-22T11:33:00Z</time>
      </trkpt>
      <trkpt lat="45.93331" lon="4.7253">
        <ele>172</ele>
        <time>2017-12-22T11:33:01Z</time>
      </trkpt>
      <trkpt lat="45.93327" lon="4.72535">
        <ele>172</ele>
        <time>2017-12-22T11:33:02Z</time>
      </trkpt>
      <trkpt lat="45.93321" lon="4.7254">
        <ele>172</ele>
        <time>2017-12-22T11:33:03Z</time>
      </trkpt>
      <trkpt lat="45.93316" lon="4.72546">
        <ele>172</ele>
        <time>2017-12-22T11:33:04Z</time>
      </trkpt>
      <trkpt lat="45.93312" lon="4.7255">
        <ele>172</ele>
        <time>2017-12-22T11:33:05Z</time>
      </trkpt>
      <trkpt lat="45.93308" lon="4.72555">
        <ele>172</ele>
        <time>2017-12-22T11:33:06Z</time>
      </trkpt>
      <trkpt lat="45.93303" lon="4.7256">
        <ele>172</ele>
        <time>2017-12-22T11:33:07Z</time>
      </trkpt>
      <trkpt lat="45.93298" lon="4.72564">
        <ele>172</ele>
        <time>2017-12-22T11:33:08Z</time>
      </trkpt>
      <trkpt lat="45.93292" lon="4.72569">
        <ele>172</ele>
        <time>2017-12-22T11:33:09Z</time>
      </trkpt>
      <trkpt lat="45.93288" lon="4.72575">
        <ele>172</ele>
        <time>2017-12-22T11:33:10Z</time>
      </trkpt>
      <trkpt lat="45.93282" lon="4.72583">
        <ele>171</ele>
        <time>2017-12-22T11:33:11Z</time>
      </trkpt>
      <trkpt lat="45.93279" lon="4.72588">
        <ele>170</ele>
        <time>2017-12-22T11:33:12Z</time>
      </trkpt>
      <trkpt lat="45.93274" lon="4.72593">
        <ele>170</ele>
        <time>2017-12-22T11:33:13Z</time>
      </trkpt>
      <trkpt lat="45.93269" lon="4.72599">
        <ele>170</ele>
        <time>2017-12-22T11:33:14Z</time>
      </trkpt>
      <trkpt lat="45.93262" lon="4.72605">
        <ele>170</ele>
        <time>2017-12-22T11:33:15Z</time>
      </trkpt>
      <trkpt lat="45.93258" lon="4.72611">
        <ele>170</ele>
        <time>2017-12-22T11:33:16Z</time>
      </trkpt>
      <trkpt lat="45.93253" lon="4.72616">
        <ele>170</ele>
        <time>2017-12-22T11:33:17Z</time>
      </trkpt>
      <trkpt lat="45.93249" lon="4.72622">
        <ele>170</ele>
        <time>2017-12-22T11:33:18Z</time>
      </trkpt>
      <trkpt lat="45.93242" lon="4.72628">
        <ele>170</ele>
        <time>2017-12-22T11:33:19Z</time>
      </trkpt>
      <trkpt lat="45.93238" lon="4.72634">
        <ele>170</ele>
        <time>2017-12-22T11:33:20Z</time>
      </trkpt>
      <trkpt lat="45.93233" lon="4.7264">
        <ele>170</ele>
        <time>2017-12-22T11:33:21Z</time>
      </trkpt>
      <trkpt lat="45.93227" lon="4.72645">
        <ele>170</ele>
        <time>2017-12-22T11:33:22Z</time>
      </trkpt>
      <trkpt lat="45.93223" lon="4.7265">
        <ele>170</ele>
        <time>2017-12-22T11:33:23Z</time>
      </trkpt>
      <trkpt lat="45.93219" lon="4.72656">
        <ele>170</ele>
        <time>2017-12-22T11:33:24Z</time>
      </trkpt>
      <trkpt lat="45.93213" lon="4.7266">
        <ele>170</ele>
        <time>2017-12-22T11:33:25Z</time>
      </trkpt>
      <trkpt lat="45.9321" lon="4.72663">
        <ele>170</ele>
        <time>2017-12-22T11:33:26Z</time>
      </trkpt>
      <trkpt lat="45.93206" lon="4.72668">
        <ele>169</ele>
        <time>2017-12-22T11:33:27Z</time>
      </trkpt>
      <trkpt lat="45.93202" lon="4.72673">
        <ele>169</ele>
        <time>2017-12-22T11:33:28Z</time>
      </trkpt>
      <trkpt lat="45.93198" lon="4.72678">
        <ele>169</ele>
        <time>2017-12-22T11:33:29Z</time>
      </trkpt>
      <trkpt lat="45.93192" lon="4.72683">
        <ele>169</ele>
        <time>2017-12-22T11:33:30Z</time>
      </trkpt>
      <trkpt lat="45.93188" lon="4.72689">
        <ele>169</ele>
        <time>2017-12-22T11:33:31Z</time>
      </trkpt>
      <trkpt lat="45.93183" lon="4.72694">
        <ele>170</ele>
        <time>2017-12-22T11:33:32Z</time>
      </trkpt>
      <trkpt lat="45.93179" lon="4.72701">
        <ele>170</ele>
        <time>2017-12-22T11:33:33Z</time>
      </trkpt>
      <trkpt lat="45.93174" lon="4.72706">
        <ele>170</ele>
        <time>2017-12-22T11:33:34Z</time>
      </trkpt>
      <trkpt lat="45.93171" lon="4.7271">
        <ele>170</ele>
        <time>2017-12-22T11:33:35Z</time>
      </trkpt>
      <trkpt lat="45.93166" lon="4.72716">
        <ele>170</ele>
        <time>2017-12-22T11:33:36Z</time>
      </trkpt>
      <trkpt lat="45.93162" lon="4.72722">
        <ele>170</ele>
        <time>2017-12-22T11:33:37Z</time>
      </trkpt>
      <trkpt lat="45.93158" lon="4.72727">
        <ele>170</ele>
        <time>2017-12-22T11:33:38Z</time>
      </trkpt>
      <trkpt lat="45.93152" lon="4.72732">
        <ele>170</ele>
        <time>2017-12-22T11:33:39Z</time>
      </trkpt>
      <trkpt lat="45.93147" lon="4.72738">
        <ele>170</ele>
        <time>2017-12-22T11:33:40Z</time>
      </trkpt>
      <trkpt lat="45.93142" lon="4.72744">
        <ele>170</ele>
        <time>2017-12-22T11:33:41Z</time>
      </trkpt>
      <trkpt lat="45.93138" lon="4.7275">
        <ele>171</ele>
        <time>2017-12-22T11:33:42Z</time>
      </trkpt>
      <trkpt lat="45.93133" lon="4.72756">
        <ele>171</ele>
        <time>2017-12-22T11:33:43Z</time>
      </trkpt>
      <trkpt lat="45.93129" lon="4.72761">
        <ele>171</ele>
        <time>2017-12-22T11:33:44Z</time>
      </trkpt>
      <trkpt lat="45.93125" lon="4.72767">
        <ele>171</ele>
        <time>2017-12-22T11:33:45Z</time>
      </trkpt>
      <trkpt lat="45.9312" lon="4.72773">
        <ele>171</ele>
        <time>2017-12-22T11:33:46Z</time>
      </trkpt>
      <trkpt lat="45.93116" lon="4.72779">
        <ele>171</ele>
        <time>2017-12-22T11:33:47Z</time>
      </trkpt>
      <trkpt lat="45.93112" lon="4.72784">
        <ele>171</ele>
        <time>2017-12-22T11:33:48Z</time>
      </trkpt>
      <trkpt lat="45.93107" lon="4.7279">
        <ele>171</ele>
        <time>2017-12-22T11:33:49Z</time>
      </trkpt>
      <trkpt lat="45.93102" lon="4.72795">
        <ele>171</ele>
        <time>2017-12-22T11:33:50Z</time>
      </trkpt>
      <trkpt lat="45.93099" lon="4.72799">
        <ele>171</ele>
        <time>2017-12-22T11:33:51Z</time>
      </trkpt>
      <trkpt lat="45.93093" lon="4.72806">
        <ele>172</ele>
        <time>2017-12-22T11:33:52Z</time>
      </trkpt>
      <trkpt lat="45.93088" lon="4.72811">
        <ele>172</ele>
        <time>2017-12-22T11:33:53Z</time>
      </trkpt>
      <trkpt lat="45.93083" lon="4.72816">
        <ele>172</ele>
        <time>2017-12-22T11:33:54Z</time>
      </trkpt>
      <trkpt lat="45.93075" lon="4.72821">
        <ele>173</ele>
        <time>2017-12-22T11:33:57Z</time>
      </trkpt>
      <trkpt lat="45.93072" lon="4.72829">
        <ele>173</ele>
        <time>2017-12-22T11:33:58Z</time>
      </trkpt>
      <trkpt lat="45.93064" lon="4.7285">
        <ele>172</ele>
        <time>2017-12-22T11:33:59Z</time>
      </trkpt>
      <trkpt lat="45.93053" lon="4.72854">
        <ele>172</ele>
        <time>2017-12-22T11:34:00Z</time>
      </trkpt>
      <trkpt lat="45.93047" lon="4.72858">
        <ele>172</ele>
        <time>2017-12-22T11:34:01Z</time>
      </trkpt>
      <trkpt lat="45.93042" lon="4.72864">
        <ele>172</ele>
        <time>2017-12-22T11:34:02Z</time>
      </trkpt>
      <trkpt lat="45.93037" lon="4.72869">
        <ele>172</ele>
        <time>2017-12-22T11:34:03Z</time>
      </trkpt>
      <trkpt lat="45.93032" lon="4.72876">
        <ele>172</ele>
        <time>2017-12-22T11:34:04Z</time>
      </trkpt>
      <trkpt lat="45.93027" lon="4.72882">
        <ele>172</ele>
        <time>2017-12-22T11:34:05Z</time>
      </trkpt>
      <trkpt lat="45.93022" lon="4.72887">
        <ele>172</ele>
        <time>2017-12-22T11:34:06Z</time>
      </trkpt>
      <trkpt lat="45.93018" lon="4.72893">
        <ele>172</ele>
        <time>2017-12-22T11:34:07Z</time>
      </trkpt>
      <trkpt lat="45.93014" lon="4.72898">
        <ele>172</ele>
        <time>2017-12-22T11:34:08Z</time>
      </trkpt>
      <trkpt lat="45.93009" lon="4.72901">
        <ele>172</ele>
        <time>2017-12-22T11:34:09Z</time>
      </trkpt>
      <trkpt lat="45.93005" lon="4.72906">
        <ele>171</ele>
        <time>2017-12-22T11:34:10Z</time>
      </trkpt>
      <trkpt lat="45.93003" lon="4.72912">
        <ele>171</ele>
        <time>2017-12-22T11:34:11Z</time>
      </trkpt>
      <trkpt lat="45.92999" lon="4.72917">
        <ele>171</ele>
        <time>2017-12-22T11:34:12Z</time>
      </trkpt>
      <trkpt lat="45.92994" lon="4.72922">
        <ele>171</ele>
        <time>2017-12-22T11:34:13Z</time>
      </trkpt>
      <trkpt lat="45.9299" lon="4.72929">
        <ele>171</ele>
        <time>2017-12-22T11:34:14Z</time>
      </trkpt>
      <trkpt lat="45.92985" lon="4.72934">
        <ele>171</ele>
        <time>2017-12-22T11:34:15Z</time>
      </trkpt>
      <trkpt lat="45.92981" lon="4.7294">
        <ele>171</ele>
        <time>2017-12-22T11:34:16Z</time>
      </trkpt>
      <trkpt lat="45.92977" lon="4.72945">
        <ele>171</ele>
        <time>2017-12-22T11:34:17Z</time>
      </trkpt>
      <trkpt lat="45.92972" lon="4.72951">
        <ele>171</ele>
        <time>2017-12-22T11:34:18Z</time>
      </trkpt>
      <trkpt lat="45.92968" lon="4.72959">
        <ele>171</ele>
        <time>2017-12-22T11:34:19Z</time>
      </trkpt>
      <trkpt lat="45.92964" lon="4.72965">
        <ele>171</ele>
        <time>2017-12-22T11:34:20Z</time>
      </trkpt>
      <trkpt lat="45.92959" lon="4.7297">
        <ele>171</ele>
        <time>2017-12-22T11:34:21Z</time>
      </trkpt>
      <trkpt lat="45.92954" lon="4.72975">
        <ele>171</ele>
        <time>2017-12-22T11:34:22Z</time>
      </trkpt>
      <trkpt lat="45.9295" lon="4.7298">
        <ele>171</ele>
        <time>2017-12-22T11:34:23Z</time>
      </trkpt>
      <trkpt lat="45.92946" lon="4.72986">
        <ele>171</ele>
        <time>2017-12-22T11:34:24Z</time>
      </trkpt>
      <trkpt lat="45.92943" lon="4.7299">
        <ele>171</ele>
        <time>2017-12-22T11:34:25Z</time>
      </trkpt>
      <trkpt lat="45.9294" lon="4.72995">
        <ele>171</ele>
        <time>2017-12-22T11:34:26Z</time>
      </trkpt>
      <trkpt lat="45.92936" lon="4.73">
        <ele>171</ele>
        <time>2017-12-22T11:34:27Z</time>
      </trkpt>
      <trkpt lat="45.92931" lon="4.73003">
        <ele>172</ele>
        <time>2017-12-22T11:34:28Z</time>
      </trkpt>
      <trkpt lat="45.92927" lon="4.73008">
        <ele>172</ele>
        <time>2017-12-22T11:34:29Z</time>
      </trkpt>
      <trkpt lat="45.92923" lon="4.73014">
        <ele>172</ele>
        <time>2017-12-22T11:34:30Z</time>
      </trkpt>
      <trkpt lat="45.92919" lon="4.7302">
        <ele>172</ele>
        <time>2017-12-22T11:34:31Z</time>
      </trkpt>
      <trkpt lat="45.92915" lon="4.73025">
        <ele>172</ele>
        <time>2017-12-22T11:34:32Z</time>
      </trkpt>
      <trkpt lat="45.92911" lon="4.7303">
        <ele>172</ele>
        <time>2017-12-22T11:34:33Z</time>
      </trkpt>
      <trkpt lat="45.92907" lon="4.73037">
        <ele>172</ele>
        <time>2017-12-22T11:34:34Z</time>
      </trkpt>
      <trkpt lat="45.92903" lon="4.73043">
        <ele>172</ele>
        <time>2017-12-22T11:34:35Z</time>
      </trkpt>
      <trkpt lat="45.92899" lon="4.73049">
        <ele>172</ele>
        <time>2017-12-22T11:34:36Z</time>
      </trkpt>
      <trkpt lat="45.92895" lon="4.73055">
        <ele>172</ele>
        <time>2017-12-22T11:34:37Z</time>
      </trkpt>
      <trkpt lat="45.92891" lon="4.73061">
        <ele>172</ele>
        <time>2017-12-22T11:34:38Z</time>
      </trkpt>
      <trkpt lat="45.92889" lon="4.73067">
        <ele>172</ele>
        <time>2017-12-22T11:34:39Z</time>
      </trkpt>
      <trkpt lat="45.92885" lon="4.73073">
        <ele>172</ele>
        <time>2017-12-22T11:34:40Z</time>
      </trkpt>
      <trkpt lat="45.92881" lon="4.73078">
        <ele>172</ele>
        <time>2017-12-22T11:34:41Z</time>
      </trkpt>
      <trkpt lat="45.92878" lon="4.73083">
        <ele>172</ele>
        <time>2017-12-22T11:34:42Z</time>
      </trkpt>
      <trkpt lat="45.92874" lon="4.73087">
        <ele>172</ele>
        <time>2017-12-22T11:34:43Z</time>
      </trkpt>
      <trkpt lat="45.9287" lon="4.73091">
        <ele>172</ele>
        <time>2017-12-22T11:34:44Z</time>
      </trkpt>
      <trkpt lat="45.92865" lon="4.73095">
        <ele>171</ele>
        <time>2017-12-22T11:34:45Z</time>
      </trkpt>
      <trkpt lat="45.92861" lon="4.73099">
        <ele>171</ele>
        <time>2017-12-22T11:34:46Z</time>
      </trkpt>
      <trkpt lat="45.92857" lon="4.73098">
        <ele>171</ele>
        <time>2017-12-22T11:34:47Z</time>
      </trkpt>
      <trkpt lat="45.92852" lon="4.73094">
        <ele>171</ele>
        <time>2017-12-22T11:34:48Z</time>
      </trkpt>
      <trkpt lat="45.92849" lon="4.73088">
        <ele>171</ele>
        <time>2017-12-22T11:34:49Z</time>
      </trkpt>
      <trkpt lat="45.92848" lon="4.73081">
        <ele>171</ele>
        <time>2017-12-22T11:34:50Z</time>
      </trkpt>
      <trkpt lat="45.92846" lon="4.7307">
        <ele>171</ele>
        <time>2017-12-22T11:34:52Z</time>
      </trkpt>
      <trkpt lat="45.92846" lon="4.73063">
        <ele>171</ele>
        <time>2017-12-22T11:34:53Z</time>
      </trkpt>
      <trkpt lat="45.92845" lon="4.73056">
        <ele>171</ele>
        <time>2017-12-22T11:34:54Z</time>
      </trkpt>
      <trkpt lat="45.92843" lon="4.73049">
        <ele>171</ele>
        <time>2017-12-22T11:34:55Z</time>
      </trkpt>
      <trkpt lat="45.92841" lon="4.7304">
        <ele>171</ele>
        <time>2017-12-22T11:34:56Z</time>
      </trkpt>
      <trkpt lat="45.9284" lon="4.73033">
        <ele>171</ele>
        <time>2017-12-22T11:34:57Z</time>
      </trkpt>
      <trkpt lat="45.92838" lon="4.73024">
        <ele>171</ele>
        <time>2017-12-22T11:34:58Z</time>
      </trkpt>
      <trkpt lat="45.92837" lon="4.73016">
        <ele>171</ele>
        <time>2017-12-22T11:34:59Z</time>
      </trkpt>
      <trkpt lat="45.92836" lon="4.73008">
        <ele>170</ele>
        <time>2017-12-22T11:35:00Z</time>
      </trkpt>
      <trkpt lat="45.92836" lon="4.73">
        <ele>170</ele>
        <time>2017-12-22T11:35:01Z</time>
      </trkpt>
      <trkpt lat="45.92835" lon="4.72993">
        <ele>170</ele>
        <time>2017-12-22T11:35:02Z</time>
      </trkpt>
      <trkpt lat="45.92834" lon="4.72986">
        <ele>170</ele>
        <time>2017-12-22T11:35:03Z</time>
      </trkpt>
      <trkpt lat="45.92832" lon="4.72979">
        <ele>170</ele>
        <time>2017-12-22T11:35:04Z</time>
      </trkpt>
      <trkpt lat="45.92831" lon="4.72972">
        <ele>170</ele>
        <time>2017-12-22T11:35:05Z</time>
      </trkpt>
      <trkpt lat="45.9283" lon="4.72964">
        <ele>170</ele>
        <time>2017-12-22T11:35:06Z</time>
      </trkpt>
      <trkpt lat="45.92829" lon="4.72957">
        <ele>170</ele>
        <time>2017-12-22T11:35:07Z</time>
      </trkpt>
      <trkpt lat="45.92829" lon="4.72949">
        <ele>170</ele>
        <time>2017-12-22T11:35:08Z</time>
      </trkpt>
      <trkpt lat="45.92827" lon="4.72941">
        <ele>170</ele>
        <time>2017-12-22T11:35:09Z</time>
      </trkpt>
      <trkpt lat="45.92826" lon="4.72932">
        <ele>170</ele>
        <time>2017-12-22T11:35:10Z</time>
      </trkpt>
      <trkpt lat="45.92825" lon="4.72923">
        <ele>170</ele>
        <time>2017-12-22T11:35:11Z</time>
      </trkpt>
      <trkpt lat="45.92824" lon="4.72915">
        <ele>170</ele>
        <time>2017-12-22T11:35:12Z</time>
      </trkpt>
      <trkpt lat="45.92823" lon="4.72906">
        <ele>170</ele>
        <time>2017-12-22T11:35:13Z</time>
      </trkpt>
      <trkpt lat="45.92821" lon="4.72899">
        <ele>170</ele>
        <time>2017-12-22T11:35:14Z</time>
      </trkpt>
      <trkpt lat="45.9282" lon="4.72892">
        <ele>170</ele>
        <time>2017-12-22T11:35:15Z</time>
      </trkpt>
      <trkpt lat="45.92819" lon="4.72884">
        <ele>170</ele>
        <time>2017-12-22T11:35:16Z</time>
      </trkpt>
      <trkpt lat="45.92817" lon="4.72877">
        <ele>170</ele>
        <time>2017-12-22T11:35:17Z</time>
      </trkpt>
      <trkpt lat="45.92816" lon="4.7287">
        <ele>170</ele>
        <time>2017-12-22T11:35:18Z</time>
      </trkpt>
      <trkpt lat="45.92815" lon="4.72863">
        <ele>170</ele>
        <time>2017-12-22T11:35:19Z</time>
      </trkpt>
      <trkpt lat="45.92814" lon="4.72851">
        <ele>170</ele>
        <time>2017-12-22T11:35:21Z</time>
      </trkpt>
      <trkpt lat="45.92813" lon="4.72845">
        <ele>170</ele>
        <time>2017-12-22T11:35:22Z</time>
      </trkpt>
      <trkpt lat="45.92812" lon="4.72839">
        <ele>170</ele>
        <time>2017-12-22T11:35:23Z</time>
      </trkpt>
      <trkpt lat="45.9281" lon="4.72833">
        <ele>171</ele>
        <time>2017-12-22T11:35:24Z</time>
      </trkpt>
      <trkpt lat="45.9281" lon="4.72825">
        <ele>171</ele>
        <time>2017-12-22T11:35:25Z</time>
      </trkpt>
      <trkpt lat="45.92809" lon="4.72819">
        <ele>171</ele>
        <time>2017-12-22T11:35:26Z</time>
      </trkpt>
      <trkpt lat="45.92807" lon="4.72812">
        <ele>171</ele>
        <time>2017-12-22T11:35:27Z</time>
      </trkpt>
      <trkpt lat="45.92806" lon="4.72805">
        <ele>171</ele>
        <time>2017-12-22T11:35:28Z</time>
      </trkpt>
      <trkpt lat="45.92804" lon="4.72792">
        <ele>171</ele>
        <time>2017-12-22T11:35:30Z</time>
      </trkpt>
      <trkpt lat="45.92801" lon="4.72788">
        <ele>171</ele>
        <time>2017-12-22T11:35:31Z</time>
      </trkpt>
      <trkpt lat="45.92794" lon="4.72786">
        <ele>171</ele>
        <time>2017-12-22T11:35:33Z</time>
      </trkpt>
      <trkpt lat="45.9279" lon="4.72788">
        <ele>171</ele>
        <time>2017-12-22T11:35:34Z</time>
      </trkpt>
      <trkpt lat="45.92783" lon="4.72795">
        <ele>170</ele>
        <time>2017-12-22T11:35:36Z</time>
      </trkpt>
      <trkpt lat="45.92779" lon="4.72798">
        <ele>170</ele>
        <time>2017-12-22T11:35:37Z</time>
      </trkpt>
      <trkpt lat="45.92775" lon="4.72801">
        <ele>170</ele>
        <time>2017-12-22T11:35:38Z</time>
      </trkpt>
      <trkpt lat="45.92768" lon="4.72804">
        <ele>170</ele>
        <time>2017-12-22T11:35:39Z</time>
      </trkpt>
      <trkpt lat="45.92764" lon="4.72807">
        <ele>170</ele>
        <time>2017-12-22T11:35:40Z</time>
      </trkpt>
      <trkpt lat="45.92759" lon="4.72811">
        <ele>170</ele>
        <time>2017-12-22T11:35:41Z</time>
      </trkpt>
      <trkpt lat="45.9275" lon="4.72817">
        <ele>170</ele>
        <time>2017-12-22T11:35:43Z</time>
      </trkpt>
      <trkpt lat="45.92746" lon="4.72821">
        <ele>169</ele>
        <time>2017-12-22T11:35:44Z</time>
      </trkpt>
      <trkpt lat="45.92741" lon="4.72825">
        <ele>169</ele>
        <time>2017-12-22T11:35:45Z</time>
      </trkpt>
      <trkpt lat="45.92735" lon="4.72829">
        <ele>169</ele>
        <time>2017-12-22T11:35:46Z</time>
      </trkpt>
      <trkpt lat="45.92729" lon="4.72833">
        <ele>169</ele>
        <time>2017-12-22T11:35:47Z</time>
      </trkpt>
      <trkpt lat="45.92723" lon="4.72837">
        <ele>169</ele>
        <time>2017-12-22T11:35:48Z</time>
      </trkpt>
      <trkpt lat="45.92719" lon="4.7284">
        <ele>169</ele>
        <time>2017-12-22T11:35:49Z</time>
      </trkpt>
      <trkpt lat="45.92714" lon="4.72843">
        <ele>169</ele>
        <time>2017-12-22T11:35:50Z</time>
      </trkpt>
      <trkpt lat="45.92709" lon="4.72847">
        <ele>169</ele>
        <time>2017-12-22T11:35:51Z</time>
      </trkpt>
      <trkpt lat="45.92704" lon="4.7285">
        <ele>169</ele>
        <time>2017-12-22T11:35:52Z</time>
      </trkpt>
      <trkpt lat="45.927" lon="4.72855">
        <ele>169</ele>
        <time>2017-12-22T11:35:53Z</time>
      </trkpt>
      <trkpt lat="45.92695" lon="4.72858">
        <ele>169</ele>
        <time>2017-12-22T11:35:54Z</time>
      </trkpt>
      <trkpt lat="45.92691" lon="4.72862">
        <ele>169</ele>
        <time>2017-12-22T11:35:55Z</time>
      </trkpt>
      <trkpt lat="45.92685" lon="4.72867">
        <ele>169</ele>
        <time>2017-12-22T11:35:56Z</time>
      </trkpt>
      <trkpt lat="45.92679" lon="4.72869">
        <ele>169</ele>
        <time>2017-12-22T11:35:57Z</time>
      </trkpt>
      <trkpt lat="45.92674" lon="4.72872">
        <ele>169</ele>
        <time>2017-12-22T11:35:58Z</time>
      </trkpt>
      <trkpt lat="45.9267" lon="4.72877">
        <ele>170</ele>
        <time>2017-12-22T11:35:59Z</time>
      </trkpt>
      <trkpt lat="45.92665" lon="4.72882">
        <ele>169</ele>
        <time>2017-12-22T11:36:00Z</time>
      </trkpt>
      <trkpt lat="45.92658" lon="4.72886">
        <ele>169</ele>
        <time>2017-12-22T11:36:01Z</time>
      </trkpt>
      <trkpt lat="45.92653" lon="4.72891">
        <ele>169</ele>
        <time>2017-12-22T11:36:02Z</time>
      </trkpt>
      <trkpt lat="45.92648" lon="4.72895">
        <ele>169</ele>
        <time>2017-12-22T11:36:03Z</time>
      </trkpt>
      <trkpt lat="45.92643" lon="4.72898">
        <ele>169</ele>
        <time>2017-12-22T11:36:04Z</time>
      </trkpt>
      <trkpt lat="45.92638" lon="4.72903">
        <ele>169</ele>
        <time>2017-12-22T11:36:05Z</time>
      </trkpt>
      <trkpt lat="45.92634" lon="4.72908">
        <ele>169</ele>
        <time>2017-12-22T11:36:06Z</time>
      </trkpt>
      <trkpt lat="45.92628" lon="4.72912">
        <ele>169</ele>
        <time>2017-12-22T11:36:07Z</time>
      </trkpt>
      <trkpt lat="45.92622" lon="4.72917">
        <ele>169</ele>
        <time>2017-12-22T11:36:08Z</time>
      </trkpt>
      <trkpt lat="45.92617" lon="4.72922">
        <ele>169</ele>
        <time>2017-12-22T11:36:09Z</time>
      </trkpt>
      <trkpt lat="45.92612" lon="4.72926">
        <ele>169</ele>
        <time>2017-12-22T11:36:10Z</time>
      </trkpt>
      <trkpt lat="45.92606" lon="4.72931">
        <ele>169</ele>
        <time>2017-12-22T11:36:11Z</time>
      </trkpt>
      <trkpt lat="45.92602" lon="4.72936">
        <ele>169</ele>
        <time>2017-12-22T11:36:12Z</time>
      </trkpt>
      <trkpt lat="45.92596" lon="4.72941">
        <ele>169</ele>
        <time>2017-12-22T11:36:13Z</time>
      </trkpt>
      <trkpt lat="45.92591" lon="4.72947">
        <ele>169</ele>
        <time>2017-12-22T11:36:14Z</time>
      </trkpt>
      <trkpt lat="45.92587" lon="4.72954">
        <ele>169</ele>
        <time>2017-12-22T11:36:15Z</time>
      </trkpt>
      <trkpt lat="45.92582" lon="4.72959">
        <ele>169</ele>
        <time>2017-12-22T11:36:16Z</time>
      </trkpt>
      <trkpt lat="45.92577" lon="4.72965">
        <ele>169</ele>
        <time>2017-12-22T11:36:17Z</time>
      </trkpt>
      <trkpt lat="45.92573" lon="4.72969">
        <ele>169</ele>
        <time>2017-12-22T11:36:18Z</time>
      </trkpt>
      <trkpt lat="45.92568" lon="4.72973">
        <ele>169</ele>
        <time>2017-12-22T11:36:19Z</time>
      </trkpt>
      <trkpt lat="45.92563" lon="4.72978">
        <ele>169</ele>
        <time>2017-12-22T11:36:20Z</time>
      </trkpt>
      <trkpt lat="45.92558" lon="4.72983">
        <ele>169</ele>
        <time>2017-12-22T11:36:21Z</time>
      </trkpt>
      <trkpt lat="45.92553" lon="4.72988">
        <ele>169</ele>
        <time>2017-12-22T11:36:22Z</time>
      </trkpt>
      <trkpt lat="45.92548" lon="4.72993">
        <ele>169</ele>
        <time>2017-12-22T11:36:23Z</time>
      </trkpt>
      <trkpt lat="45.92543" lon="4.72998">
        <ele>169</ele>
        <time>2017-12-22T11:36:24Z</time>
      </trkpt>
      <trkpt lat="45.92538" lon="4.73005">
        <ele>169</ele>
        <time>2017-12-22T11:36:25Z</time>
      </trkpt>
      <trkpt lat="45.92534" lon="4.7301">
        <ele>169</ele>
        <time>2017-12-22T11:36:26Z</time>
      </trkpt>
      <trkpt lat="45.92528" lon="4.73013">
        <ele>169</ele>
        <time>2017-12-22T11:36:27Z</time>
      </trkpt>
      <trkpt lat="45.92521" lon="4.73018">
        <ele>169</ele>
        <time>2017-12-22T11:36:28Z</time>
      </trkpt>
      <trkpt lat="45.92516" lon="4.73022">
        <ele>169</ele>
        <time>2017-12-22T11:36:29Z</time>
      </trkpt>
      <trkpt lat="45.92509" lon="4.73028">
        <ele>169</ele>
        <time>2017-12-22T11:36:30Z</time>
      </trkpt>
      <trkpt lat="45.92503" lon="4.73031">
        <ele>169</ele>
        <time>2017-12-22T11:36:31Z</time>
      </trkpt>
      <trkpt lat="45.92497" lon="4.73035">
        <ele>170</ele>
        <time>2017-12-22T11:36:32Z</time>
      </trkpt>
      <trkpt lat="45.92492" lon="4.7304">
        <ele>170</ele>
        <time>2017-12-22T11:36:33Z</time>
      </trkpt>
      <trkpt lat="45.92487" lon="4.73046">
        <ele>170</ele>
        <time>2017-12-22T11:36:34Z</time>
      </trkpt>
      <trkpt lat="45.9248" lon="4.73051">
        <ele>170</ele>
        <time>2017-12-22T11:36:35Z</time>
      </trkpt>
      <trkpt lat="45.92475" lon="4.73056">
        <ele>170</ele>
        <time>2017-12-22T11:36:36Z</time>
      </trkpt>
      <trkpt lat="45.92468" lon="4.73061">
        <ele>170</ele>
        <time>2017-12-22T11:36:37Z</time>
      </trkpt>
      <trkpt lat="45.92463" lon="4.73066">
        <ele>170</ele>
        <time>2017-12-22T11:36:38Z</time>
      </trkpt>
      <trkpt lat="45.92456" lon="4.7307">
        <ele>170</ele>
        <time>2017-12-22T11:36:39Z</time>
      </trkpt>
      <trkpt lat="45.92451" lon="4.73075">
        <ele>170</ele>
        <time>2017-12-22T11:36:40Z</time>
      </trkpt>
      <trkpt lat="45.92445" lon="4.73079">
        <ele>170</ele>
        <time>2017-12-22T11:36:41Z</time>
      </trkpt>
      <trkpt lat="45.9244" lon="4.73084">
        <ele>171</ele>
        <time>2017-12-22T11:36:42Z</time>
      </trkpt>
      <trkpt lat="45.92435" lon="4.73089">
        <ele>171</ele>
        <time>2017-12-22T11:36:43Z</time>
      </trkpt>
      <trkpt lat="45.9243" lon="4.73093">
        <ele>171</ele>
        <time>2017-12-22T11:36:44Z</time>
      </trkpt>
      <trkpt lat="45.92425" lon="4.73098">
        <ele>171</ele>
        <time>2017-12-22T11:36:45Z</time>
      </trkpt>
      <trkpt lat="45.92421" lon="4.73102">
        <ele>171</ele>
        <time>2017-12-22T11:36:46Z</time>
      </trkpt>
      <trkpt lat="45.92416" lon="4.73106">
        <ele>171</ele>
        <time>2017-12-22T11:36:47Z</time>
      </trkpt>
      <trkpt lat="45.92412" lon="4.7311">
        <ele>171</ele>
        <time>2017-12-22T11:36:48Z</time>
      </trkpt>
      <trkpt lat="45.92409" lon="4.73115">
        <ele>171</ele>
        <time>2017-12-22T11:36:49Z</time>
      </trkpt>
      <trkpt lat="45.92406" lon="4.73121">
        <ele>171</ele>
        <time>2017-12-22T11:36:50Z</time>
      </trkpt>
      <trkpt lat="45.92407" lon="4.73129">
        <ele>171</ele>
        <time>2017-12-22T11:36:51Z</time>
      </trkpt>
      <trkpt lat="45.92407" lon="4.73136">
        <ele>171</ele>
        <time>2017-12-22T11:36:52Z</time>
      </trkpt>
      <trkpt lat="45.92408" lon="4.73143">
        <ele>171</ele>
        <time>2017-12-22T11:36:53Z</time>
      </trkpt>
      <trkpt lat="45.92409" lon="4.7315">
        <ele>171</ele>
        <time>2017-12-22T11:36:54Z</time>
      </trkpt>
      <trkpt lat="45.92409" lon="4.73157">
        <ele>170</ele>
        <time>2017-12-22T11:36:55Z</time>
      </trkpt>
      <trkpt lat="45.92409" lon="4.73165">
        <ele>170</ele>
        <time>2017-12-22T11:36:56Z</time>
      </trkpt>
      <trkpt lat="45.9241" lon="4.73173">
        <ele>170</ele>
        <time>2017-12-22T11:36:57Z</time>
      </trkpt>
      <trkpt lat="45.92411" lon="4.73182">
        <ele>171</ele>
        <time>2017-12-22T11:36:58Z</time>
      </trkpt>
      <trkpt lat="45.92411" lon="4.73193">
        <ele>171</ele>
        <time>2017-12-22T11:36:59Z</time>
      </trkpt>
      <trkpt lat="45.92412" lon="4.73202">
        <ele>171</ele>
        <time>2017-12-22T11:37:00Z</time>
      </trkpt>
      <trkpt lat="45.92413" lon="4.7321">
        <ele>171</ele>
        <time>2017-12-22T11:37:01Z</time>
      </trkpt>
      <trkpt lat="45.92412" lon="4.73218">
        <ele>171</ele>
        <time>2017-12-22T11:37:02Z</time>
      </trkpt>
      <trkpt lat="45.92413" lon="4.73226">
        <ele>171</ele>
        <time>2017-12-22T11:37:03Z</time>
      </trkpt>
      <trkpt lat="45.92413" lon="4.73233">
        <ele>171</ele>
        <time>2017-12-22T11:37:04Z</time>
      </trkpt>
      <trkpt lat="45.92414" lon="4.7324">
        <ele>171</ele>
        <time>2017-12-22T11:37:05Z</time>
      </trkpt>
      <trkpt lat="45.92415" lon="4.73247">
        <ele>171</ele>
        <time>2017-12-22T11:37:06Z</time>
      </trkpt>
      <trkpt lat="45.92415" lon="4.73256">
        <ele>171</ele>
        <time>2017-12-22T11:37:07Z</time>
      </trkpt>
      <trkpt lat="45.92416" lon="4.73265">
        <ele>171</ele>
        <time>2017-12-22T11:37:08Z</time>
      </trkpt>
      <trkpt lat="45.92416" lon="4.73274">
        <ele>171</ele>
        <time>2017-12-22T11:37:09Z</time>
      </trkpt>
      <trkpt lat="45.92417" lon="4.73285">
        <ele>171</ele>
        <time>2017-12-22T11:37:10Z</time>
      </trkpt>
      <trkpt lat="45.92418" lon="4.73292">
        <ele>171</ele>
        <time>2017-12-22T11:37:11Z</time>
      </trkpt>
      <trkpt lat="45.92419" lon="4.733">
        <ele>171</ele>
        <time>2017-12-22T11:37:12Z</time>
      </trkpt>
      <trkpt lat="45.92419" lon="4.73307">
        <ele>171</ele>
        <time>2017-12-22T11:37:13Z</time>
      </trkpt>
      <trkpt lat="45.92421" lon="4.73314">
        <ele>171</ele>
        <time>2017-12-22T11:37:14Z</time>
      </trkpt>
      <trkpt lat="45.92422" lon="4.73321">
        <ele>171</ele>
        <time>2017-12-22T11:37:15Z</time>
      </trkpt>
      <trkpt lat="45.92422" lon="4.73329">
        <ele>171</ele>
        <time>2017-12-22T11:37:16Z</time>
      </trkpt>
      <trkpt lat="45.92423" lon="4.73335">
        <ele>171</ele>
        <time>2017-12-22T11:37:17Z</time>
      </trkpt>
      <trkpt lat="45.92424" lon="4.73342">
        <ele>171</ele>
        <time>2017-12-22T11:37:18Z</time>
      </trkpt>
      <trkpt lat="45.92425" lon="4.73354">
        <ele>171</ele>
        <time>2017-12-22T11:37:20Z</time>
      </trkpt>
      <trkpt lat="45.92427" lon="4.7336">
        <ele>172</ele>
        <time>2017-12-22T11:37:21Z</time>
      </trkpt>
      <trkpt lat="45.92428" lon="4.73367">
        <ele>172</ele>
        <time>2017-12-22T11:37:22Z</time>
      </trkpt>
      <trkpt lat="45.9243" lon="4.73374">
        <ele>172</ele>
        <time>2017-12-22T11:37:23Z</time>
      </trkpt>
      <trkpt lat="45.92432" lon="4.7338">
        <ele>172</ele>
        <time>2017-12-22T11:37:24Z</time>
      </trkpt>
      <trkpt lat="45.92434" lon="4.73387">
        <ele>172</ele>
        <time>2017-12-22T11:37:25Z</time>
      </trkpt>
      <trkpt lat="45.92435" lon="4.73395">
        <ele>172</ele>
        <time>2017-12-22T11:37:26Z</time>
      </trkpt>
      <trkpt lat="45.92437" lon="4.73402">
        <ele>172</ele>
        <time>2017-12-22T11:37:27Z</time>
      </trkpt>
      <trkpt lat="45.92439" lon="4.7341">
        <ele>172</ele>
        <time>2017-12-22T11:37:28Z</time>
      </trkpt>
      <trkpt lat="45.92442" lon="4.73415">
        <ele>172</ele>
        <time>2017-12-22T11:37:29Z</time>
      </trkpt>
      <trkpt lat="45.92447" lon="4.73419">
        <ele>173</ele>
        <time>2017-12-22T11:37:30Z</time>
      </trkpt>
      <trkpt lat="45.9245" lon="4.73422">
        <ele>173</ele>
        <time>2017-12-22T11:37:31Z</time>
      </trkpt>
      <trkpt lat="45.92457" lon="4.73429">
        <ele>173</ele>
        <time>2017-12-22T11:37:33Z</time>
      </trkpt>
      <trkpt lat="45.9246" lon="4.73432">
        <ele>173</ele>
        <time>2017-12-22T11:37:34Z</time>
      </trkpt>
      <trkpt lat="45.92467" lon="4.73439">
        <ele>173</ele>
        <time>2017-12-22T11:37:36Z</time>
      </trkpt>
      <trkpt lat="45.9247" lon="4.73444">
        <ele>173</ele>
        <time>2017-12-22T11:37:37Z</time>
      </trkpt>
      <trkpt lat="45.92472" lon="4.73455">
        <ele>173</ele>
        <time>2017-12-22T11:37:39Z</time>
      </trkpt>
      <trkpt lat="45.92473" lon="4.73462">
        <ele>173</ele>
        <time>2017-12-22T11:37:40Z</time>
      </trkpt>
      <trkpt lat="45.92473" lon="4.73474">
        <ele>173</ele>
        <time>2017-12-22T11:37:42Z</time>
      </trkpt>
      <trkpt lat="45.92473" lon="4.73479">
        <ele>173</ele>
        <time>2017-12-22T11:37:43Z</time>
      </trkpt>
      <trkpt lat="45.92475" lon="4.73488">
        <ele>173</ele>
        <time>2017-12-22T11:37:45Z</time>
      </trkpt>
      <trkpt lat="45.92474" lon="4.73497">
        <ele>173</ele>
        <time>2017-12-22T11:37:46Z</time>
      </trkpt>
      <trkpt lat="45.92474" lon="4.73502">
        <ele>174</ele>
        <time>2017-12-22T11:37:47Z</time>
      </trkpt>
      <trkpt lat="45.92473" lon="4.7351">
        <ele>174</ele>
        <time>2017-12-22T11:37:48Z</time>
      </trkpt>
      <trkpt lat="45.92472" lon="4.73523">
        <ele>174</ele>
        <time>2017-12-22T11:37:50Z</time>
      </trkpt>
      <trkpt lat="45.92472" lon="4.7353">
        <ele>174</ele>
        <time>2017-12-22T11:37:51Z</time>
      </trkpt>
      <trkpt lat="45.92473" lon="4.73539">
        <ele>174</ele>
        <time>2017-12-22T11:37:53Z</time>
      </trkpt>
      <trkpt lat="45.92472" lon="4.73543">
        <ele>173</ele>
        <time>2017-12-22T11:37:54Z</time>
      </trkpt>
      <trkpt lat="45.92472" lon="4.73555">
        <ele>173</ele>
        <time>2017-12-22T11:37:56Z</time>
      </trkpt>
      <trkpt lat="45.92471" lon="4.7356">
        <ele>173</ele>
        <time>2017-12-22T11:37:57Z</time>
      </trkpt>
      <trkpt lat="45.92472" lon="4.73573">
        <ele>173</ele>
        <time>2017-12-22T11:37:59Z</time>
      </trkpt>
      <trkpt lat="45.92472" lon="4.7358">
        <ele>173</ele>
        <time>2017-12-22T11:38:00Z</time>
      </trkpt>
      <trkpt lat="45.92472" lon="4.73586">
        <ele>174</ele>
        <time>2017-12-22T11:38:01Z</time>
      </trkpt>
      <trkpt lat="45.92472" lon="4.73594">
        <ele>174</ele>
        <time>2017-12-22T11:38:02Z</time>
      </trkpt>
      <trkpt lat="45.92473" lon="4.736">
        <ele>174</ele>
        <time>2017-12-22T11:38:03Z</time>
      </trkpt>
      <trkpt lat="45.92474" lon="4.73607">
        <ele>174</ele>
        <time>2017-12-22T11:38:04Z</time>
      </trkpt>
      <trkpt lat="45.92474" lon="4.73613">
        <ele>174</ele>
        <time>2017-12-22T11:38:05Z</time>
      </trkpt>
      <trkpt lat="45.92475" lon="4.7362">
        <ele>174</ele>
        <time>2017-12-22T11:38:06Z</time>
      </trkpt>
      <trkpt lat="45.92475" lon="4.73626">
        <ele>174</ele>
        <time>2017-12-22T11:38:07Z</time>
      </trkpt>
      <trkpt lat="45.92474" lon="4.73635">
        <ele>174</ele>
        <time>2017-12-22T11:38:08Z</time>
      </trkpt>
      <trkpt lat="45.92473" lon="4.73641">
        <ele>174</ele>
        <time>2017-12-22T11:38:09Z</time>
      </trkpt>
      <trkpt lat="45.92473" lon="4.73649">
        <ele>174</ele>
        <time>2017-12-22T11:38:10Z</time>
      </trkpt>
      <trkpt lat="45.92473" lon="4.73655">
        <ele>174</ele>
        <time>2017-12-22T11:38:11Z</time>
      </trkpt>
      <trkpt lat="45.92473" lon="4.73665">
        <ele>174</ele>
        <time>2017-12-22T11:38:12Z</time>
      </trkpt>
      <trkpt lat="45.92474" lon="4.73676">
        <ele>174</ele>
        <time>2017-12-22T11:38:14Z</time>
      </trkpt>
      <trkpt lat="45.92474" lon="4.73682">
        <ele>174</ele>
        <time>2017-12-22T11:38:15Z</time>
      </trkpt>
      <trkpt lat="45.92473" lon="4.73693">
        <ele>174</ele>
        <time>2017-12-22T11:38:17Z</time>
      </trkpt>
      <trkpt lat="45.92472" lon="4.73696">
        <ele>174</ele>
        <time>2017-12-22T11:38:18Z</time>
      </trkpt>
      <trkpt lat="45.9247" lon="4.73706">
        <ele>174</ele>
        <time>2017-12-22T11:38:30Z</time>
      </trkpt>
      <trkpt lat="45.92469" lon="4.73706">
        <ele>174</ele>
        <time>2017-12-22T11:38:31Z</time>
      </trkpt>
      <trkpt lat="45.9247" lon="4.73708">
        <ele>174</ele>
        <time>2017-12-22T11:38:32Z</time>
      </trkpt>
      <trkpt lat="45.92469" lon="4.7371">
        <ele>174</ele>
        <time>2017-12-22T11:38:35Z</time>
      </trkpt>
      <trkpt lat="45.92469" lon="4.7371">
        <ele>174</ele>
        <time>2017-12-22T11:38:36Z</time>
      </trkpt>
      <trkpt lat="45.9247" lon="4.7371">
        <ele>174</ele>
        <time>2017-12-22T11:38:37Z</time>
      </trkpt>
      <trkpt lat="45.92466" lon="4.73712">
        <ele>174</ele>
        <time>2017-12-22T11:39:08.238Z</time>
      </trkpt>
    </trkseg>
  </trk>
</gpx>